<
# Wetter Temperatur Luftdruck Luftfeuchtigkeit Sichtweite Windgeschwindigkeit Windrichtung Zeit
1 Rain 14 1025 87 10000 3.1 140 07:18 11.07.2020
2 Clouds 13 1024 87 10000 4.1 130 06:25 11.07.2020
3 Clouds 13 1024 87 10000 4.6 140 05:54 11.07.2020
4 Clouds 13 1024 87 10000 5.7 120 05:19 11.07.2020
5 Clouds 13 1023 87 10000 7.7 100 04:39 11.07.2020
6 Clouds 13 1023 87 10000 7.7 100 04:19 11.07.2020
7 Clouds 13 1023 93 10000 3.1 150 02:53 11.07.2020
8 Clouds 13 1023 93 10000 4.1 120 01:57 11.07.2020
9 Clouds 13 1024 93 10000 5.7 110 01:21 11.07.2020
10 Clouds 13 1024 93 10000 4.6 110 00:55 11.07.2020
11 Clouds 13 1024 93 10000 5.1 110 00:36 11.07.2020
12 Clouds 13 1024 93 10000 5.1 110 00:18 11.07.2020
13 Drizzle 12 1025 100 4500 4.6 120 23:44 10.07.2020
14 Drizzle 12 1025 100 4500 4.6 120 23:26 10.07.2020
15 Drizzle 13 1025 82 10000 3.1 140 22:50 10.07.2020
16 Clouds 13 1025 82 10000 2.6 140 22:25 10.07.2020
17 Clouds 13 1025 82 10000 3.6 140 21:59 10.07.2020
18 Clouds 12 1026 87 10000 3.6 140 21:38 10.07.2020
19 Clouds 12 1026 87 10000 3.6 140 21:20 10.07.2020
20 Clouds 12 1026 93 10000 3.1 140 20:54 10.07.2020
21 Clouds 12 1026 93 10000 3.1 140 20:54 10.07.2020
22 Drizzle 13 1025 87 10000 5.7 120 20:36 10.07.2020
23 Drizzle 13 1025 87 10000 5.7 120 20:18 10.07.2020
24 Clouds 14 1025 82 10000 4.1 130 19:42 10.07.2020
25 Clouds 14 1025 82 10000 4.1 130 19:21 10.07.2020
26 Clouds 14 1025 76 10000 4.1 150 18:55 10.07.2020
27 Clouds 15 1024 72 10000 4.1 130 18:37 10.07.2020
28 Clouds 15 1024 72 10000 4.1 130 18:18 10.07.2020
29 Clouds 15 1024 67 10000 4.6 130 17:42 10.07.2020
30 Clouds 15 1024 67 10000 4.6 130 17:22 10.07.2020
31 Clouds 16 1024 59 10000 5.7 130 16:57 10.07.2020
32 Clouds 16 1024 59 10000 6.2 130 16:39 10.07.2020
33 Clouds 16 1024 59 10000 6.2 130 16:18 10.07.2020
34 Clouds 17 1024 55 10000 7.2 120 15:43 10.07.2020
35 Clouds 17 1024 55 10000 7.2 120 15:21 10.07.2020
36 Clouds 17 1023 55 10000 7.7 110 14:44 10.07.2020
37 Clouds 17 1023 55 10000 7.7 110 14:23 10.07.2020
38 Clouds 18 1023 55 10000 8.2 110 13:58 10.07.2020
39 Clouds 18 1024 55 10000 6.7 140 13:40 10.07.2020
40 Clouds 18 1024 55 10000 6.7 140 13:22 10.07.2020
41 Clouds 17 1024 55 10000 7.2 130 12:59 10.07.2020
42 Clouds 17 1024 59 10000 5.7 130 12:40 10.07.2020
43 Clouds 17 1024 59 10000 5.7 130 12:22 10.07.2020
44 Clouds 16 1025 63 10000 5.7 130 11:43 10.07.2020
45 Clouds 16 1025 63 10000 5.7 130 11:24 10.07.2020
46 Clouds 16 1026 67 10000 6.7 120 10:59 10.07.2020
47 Clouds 16 1026 67 10000 6.7 120 10:59 10.07.2020
48 Clouds 15 1026 72 10000 8.7 110 10:41 10.07.2020
49 Clouds 15 1026 72 10000 8.7 110 10:21 10.07.2020
50 Clouds 14 1026 76 10000 10.3 110 09:55 10.07.2020
51 Clouds 15 1026 82 10000 5.1 140 09:36 10.07.2020
52 Clouds 15 1026 77 10000 4.6 140 09:18 10.07.2020
53 Clouds 15 1026 72 10000 5.7 130 08:43 10.07.2020
54 Clouds 15 1026 72 10000 5.7 130 08:25 10.07.2020
55 Clouds 14 1026 76 10000 4.6 130 07:58 10.07.2020
56 Drizzle 13 1025 87 10000 5.1 120 07:39 10.07.2020
57 Drizzle 13 1025 87 10000 5.1 120 07:19 10.07.2020
58 Clouds 12 1025 87 10000 2.6 160 06:43 10.07.2020
59 Drizzle 11 1025 93 8000 3.6 170 05:50 10.07.2020
60 Clouds 12 1025 81 10000 5.1 170 04:29 10.07.2020
61 Clouds 11 1025 81 10000 4.1 170 02:55 10.07.2020
62 Clouds 11 1025 81 10000 4.1 170 02:35 10.07.2020
63 Clouds 12 1026 71 10000 4.6 160 00:56 10.07.2020
64 Clouds 12 1026 71 10000 2.6 150 00:38 10.07.2020
65 Clouds 11 1026 76 10000 2.6 160 00:18 10.07.2020
66 Clouds 12 1026 76 10000 3.1 160 23:38 09.07.2020
67 Clouds 12 1026 76 10000 3.1 160 23:19 09.07.2020
68 Clouds 12 1026 76 10000 3.1 170 22:56 09.07.2020
69 Clouds 12 1027 71 10000 4.1 160 22:38 09.07.2020
70 Clouds 12 1027 71 10000 4.1 160 22:20 09.07.2020
71 Clouds 12 1027 76 10000 5.7 110 21:55 09.07.2020
72 Clouds 13 1027 71 10000 7.2 120 21:36 09.07.2020
73 Clouds 13 1027 71 10000 7.2 120 21:36 09.07.2020
74 Clouds 13 1027 71 10000 7.2 120 21:18 09.07.2020
75 Clouds 13 1027 71 10000 4.6 140 20:41 09.07.2020
76 Clouds 13 1027 71 10000 4.6 140 20:23 09.07.2020
77 Clouds 14 1026 67 10000 6.2 150 19:43 09.07.2020
78 Clouds 14 1026 67 10000 6.2 150 19:22 09.07.2020
79 Clouds 14 1026 67 10000 6.2 150 19:22 09.07.2020
80 Clouds 14 1026 71 10000 5.1 140 18:59 09.07.2020
81 Clouds 14 1025 71 10000 5.7 140 18:41 09.07.2020
82 Clouds 14 1025 71 10000 5.7 140 18:19 09.07.2020
83 Clouds 14 1025 67 10000 4.6 140 17:43 09.07.2020
84 Clouds 14 1025 67 10000 4.6 140 17:24 09.07.2020
85 Clouds 15 1025 62 10000 4.6 140 16:58 09.07.2020
86 Clouds 17 1024 55 10000 5.1 130 16:39 09.07.2020
87 Clouds 17 1024 55 10000 5.1 130 16:19 09.07.2020
88 Clouds 17 1024 55 10000 5.1 130 16:19 09.07.2020
89 Clouds 17 1024 59 10000 5.7 130 15:59 09.07.2020
90 Clouds 17 1024 55 10000 6.2 140 15:38 09.07.2020
91 Clouds 17 1024 55 10000 6.2 140 15:38 09.07.2020
92 Clouds 17 1024 55 10000 6.2 140 15:20 09.07.2020
93 Clouds 18 1024 52 10000 6.2 140 14:58 09.07.2020
94 Clouds 18 1024 55 10000 6.7 150 14:40 09.07.2020
95 Clouds 18 1024 55 10000 6.7 150 14:21 09.07.2020
96 Clouds 19 1024 48 10000 6.2 150 13:56 09.07.2020
97 Clouds 20 1024 49 10000 6.2 130 13:38 09.07.2020
98 Clouds 20 1024 49 10000 6.2 130 13:19 09.07.2020
99 Clouds 18 1025 55 10000 6.7 160 12:42 09.07.2020
100 Clouds 18 1025 55 10000 6.7 160 12:24 09.07.2020
101 Clouds 18 1025 55 10000 6.7 160 12:24 09.07.2020
102 Clouds 20 1025 49 10000 5.7 130 11:58 09.07.2020
103 Clouds 19 1026 48 10000 7.7 120 11:40 09.07.2020
104 Clouds 19 1026 48 10000 7.7 120 11:19 09.07.2020
105 Clouds 18 1026 55 10000 5.1 150 10:56 09.07.2020
106 Clouds 17 1027 55 10000 5.7 170 10:38 09.07.2020
107 Clouds 17 1027 55 10000 5.7 170 10:19 09.07.2020
108 Clouds 17 1027 55 10000 6.2 160 09:43 09.07.2020
109 Clouds 17 1027 55 10000 6.2 160 09:23 09.07.2020
110 Clouds 16 1028 59 10000 5.7 150 08:52 09.07.2020
111 Clouds 15 1028 62 10000 4.6 150 08:27 09.07.2020
112 Clouds 15 1028 67 10000 5.1 130 07:56 09.07.2020
113 Clouds 14 1027 71 10000 4.1 150 07:38 09.07.2020
114 Clouds 14 1027 71 10000 4.1 150 07:20 09.07.2020
115 Clouds 13 1027 82 10000 5.1 160 06:21 09.07.2020
116 Clouds 13 1026 87 10000 4.6 170 05:53 09.07.2020
117 Clouds 13 1026 93 10000 4.6 170 04:29 09.07.2020
118 Clouds 13 1025 87 10000 3.6 160 03:19 09.07.2020
119 Clouds 13 1025 87 10000 3.6 160 03:19 09.07.2020
120 Clouds 13 1026 87 10000 3.1 130 01:55 09.07.2020
121 Clouds 14 1026 82 10000 4.6 140 00:59 09.07.2020
122 Clouds 14 1026 82 10000 4.6 140 00:40 09.07.2020
123 Clouds 14 1026 82 10000 4.6 140 00:21 09.07.2020
124 Clouds 14 1026 82 10000 5.1 160 23:43 08.07.2020
125 Clouds 14 1026 82 10000 5.1 160 23:25 08.07.2020
126 Clouds 13 1027 87 10000 3.6 150 22:55 08.07.2020
127 Clouds 14 1027 82 10000 3.6 140 22:36 08.07.2020
128 Clouds 14 1027 82 10000 3.6 140 22:18 08.07.2020
129 Clouds 15 1027 82 10000 3.6 160 21:40 08.07.2020
130 Clouds 15 1027 82 10000 3.6 160 21:22 08.07.2020
131 Clouds 15 1027 82 10000 4.1 150 20:59 08.07.2020
132 Clouds 15 1027 82 10000 3.6 140 20:41 08.07.2020
133 Clouds 15 1027 82 10000 3.6 140 20:23 08.07.2020
134 Clouds 15 1026 82 10000 4.6 140 19:54 08.07.2020
135 Clouds 16 1026 77 10000 4.1 140 19:36 08.07.2020
136 Clouds 16 1026 77 10000 4.1 140 19:18 08.07.2020
137 Clouds 16 1026 77 10000 4.1 140 18:40 08.07.2020
138 Clouds 16 1026 77 10000 4.1 140 18:21 08.07.2020
139 Clouds 16 1025 77 10000 5.1 130 17:57 08.07.2020
140 Clouds 17 1025 72 10000 6.2 120 17:38 08.07.2020
141 Clouds 17 1025 72 10000 6.2 120 17:20 08.07.2020
142 Clouds 17 1025 72 10000 6.2 120 17:20 08.07.2020
143 Clouds 17 1025 72 10000 7.2 110 16:56 08.07.2020
144 Clouds 19 1024 63 10000 7.2 110 16:37 08.07.2020
145 Clouds 19 1024 63 10000 7.2 110 16:18 08.07.2020
146 Clouds 20 1024 60 10000 7.7 110 15:56 08.07.2020
147 Clouds 20 1024 64 10000 7.2 110 15:37 08.07.2020
148 Clouds 20 1024 64 10000 7.2 110 15:18 08.07.2020
149 Clouds 22 1024 56 10000 7.2 110 14:42 08.07.2020
150 Clouds 22 1024 56 10000 7.2 110 14:20 08.07.2020
151 Clouds 23 1023 53 10000 6.7 90 13:46 08.07.2020
152 Clouds 24 1024 50 10000 6.2 100 13:27 08.07.2020
153 Clouds 24 1024 50 10000 6.7 100 12:58 08.07.2020
154 Clouds 25 1024 47 10000 6.2 110 12:40 08.07.2020
155 Clouds 25 1024 47 10000 6.2 110 12:19 08.07.2020
156 Clouds 24 1025 50 10000 4.1 120 11:39 08.07.2020
157 Clouds 24 1025 50 10000 4.1 120 11:20 08.07.2020
158 Clouds 23 1026 56 10000 3.6 120 10:56 08.07.2020
159 Clouds 21 1026 64 10000 1.5 0 10:38 08.07.2020
160 Clouds 21 1026 64 10000 1.5 0 10:19 08.07.2020
161 Clouds 18 1027 72 10000 2.6 150 09:43 08.07.2020
162 Clouds 18 1027 72 10000 2.6 150 09:43 08.07.2020
163 Clouds 18 1027 72 10000 2.6 150 09:23 08.07.2020
164 Clouds 15 1027 87 10000 2.1 160 08:43 08.07.2020
165 Clouds 15 1027 87 10000 2.1 160 08:24 08.07.2020
166 Clouds 15 1027 87 10000 2.6 130 07:48 08.07.2020
167 Clouds 14 1027 87 10000 2.6 150 07:24 08.07.2020
168 Clouds 14 1026 87 10000 2.6 130 06:56 08.07.2020
169 Clouds 14 1026 87 10000 2.6 170 06:37 08.07.2020
170 Clouds 14 1026 87 10000 2.6 160 05:55 08.07.2020
171 Clouds 14 1026 87 10000 2.6 170 05:33 08.07.2020
172 Clouds 14 1025 87 10000 2.1 140 04:37 08.07.2020
173 Clouds 14 1025 87 10000 1.5 140 02:49 08.07.2020
174 Clouds 14 1026 87 10000 2.6 170 01:54 08.07.2020
175 Clouds 14 1026 87 10000 2.6 170 01:32 08.07.2020
176 Clouds 14 1026 87 10000 2.1 160 00:28 08.07.2020
177 Clouds 15 1026 82 10000 2.6 130 23:59 07.07.2020
178 Clouds 15 1026 82 10000 2.6 130 23:41 07.07.2020
179 Clouds 15 1026 82 10000 2.6 130 23:19 07.07.2020
180 Clouds 15 1026 82 10000 3.6 130 22:44 07.07.2020
181 Clouds 15 1026 82 10000 3.6 130 22:24 07.07.2020
182 Clouds 15 1026 82 10000 3.6 100 21:59 07.07.2020
183 Clouds 15 1026 82 10000 3.6 100 21:40 07.07.2020
184 Clouds 15 1026 82 10000 3.6 100 21:21 07.07.2020
185 Clouds 15 1026 82 10000 4.1 110 20:57 07.07.2020
186 Clouds 15 1026 82 10000 4.1 110 20:39 07.07.2020
187 Clouds 15 1026 82 10000 4.1 110 20:21 07.07.2020
188 Clouds 15 1025 82 10000 4.1 120 19:41 07.07.2020
189 Clouds 15 1025 82 10000 4.1 120 19:21 07.07.2020
190 Clouds 15 1025 82 10000 4.1 120 18:58 07.07.2020
191 Clouds 15 1024 82 10000 4.1 100 18:40 07.07.2020
192 Clouds 15 1024 82 10000 4.1 100 18:21 07.07.2020
193 Clouds 15 1024 82 10000 3.6 90 17:58 07.07.2020
194 Clouds 16 1023 77 10000 4.1 100 17:38 07.07.2020
195 Clouds 16 1023 77 10000 4.1 100 17:20 07.07.2020
196 Clouds 16 1023 77 10000 4.1 100 17:20 07.07.2020
197 Clouds 19 1023 63 10000 5.7 110 16:43 07.07.2020
198 Clouds 19 1023 63 10000 5.7 110 16:24 07.07.2020
199 Clouds 20 1023 60 10000 5.7 110 15:58 07.07.2020
200 Clouds 21 1023 56 10000 5.1 120 15:39 07.07.2020
201 Clouds 21 1023 56 10000 5.1 120 15:20 07.07.2020
202 Clouds 22 1023 53 10000 4.6 110 14:47 07.07.2020
203 Clouds 22 1023 53 10000 5.7 100 14:26 07.07.2020
204 Clouds 23 1023 49 10000 4.1 110 13:57 07.07.2020
205 Clouds 22 1023 49 10000 4.1 120 13:38 07.07.2020
206 Clouds 22 1023 49 10000 4.1 120 13:18 07.07.2020
207 Clouds 22 1023 46 10000 5.1 120 12:40 07.07.2020
208 Clouds 22 1023 46 10000 5.1 120 12:22 07.07.2020
209 Clouds 20 1024 52 10000 5.1 160 11:50 07.07.2020
210 Clouds 20 1024 49 10000 4.1 160 11:26 07.07.2020
211 Clouds 20 1024 45 10000 4.6 140 10:59 07.07.2020
212 Clouds 20 1024 45 10000 4.1 130 10:41 07.07.2020
213 Clouds 20 1024 45 10000 4.1 130 10:22 07.07.2020
214 Clouds 21 1024 43 10000 4.6 110 09:56 07.07.2020
215 Clouds 20 1024 42 10000 4.1 110 09:37 07.07.2020
216 Clouds 20 1024 42 10000 4.1 110 09:18 07.07.2020
217 Clouds 17 1024 59 10000 2.1 130 08:41 07.07.2020
218 Clouds 17 1024 59 10000 2.1 130 08:22 07.07.2020
219 Clouds 14 1024 76 10000 3.1 120 07:42 07.07.2020
220 Clouds 14 1024 76 10000 3.1 120 07:22 07.07.2020
221 Clouds 13 1024 82 10000 2.1 150 06:49 07.07.2020
222 Clouds 12 1023 81 10000 2.1 140 06:28 07.07.2020
223 Clouds 11 1023 87 10000 1 0 05:51 07.07.2020
224 Clouds 12 1023 87 10000 3.6 160 05:21 07.07.2020
225 Clouds 13 1023 82 10000 6.2 160 04:38 07.07.2020
226 Clouds 13 1023 82 10000 4.1 140 03:35 07.07.2020
227 Clouds 13 1023 76 10000 5.1 160 02:21 07.07.2020
228 Clouds 13 1023 82 10000 3.1 150 01:22 07.07.2020
229 Clouds 13 1024 82 10000 3.6 160 00:42 07.07.2020
230 Clouds 13 1024 82 10000 3.6 160 00:23 07.07.2020
231 Clouds 13 1024 82 10000 2.6 150 23:46 06.07.2020
232 Clouds 13 1024 82 10000 2.6 160 23:26 06.07.2020
233 Clouds 12 1024 87 10000 3.1 170 22:59 06.07.2020
234 Clouds 12 1024 87 10000 2.6 160 22:40 06.07.2020
235 Clouds 12 1024 87 10000 2.6 160 22:40 06.07.2020
236 Clouds 12 1024 87 10000 2.6 160 22:19 06.07.2020
237 Clouds 13 1024 82 10000 3.6 140 21:57 06.07.2020
238 Clouds 13 1024 82 10000 3.6 150 21:37 06.07.2020
239 Clouds 13 1024 82 10000 3.6 150 21:19 06.07.2020
240 Clouds 13 1024 82 10000 2.6 150 20:55 06.07.2020
241 Clouds 13 1024 87 10000 3.1 150 20:36 06.07.2020
242 Clouds 13 1024 87 10000 3.1 150 20:18 06.07.2020
243 Clouds 13 1024 87 10000 3.6 150 19:54 06.07.2020
244 Clouds 13 1024 87 10000 3.1 150 19:36 06.07.2020
245 Clouds 13 1024 87 10000 3.1 150 19:18 06.07.2020
246 Clouds 14 1023 76 10000 4.1 120 18:41 06.07.2020
247 Clouds 14 1023 76 10000 4.1 120 18:23 06.07.2020
248 Clouds 15 1023 72 10000 5.1 120 17:58 06.07.2020
249 Clouds 15 1022 77 10000 5.7 110 17:39 06.07.2020
250 Clouds 15 1022 77 10000 5.7 110 17:20 06.07.2020
251 Clouds 18 1021 63 10000 6.2 120 16:43 06.07.2020
252 Clouds 18 1021 63 10000 6.2 120 16:24 06.07.2020
253 Clouds 20 1021 56 10000 6.2 110 15:57 06.07.2020
254 Clouds 22 1021 46 10000 6.2 110 15:39 06.07.2020
255 Clouds 22 1021 46 10000 6.2 110 15:20 06.07.2020
256 Clouds 23 1021 40 10000 5.1 120 14:55 06.07.2020
257 Clouds 23 1020 40 10000 6.2 120 14:36 06.07.2020
258 Clouds 23 1020 40 10000 6.2 120 14:18 06.07.2020
259 Clouds 24 1021 38 10000 5.1 110 13:43 06.07.2020
260 Clouds 24 1021 38 10000 5.1 110 13:24 06.07.2020
261 Clouds 25 1021 36 10000 5.7 120 12:54 06.07.2020
262 Clouds 24 1021 38 10000 5.7 110 12:36 06.07.2020
263 Clouds 24 1021 38 10000 5.7 110 12:18 06.07.2020
264 Clouds 23 1022 46 10000 3.1 130 11:41 06.07.2020
265 Clouds 23 1022 46 10000 3.1 130 11:23 06.07.2020
266 Clouds 21 1022 49 10000 3.1 150 10:59 06.07.2020
267 Clouds 20 1023 56 10000 2.6 150 10:40 06.07.2020
268 Clouds 20 1023 56 10000 2.6 150 10:20 06.07.2020
269 Clouds 18 1023 68 10000 3.1 180 09:54 06.07.2020
270 Clouds 18 1024 63 10000 3.1 140 09:36 06.07.2020
271 Clouds 18 1024 63 10000 3.1 140 09:18 06.07.2020
272 Clouds 14 1024 82 10000 3.1 160 08:40 06.07.2020
273 Clouds 14 1024 82 10000 3.1 160 08:22 06.07.2020
274 Clouds 13 1024 87 10000 2.6 150 07:50 06.07.2020
275 Clouds 12 1024 87 10000 3.6 180 07:30 06.07.2020
276 Clouds 11 1023 93 10000 3.1 190 06:55 06.07.2020
277 Clouds 11 1023 93 10000 3.1 210 06:37 06.07.2020
278 Clouds 11 1022 93 10000 2.1 0 05:53 06.07.2020
279 Clouds 12 1022 87 10000 2.6 140 05:27 06.07.2020
280 Clouds 10 1022 93 10000 2.6 210 03:58 06.07.2020
281 Clouds 11 1022 93 10000 1 0 02:32 06.07.2020
282 Clouds 11 1023 93 10000 2.1 160 01:54 06.07.2020
283 Clouds 11 1023 93 10000 2.1 150 00:49 06.07.2020
284 Clouds 11 1023 93 10000 2.1 130 00:23 06.07.2020
285 Clouds 12 1023 87 10000 2.6 130 23:56 05.07.2020
286 Clouds 12 1023 87 10000 2.6 150 23:38 05.07.2020
287 Clouds 12 1023 87 10000 2.6 150 23:19 05.07.2020
288 Clouds 12 1024 93 10000 2.6 140 22:42 05.07.2020
289 Clouds 12 1024 93 10000 2.6 140 22:21 05.07.2020
290 Clouds 11 1023 93 10000 2.1 100 21:59 05.07.2020
291 Clouds 12 1023 87 10000 1.5 150 21:40 05.07.2020
292 Clouds 12 1023 87 10000 1.5 150 21:19 05.07.2020
293 Clouds 12 1024 87 10000 1.5 110 20:58 05.07.2020
294 Clouds 12 1024 87 10000 1.5 110 20:58 05.07.2020
295 Clouds 13 1023 82 10000 2.1 130 20:40 05.07.2020
296 Clouds 13 1023 82 10000 2.1 130 20:21 05.07.2020
297 Clouds 12 1023 87 10000 2.1 140 19:55 05.07.2020
298 Clouds 12 1023 87 10000 2.6 90 19:37 05.07.2020
299 Clouds 12 1023 87 10000 2.6 90 19:19 05.07.2020
300 Clouds 13 1022 82 10000 4.1 110 18:42 05.07.2020
301 Clouds 13 1022 82 10000 4.1 110 18:22 05.07.2020
302 Clouds 13 1022 82 10000 4.1 110 18:22 05.07.2020
303 Clouds 14 1022 76 10000 3.6 120 17:56 05.07.2020
304 Clouds 14 1022 76 10000 3.6 120 17:56 05.07.2020
305 Clouds 14 1022 76 10000 3.6 90 17:38 05.07.2020
306 Clouds 14 1022 76 10000 3.6 90 17:19 05.07.2020
307 Clouds 15 1022 72 10000 6.2 110 16:44 05.07.2020
308 Clouds 17 1022 63 10000 5.1 90 16:25 05.07.2020
309 Clouds 18 1022 59 10000 6.2 120 15:56 05.07.2020
310 Clouds 19 1021 55 10000 5.1 110 15:37 05.07.2020
311 Clouds 19 1021 55 10000 5.1 110 15:18 05.07.2020
312 Clouds 20 1021 52 10000 6.2 110 14:41 05.07.2020
313 Clouds 20 1021 52 10000 6.2 110 14:22 05.07.2020
314 Clouds 20 1022 56 10000 6.2 100 13:43 05.07.2020
315 Clouds 20 1022 56 10000 6.2 100 13:24 05.07.2020
316 Clouds 20 1022 56 10000 6.2 100 12:56 05.07.2020
317 Clouds 20 1023 56 10000 6.2 100 12:38 05.07.2020
318 Clouds 20 1023 56 10000 6.2 100 12:20 05.07.2020
319 Clouds 20 1023 56 10000 6.2 100 11:40 05.07.2020
320 Clouds 20 1023 56 10000 6.2 100 11:21 05.07.2020
321 Clouds 19 1023 59 10000 4.6 130 10:59 05.07.2020
322 Clouds 19 1024 59 10000 5.1 120 10:40 05.07.2020
323 Clouds 19 1024 59 10000 5.1 120 10:19 05.07.2020
324 Clouds 17 1024 67 10000 4.6 160 09:56 05.07.2020
325 Clouds 16 1024 72 10000 5.7 160 09:37 05.07.2020
326 Clouds 16 1024 72 10000 5.7 160 09:19 05.07.2020
327 Clouds 15 1024 72 10000 6.2 160 08:46 05.07.2020
328 Clouds 14 1024 76 10000 5.7 160 08:27 05.07.2020
329 Clouds 15 1024 72 10000 4.6 160 07:48 05.07.2020
330 Clouds 13 1024 76 10000 3.6 140 07:29 05.07.2020
331 Clouds 12 1024 87 10000 1.5 0 06:51 05.07.2020
332 Clouds 11 1023 93 10000 2.1 130 05:41 05.07.2020
333 Clouds 12 1023 87 10000 3.1 130 03:31 05.07.2020
334 Clouds 13 1023 82 10000 1.5 140 02:41 05.07.2020
335 Clouds 13 1023 82 10000 1.5 140 02:18 05.07.2020
336 Clouds 13 1023 82 10000 2.6 160 01:33 05.07.2020
337 Clouds 13 1024 82 10000 3.6 130 00:58 05.07.2020
338 Clouds 14 1024 82 10000 4.6 140 00:38 05.07.2020
339 Clouds 14 1024 82 10000 4.6 140 00:20 05.07.2020
340 Clouds 14 1024 82 10000 4.1 140 23:46 04.07.2020
341 Clouds 14 1024 82 10000 3.6 140 23:28 04.07.2020
342 Clouds 14 1024 87 10000 4.1 140 22:55 04.07.2020
343 Clouds 14 1024 87 10000 3.6 120 22:37 04.07.2020
344 Clouds 14 1024 87 10000 3.6 120 22:18 04.07.2020
345 Clouds 15 1024 82 10000 3.1 140 21:42 04.07.2020
346 Clouds 15 1024 82 10000 3.1 140 21:23 04.07.2020
347 Clouds 15 1024 82 10000 3.1 150 20:57 04.07.2020
348 Clouds 15 1024 82 10000 4.1 140 20:38 04.07.2020
349 Clouds 15 1024 82 10000 4.1 140 20:18 04.07.2020
350 Clouds 15 1024 82 10000 3.6 150 19:43 04.07.2020
351 Clouds 15 1024 82 10000 3.6 150 19:22 04.07.2020
352 Clouds 15 1024 82 10000 3.6 150 19:22 04.07.2020
353 Clouds 15 1023 82 10000 4.6 140 18:55 04.07.2020
354 Clouds 16 1023 77 10000 5.7 130 18:37 04.07.2020
355 Clouds 16 1023 77 10000 5.7 130 18:19 04.07.2020
356 Clouds 16 1023 77 10000 3.6 130 17:42 04.07.2020
357 Clouds 16 1023 77 10000 3.6 130 17:23 04.07.2020
358 Clouds 16 1023 72 10000 5.7 120 16:57 04.07.2020
359 Clouds 17 1023 72 10000 6.2 100 16:37 04.07.2020
360 Clouds 17 1023 72 10000 6.2 100 16:19 04.07.2020
361 Clouds 18 1022 68 10000 6.7 110 15:46 04.07.2020
362 Clouds 18 1022 68 10000 6.2 100 15:27 04.07.2020
363 Clouds 19 1022 63 10000 5.7 110 14:59 04.07.2020
364 Clouds 19 1022 63 10000 5.7 110 14:59 04.07.2020
365 Clouds 20 1022 56 10000 5.1 120 14:37 04.07.2020
366 Clouds 20 1022 56 10000 5.1 120 14:19 04.07.2020
367 Clouds 21 1022 52 10000 4.1 140 13:56 04.07.2020
368 Clouds 21 1022 52 10000 5.1 120 13:37 04.07.2020
369 Clouds 21 1022 52 10000 5.1 120 13:18 04.07.2020
370 Clouds 20 1023 60 10000 7.2 110 12:41 04.07.2020
371 Clouds 20 1023 60 10000 7.2 110 12:20 04.07.2020
372 Clouds 20 1023 60 10000 4.1 130 11:46 04.07.2020
373 Clouds 19 1024 63 10000 3.6 170 11:25 04.07.2020
374 Clouds 19 1024 63 10000 4.1 140 10:59 04.07.2020
375 Clouds 19 1024 68 10000 3.1 120 10:39 04.07.2020
376 Clouds 19 1024 68 10000 3.1 120 10:21 04.07.2020
377 Clouds 18 1024 68 10000 1.5 170 09:56 04.07.2020
378 Clouds 16 1025 72 10000 2.1 130 09:36 04.07.2020
379 Clouds 16 1025 72 10000 2.1 130 09:18 04.07.2020
380 Clouds 15 1025 82 10000 2.6 190 08:46 04.07.2020
381 Clouds 13 1025 87 10000 2.1 160 08:27 04.07.2020
382 Clouds 11 1024 100 10000 2.1 190 07:44 04.07.2020
383 Clouds 11 1024 100 10000 2.6 220 07:26 04.07.2020
384 Clouds 11 1024 100 10000 0.5 0 06:51 04.07.2020
385 Clouds 11 1024 93 10000 1 0 06:20 04.07.2020
386 Mist 10 1023 100 4500 1 0 05:34 04.07.2020
387 Fog 10 1023 93 550 2.1 90 04:31 04.07.2020
388 Fog 10 1023 100 450 1.5 70 02:49 04.07.2020
389 Fog 9 1023 100 300 1.5 0 01:54 04.07.2020
390 Clouds 8 1023 100 8000 0.5 0 01:24 04.07.2020
391 Clouds 8 1023 93 10000 1.12 110 00:40 04.07.2020
392 Clouds 8 1023 93 10000 1.35 106 00:21 04.07.2020
393 Clouds 10 1024 93 10000 1.35 106 23:39 03.07.2020
394 Clouds 10 1024 93 10000 1.76 128 23:18 03.07.2020
395 Clouds 10 1024 93 10000 1.76 128 23:18 03.07.2020
396 Clouds 10 1024 100 10000 2.1 90 22:43 03.07.2020
397 Clouds 10 1024 100 10000 2.1 90 22:25 03.07.2020
398 Clouds 10 1024 100 10000 2.1 90 22:00 03.07.2020
399 Clouds 11 1024 93 10000 2.6 100 21:39 03.07.2020
400 Clouds 11 1024 93 10000 2.6 100 21:19 03.07.2020
401 Clouds 11 1024 93 10000 3.1 100 20:43 03.07.2020
402 Clouds 12 1024 87 10000 1.5 130 20:25 03.07.2020
403 Clouds 12 1024 87 10000 2.6 80 19:59 03.07.2020
404 Clouds 12 1024 87 10000 2.6 80 19:39 03.07.2020
405 Clouds 12 1024 87 10000 2.6 80 19:18 03.07.2020
406 Clouds 13 1023 82 10000 3.6 90 18:45 03.07.2020
407 Clouds 13 1023 82 10000 3.6 90 18:24 03.07.2020
408 Clouds 14 1023 82 10000 4.1 90 17:56 03.07.2020
409 Clouds 15 1023 72 10000 4.1 90 17:38 03.07.2020
410 Clouds 15 1023 72 10000 4.1 90 17:20 03.07.2020
411 Clouds 18 1022 52 10000 5.7 100 16:41 03.07.2020
412 Clouds 18 1022 52 10000 5.7 100 16:21 03.07.2020
413 Clouds 19 1022 48 10000 5.7 100 15:45 03.07.2020
414 Clouds 20 1022 42 10000 6.2 110 15:24 03.07.2020
415 Clouds 20 1022 42 10000 6.2 110 14:57 03.07.2020
416 Clouds 21 1022 43 10000 5.7 120 14:39 03.07.2020
417 Clouds 21 1022 43 10000 5.7 120 14:19 03.07.2020
418 Clouds 21 1022 43 10000 4.6 110 13:47 03.07.2020
419 Clouds 21 1022 46 10000 5.1 120 13:28 03.07.2020
420 Clouds 21 1022 46 10000 5.1 110 12:45 03.07.2020
421 Clouds 21 1023 46 10000 5.1 100 12:24 03.07.2020
422 Clouds 20 1023 52 10000 5.7 120 11:58 03.07.2020
423 Clouds 19 1023 59 10000 4.6 170 11:40 03.07.2020
424 Clouds 19 1023 59 10000 4.6 170 11:21 03.07.2020
425 Clouds 17 1024 63 10000 4.6 150 10:55 03.07.2020
426 Clouds 18 1024 68 10000 4.1 170 10:37 03.07.2020
427 Clouds 18 1024 68 10000 4.1 170 10:18 03.07.2020
428 Clouds 17 1024 67 10000 3.1 170 09:54 03.07.2020
429 Clouds 17 1024 67 10000 3.1 170 09:54 03.07.2020
430 Rain 15 1025 77 10000 3.1 170 09:36 03.07.2020
431 Rain 15 1025 77 10000 3.1 170 09:18 03.07.2020
432 Clouds 14 1025 76 10000 3.6 190 08:39 03.07.2020
433 Clouds 14 1025 76 10000 3.6 190 08:18 03.07.2020
434 Clouds 14 1024 76 10000 3.6 150 07:47 03.07.2020
435 Clouds 13 1024 82 10000 3.6 170 07:24 03.07.2020
436 Clouds 13 1024 82 10000 3.6 180 06:47 03.07.2020
437 Clouds 13 1023 82 10000 4.1 180 05:57 03.07.2020
438 Clouds 13 1022 82 10000 4.1 180 04:35 03.07.2020
439 Clouds 12 1022 87 10000 2.6 180 02:57 03.07.2020
440 Clouds 12 1023 87 10000 2.6 170 02:36 03.07.2020
441 Clouds 12 1023 87 10000 3.1 170 01:54 03.07.2020
442 Clouds 12 1023 87 10000 3.1 170 01:23 03.07.2020
443 Clouds 12 1024 87 10000 2.1 140 00:44 03.07.2020
444 Clouds 13 1024 82 10000 2.6 150 00:20 03.07.2020
445 Clouds 12 1024 81 10000 2.6 150 23:43 02.07.2020
446 Clouds 12 1024 81 10000 2.6 150 23:20 02.07.2020
447 Clouds 12 1025 87 10000 2.6 110 22:57 02.07.2020
448 Clouds 11 1025 87 10000 2.1 90 22:38 02.07.2020
449 Clouds 11 1025 87 10000 2.1 90 22:20 02.07.2020
450 Clouds 10 1025 93 10000 2.1 90 21:54 02.07.2020
451 Clouds 10 1025 87 10000 2.6 100 21:36 02.07.2020
452 Clouds 10 1025 87 10000 2.6 100 21:18 02.07.2020
453 Clouds 10 1025 87 10000 2.6 110 20:42 02.07.2020
454 Clouds 10 1025 87 10000 2.6 110 20:20 02.07.2020
455 Clouds 11 1025 81 10000 2.6 130 19:56 02.07.2020
456 Clouds 12 1025 76 10000 2.6 140 19:38 02.07.2020
457 Clouds 12 1025 76 10000 2.6 140 19:20 02.07.2020
458 Clouds 12 1024 76 10000 2.1 140 18:56 02.07.2020
459 Clouds 13 1024 71 10000 2.6 160 18:37 02.07.2020
460 Clouds 13 1024 71 10000 2.6 160 18:19 02.07.2020
461 Clouds 14 1023 62 10000 4.6 130 17:39 02.07.2020
462 Clouds 14 1023 62 10000 4.6 130 17:20 02.07.2020
463 Clouds 15 1023 62 10000 5.1 140 16:56 02.07.2020
464 Clouds 16 1023 59 10000 5.1 140 16:37 02.07.2020
465 Clouds 16 1023 59 10000 5.1 140 16:19 02.07.2020
466 Clouds 17 1022 55 10000 5.7 130 15:39 02.07.2020
467 Clouds 17 1022 55 10000 5.7 130 15:21 02.07.2020
468 Clouds 19 1022 52 10000 6.2 120 14:46 02.07.2020
469 Clouds 19 1022 48 10000 5.7 150 14:28 02.07.2020
470 Clouds 19 1022 48 10000 5.7 130 13:57 02.07.2020
471 Clouds 19 1022 48 10000 5.1 160 13:39 02.07.2020
472 Clouds 19 1022 48 10000 5.1 160 13:20 02.07.2020
473 Clouds 19 1022 52 10000 5.1 140 12:58 02.07.2020
474 Clouds 19 1022 52 10000 4.6 160 12:38 02.07.2020
475 Clouds 19 1022 52 10000 4.6 160 12:20 02.07.2020
476 Clouds 19 1022 52 10000 4.6 160 12:20 02.07.2020
477 Clouds 19 1023 55 10000 5.7 130 11:43 02.07.2020
478 Clouds 19 1023 55 10000 5.7 130 11:25 02.07.2020
479 Clouds 18 1024 59 10000 6.2 160 10:48 02.07.2020
480 Clouds 17 1024 59 10000 5.7 150 10:27 02.07.2020
481 Clouds 16 1024 67 10000 7.2 170 09:57 02.07.2020
482 Clouds 16 1024 63 10000 7.7 170 09:39 02.07.2020
483 Clouds 16 1024 63 10000 7.7 170 09:20 02.07.2020
484 Clouds 15 1024 72 10000 6.2 150 08:44 02.07.2020
485 Clouds 15 1024 72 10000 6.2 150 08:24 02.07.2020
486 Clouds 14 1023 76 10000 5.1 150 07:56 02.07.2020
487 Clouds 15 1023 77 10000 6.2 170 07:37 02.07.2020
488 Clouds 15 1023 77 10000 6.2 170 07:18 02.07.2020
489 Clouds 14 1023 82 10000 5.1 160 06:40 02.07.2020
490 Clouds 14 1023 82 10000 5.1 160 06:20 02.07.2020
491 Clouds 14 1022 82 10000 4.1 160 05:44 02.07.2020
492 Clouds 12 1022 93 10000 2.6 180 03:55 02.07.2020
493 Clouds 12 1022 93 10000 2.6 170 03:31 02.07.2020
494 Clouds 13 1024 82 10000 2.1 130 00:48 02.07.2020
495 Clouds 13 1024 82 10000 2.1 130 00:25 02.07.2020
496 Clouds 13 1024 87 10000 2.1 120 23:47 01.07.2020
497 Clouds 12 1024 87 10000 2.1 130 23:27 01.07.2020
498 Clouds 13 1024 82 10000 3.6 160 22:57 01.07.2020
499 Clouds 14 1025 76 10000 3.6 140 22:38 01.07.2020
500 Clouds 14 1025 76 10000 3.6 140 22:19 01.07.2020
501 Clouds 14 1025 87 10000 4.1 140 21:58 01.07.2020
502 Clouds 15 1024 82 10000 4.1 150 21:40 01.07.2020
503 Clouds 15 1024 82 10000 4.1 150 21:21 01.07.2020
504 Clouds 15 1024 82 10000 4.1 150 21:21 01.07.2020
505 Clouds 14 1024 93 10000 3.6 150 20:55 01.07.2020
506 Clouds 14 1024 93 10000 3.6 150 20:55 01.07.2020
507 Clouds 14 1024 93 10000 3.6 150 20:36 01.07.2020
508 Clouds 14 1024 93 10000 3.6 150 20:36 01.07.2020
509 Clouds 14 1024 93 10000 3.6 150 20:18 01.07.2020
510 Clouds 16 1024 77 10000 3.6 130 19:42 01.07.2020
511 Clouds 16 1024 77 10000 3.6 130 19:24 01.07.2020
512 Clouds 15 1023 82 10000 3.6 150 18:59 01.07.2020
513 Clouds 16 1023 77 10000 4.1 150 18:40 01.07.2020
514 Clouds 16 1023 77 10000 4.1 150 18:21 01.07.2020
515 Clouds 16 1023 77 10000 3.1 130 17:56 01.07.2020
516 Clouds 17 1023 67 10000 4.6 120 17:37 01.07.2020
517 Clouds 17 1023 67 10000 4.6 120 17:18 01.07.2020
518 Clouds 18 1022 63 10000 3.6 150 16:43 01.07.2020
519 Clouds 18 1022 63 10000 3.6 150 16:24 01.07.2020
520 Clouds 19 1022 55 10000 4.6 140 15:43 01.07.2020
521 Clouds 19 1022 55 10000 4.6 140 15:25 01.07.2020
522 Clouds 21 1021 46 10000 4.1 140 14:59 01.07.2020
523 Clouds 21 1021 46 10000 4.6 130 14:41 01.07.2020
524 Clouds 21 1021 46 10000 4.6 130 14:20 01.07.2020
525 Clouds 22 1021 43 10000 5.7 120 13:55 01.07.2020
526 Clouds 21 1021 46 10000 5.1 170 13:37 01.07.2020
527 Clouds 21 1021 46 10000 5.1 170 13:37 01.07.2020
528 Clouds 21 1021 46 10000 5.1 170 13:18 01.07.2020
529 Clouds 22 1022 43 10000 6.2 190 12:41 01.07.2020
530 Clouds 22 1022 43 10000 6.2 190 12:23 01.07.2020
531 Clouds 22 1022 40 10000 4.1 150 11:59 01.07.2020
532 Clouds 21 1023 43 10000 3.6 160 11:40 01.07.2020
533 Clouds 21 1023 43 10000 3.6 160 11:21 01.07.2020
534 Clouds 21 1023 43 10000 2.6 160 10:56 01.07.2020
535 Clouds 20 1023 49 10000 3.1 140 10:38 01.07.2020
536 Clouds 20 1023 49 10000 3.1 140 10:20 01.07.2020
537 Clouds 17 1024 63 10000 3.1 160 09:38 01.07.2020
538 Clouds 17 1024 63 10000 3.1 160 09:20 01.07.2020
539 Clouds 16 1024 67 10000 2.6 150 08:57 01.07.2020
540 Clouds 14 1024 76 7000 2.6 150 08:39 01.07.2020
541 Clouds 14 1024 76 7000 2.6 150 08:19 01.07.2020
542 Mist 11 1023 100 4000 2.6 120 07:41 01.07.2020
543 Mist 11 1023 100 4000 2.6 120 07:22 01.07.2020
544 Mist 11 1023 100 4500 2.6 180 06:54 01.07.2020
545 Mist 11 1023 100 4500 2.1 180 06:32 01.07.2020
546 Fog 11 1022 100 700 3.1 150 05:35 01.07.2020
547 Fog 10 1022 100 700 1.66 143 03:55 01.07.2020
548 Mist 11 1022 93 3000 1.66 143 03:36 01.07.2020
549 Mist 11 1022 93 3000 1.55 133 03:18 01.07.2020
550 Clouds 10 1022 100 6000 2.1 120 01:55 01.07.2020
551 Clouds 10 1022 100 10000 1.6 137 00:48 01.07.2020
552 Clouds 11 1023 87 10000 1 60 00:26 01.07.2020
553 Clouds 11 1023 93 10000 2.1 70 23:57 30.06.2020
554 Clouds 11 1023 93 10000 1.5 70 23:39 30.06.2020
555 Clouds 11 1023 93 10000 1.5 70 23:19 30.06.2020
556 Clouds 10 1023 93 10000 1 0 22:41 30.06.2020
557 Clouds 10 1023 93 10000 1 0 22:18 30.06.2020
558 Clouds 10 1023 93 10000 1 0 22:18 30.06.2020
559 Clouds 11 1023 87 10000 1 0 21:41 30.06.2020
560 Clouds 11 1023 87 10000 1 0 21:19 30.06.2020
561 Clouds 13 1023 82 10000 1 0 20:57 30.06.2020
562 Clouds 14 1022 76 10000 1 0 20:39 30.06.2020
563 Clouds 14 1022 76 10000 1 0 20:20 30.06.2020
564 Clouds 14 1022 71 10000 1 0 19:42 30.06.2020
565 Clouds 14 1022 71 10000 1 0 19:20 30.06.2020
566 Clouds 15 1022 67 10000 2.1 100 18:46 30.06.2020
567 Clouds 15 1021 62 10000 3.6 110 18:21 30.06.2020
568 Clouds 16 1021 59 10000 2.6 90 17:59 30.06.2020
569 Clouds 17 1020 55 10000 2.1 80 17:38 30.06.2020
570 Clouds 17 1020 55 10000 2.1 80 17:19 30.06.2020
571 Clouds 19 1020 45 10000 3.1 90 16:54 30.06.2020
572 Clouds 23 1020 27 10000 1.5 0 16:36 30.06.2020
573 Clouds 23 1020 27 10000 1.5 0 16:18 30.06.2020
574 Clouds 25 1019 22 10000 1.5 0 15:41 30.06.2020
575 Clouds 25 1019 22 10000 1.5 0 15:22 30.06.2020
576 Clouds 25 1019 22 10000 0.5 0 14:56 30.06.2020
577 Clouds 25 1019 22 10000 2.1 240 14:38 30.06.2020
578 Clouds 25 1019 22 10000 2.1 240 14:18 30.06.2020
579 Clouds 24 1019 25 10000 2.6 180 13:41 30.06.2020
580 Clouds 24 1019 25 10000 2.6 180 13:20 30.06.2020
581 Clouds 24 1020 23 10000 2.6 0 12:58 30.06.2020
582 Clouds 24 1020 23 10000 2.1 170 12:40 30.06.2020
583 Clouds 24 1020 23 10000 2.1 170 12:21 30.06.2020
584 Clouds 25 1020 23 10000 2.1 50 11:58 30.06.2020
585 Clouds 25 1020 23 10000 2.1 50 11:58 30.06.2020
586 Clouds 24 1021 23 10000 1.5 0 11:39 30.06.2020
587 Clouds 24 1021 23 10000 1.5 0 11:19 30.06.2020
588 Clouds 23 1021 33 10000 1.5 0 10:58 30.06.2020
589 Clouds 21 1022 40 10000 4.1 100 16:39 28.06.2020
590 Clouds 21 1022 40 10000 4.1 100 16:20 28.06.2020
591 Clouds 22 1021 35 10000 5.1 100 15:56 28.06.2020
592 Clouds 24 1021 27 10000 5.7 100 15:37 28.06.2020
593 Clouds 24 1021 27 10000 5.7 100 15:18 28.06.2020
594 Clouds 24 1021 25 10000 5.7 120 14:44 28.06.2020
595 Clear 25 1021 23 10000 5.7 120 14:25 28.06.2020
596 Clear 25 1021 22 10000 5.1 120 13:55 28.06.2020
597 Clear 25 1021 22 10000 5.1 140 13:37 28.06.2020
598 Clear 25 1021 22 10000 5.1 140 13:18 28.06.2020
599 Clear 26 1021 21 10000 5.1 120 12:55 28.06.2020
600 Clear 25 1021 25 10000 4.1 140 12:36 28.06.2020
601 Clear 25 1021 25 10000 4.1 140 12:18 28.06.2020
602 Clear 25 1022 31 10000 3.6 100 11:55 28.06.2020
603 Clear 23 1022 46 10000 2.1 150 11:37 28.06.2020
604 Clear 23 1022 46 10000 2.1 150 11:19 28.06.2020
605 Clear 21 1023 52 10000 1.5 140 10:41 28.06.2020
606 Clear 21 1023 52 10000 1.5 140 10:23 28.06.2020
607 Clouds 17 1024 72 10000 1 0 09:43 28.06.2020
608 Clouds 17 1024 72 10000 1 0 09:24 28.06.2020
609 Clouds 15 1024 82 10000 1.5 0 08:58 28.06.2020
610 Mist 12 1024 100 3500 1.5 0 08:40 28.06.2020
611 Mist 12 1024 100 3500 1.5 0 08:21 28.06.2020
612 Fog 11 1024 100 300 1.5 120 07:39 28.06.2020
613 Fog 11 1023 100 900 3.1 110 06:58 28.06.2020
614 Mist 11 1023 100 1500 2.1 130 06:32 28.06.2020
615 Fog 11 1023 93 1000 2.1 130 05:54 28.06.2020
616 Fog 11 1022 100 500 2.1 170 04:36 28.06.2020
617 Fog 11 1022 100 500 1.5 0 03:18 28.06.2020
618 Clouds 10 1022 100 10000 2.6 110 02:22 28.06.2020
619 Clouds 11 1022 100 10000 2.1 140 01:45 28.06.2020
620 Clouds 10 1023 93 10000 1 0 00:57 28.06.2020
621 Clouds 11 1023 100 10000 0.5 0 00:30 28.06.2020
622 Clouds 11 1023 100 10000 2.1 60 23:58 27.06.2020
623 Clouds 11 1024 100 10000 1.5 60 23:39 27.06.2020
624 Clouds 11 1024 100 10000 1.5 60 23:21 27.06.2020
625 Clouds 12 1024 93 10000 3.6 100 22:42 27.06.2020
626 Clouds 12 1024 93 10000 3.6 100 22:23 27.06.2020
627 Clouds 12 1024 93 10000 1 0 21:59 27.06.2020
628 Clouds 12 1024 93 10000 2.1 50 21:40 27.06.2020
629 Clouds 12 1024 93 10000 2.1 50 21:20 27.06.2020
630 Clouds 12 1024 100 10000 1.5 50 20:55 27.06.2020
631 Clouds 13 1024 93 10000 1.5 70 20:37 27.06.2020
632 Clouds 13 1024 93 10000 1.5 70 20:18 27.06.2020
633 Clouds 13 1024 93 10000 1.7 114 19:37 27.06.2020
634 Clouds 13 1024 93 10000 1.58 107 19:19 27.06.2020
635 Clouds 13 1024 93 10000 1.58 107 19:19 27.06.2020
636 Clouds 14 1023 87 10000 1.5 60 18:48 27.06.2020
637 Clouds 14 1023 87 10000 2.1 60 18:29 27.06.2020
638 Clouds 15 1023 82 10000 2.1 60 17:59 27.06.2020
639 Clouds 16 1023 77 10000 3.6 80 17:40 27.06.2020
640 Clouds 16 1023 77 10000 3.6 80 17:20 27.06.2020
641 Clouds 17 1023 72 10000 4.6 90 16:56 27.06.2020
642 Clouds 19 1022 63 10000 4.6 90 16:38 27.06.2020
643 Clouds 19 1022 63 10000 4.6 90 16:18 27.06.2020
644 Clouds 21 1022 60 10000 5.1 80 15:42 27.06.2020
645 Clouds 21 1022 60 10000 5.1 80 15:23 27.06.2020
646 Clouds 21 1022 60 10000 4.6 90 14:55 27.06.2020
647 Clouds 22 1022 56 10000 4.1 110 14:37 27.06.2020
648 Clouds 22 1022 56 10000 4.1 110 14:18 27.06.2020
649 Clouds 23 1022 53 10000 5.1 80 13:39 27.06.2020
650 Clouds 23 1022 53 10000 5.1 80 13:20 27.06.2020
651 Clouds 23 1022 53 10000 4.6 80 12:58 27.06.2020
652 Clouds 23 1022 53 10000 5.1 80 12:40 27.06.2020
653 Clouds 23 1022 53 10000 5.1 80 12:21 27.06.2020
654 Clouds 23 1023 53 10000 4.6 100 11:55 27.06.2020
655 Clouds 22 1023 49 10000 4.6 120 11:37 27.06.2020
656 Clouds 22 1023 49 10000 4.6 120 11:18 27.06.2020
657 Clouds 22 1023 49 10000 4.6 120 11:18 27.06.2020
658 Clouds 21 1024 49 10000 2.1 120 10:39 27.06.2020
659 Clouds 21 1024 49 10000 2.1 120 10:19 27.06.2020
660 Clouds 18 1024 63 10000 2.6 160 09:41 27.06.2020
661 Clouds 18 1024 63 10000 2.6 160 09:23 27.06.2020
662 Clouds 17 1025 67 10000 2.1 130 08:59 27.06.2020
663 Clouds 16 1025 72 10000 3.6 110 08:39 27.06.2020
664 Clouds 16 1025 72 10000 3.6 110 08:21 27.06.2020
665 Clouds 16 1025 72 10000 3.1 90 07:45 27.06.2020
666 Clouds 15 1024 77 10000 4.1 80 07:24 27.06.2020
667 Clouds 15 1024 77 10000 3.6 90 06:46 27.06.2020
668 Clouds 14 1024 87 10000 3.6 110 06:27 27.06.2020
669 Clouds 13 1023 87 10000 2.1 160 04:23 27.06.2020
670 Clouds 14 1023 87 10000 3.1 140 03:52 27.06.2020
671 Clouds 14 1023 93 10000 3.1 150 02:56 27.06.2020
672 Clouds 14 1023 87 10000 3.6 140 02:34 27.06.2020
673 Clouds 14 1023 93 10000 2.1 150 01:43 27.06.2020
674 Clouds 14 1023 93 10000 2.6 170 00:57 27.06.2020
675 Clouds 14 1023 93 10000 2.6 170 00:30 27.06.2020
676 Clouds 14 1024 93 10000 1.5 160 23:44 26.06.2020
677 Clouds 13 1024 100 10000 1 90 23:25 26.06.2020
678 Clouds 13 1024 93 10000 2.1 80 22:56 26.06.2020
679 Clouds 13 1024 93 10000 2.6 80 22:38 26.06.2020
680 Clouds 13 1024 93 10000 2.6 80 22:19 26.06.2020
681 Clouds 13 1024 93 10000 3.1 100 21:57 26.06.2020
682 Clouds 15 1024 87 10000 3.1 140 21:37 26.06.2020
683 Clouds 15 1024 87 10000 3.1 140 21:19 26.06.2020
684 Clouds 15 1024 87 10000 3.1 140 21:19 26.06.2020
685 Clouds 15 1024 87 10000 3.1 110 20:42 26.06.2020
686 Clouds 15 1024 87 10000 3.1 110 20:19 26.06.2020
687 Clouds 15 1024 93 10000 4.1 110 19:43 26.06.2020
688 Clouds 15 1024 93 10000 4.1 110 19:23 26.06.2020
689 Clouds 15 1024 93 10000 4.1 110 18:55 26.06.2020
690 Clouds 15 1023 93 10000 3.6 90 18:37 26.06.2020
691 Clouds 15 1023 93 10000 3.6 90 18:18 26.06.2020
692 Rain 16 1023 93 10000 3.6 110 17:43 26.06.2020
693 Rain 16 1023 93 10000 3.6 110 17:24 26.06.2020
694 Rain 17 1023 82 10000 5.1 110 16:48 26.06.2020
695 Clouds 18 1022 77 10000 6.2 100 16:25 26.06.2020
696 Clouds 17 1022 82 10000 3.6 120 15:55 26.06.2020
697 Clouds 18 1022 77 10000 3.6 100 15:37 26.06.2020
698 Clouds 18 1022 77 10000 3.6 100 15:18 26.06.2020
699 Clouds 19 1022 72 10000 4.6 130 14:41 26.06.2020
700 Clouds 19 1022 72 10000 4.6 130 14:22 26.06.2020
701 Clouds 19 1021 72 10000 3.6 130 13:59 26.06.2020
702 Clouds 20 1021 64 10000 5.7 130 13:41 26.06.2020
703 Clouds 20 1021 64 10000 5.7 130 13:18 26.06.2020
704 Clouds 21 1022 60 10000 5.1 120 12:41 26.06.2020
705 Clouds 21 1022 60 10000 5.1 120 12:23 26.06.2020
706 Clouds 19 1022 68 10000 4.1 130 11:59 26.06.2020
707 Clouds 19 1023 72 10000 4.1 140 11:39 26.06.2020
708 Clouds 19 1023 72 10000 4.1 140 11:21 26.06.2020
709 Clouds 18 1023 77 10000 3.6 130 10:58 26.06.2020
710 Clouds 17 1024 77 10000 3.6 160 10:38 26.06.2020
711 Clouds 17 1024 77 10000 3.6 160 10:19 26.06.2020
712 Clouds 17 1024 77 10000 4.1 180 09:44 26.06.2020
713 Clouds 16 1024 82 10000 4.1 180 09:25 26.06.2020
714 Clouds 16 1024 77 10000 3.6 160 08:57 26.06.2020
715 Clouds 15 1024 82 10000 3.1 170 08:29 26.06.2020
716 Clouds 14 1024 87 10000 3.1 170 07:53 26.06.2020
717 Clouds 14 1024 87 10000 3.1 170 07:25 26.06.2020
718 Clouds 13 1024 93 10000 2.6 130 06:59 26.06.2020
719 Clouds 12 1024 93 10000 2.6 130 06:41 26.06.2020
720 Clouds 12 1024 93 10000 2.6 130 06:18 26.06.2020
721 Clouds 13 1023 87 10000 2.6 90 05:41 26.06.2020
722 Clouds 14 1023 93 10000 4.1 130 03:52 26.06.2020
723 Clouds 14 1023 93 10000 2.6 100 02:22 26.06.2020
724 Clouds 15 1023 93 10000 2.6 130 01:19 26.06.2020
725 Clouds 15 1023 87 10000 3.1 140 00:40 26.06.2020
726 Clouds 15 1023 87 10000 3.1 140 00:19 26.06.2020
727 Clouds 15 1023 87 10000 3.1 140 23:41 25.06.2020
728 Clouds 15 1023 87 10000 3.1 140 23:18 25.06.2020
729 Clouds 15 1023 93 10000 2.6 130 22:56 25.06.2020
730 Clouds 15 1024 93 10000 2.6 130 22:36 25.06.2020
731 Clouds 15 1024 93 10000 2.6 130 22:36 25.06.2020
732 Clouds 15 1024 93 10000 2.6 130 22:18 25.06.2020
733 Clouds 16 1024 87 10000 3.6 150 21:54 25.06.2020
734 Clouds 16 1024 82 10000 2.1 160 21:36 25.06.2020
735 Clouds 16 1024 82 10000 2.1 160 21:18 25.06.2020
736 Clouds 16 1024 82 10000 2.6 150 20:44 25.06.2020
737 Clouds 16 1024 82 10000 3.1 120 20:23 25.06.2020
738 Clouds 16 1023 82 10000 3.6 140 19:57 25.06.2020
739 Clouds 16 1023 87 10000 4.1 130 19:38 25.06.2020
740 Clouds 16 1023 87 10000 4.1 130 19:18 25.06.2020
741 Clouds 16 1022 87 10000 3.6 130 18:55 25.06.2020
742 Clouds 16 1022 87 10000 3.6 130 18:36 25.06.2020
743 Clouds 16 1022 87 10000 3.6 130 18:18 25.06.2020
744 Clouds 18 1022 72 10000 5.7 110 17:39 25.06.2020
745 Clouds 18 1022 72 10000 5.7 110 17:19 25.06.2020
746 Clouds 20 1021 64 10000 4.1 90 16:41 25.06.2020
747 Clouds 20 1021 64 10000 4.1 90 16:21 25.06.2020
748 Clouds 21 1021 60 10000 5.7 80 15:46 25.06.2020
749 Clouds 20 1021 64 10000 5.7 80 15:27 25.06.2020
750 Clouds 23 1021 53 10000 6.2 90 14:58 25.06.2020
751 Clouds 22 1021 56 10000 5.1 90 14:40 25.06.2020
752 Clouds 22 1021 56 10000 5.1 90 14:22 25.06.2020
753 Clouds 23 1021 53 10000 6.2 90 13:56 25.06.2020
754 Clouds 22 1021 56 10000 5.7 110 13:37 25.06.2020
755 Clouds 22 1021 56 10000 5.7 110 13:19 25.06.2020
756 Clouds 22 1021 56 10000 5.7 110 13:19 25.06.2020
757 Clouds 23 1021 53 10000 4.1 100 12:44 25.06.2020
758 Clouds 23 1022 56 10000 5.1 100 12:20 25.06.2020
759 Clouds 21 1022 64 10000 3.6 140 11:44 25.06.2020
760 Clouds 21 1022 64 10000 3.6 140 11:25 25.06.2020
761 Clouds 22 1023 60 10000 4.1 130 10:59 25.06.2020
762 Clouds 20 1023 68 10000 3.6 160 10:40 25.06.2020
763 Clouds 20 1023 68 10000 3.6 160 10:22 25.06.2020
764 Clouds 19 1024 72 10000 2.6 150 09:41 25.06.2020
765 Clouds 19 1024 72 10000 2.6 150 09:41 25.06.2020
766 Clouds 19 1024 72 10000 2.6 150 09:23 25.06.2020
767 Clouds 19 1024 72 10000 3.6 170 08:47 25.06.2020
768 Rain 17 1024 82 10000 3.1 170 08:20 25.06.2020
769 Clouds 17 1024 82 10000 4.1 180 07:46 25.06.2020
770 Clouds 16 1023 87 10000 3.1 150 07:28 25.06.2020
771 Clouds 16 1023 82 10000 3.1 140 06:54 25.06.2020
772 Clouds 16 1023 87 10000 2.1 140 06:27 25.06.2020
773 Clouds 15 1023 93 10000 2.1 160 05:51 25.06.2020
774 Clouds 15 1022 93 10000 3.1 150 04:29 25.06.2020
775 Clouds 16 1022 87 10000 2.6 150 03:35 25.06.2020
776 Clouds 16 1022 87 10000 2.6 150 02:43 25.06.2020
777 Clouds 16 1022 87 10000 3.1 130 01:59 25.06.2020
778 Clouds 16 1022 87 10000 2.6 130 01:26 25.06.2020
779 Clouds 16 1023 87 10000 3.1 160 00:44 25.06.2020
780 Clouds 16 1023 87 10000 2.6 130 00:21 25.06.2020
781 Clouds 17 1023 82 10000 2.6 130 23:44 24.06.2020
782 Clouds 16 1023 87 10000 2.6 110 23:26 24.06.2020
783 Clouds 17 1023 82 10000 2.1 130 22:59 24.06.2020
784 Clouds 16 1023 87 10000 2.6 140 22:41 24.06.2020
785 Clouds 16 1023 87 10000 2.6 140 22:20 24.06.2020
786 Clouds 17 1024 82 10000 3.6 120 21:56 24.06.2020
787 Clouds 16 1024 87 10000 3.6 110 21:37 24.06.2020
788 Clouds 16 1024 87 10000 3.6 110 21:18 24.06.2020
789 Clouds 17 1024 82 10000 3.6 110 20:58 24.06.2020
790 Clouds 17 1024 82 10000 4.1 110 20:39 24.06.2020
791 Clouds 17 1024 82 10000 4.1 110 20:20 24.06.2020
792 Clouds 17 1023 88 10000 3.1 120 19:57 24.06.2020
793 Clouds 17 1023 82 10000 3.1 130 19:37 24.06.2020
794 Clouds 17 1023 82 10000 3.1 130 19:18 24.06.2020
795 Clouds 16 1023 87 10000 2.1 130 18:57 24.06.2020
796 Clouds 17 1023 82 10000 3.6 90 18:38 24.06.2020
797 Clouds 17 1023 82 10000 3.6 90 18:20 24.06.2020
798 Clouds 18 1023 77 10000 5.1 110 17:44 24.06.2020
799 Clouds 18 1023 77 10000 5.1 110 17:21 24.06.2020
800 Clouds 19 1022 72 10000 5.7 110 16:59 24.06.2020
801 Clouds 20 1022 68 10000 5.7 110 16:41 24.06.2020
802 Clouds 20 1022 68 10000 5.7 110 16:22 24.06.2020
803 Clouds 21 1022 64 10000 5.7 110 15:59 24.06.2020
804 Clouds 22 1022 60 10000 5.7 110 15:39 24.06.2020
805 Clouds 22 1022 60 10000 5.7 110 15:20 24.06.2020
806 Clouds 21 1022 64 10000 6.2 110 14:54 24.06.2020
807 Clouds 23 1022 56 10000 6.7 110 14:36 24.06.2020
808 Clouds 23 1022 56 10000 6.7 110 14:18 24.06.2020
809 Clouds 24 1022 53 10000 6.2 110 13:42 24.06.2020
810 Clouds 24 1022 53 10000 6.2 110 13:21 24.06.2020
811 Clouds 24 1022 57 10000 5.7 120 12:42 24.06.2020
812 Clouds 24 1022 57 10000 5.7 120 12:21 24.06.2020
813 Clouds 23 1023 60 10000 3.6 110 11:57 24.06.2020
814 Clouds 22 1023 64 10000 4.1 130 11:39 24.06.2020
815 Clouds 22 1023 64 10000 4.1 130 11:21 24.06.2020
816 Clouds 20 1023 72 10000 2.6 140 10:45 24.06.2020
817 Clouds 20 1023 72 10000 2.6 140 10:19 24.06.2020
818 Clouds 20 1024 68 10000 2.6 150 09:46 24.06.2020
819 Clouds 19 1024 72 10000 3.1 140 09:24 24.06.2020
820 Clouds 18 1024 77 10000 2.6 160 08:59 24.06.2020
821 Clouds 17 1024 82 10000 3.6 180 08:39 24.06.2020
822 Clouds 17 1024 82 10000 3.6 180 08:18 24.06.2020
823 Clouds 16 1024 87 10000 4.1 150 07:44 24.06.2020
824 Clouds 16 1024 87 10000 4.1 150 07:24 24.06.2020
825 Clouds 16 1023 87 10000 3.1 140 06:44 24.06.2020
826 Clouds 16 1023 87 10000 3.1 140 06:24 24.06.2020
827 Clouds 16 1023 87 10000 3.1 140 05:38 24.06.2020
828 Clouds 16 1022 87 10000 2.1 120 04:38 24.06.2020
829 Clouds 16 1023 87 10000 2.1 160 03:38 24.06.2020
830 Clouds 16 1022 93 10000 2.1 170 02:53 24.06.2020
831 Clouds 16 1023 87 10000 2.6 160 02:18 24.06.2020
832 Clouds 17 1023 82 10000 3.1 170 00:51 24.06.2020
833 Clouds 17 1023 82 10000 2.6 170 00:33 24.06.2020
834 Clouds 16 1023 87 10000 2.6 140 23:47 23.06.2020
835 Clouds 17 1024 88 10000 2.1 110 23:21 23.06.2020
836 Clouds 16 1024 93 10000 1 90 22:58 23.06.2020
837 Clouds 16 1024 93 10000 0.5 0 22:40 23.06.2020
838 Clouds 16 1024 93 10000 0.5 0 22:18 23.06.2020
839 Clouds 16 1024 93 10000 0.5 0 22:18 23.06.2020
840 Clouds 17 1024 88 10000 2.1 100 21:42 23.06.2020
841 Clouds 17 1024 88 10000 2.1 100 21:20 23.06.2020
842 Clouds 17 1024 82 10000 2.6 140 20:56 23.06.2020
843 Clouds 17 1024 82 10000 2.6 130 20:38 23.06.2020
844 Clouds 17 1024 82 10000 2.6 130 20:19 23.06.2020
845 Clouds 16 1024 87 10000 1.5 140 19:49 23.06.2020
846 Clouds 16 1024 87 10000 1 0 19:28 23.06.2020
847 Clouds 16 1024 82 10000 1.5 80 18:55 23.06.2020
848 Clouds 16 1023 82 10000 2.1 80 18:37 23.06.2020
849 Clouds 16 1023 82 10000 2.1 80 18:18 23.06.2020
850 Clouds 18 1023 72 10000 5.1 100 17:40 23.06.2020
851 Clouds 18 1023 72 10000 5.1 100 17:22 23.06.2020
852 Clouds 18 1023 72 10000 4.6 110 16:56 23.06.2020
853 Clouds 19 1023 72 10000 4.6 130 16:38 23.06.2020
854 Clouds 19 1023 72 10000 4.6 130 16:38 23.06.2020
855 Clouds 19 1023 72 10000 4.6 130 16:20 23.06.2020
856 Clouds 19 1022 72 10000 4.1 170 15:45 23.06.2020
857 Clouds 19 1022 72 10000 4.1 170 15:25 23.06.2020
858 Clouds 20 1022 68 10000 4.6 130 14:59 23.06.2020
859 Clouds 19 1022 72 10000 4.6 160 14:41 23.06.2020
860 Clouds 19 1022 72 10000 4.6 160 14:19 23.06.2020
861 Clouds 20 1022 68 10000 5.7 120 13:56 23.06.2020
862 Clouds 20 1022 68 10000 5.1 140 13:37 23.06.2020
863 Clouds 20 1022 68 10000 5.1 140 13:19 23.06.2020
864 Clouds 21 1022 64 10000 6.7 110 12:41 23.06.2020
865 Clouds 21 1022 64 10000 6.7 110 12:22 23.06.2020
866 Clouds 22 1023 60 10000 7.2 110 11:54 23.06.2020
867 Clouds 22 1023 60 10000 7.2 110 11:54 23.06.2020
868 Clouds 19 1023 72 10000 5.7 130 11:36 23.06.2020
869 Clouds 19 1023 72 10000 5.7 130 11:18 23.06.2020
870 Clouds 19 1023 72 10000 5.7 140 10:41 23.06.2020
871 Clouds 19 1023 72 10000 5.7 140 10:22 23.06.2020
872 Clouds 19 1024 72 10000 5.1 160 09:59 23.06.2020
873 Clouds 19 1024 72 10000 5.7 140 09:41 23.06.2020
874 Clouds 19 1024 72 10000 5.7 140 09:20 23.06.2020
875 Clouds 19 1024 72 10000 5.1 150 08:47 23.06.2020
876 Clouds 18 1024 72 10000 5.7 130 08:28 23.06.2020
877 Clouds 17 1023 82 10000 4.6 170 07:58 23.06.2020
878 Clouds 17 1023 82 10000 3.1 160 07:39 23.06.2020
879 Clouds 17 1023 82 10000 3.1 160 07:21 23.06.2020
880 Clouds 16 1023 82 10000 2.6 140 06:47 23.06.2020
881 Clouds 16 1023 82 10000 2.6 140 06:29 23.06.2020
882 Clouds 16 1022 87 10000 2.6 160 05:39 23.06.2020
883 Clouds 15 1022 93 10000 1.5 160 03:29 23.06.2020
884 Clouds 15 1022 93 10000 2.1 150 02:54 23.06.2020
885 Clouds 15 1022 93 10000 2.1 180 02:35 23.06.2020
886 Clouds 15 1022 93 10000 2.6 170 01:46 23.06.2020
887 Clouds 14 1022 93 10000 1.5 0 01:25 23.06.2020
888 Clouds 14 1023 93 10000 2.6 150 00:49 23.06.2020
889 Clouds 14 1023 93 10000 2.1 150 00:21 23.06.2020
890 Clouds 13 1023 100 10000 3.1 110 23:55 22.06.2020
891 Clouds 14 1023 93 10000 2.1 110 23:36 22.06.2020
892 Clouds 14 1023 93 10000 2.1 110 23:18 22.06.2020
893 Clouds 14 1023 100 10000 1.5 60 22:55 22.06.2020
894 Clouds 14 1023 100 10000 1.5 80 22:36 22.06.2020
895 Clouds 14 1023 100 10000 1.5 80 22:18 22.06.2020
896 Clouds 15 1023 93 10000 2.1 100 21:41 22.06.2020
897 Clouds 15 1023 93 10000 2.1 100 21:22 22.06.2020
898 Clouds 15 1023 93 10000 0.5 0 20:59 22.06.2020
899 Clouds 15 1023 93 10000 0.5 0 20:41 22.06.2020
900 Clouds 15 1023 93 10000 0.5 0 20:21 22.06.2020
901 Clouds 16 1022 87 10000 2.1 110 19:44 22.06.2020
902 Clouds 16 1022 87 10000 2.1 110 19:20 22.06.2020
903 Clouds 16 1022 87 10000 1 90 18:58 22.06.2020
904 Clouds 17 1022 82 10000 1.5 60 18:38 22.06.2020
905 Clouds 17 1022 82 10000 1.5 60 18:20 22.06.2020
906 Clouds 18 1021 77 10000 2.6 70 17:56 22.06.2020
907 Clouds 19 1021 72 10000 4.6 90 17:37 22.06.2020
908 Clouds 19 1021 72 10000 4.6 90 17:19 22.06.2020
909 Clouds 20 1021 72 10000 5.1 90 16:43 22.06.2020
910 Clouds 22 1021 64 10000 5.1 110 16:20 22.06.2020
911 Clouds 24 1020 53 10000 4.1 110 15:59 22.06.2020
912 Clouds 25 1020 47 10000 3.1 110 15:39 22.06.2020
913 Clouds 25 1020 47 10000 3.1 110 15:21 22.06.2020
914 Clouds 25 1020 47 10000 2.6 160 14:40 22.06.2020
915 Clouds 25 1020 47 10000 2.6 160 14:21 22.06.2020
916 Clouds 25 1020 44 10000 2.6 150 13:58 22.06.2020
917 Clouds 26 1020 41 10000 3.1 0 13:39 22.06.2020
918 Clouds 26 1020 41 10000 3.1 0 13:20 22.06.2020
919 Clouds 25 1021 44 10000 3.1 170 12:44 22.06.2020
920 Clouds 25 1021 44 10000 2.6 0 12:24 22.06.2020
921 Clouds 24 1022 50 10000 3.1 170 11:59 22.06.2020
922 Clouds 24 1022 53 10000 2.1 0 11:37 22.06.2020
923 Clouds 24 1022 53 10000 2.1 0 11:18 22.06.2020
924 Clouds 23 1023 56 10000 2.1 150 10:55 22.06.2020
925 Clouds 22 1023 60 10000 2.6 0 10:36 22.06.2020
926 Clouds 22 1023 60 10000 2.6 0 10:18 22.06.2020
927 Clouds 21 1023 64 10000 2.1 150 09:54 22.06.2020
928 Clouds 19 1024 68 10000 2.6 140 09:36 22.06.2020
929 Clouds 19 1024 68 10000 2.6 140 09:18 22.06.2020
930 Clouds 17 1024 77 10000 2.1 150 08:39 22.06.2020
931 Clouds 17 1024 77 10000 2.1 150 08:20 22.06.2020
932 Clouds 16 1024 82 10000 2.6 150 07:52 22.06.2020
933 Clouds 15 1023 87 10000 2.6 160 07:33 22.06.2020
934 Clouds 15 1023 87 10000 2.1 160 06:46 22.06.2020
935 Clouds 14 1023 87 10000 2.1 190 06:27 22.06.2020
936 Clouds 14 1023 87 10000 2.1 200 05:58 22.06.2020
937 Clouds 14 1023 87 10000 2.1 200 05:30 22.06.2020
938 Clouds 14 1023 93 10000 3.1 190 02:55 22.06.2020
939 Clouds 14 1023 93 10000 1.5 160 01:25 22.06.2020
940 Clouds 14 1023 93 10000 2.1 150 00:41 22.06.2020
941 Clouds 15 1023 87 10000 3.1 140 23:59 21.06.2020
942 Clouds 15 1024 87 10000 1.5 0 23:39 21.06.2020
943 Clouds 15 1024 87 10000 1.5 0 23:21 21.06.2020
944 Clouds 15 1024 93 10000 3.1 120 22:57 21.06.2020
945 Clouds 15 1024 93 10000 2.6 140 22:38 21.06.2020
946 Clouds 15 1024 93 10000 2.6 140 22:19 21.06.2020
947 Clouds 15 1024 87 10000 2.6 130 21:58 21.06.2020
948 Clouds 15 1024 93 10000 4.1 110 21:39 21.06.2020
949 Clouds 15 1024 93 10000 4.1 110 21:39 21.06.2020
950 Clouds 15 1024 93 10000 4.1 110 21:21 21.06.2020
951 Clouds 15 1024 87 10000 2.1 80 20:58 21.06.2020
952 Clouds 15 1024 87 10000 2.6 110 20:38 21.06.2020
953 Clouds 15 1024 87 10000 2.6 110 20:18 21.06.2020
954 Clouds 15 1024 87 10000 2.1 130 19:56 21.06.2020
955 Clouds 14 1024 93 10000 2.1 90 19:38 21.06.2020
956 Clouds 14 1024 93 10000 2.1 90 19:19 21.06.2020
957 Clouds 15 1024 87 10000 2.1 100 18:40 21.06.2020
958 Clouds 15 1024 87 10000 2.1 100 18:22 21.06.2020
959 Clouds 16 1023 82 10000 3.1 100 17:59 21.06.2020
960 Clouds 16 1023 82 10000 3.1 110 17:39 21.06.2020
961 Clouds 16 1023 82 10000 3.1 110 17:19 21.06.2020
962 Clouds 16 1023 82 10000 3.6 110 16:41 21.06.2020
963 Clouds 17 1023 77 10000 5.1 110 16:23 21.06.2020
964 Clouds 18 1023 72 10000 5.7 100 15:57 21.06.2020
965 Clouds 19 1023 72 10000 4.6 100 15:37 21.06.2020
966 Clouds 19 1023 72 10000 4.6 100 15:19 21.06.2020
967 Clouds 20 1023 68 10000 5.1 110 14:39 21.06.2020
968 Clouds 20 1023 68 10000 5.1 110 14:20 21.06.2020
969 Clouds 20 1023 68 10000 6.7 110 13:57 21.06.2020
970 Clouds 20 1024 68 10000 5.7 110 13:39 21.06.2020
971 Clouds 20 1024 68 10000 5.7 110 13:19 21.06.2020
972 Clouds 20 1024 68 10000 5.1 120 12:44 21.06.2020
973 Clouds 20 1024 64 10000 4.6 130 12:26 21.06.2020
974 Clouds 20 1025 64 10000 5.1 120 11:58 21.06.2020
975 Clouds 19 1025 68 10000 5.1 140 11:40 21.06.2020
976 Clouds 19 1025 68 10000 5.1 140 11:40 21.06.2020
977 Clouds 19 1025 68 10000 5.1 140 11:22 21.06.2020
978 Clouds 18 1025 72 10000 5.7 160 10:56 21.06.2020
979 Clouds 17 1026 77 10000 4.6 150 10:38 21.06.2020
980 Clouds 17 1026 77 10000 4.6 150 10:20 21.06.2020
981 Clouds 17 1026 77 10000 4.1 150 09:41 21.06.2020
982 Clouds 16 1026 82 10000 4.6 150 09:19 21.06.2020
983 Clouds 16 1026 82 10000 4.6 150 08:56 21.06.2020
984 Clouds 16 1026 82 10000 5.1 140 08:38 21.06.2020
985 Clouds 16 1026 82 10000 5.1 140 08:19 21.06.2020
986 Clouds 15 1026 87 10000 5.7 140 07:41 21.06.2020
987 Clouds 15 1026 87 10000 4.1 160 07:23 21.06.2020
988 Clouds 14 1025 87 10000 4.1 160 06:49 21.06.2020
989 Clouds 14 1025 87 10000 3.6 170 06:18 21.06.2020
990 Clouds 14 1025 87 10000 3.6 150 05:54 21.06.2020
991 Clouds 14 1024 87 10000 4.1 140 03:40 21.06.2020
992 Clouds 14 1024 87 10000 4.1 140 03:18 21.06.2020
993 Clouds 13 1024 93 10000 3.1 140 02:20 21.06.2020
994 Clouds 13 1024 93 10000 3.6 140 01:32 21.06.2020
995 Clouds 13 1025 93 10000 3.6 160 00:56 21.06.2020
996 Clouds 13 1025 93 10000 3.1 170 00:38 21.06.2020
997 Clouds 13 1025 93 10000 3.1 170 00:19 21.06.2020
998 Clouds 13 1025 93 10000 3.1 170 23:44 20.06.2020
999 Clouds 13 1025 93 10000 3.1 170 23:22 20.06.2020
1000 Clouds 13 1025 93 10000 3.1 180 22:56 20.06.2020
1001 Clouds 13 1025 93 10000 2.6 180 22:38 20.06.2020
1002 Clouds 13 1025 93 10000 2.6 180 22:18 20.06.2020
1003 Clouds 13 1025 93 10000 2.6 170 21:56 20.06.2020
1004 Drizzle 13 1026 93 10000 3.6 190 21:38 20.06.2020
1005 Drizzle 13 1026 93 10000 3.6 190 21:19 20.06.2020
1006 Drizzle 13 1026 93 10000 3.6 160 20:56 20.06.2020
1007 Drizzle 13 1026 93 10000 3.1 160 20:38 20.06.2020
1008 Drizzle 13 1026 93 10000 3.1 160 20:19 20.06.2020
1009 Drizzle 13 1026 93 10000 2.6 150 19:43 20.06.2020
1010 Drizzle 13 1026 93 10000 4.1 160 19:23 20.06.2020
1011 Drizzle 13 1025 93 10000 4.1 160 18:55 20.06.2020
1012 Drizzle 13 1025 93 10000 3.6 160 18:37 20.06.2020
1013 Drizzle 13 1025 93 10000 3.6 160 18:19 20.06.2020
1014 Drizzle 14 1025 93 10000 3.1 150 17:56 20.06.2020
1015 Clouds 14 1024 87 10000 3.6 160 17:37 20.06.2020
1016 Clouds 14 1024 87 10000 3.6 160 17:18 20.06.2020
1017 Drizzle 15 1024 82 10000 3.6 150 16:40 20.06.2020
1018 Drizzle 15 1024 82 10000 3.6 150 16:19 20.06.2020
1019 Clouds 15 1024 82 10000 3.6 140 15:55 20.06.2020
1020 Clouds 15 1024 82 10000 5.1 150 15:37 20.06.2020
1021 Clouds 15 1024 82 10000 5.1 150 15:18 20.06.2020
1022 Clouds 16 1024 77 10000 4.1 150 14:42 20.06.2020
1023 Clouds 16 1024 82 10000 4.1 140 14:19 20.06.2020
1024 Clouds 16 1024 77 10000 4.6 150 13:41 20.06.2020
1025 Clouds 16 1024 77 10000 4.6 150 13:20 20.06.2020
1026 Clouds 17 1024 72 10000 5.1 140 12:55 20.06.2020
1027 Drizzle 16 1025 77 10000 5.1 140 12:36 20.06.2020
1028 Drizzle 16 1025 77 10000 5.1 140 12:18 20.06.2020
1029 Clouds 17 1025 77 10000 5.7 140 11:38 20.06.2020
1030 Clouds 17 1025 77 10000 5.7 140 11:20 20.06.2020
1031 Clouds 16 1026 82 10000 5.1 140 10:57 20.06.2020
1032 Rain 16 1026 77 10000 5.7 140 10:38 20.06.2020
1033 Rain 16 1026 77 10000 5.7 140 10:18 20.06.2020
1034 Clouds 16 1026 77 10000 4.6 140 09:40 20.06.2020
1035 Clouds 16 1026 77 10000 4.6 140 09:22 20.06.2020
1036 Clouds 16 1026 82 10000 3.1 160 08:56 20.06.2020
1037 Clouds 15 1026 87 10000 4.1 160 08:38 20.06.2020
1038 Clouds 15 1026 87 10000 4.1 160 08:20 20.06.2020
1039 Clouds 14 1026 87 10000 4.1 150 07:44 20.06.2020
1040 Clouds 14 1025 87 10000 3.6 170 07:25 20.06.2020
1041 Clouds 13 1025 93 10000 3.1 160 06:24 20.06.2020
1042 Clouds 13 1025 93 10000 2.6 150 05:59 20.06.2020
1043 Clouds 13 1024 93 10000 3.1 170 05:40 20.06.2020
1044 Clouds 13 1024 93 10000 3.6 160 03:21 20.06.2020
1045 Clouds 14 1024 87 10000 4.1 160 01:52 20.06.2020
1046 Clouds 14 1024 82 10000 4.1 170 01:33 20.06.2020
1047 Clouds 14 1025 82 10000 3.6 140 00:22 20.06.2020
1048 Clouds 14 1025 82 10000 3.6 150 23:58 19.06.2020
1049 Clouds 14 1025 82 10000 3.6 130 23:39 19.06.2020
1050 Clouds 14 1025 82 10000 3.6 130 23:19 19.06.2020
1051 Clouds 14 1025 82 10000 3.6 130 22:42 19.06.2020
1052 Clouds 14 1025 82 10000 4.6 150 22:24 19.06.2020
1053 Clouds 14 1026 82 10000 4.1 140 21:59 19.06.2020
1054 Clouds 14 1026 82 10000 4.1 140 21:59 19.06.2020
1055 Clouds 14 1026 82 10000 4.1 140 21:39 19.06.2020
1056 Clouds 14 1026 82 10000 4.1 140 21:39 19.06.2020
1057 Clouds 14 1026 82 10000 4.1 140 21:18 19.06.2020
1058 Clouds 14 1026 82 10000 4.1 150 20:59 19.06.2020
1059 Clouds 14 1025 87 10000 3.6 160 20:40 19.06.2020
1060 Clouds 14 1025 87 10000 3.6 160 20:21 19.06.2020
1061 Clouds 14 1025 87 10000 3.6 160 20:21 19.06.2020
1062 Clouds 14 1025 82 10000 4.6 150 19:57 19.06.2020
1063 Clouds 14 1025 82 10000 4.1 150 19:39 19.06.2020
1064 Clouds 14 1025 82 10000 4.1 150 19:21 19.06.2020
1065 Clouds 14 1025 87 10000 3.6 140 18:55 19.06.2020
1066 Clouds 14 1025 82 10000 4.6 140 18:37 19.06.2020
1067 Clouds 14 1025 82 10000 4.6 140 18:37 19.06.2020
1068 Clouds 14 1025 82 10000 4.6 140 18:37 19.06.2020
1069 Clouds 14 1025 82 10000 4.6 140 18:19 19.06.2020
1070 Clouds 15 1024 77 10000 4.6 130 17:40 19.06.2020
1071 Clouds 15 1024 77 10000 4.6 130 17:22 19.06.2020
1072 Clouds 15 1024 77 10000 5.7 130 16:56 19.06.2020
1073 Clouds 15 1024 77 10000 4.1 140 16:37 19.06.2020
1074 Clouds 15 1024 77 10000 4.1 140 16:19 19.06.2020
1075 Clouds 17 1024 67 10000 4.6 140 15:43 19.06.2020
1076 Clouds 17 1024 67 10000 4.6 140 15:24 19.06.2020
1077 Clouds 17 1023 67 10000 5.7 140 14:56 19.06.2020
1078 Clouds 18 1024 63 10000 6.7 110 14:38 19.06.2020
1079 Clouds 18 1024 63 10000 6.7 110 14:19 19.06.2020
1080 Clouds 19 1024 55 10000 5.7 140 13:45 19.06.2020
1081 Clouds 18 1024 55 10000 5.7 150 13:27 19.06.2020
1082 Clouds 18 1024 59 10000 5.7 150 12:49 19.06.2020
1083 Clouds 19 1024 55 10000 5.7 120 12:24 19.06.2020
1084 Clouds 17 1025 63 10000 5.7 140 11:59 19.06.2020
1085 Clouds 16 1025 67 10000 6.2 160 11:40 19.06.2020
1086 Clouds 16 1025 67 10000 6.2 160 11:19 19.06.2020
1087 Clouds 16 1025 67 10000 6.2 150 10:55 19.06.2020
1088 Clouds 16 1025 67 10000 6.2 150 10:55 19.06.2020
1089 Clouds 15 1026 72 10000 5.7 160 10:37 19.06.2020
1090 Clouds 15 1026 72 10000 5.7 140 10:18 19.06.2020
1091 Clouds 14 1026 76 10000 5.7 150 09:41 19.06.2020
1092 Clouds 14 1026 76 10000 5.7 150 09:21 19.06.2020
1093 Clouds 14 1026 76 10000 5.7 160 08:45 19.06.2020
1094 Clouds 15 1026 72 10000 5.1 140 08:27 19.06.2020
1095 Clouds 14 1026 76 10000 5.1 140 07:57 19.06.2020
1096 Clouds 13 1026 82 10000 5.1 150 07:39 19.06.2020
1097 Clouds 13 1026 82 10000 5.1 150 07:39 19.06.2020
1098 Clouds 13 1026 82 10000 5.1 150 07:20 19.06.2020
1099 Clouds 13 1025 82 10000 4.1 150 06:28 19.06.2020
1100 Clouds 13 1025 82 10000 4.6 140 05:50 19.06.2020
1101 Clouds 13 1024 87 10000 4.1 160 04:27 19.06.2020
1102 Clouds 12 1025 93 10000 3.1 170 02:52 19.06.2020
1103 Clouds 12 1026 87 10000 3.1 170 00:59 19.06.2020
1104 Clouds 12 1026 87 10000 2.6 160 00:40 19.06.2020
1105 Clouds 12 1026 87 10000 2.6 160 00:21 19.06.2020
1106 Clouds 12 1026 87 10000 2.1 150 23:41 18.06.2020
1107 Clouds 12 1026 87 10000 3.1 160 23:23 18.06.2020
1108 Clouds 12 1027 87 10000 2.6 150 22:59 18.06.2020
1109 Clouds 12 1027 87 10000 3.1 150 22:39 18.06.2020
1110 Clouds 12 1027 87 10000 3.1 150 22:18 18.06.2020
1111 Clouds 12 1027 81 10000 4.6 160 21:39 18.06.2020
1112 Clouds 12 1027 81 10000 4.6 160 21:20 18.06.2020
1113 Clouds 12 1027 81 10000 2.6 140 20:57 18.06.2020
1114 Clouds 12 1027 76 10000 2.6 150 20:38 18.06.2020
1115 Clouds 12 1027 76 10000 2.6 150 20:19 18.06.2020
1116 Clouds 12 1027 76 10000 3.6 170 19:42 18.06.2020
1117 Clouds 12 1027 81 10000 3.1 170 19:22 18.06.2020
1118 Clouds 12 1027 81 10000 3.6 150 18:57 18.06.2020
1119 Clouds 12 1026 81 10000 4.1 140 18:37 18.06.2020
1120 Clouds 12 1026 81 10000 4.1 140 18:19 18.06.2020
1121 Clouds 13 1026 76 10000 3.6 140 17:45 18.06.2020
1122 Clouds 14 1026 76 10000 5.1 130 17:25 18.06.2020
1123 Clouds 15 1025 72 10000 4.6 140 16:56 18.06.2020
1124 Clouds 16 1025 59 10000 6.2 140 16:37 18.06.2020
1125 Clouds 16 1025 59 10000 6.2 140 16:18 18.06.2020
1126 Clouds 16 1025 59 10000 5.7 140 15:55 18.06.2020
1127 Clouds 17 1024 59 10000 5.1 150 15:37 18.06.2020
1128 Clouds 17 1024 59 10000 5.1 150 15:18 18.06.2020
1129 Clouds 18 1024 52 10000 6.2 130 14:41 18.06.2020
1130 Clouds 18 1024 52 10000 5.7 140 14:23 18.06.2020
1131 Clouds 19 1024 48 10000 6.2 130 13:58 18.06.2020
1132 Clouds 19 1024 48 10000 6.2 120 13:40 18.06.2020
1133 Clouds 19 1024 48 10000 6.2 120 13:40 18.06.2020
1134 Clouds 19 1024 48 10000 6.2 120 13:20 18.06.2020
1135 Clouds 19 1025 48 10000 6.2 130 12:55 18.06.2020
1136 Clouds 18 1025 52 10000 6.2 140 12:37 18.06.2020
1137 Clouds 18 1025 52 10000 6.2 140 12:19 18.06.2020
1138 Clouds 18 1025 52 10000 6.2 150 11:46 18.06.2020
1139 Clouds 17 1026 55 10000 7.7 160 11:21 18.06.2020
1140 Clouds 16 1027 63 10000 6.2 160 10:41 18.06.2020
1141 Clouds 15 1027 67 10000 5.7 150 10:20 18.06.2020
1142 Clouds 16 1027 59 10000 7.2 130 09:58 18.06.2020
1143 Clouds 14 1027 67 10000 6.2 150 09:39 18.06.2020
1144 Clouds 14 1027 67 10000 6.2 150 09:39 18.06.2020
1145 Clouds 14 1027 67 10000 6.2 150 09:21 18.06.2020
1146 Clouds 13 1027 71 10000 6.2 150 08:40 18.06.2020
1147 Clouds 13 1027 71 10000 6.2 150 08:22 18.06.2020
1148 Clouds 13 1027 76 10000 5.7 150 07:47 18.06.2020
1149 Clouds 12 1027 76 10000 4.1 160 07:27 18.06.2020
1150 Clouds 11 1026 81 10000 3.1 160 06:59 18.06.2020
1151 Clouds 11 1026 81 10000 5.1 180 06:20 18.06.2020
1152 Clouds 10 1025 81 10000 3.6 170 04:25 18.06.2020
1153 Clouds 10 1025 76 10000 5.1 160 02:51 18.06.2020
1154 Clouds 11 1026 76 10000 6.2 180 01:30 18.06.2020
1155 Clouds 11 1026 81 10000 6.7 180 00:57 18.06.2020
1156 Clouds 11 1026 81 10000 5.7 180 00:38 18.06.2020
1157 Clouds 11 1026 81 10000 5.7 180 00:20 18.06.2020
1158 Clouds 11 1027 81 10000 6.2 180 23:43 17.06.2020
1159 Clouds 11 1027 81 10000 5.1 180 23:21 17.06.2020
1160 Clouds 11 1027 76 10000 5.1 180 22:57 17.06.2020
1161 Clouds 11 1027 76 10000 5.1 180 22:57 17.06.2020
1162 Clouds 11 1027 81 10000 4.1 160 22:38 17.06.2020
1163 Clouds 11 1027 81 10000 4.1 160 22:20 17.06.2020
1164 Clouds 12 1028 76 10000 4.6 160 21:55 17.06.2020
1165 Clouds 12 1028 76 10000 3.1 140 21:37 17.06.2020
1166 Clouds 12 1028 76 10000 3.1 140 21:18 17.06.2020
1167 Clouds 12 1028 76 10000 3.1 140 21:18 17.06.2020
1168 Clouds 12 1027 87 10000 4.6 150 20:38 17.06.2020
1169 Clouds 12 1027 87 10000 4.6 150 20:20 17.06.2020
1170 Clouds 12 1027 81 10000 4.1 150 19:56 17.06.2020
1171 Clouds 12 1026 81 10000 5.7 150 19:37 17.06.2020
1172 Clouds 12 1026 81 10000 5.7 150 19:18 17.06.2020
1173 Clouds 13 1026 76 10000 6.7 160 18:44 17.06.2020
1174 Clouds 13 1026 82 10000 6.7 160 18:26 17.06.2020
1175 Clouds 13 1025 87 10000 4.1 150 17:44 17.06.2020
1176 Clouds 14 1025 76 10000 4.1 140 17:22 17.06.2020
1177 Clouds 14 1025 76 10000 5.7 150 16:57 17.06.2020
1178 Clouds 14 1025 76 10000 5.7 150 16:57 17.06.2020
1179 Clouds 15 1025 72 10000 7.7 160 16:39 17.06.2020
1180 Clouds 15 1025 72 10000 7.7 160 16:39 17.06.2020
1181 Clouds 15 1025 72 10000 7.7 160 16:20 17.06.2020
1182 Clouds 15 1024 77 10000 7.2 140 15:56 17.06.2020
1183 Clouds 17 1024 67 10000 7.7 150 15:38 17.06.2020
1184 Clouds 17 1024 67 10000 7.7 150 15:19 17.06.2020
1185 Clouds 18 1024 63 10000 5.7 150 14:57 17.06.2020
1186 Clouds 18 1024 63 10000 5.7 150 14:57 17.06.2020
1187 Clouds 18 1024 63 10000 6.2 160 14:38 17.06.2020
1188 Clouds 18 1024 63 10000 6.2 160 14:19 17.06.2020
1189 Clouds 18 1024 63 10000 6.2 160 13:42 17.06.2020
1190 Clouds 17 1024 63 10000 7.2 170 13:22 17.06.2020
1191 Clouds 18 1024 59 10000 7.7 150 12:59 17.06.2020
1192 Clouds 18 1024 63 10000 6.7 170 12:40 17.06.2020
1193 Clouds 18 1024 63 10000 6.7 170 12:20 17.06.2020
1194 Clouds 18 1025 63 10000 7.2 160 11:44 17.06.2020
1195 Clouds 18 1025 59 10000 7.2 150 11:26 17.06.2020
1196 Clouds 18 1025 59 10000 7.2 150 11:26 17.06.2020
1197 Clouds 18 1026 63 10000 8.7 180 10:56 17.06.2020
1198 Clouds 17 1026 67 10000 7.2 160 10:37 17.06.2020
1199 Clouds 17 1026 67 10000 7.2 160 10:18 17.06.2020
1200 Clouds 18 1026 68 10000 6.2 140 09:55 17.06.2020
1201 Clouds 17 1026 67 10000 6.2 140 09:36 17.06.2020
1202 Clouds 17 1026 67 10000 6.2 140 09:18 17.06.2020
1203 Clouds 16 1026 72 10000 7.2 160 08:42 17.06.2020
1204 Clouds 15 1026 77 10000 6.7 160 08:19 17.06.2020
1205 Clouds 15 1026 77 10000 6.2 160 07:43 17.06.2020
1206 Clouds 14 1026 82 10000 4.1 160 07:23 17.06.2020
1207 Clouds 14 1026 82 10000 4.6 150 06:57 17.06.2020
1208 Clouds 14 1025 82 10000 5.1 140 06:39 17.06.2020
1209 Clouds 14 1025 82 10000 5.1 140 06:21 17.06.2020
1210 Clouds 13 1025 87 10000 4.6 150 05:45 17.06.2020
1211 Clouds 14 1025 82 10000 4.6 150 04:18 17.06.2020
1212 Clouds 14 1025 87 10000 3.1 150 01:55 17.06.2020
1213 Clouds 14 1025 87 10000 3.6 160 00:48 17.06.2020
1214 Clouds 14 1025 87 10000 4.6 150 00:25 17.06.2020
1215 Clouds 14 1025 87 10000 4.6 150 23:57 16.06.2020
1216 Clouds 15 1025 82 10000 3.6 150 23:38 16.06.2020
1217 Clouds 15 1025 82 10000 3.6 150 23:38 16.06.2020
1218 Clouds 15 1025 82 10000 3.6 150 23:20 16.06.2020
1219 Clouds 14 1025 87 10000 3.6 140 22:56 16.06.2020
1220 Clouds 14 1026 87 10000 3.6 150 22:37 16.06.2020
1221 Clouds 14 1026 87 10000 3.6 150 22:19 16.06.2020
1222 Clouds 14 1026 87 10000 3.6 140 21:54 16.06.2020
1223 Clouds 14 1026 87 10000 2.6 140 21:36 16.06.2020
1224 Clouds 14 1026 87 10000 2.6 140 21:18 16.06.2020
1225 Clouds 14 1026 87 10000 4.1 120 20:42 16.06.2020
1226 Clouds 15 1026 82 10000 4.1 110 20:19 16.06.2020
1227 Clouds 15 1026 82 10000 3.6 130 19:58 16.06.2020
1228 Clouds 15 1025 82 10000 4.6 120 19:39 16.06.2020
1229 Clouds 15 1025 82 10000 4.6 120 19:21 16.06.2020
1230 Clouds 16 1025 82 10000 6.2 120 18:55 16.06.2020
1231 Clouds 16 1025 82 10000 6.2 110 18:37 16.06.2020
1232 Clouds 16 1025 82 10000 6.2 110 18:19 16.06.2020
1233 Clouds 16 1024 77 10000 4.6 110 17:55 16.06.2020
1234 Clouds 16 1024 77 10000 4.6 110 17:36 16.06.2020
1235 Clouds 16 1024 77 10000 4.6 110 17:18 16.06.2020
1236 Clouds 18 1024 68 10000 3.6 120 16:42 16.06.2020
1237 Clouds 18 1024 68 10000 3.6 120 16:21 16.06.2020
1238 Clouds 19 1023 63 10000 5.7 140 15:58 16.06.2020
1239 Clouds 19 1023 63 10000 5.7 140 15:40 16.06.2020
1240 Clouds 19 1023 63 10000 5.7 140 15:22 16.06.2020
1241 Clouds 19 1023 63 10000 5.7 140 14:57 16.06.2020
1242 Clouds 20 1023 60 10000 6.7 120 14:38 16.06.2020
1243 Clouds 20 1023 60 10000 6.7 120 14:20 16.06.2020
1244 Clouds 20 1023 64 10000 5.1 130 13:48 16.06.2020
1245 Clouds 20 1023 64 10000 5.1 130 13:26 16.06.2020
1246 Clouds 20 1023 60 10000 5.7 140 12:57 16.06.2020
1247 Clouds 20 1023 64 10000 4.1 140 12:38 16.06.2020
1248 Clouds 20 1023 64 10000 4.1 140 12:19 16.06.2020
1249 Clouds 19 1024 63 10000 3.6 160 11:54 16.06.2020
1250 Clouds 19 1024 63 10000 4.1 120 11:36 16.06.2020
1251 Clouds 19 1024 63 10000 4.1 120 11:18 16.06.2020
1252 Clouds 17 1025 72 10000 3.1 150 10:42 16.06.2020
1253 Clouds 17 1025 72 10000 3.1 150 10:20 16.06.2020
1254 Clouds 17 1025 72 10000 3.1 150 10:20 16.06.2020
1255 Clouds 16 1025 77 10000 4.1 150 09:48 16.06.2020
1256 Clouds 16 1025 77 10000 3.6 150 09:27 16.06.2020
1257 Clouds 15 1025 77 10000 4.6 170 08:59 16.06.2020
1258 Clouds 15 1025 77 10000 4.6 170 08:41 16.06.2020
1259 Clouds 15 1025 77 10000 4.6 170 08:22 16.06.2020
1260 Clouds 15 1025 77 10000 3.6 160 07:45 16.06.2020
1261 Clouds 14 1025 82 10000 3.6 160 07:26 16.06.2020
1262 Clouds 14 1025 82 10000 3.6 170 06:44 16.06.2020
1263 Clouds 13 1024 87 10000 2.1 170 06:19 16.06.2020
1264 Clouds 13 1024 82 10000 2.1 160 05:26 16.06.2020
1265 Clouds 13 1024 82 10000 1.5 0 04:26 16.06.2020
1266 Clouds 13 1023 82 10000 1.5 200 02:47 16.06.2020
1267 Clouds 14 1024 76 10000 1.5 170 01:36 16.06.2020
1268 Clouds 14 1024 76 10000 1.5 170 00:58 16.06.2020
1269 Clouds 14 1025 76 10000 2.1 140 00:29 16.06.2020
1270 Clouds 13 1025 87 10000 1.5 0 23:59 15.06.2020
1271 Clouds 13 1025 87 10000 1.5 0 23:41 15.06.2020
1272 Clouds 14 1025 82 10000 1 0 23:21 15.06.2020
1273 Clouds 14 1025 82 10000 1 0 23:21 15.06.2020
1274 Clouds 14 1025 82 10000 0.5 0 22:42 15.06.2020
1275 Clouds 14 1025 82 10000 0.5 0 22:42 15.06.2020
1276 Clouds 14 1025 82 10000 1 0 22:23 15.06.2020
1277 Clouds 14 1025 82 10000 2.1 170 21:59 15.06.2020
1278 Clouds 14 1025 82 10000 2.6 170 21:38 15.06.2020
1279 Clouds 14 1025 82 10000 2.6 170 21:20 15.06.2020
1280 Clouds 14 1025 82 10000 1.5 180 20:59 15.06.2020
1281 Clouds 14 1025 82 10000 1.5 0 20:39 15.06.2020
1282 Clouds 14 1025 82 10000 1.5 0 20:20 15.06.2020
1283 Clouds 14 1025 82 10000 2.6 120 19:59 15.06.2020
1284 Clouds 14 1025 82 10000 2.6 120 19:59 15.06.2020
1285 Clouds 13 1025 87 10000 3.6 120 19:40 15.06.2020
1286 Clouds 13 1025 87 10000 3.6 120 19:21 15.06.2020
1287 Clouds 13 1025 87 10000 3.6 100 18:57 15.06.2020
1288 Clouds 14 1025 82 10000 3.6 100 18:39 15.06.2020
1289 Clouds 14 1025 82 10000 3.6 100 18:39 15.06.2020
1290 Clouds 14 1025 82 10000 3.6 100 18:19 15.06.2020
1291 Clouds 14 1024 82 10000 3.6 70 17:56 15.06.2020
1292 Clouds 14 1024 82 10000 3.6 70 17:56 15.06.2020
1293 Clouds 14 1024 76 10000 3.6 80 17:37 15.06.2020
1294 Clouds 14 1024 76 10000 3.6 80 17:18 15.06.2020
1295 Clouds 15 1024 72 10000 5.7 100 16:41 15.06.2020
1296 Clouds 16 1024 67 10000 6.2 110 16:19 15.06.2020
1297 Clouds 17 1024 67 10000 5.1 100 15:57 15.06.2020
1298 Clouds 18 1023 63 10000 6.7 110 15:39 15.06.2020
1299 Clouds 18 1023 63 10000 6.7 110 15:19 15.06.2020
1300 Clouds 19 1023 59 10000 5.7 90 14:42 15.06.2020
1301 Clouds 20 1023 56 10000 4.6 100 14:22 15.06.2020
1302 Clouds 20 1023 56 10000 5.7 90 13:59 15.06.2020
1303 Clouds 20 1023 56 10000 5.7 90 13:41 15.06.2020
1304 Clouds 20 1023 56 10000 5.7 90 13:41 15.06.2020
1305 Clouds 20 1023 56 10000 5.7 110 13:23 15.06.2020
1306 Clouds 21 1023 52 10000 5.7 100 12:58 15.06.2020
1307 Clouds 21 1023 52 10000 5.7 100 12:39 15.06.2020
1308 Clouds 21 1023 52 10000 5.7 100 12:21 15.06.2020
1309 Clouds 19 1023 59 10000 4.1 150 11:44 15.06.2020
1310 Clouds 19 1024 63 10000 3.6 130 11:25 15.06.2020
1311 Clouds 19 1025 59 10000 4.1 130 10:56 15.06.2020
1312 Clouds 20 1025 56 10000 5.1 130 10:36 15.06.2020
1313 Clouds 20 1025 56 10000 5.1 130 10:18 15.06.2020
1314 Clouds 18 1025 63 10000 5.7 120 09:41 15.06.2020
1315 Clouds 16 1025 72 10000 4.1 140 09:21 15.06.2020
1316 Clouds 16 1026 72 10000 4.1 130 08:42 15.06.2020
1317 Clouds 15 1025 77 10000 3.1 140 08:23 15.06.2020
1318 Clouds 14 1025 82 10000 2.6 140 07:48 15.06.2020
1319 Clouds 13 1025 82 10000 2.6 160 07:29 15.06.2020
1320 Clouds 12 1025 87 10000 3.1 170 06:49 15.06.2020
1321 Clouds 11 1025 87 10000 2.6 160 06:26 15.06.2020
1322 Clouds 10 1025 93 10000 1.5 180 05:47 15.06.2020
1323 Clouds 11 1024 87 10000 1.5 0 05:26 15.06.2020
1324 Clouds 10 1024 93 10000 3.1 130 04:20 15.06.2020
1325 Clouds 10 1024 93 10000 2.6 150 03:42 15.06.2020
1326 Clouds 10 1024 93 10000 2.1 130 02:54 15.06.2020
1327 Clouds 11 1024 87 10000 2.6 160 01:58 15.06.2020
1328 Clouds 11 1025 87 10000 3.6 150 01:35 15.06.2020
1329 Clouds 10 1025 93 10000 2.1 150 00:59 15.06.2020
1330 Clouds 9 1025 93 10000 2.1 90 00:39 15.06.2020
1331 Clouds 9 1025 93 10000 2.1 90 00:20 15.06.2020
1332 Clouds 10 1025 93 10000 3.1 60 23:47 14.06.2020
1333 Clouds 10 1025 93 10000 3.6 110 23:25 14.06.2020
1334 Clouds 11 1025 87 10000 3.1 110 22:58 14.06.2020
1335 Clouds 11 1025 93 10000 2.6 140 22:39 14.06.2020
1336 Clouds 11 1025 93 10000 2.6 140 22:20 14.06.2020
1337 Clouds 12 1025 87 10000 2.6 140 21:57 14.06.2020
1338 Clouds 12 1026 87 10000 2.6 160 21:38 14.06.2020
1339 Clouds 12 1026 87 10000 2.6 160 21:19 14.06.2020
1340 Clouds 12 1026 87 10000 2.6 140 20:58 14.06.2020
1341 Clouds 12 1026 87 10000 4.1 110 20:38 14.06.2020
1342 Clouds 12 1026 87 10000 4.1 110 20:20 14.06.2020
1343 Clouds 12 1026 87 10000 4.6 110 19:59 14.06.2020
1344 Clouds 12 1026 87 10000 4.6 110 19:59 14.06.2020
1345 Clouds 13 1025 82 10000 3.6 120 19:38 14.06.2020
1346 Clouds 13 1025 82 10000 3.6 120 19:19 14.06.2020
1347 Clouds 13 1025 82 10000 3.6 120 19:19 14.06.2020
1348 Clouds 13 1025 82 10000 5.7 110 18:57 14.06.2020
1349 Clouds 13 1025 82 10000 5.7 110 18:57 14.06.2020
1350 Clouds 13 1025 82 10000 4.6 110 18:38 14.06.2020
1351 Clouds 13 1025 82 10000 4.6 110 18:20 14.06.2020
1352 Clouds 14 1024 76 10000 4.6 110 17:57 14.06.2020
1353 Clouds 15 1024 67 10000 5.7 120 17:38 14.06.2020
1354 Clouds 15 1024 67 10000 5.7 120 17:19 14.06.2020
1355 Clouds 16 1023 63 10000 5.7 120 16:41 14.06.2020
1356 Clouds 17 1023 55 10000 6.2 120 16:21 14.06.2020
1357 Clouds 19 1022 52 10000 6.2 110 15:59 14.06.2020
1358 Clouds 19 1022 52 10000 6.2 110 15:59 14.06.2020
1359 Clouds 20 1022 45 10000 5.7 120 15:40 14.06.2020
1360 Clouds 20 1022 45 10000 5.7 120 15:18 14.06.2020
1361 Clouds 21 1022 40 10000 4.6 120 14:58 14.06.2020
1362 Clouds 21 1022 40 10000 4.6 120 14:58 14.06.2020
1363 Clouds 21 1022 40 10000 5.1 110 14:40 14.06.2020
1364 Clouds 21 1022 40 10000 5.1 110 14:19 14.06.2020
1365 Clouds 22 1022 37 10000 5.7 110 13:55 14.06.2020
1366 Clouds 21 1022 43 10000 5.1 110 13:36 14.06.2020
1367 Clouds 21 1022 43 10000 5.1 110 13:18 14.06.2020
1368 Clouds 21 1022 43 10000 5.1 110 12:54 14.06.2020
1369 Clouds 21 1023 43 10000 4.6 120 12:36 14.06.2020
1370 Clouds 21 1023 43 10000 4.6 120 12:18 14.06.2020
1371 Clouds 21 1023 40 10000 4.6 120 11:55 14.06.2020
1372 Clouds 21 1024 37 10000 4.6 150 11:36 14.06.2020
1373 Clouds 21 1024 37 10000 4.6 150 11:18 14.06.2020
1374 Clear 18 1024 45 10000 5.1 160 10:40 14.06.2020
1375 Clear 18 1024 45 10000 5.1 160 10:19 14.06.2020
1376 Clear 18 1025 42 10000 5.1 160 09:44 14.06.2020
1377 Clear 17 1025 45 10000 5.7 160 09:24 14.06.2020
1378 Clear 15 1025 54 10000 5.1 180 08:44 14.06.2020
1379 Clear 14 1025 58 10000 4.6 160 08:22 14.06.2020
1380 Clear 14 1025 62 10000 3.6 130 07:56 14.06.2020
1381 Clear 12 1025 71 10000 3.1 150 07:35 14.06.2020
1382 Clouds 11 1025 76 10000 2.6 140 06:59 14.06.2020
1383 Clouds 9 1025 87 10000 2.6 140 05:56 14.06.2020
1384 Clouds 10 1024 81 10000 2.6 140 05:34 14.06.2020
1385 Clouds 10 1024 87 10000 3.1 160 04:41 14.06.2020
1386 Clouds 10 1024 87 10000 2.6 160 03:57 14.06.2020
1387 Clouds 11 1024 81 10000 2.6 150 02:44 14.06.2020
1388 Clouds 12 1024 81 10000 3.1 170 02:23 14.06.2020
1389 Clouds 12 1024 76 10000 3.1 170 01:31 14.06.2020
1390 Clouds 13 1024 71 10000 4.6 170 00:49 14.06.2020
1391 Clouds 13 1024 76 10000 4.1 170 00:29 14.06.2020
1392 Clouds 13 1024 76 10000 4.1 170 23:49 13.06.2020
1393 Clouds 13 1024 76 10000 4.1 160 23:31 13.06.2020
1394 Clouds 13 1025 82 10000 4.1 160 22:59 13.06.2020
1395 Clouds 12 1024 93 10000 3.1 110 22:38 13.06.2020
1396 Clouds 12 1024 93 10000 3.1 110 22:19 13.06.2020
1397 Clouds 11 1024 93 10000 2.6 120 21:58 13.06.2020
1398 Clouds 11 1024 93 10000 3.1 120 21:40 13.06.2020
1399 Clouds 11 1024 93 10000 3.1 120 21:21 13.06.2020
1400 Clouds 12 1024 87 10000 3.6 110 20:54 13.06.2020
1401 Clouds 12 1024 87 10000 3.6 110 20:54 13.06.2020
1402 Clouds 12 1024 87 10000 3.6 110 20:36 13.06.2020
1403 Clouds 12 1024 87 10000 3.6 110 20:18 13.06.2020
1404 Clouds 13 1024 82 10000 3.1 110 19:38 13.06.2020
1405 Clouds 13 1024 82 10000 3.1 110 19:19 13.06.2020
1406 Clouds 14 1023 76 10000 4.6 120 18:58 13.06.2020
1407 Clouds 14 1023 76 10000 3.6 100 18:38 13.06.2020
1408 Clouds 14 1023 76 10000 3.6 100 18:19 13.06.2020
1409 Clouds 14 1022 76 10000 4.6 100 17:55 13.06.2020
1410 Clouds 15 1022 67 10000 3.1 90 17:37 13.06.2020
1411 Clouds 15 1022 67 10000 3.1 90 17:19 13.06.2020
1412 Clear 19 1021 52 10000 5.7 100 16:41 13.06.2020
1413 Clear 19 1021 52 10000 5.7 100 16:20 13.06.2020
1414 Clouds 21 1021 43 10000 3.6 140 15:59 13.06.2020
1415 Clouds 23 1021 31 10000 3.1 170 15:39 13.06.2020
1416 Clouds 23 1021 31 10000 3.1 170 15:20 13.06.2020
1417 Clouds 23 1021 31 10000 3.1 170 14:43 13.06.2020
1418 Clouds 23 1021 31 10000 2.1 0 14:22 13.06.2020
1419 Clouds 22 1021 33 10000 3.6 170 13:56 13.06.2020
1420 Clouds 23 1021 28 10000 4.1 200 13:37 13.06.2020
1421 Clouds 23 1021 28 10000 4.1 200 13:18 13.06.2020
1422 Clouds 22 1021 30 10000 3.1 0 12:42 13.06.2020
1423 Clouds 22 1022 30 10000 5.1 180 12:24 13.06.2020
1424 Clouds 21 1023 35 10000 5.7 170 11:55 13.06.2020
1425 Clear 20 1023 42 10000 6.2 170 11:37 13.06.2020
1426 Clear 20 1023 42 10000 6.2 170 11:18 13.06.2020
1427 Clear 20 1023 45 10000 5.7 170 10:42 13.06.2020
1428 Clear 19 1023 48 10000 5.7 160 10:23 13.06.2020
1429 Clear 18 1024 55 10000 4.6 160 09:55 13.06.2020
1430 Clear 18 1024 59 10000 2.6 150 09:36 13.06.2020
1431 Clear 18 1024 59 10000 2.6 150 09:18 13.06.2020
1432 Clouds 17 1024 67 10000 2.1 180 08:44 13.06.2020
1433 Clouds 17 1024 67 10000 2.1 180 08:44 13.06.2020
1434 Clouds 15 1024 77 8000 3.6 180 08:26 13.06.2020
1435 Mist 13 1024 93 5000 1 0 07:44 13.06.2020
1436 Mist 11 1024 100 5000 1 0 07:25 13.06.2020
1437 Mist 11 1024 100 8000 1 0 06:44 13.06.2020
1438 Fog 10 1023 93 10000 1.27 139 06:25 13.06.2020
1439 Fog 9 1023 93 800 0.5 0 05:29 13.06.2020
1440 Fog 9 1023 93 800 0.5 0 05:29 13.06.2020
1441 Clouds 10 1022 100 10000 1 70 04:38 13.06.2020
1442 Clouds 10 1022 100 10000 0.5 0 03:43 13.06.2020
1443 Clouds 11 1023 93 10000 1 190 02:45 13.06.2020
1444 Clouds 12 1022 93 10000 1.5 60 01:49 13.06.2020
1445 Clouds 13 1023 87 10000 2.1 130 01:23 13.06.2020
1446 Clouds 14 1023 82 10000 2.6 140 00:54 13.06.2020
1447 Clouds 14 1023 87 10000 2.6 130 00:27 13.06.2020
1448 Clouds 14 1024 82 10000 2.6 140 23:58 12.06.2020
1449 Clouds 14 1024 82 10000 2.6 130 23:38 12.06.2020
1450 Clouds 14 1024 82 10000 2.6 130 23:18 12.06.2020
1451 Clouds 14 1024 82 10000 2.6 130 23:18 12.06.2020
1452 Clouds 14 1024 82 10000 2.6 150 22:43 12.06.2020
1453 Clouds 14 1024 87 10000 2.1 140 22:19 12.06.2020
1454 Clouds 14 1024 87 10000 2.6 140 21:59 12.06.2020
1455 Clouds 13 1024 93 10000 2.1 170 21:40 12.06.2020
1456 -273 0 0 0 0 0 21:21 12.06.2020
1457 Clouds 14 1024 87 10000 2.6 140 20:56 12.06.2020
1458 Clouds 13 1023 93 10000 2.1 180 20:37 12.06.2020
1459 Clouds 13 1023 93 10000 2.1 180 20:19 12.06.2020
1460 Clouds 14 1023 87 10000 2.1 160 19:40 12.06.2020
1461 Clouds 14 1023 87 10000 2.1 160 19:21 12.06.2020
1462 Clouds 14 1023 87 10000 2.1 110 18:58 12.06.2020
1463 Clouds 14 1023 87 10000 4.1 110 18:36 12.06.2020
1464 Clouds 14 1023 87 10000 4.1 110 18:18 12.06.2020
1465 Clouds 15 1022 82 10000 3.1 80 17:40 12.06.2020
1466 Clouds 15 1022 82 10000 3.1 80 17:22 12.06.2020
1467 Clouds 16 1022 77 10000 5.1 80 16:45 12.06.2020
1468 Clouds 17 1022 77 10000 3.1 100 16:21 12.06.2020
1469 Clouds 18 1022 68 10000 4.6 100 15:50 12.06.2020
1470 Clouds 18 1022 72 10000 5.7 120 15:28 12.06.2020
1471 Clouds 21 1021 56 10000 5.7 110 14:59 12.06.2020
1472 Clouds 21 1021 60 10000 3.6 110 14:39 12.06.2020
1473 Clouds 21 1021 60 10000 3.6 110 14:21 12.06.2020
1474 Clouds 20 1021 60 10000 4.1 110 13:43 12.06.2020
1475 Clouds 20 1021 64 10000 3.6 160 13:22 12.06.2020
1476 Clouds 20 1021 60 10000 4.6 110 12:55 12.06.2020
1477 Clouds 20 1021 64 10000 3.6 160 12:37 12.06.2020
1478 Clouds 20 1021 64 10000 3.6 160 12:18 12.06.2020
1479 Clouds 19 1022 68 10000 3.6 150 11:43 12.06.2020
1480 Clouds 20 1022 64 10000 4.1 130 11:23 12.06.2020
1481 Clouds 18 1023 72 10000 3.6 130 10:49 12.06.2020
1482 Clouds 17 1023 77 10000 3.6 150 10:26 12.06.2020
1483 Clouds 16 1024 77 10000 3.6 150 09:58 12.06.2020
1484 Clouds 16 1024 77 10000 4.1 160 09:39 12.06.2020
1485 Clouds 16 1024 77 10000 4.1 160 09:19 12.06.2020
1486 Rain 15 1024 82 10000 4.1 170 08:41 12.06.2020
1487 Rain 15 1024 82 10000 4.1 170 08:22 12.06.2020
1488 Rain 16 1024 77 10000 4.1 180 07:41 12.06.2020
1489 Clouds 15 1023 82 10000 2.6 160 07:23 12.06.2020
1490 Clouds 13 1023 93 10000 2.1 140 06:41 12.06.2020
1491 Clouds 12 1023 93 8000 1.5 170 06:20 12.06.2020
1492 Drizzle 12 1023 93 8000 2.1 180 05:49 12.06.2020
1493 Clouds 12 1023 93 10000 2.6 170 05:23 12.06.2020
1494 Clouds 12 1022 87 10000 3.1 170 03:47 12.06.2020
1495 Clouds 12 1022 81 10000 2.6 170 02:24 12.06.2020
1496 Clouds 12 1023 81 10000 3.1 160 01:33 12.06.2020
1497 Clouds 11 1023 87 10000 3.6 170 00:57 12.06.2020
1498 Clouds 11 1023 87 10000 3.6 170 00:38 12.06.2020
1499 Clouds 11 1023 87 10000 3.6 170 00:19 12.06.2020
1500 Clouds 11 1023 87 10000 3.6 170 00:19 12.06.2020
1501 Clouds 12 1023 87 10000 3.6 130 23:56 11.06.2020
1502 Clouds 12 1023 87 10000 3.6 130 23:36 11.06.2020
1503 Clouds 12 1023 87 10000 3.6 130 23:18 11.06.2020
1504 Clouds 13 1024 82 10000 3.1 130 22:40 11.06.2020
1505 Clouds 13 1024 82 10000 3.1 130 22:21 11.06.2020
1506 Clouds 14 1024 76 10000 3.6 140 21:57 11.06.2020
1507 Clouds 14 1024 76 10000 3.1 160 21:38 11.06.2020
1508 Clouds 14 1024 76 10000 3.1 160 21:20 11.06.2020
1509 Clouds 14 1024 76 10000 3.6 160 20:55 11.06.2020
1510 Clouds 14 1024 76 10000 4.1 160 20:37 11.06.2020
1511 Clouds 14 1024 76 10000 4.1 160 20:18 11.06.2020
1512 Clouds 14 1024 76 10000 3.6 160 19:41 11.06.2020
1513 Clouds 13 1024 82 10000 3.1 140 19:22 11.06.2020
1514 Clouds 14 1024 76 10000 3.1 160 18:43 11.06.2020
1515 Clouds 14 1024 76 10000 3.1 160 18:25 11.06.2020
1516 Clouds 14 1024 76 10000 3.6 160 17:57 11.06.2020
1517 Clouds 15 1024 77 10000 3.1 140 17:38 11.06.2020
1518 Clouds 15 1024 77 10000 3.1 140 17:20 11.06.2020
1519 Clouds 15 1024 77 10000 3.1 140 17:20 11.06.2020
1520 Clouds 16 1023 67 10000 5.7 130 16:58 11.06.2020
1521 Clouds 16 1023 67 10000 5.7 130 16:40 11.06.2020
1522 Clouds 16 1023 67 10000 5.7 130 16:21 11.06.2020
1523 Clouds 17 1023 67 10000 6.2 120 15:55 11.06.2020
1524 Clouds 17 1023 67 10000 6.2 120 15:37 11.06.2020
1525 Clouds 17 1023 67 10000 6.2 120 15:18 11.06.2020
1526 Clouds 19 1023 55 10000 6.7 140 14:42 11.06.2020
1527 Clouds 19 1023 55 10000 6.7 140 14:20 11.06.2020
1528 Clouds 20 1023 56 10000 7.7 110 13:55 11.06.2020
1529 Clouds 19 1023 59 10000 9.3 110 13:37 11.06.2020
1530 Clouds 19 1023 59 10000 9.3 110 13:18 11.06.2020
1531 Clouds 19 1023 59 10000 9.3 110 13:18 11.06.2020
1532 Clouds 19 1023 59 10000 9.3 110 13:18 11.06.2020
1533 Clouds 19 1023 55 10000 5.7 150 12:55 11.06.2020
1534 Clouds 20 1024 52 10000 8.2 110 12:36 11.06.2020
1535 Clouds 20 1024 52 10000 8.2 110 12:18 11.06.2020
1536 Clouds 18 1024 59 10000 6.7 130 11:56 11.06.2020
1537 Clouds 20 1024 52 10000 6.7 130 11:37 11.06.2020
1538 Clouds 20 1024 52 10000 6.7 130 11:18 11.06.2020
1539 Clouds 16 1025 72 10000 6.7 130 10:42 11.06.2020
1540 Clouds 16 1025 72 10000 6.7 130 10:20 11.06.2020
1541 Clouds 16 1025 72 10000 6.7 130 09:45 11.06.2020
1542 Clouds 16 1025 72 10000 5.1 140 09:26 11.06.2020
1543 Clouds 16 1025 72 10000 8.2 120 08:55 11.06.2020
1544 Clouds 15 1025 77 10000 5.1 140 08:37 11.06.2020
1545 Clouds 15 1025 77 10000 5.1 140 08:18 11.06.2020
1546 Clouds 14 1024 87 10000 4.1 150 07:42 11.06.2020
1547 Clouds 14 1024 87 10000 4.1 150 07:23 11.06.2020
1548 Drizzle 12 1024 100 8000 3.1 150 06:33 11.06.2020
1549 Drizzle 12 1024 100 8000 3.1 150 06:33 11.06.2020
1550 Drizzle 12 1024 93 7000 3.1 170 05:57 11.06.2020
1551 Clouds 12 1023 87 10000 4.1 180 04:41 11.06.2020
1552 Clouds 12 1023 81 10000 3.1 160 03:25 11.06.2020
1553 Clouds 12 1023 81 10000 3.1 160 02:46 11.06.2020
1554 Clouds 12 1024 81 10000 4.6 160 01:56 11.06.2020
1555 Clouds 12 1024 81 10000 4.6 160 01:35 11.06.2020
1556 Clouds 12 1024 81 10000 4.1 150 00:57 11.06.2020
1557 Clouds 12 1024 81 10000 2.6 150 00:38 11.06.2020
1558 Clouds 12 1024 81 10000 2.6 150 00:19 11.06.2020
1559 Clouds 13 1024 82 10000 5.1 150 23:40 10.06.2020
1560 Clouds 13 1024 82 10000 5.1 150 23:21 10.06.2020
1561 Clouds 13 1025 82 10000 3.6 140 22:41 10.06.2020
1562 Clouds 13 1025 82 10000 3.6 140 22:22 10.06.2020
1563 Clouds 13 1025 82 10000 4.1 140 21:59 10.06.2020
1564 Clouds 13 1025 82 10000 4.6 140 21:41 10.06.2020
1565 Clouds 13 1025 82 10000 4.6 140 21:19 10.06.2020
1566 Clouds 13 1025 82 10000 5.1 140 20:58 10.06.2020
1567 Clouds 13 1025 82 10000 5.1 140 20:40 10.06.2020
1568 Clouds 13 1025 82 10000 5.1 140 20:40 10.06.2020
1569 Clouds 13 1025 82 10000 5.1 140 20:21 10.06.2020
1570 Clouds 14 1025 76 10000 5.1 150 19:58 10.06.2020
1571 Clouds 14 1025 76 10000 3.6 140 19:38 10.06.2020
1572 Clouds 14 1025 76 10000 3.6 140 19:18 10.06.2020
1573 Clouds 14 1025 76 10000 3.6 140 18:42 10.06.2020
1574 Clouds 14 1025 76 10000 3.6 140 18:22 10.06.2020
1575 Clouds 13 1025 76 10000 4.1 140 17:59 10.06.2020
1576 Clouds 14 1025 71 10000 4.6 160 17:41 10.06.2020
1577 Clouds 14 1025 71 10000 4.6 160 17:20 10.06.2020
1578 Clouds 15 1025 62 10000 5.1 140 16:58 10.06.2020
1579 Clouds 16 1024 59 10000 5.1 130 16:40 10.06.2020
1580 Clouds 16 1024 59 10000 5.1 130 16:20 10.06.2020
1581 Clouds 16 1024 63 10000 6.2 150 15:56 10.06.2020
1582 Clouds 16 1024 67 10000 6.2 160 15:37 10.06.2020
1583 Clouds 16 1024 67 10000 6.2 160 15:18 10.06.2020
1584 Clouds 17 1024 67 10000 6.7 150 14:40 10.06.2020
1585 Clouds 17 1024 67 10000 6.7 150 14:21 10.06.2020
1586 Clouds 17 1024 67 10000 7.7 140 13:44 10.06.2020
1587 Clouds 20 1024 52 10000 7.7 120 13:22 10.06.2020
1588 Clouds 18 1024 59 10000 6.7 150 12:58 10.06.2020
1589 Clouds 18 1024 59 10000 6.7 150 12:39 10.06.2020
1590 Clouds 18 1024 59 10000 6.7 150 12:18 10.06.2020
1591 Clouds 16 1025 72 10000 5.1 150 11:44 10.06.2020
1592 Clouds 16 1025 72 10000 5.1 150 11:20 10.06.2020
1593 Clouds 16 1025 72 10000 5.7 140 10:58 10.06.2020
1594 Clouds 16 1025 72 10000 5.7 160 10:40 10.06.2020
1595 Clouds 16 1025 72 10000 5.7 160 10:21 10.06.2020
1596 Drizzle 14 1026 76 10000 5.7 160 09:43 10.06.2020
1597 Drizzle 14 1026 76 10000 5.7 160 09:43 10.06.2020
1598 Drizzle 14 1026 76 10000 5.7 160 09:24 10.06.2020
1599 Clouds 14 1026 76 10000 4.1 140 08:57 10.06.2020
1600 Clouds 14 1026 76 10000 5.1 170 08:39 10.06.2020
1601 Clouds 14 1026 76 10000 5.1 170 08:20 10.06.2020
1602 Clouds 12 1025 81 10000 3.6 170 07:39 10.06.2020
1603 Clouds 12 1025 81 10000 3.6 170 07:21 10.06.2020
1604 Clouds 12 1025 81 10000 2.6 180 06:47 10.06.2020
1605 Clouds 11 1025 87 10000 2.6 170 06:25 10.06.2020
1606 Clouds 11 1025 87 10000 2.6 170 05:58 10.06.2020
1607 Clouds 10 1024 87 10000 2.6 160 05:28 10.06.2020
1608 Clouds 10 1024 87 10000 2.6 160 04:36 10.06.2020
1609 Clouds 10 1024 87 10000 2.1 170 02:57 10.06.2020
1610 Clouds 10 1024 87 10000 3.1 140 02:22 10.06.2020
1611 Clouds 11 1024 81 10000 4.1 150 01:37 10.06.2020
1612 Clouds 12 1025 81 10000 4.1 140 00:40 10.06.2020
1613 Clouds 12 1025 81 10000 4.1 140 00:22 10.06.2020
1614 Clouds 12 1025 81 10000 4.1 150 23:57 09.06.2020
1615 Clouds 12 1024 93 10000 4.1 130 23:38 09.06.2020
1616 Clouds 12 1024 93 10000 4.1 130 23:20 09.06.2020
1617 Drizzle 12 1025 93 8000 4.1 140 22:56 09.06.2020
1618 Clouds 13 1025 82 10000 3.1 140 22:38 09.06.2020
1619 Clouds 13 1025 82 10000 3.1 140 22:19 09.06.2020
1620 Clouds 13 1025 82 10000 4.1 130 21:56 09.06.2020
1621 Clouds 14 1025 82 10000 4.6 150 21:38 09.06.2020
1622 Clouds 14 1025 82 10000 4.6 150 21:19 09.06.2020
1623 Clouds 14 1025 82 10000 3.1 140 20:56 09.06.2020
1624 Clouds 14 1025 87 10000 4.1 130 20:38 09.06.2020
1625 Clouds 14 1025 87 10000 4.1 130 20:18 09.06.2020
1626 Clouds 14 1025 87 10000 3.6 130 19:56 09.06.2020
1627 Clouds 15 1024 77 10000 3.1 130 19:38 09.06.2020
1628 Clouds 15 1024 77 10000 3.1 130 19:19 09.06.2020
1629 Clouds 15 1024 77 10000 3.6 140 18:45 09.06.2020
1630 Clouds 15 1024 72 10000 3.6 130 18:26 09.06.2020
1631 Clouds 15 1023 77 10000 4.1 100 17:58 09.06.2020
1632 Clouds 16 1023 67 10000 5.1 110 17:40 09.06.2020
1633 Clouds 16 1023 67 10000 5.1 110 17:22 09.06.2020
1634 Clouds 16 1023 67 10000 4.6 120 16:57 09.06.2020
1635 Clouds 16 1023 67 10000 3.6 100 16:39 09.06.2020
1636 Clouds 16 1023 67 10000 3.6 100 16:20 09.06.2020
1637 Clouds 18 1022 55 10000 3.6 160 15:40 09.06.2020
1638 Clouds 18 1022 55 10000 3.6 160 15:22 09.06.2020
1639 Clouds 18 1022 55 10000 3.6 160 15:22 09.06.2020
1640 Clouds 19 1022 55 10000 3.6 120 14:57 09.06.2020
1641 Clouds 19 1022 52 10000 5.7 140 14:39 09.06.2020
1642 Clouds 19 1022 52 10000 5.7 140 14:39 09.06.2020
1643 Clouds 19 1022 52 10000 5.7 140 14:19 09.06.2020
1644 Clouds 20 1022 52 10000 5.1 150 13:54 09.06.2020
1645 Clouds 19 1023 52 10000 4.6 150 13:36 09.06.2020
1646 Clouds 19 1023 52 10000 4.6 150 13:18 09.06.2020
1647 Clouds 19 1023 52 10000 4.6 120 12:42 09.06.2020
1648 Clouds 19 1023 52 10000 4.6 120 12:20 09.06.2020
1649 Clouds 18 1024 55 10000 5.1 140 11:57 09.06.2020
1650 Clouds 18 1024 55 10000 5.1 170 11:38 09.06.2020
1651 Clouds 18 1024 55 10000 5.1 170 11:20 09.06.2020
1652 Clouds 19 1024 48 10000 5.7 110 10:55 09.06.2020
1653 Clouds 18 1024 52 10000 6.7 110 10:36 09.06.2020
1654 Clouds 18 1024 52 10000 6.7 110 10:18 09.06.2020
1655 Clouds 15 1025 72 10000 4.6 170 09:40 09.06.2020
1656 Clouds 15 1025 72 10000 4.6 170 09:19 09.06.2020
1657 Clouds 12 1025 81 10000 4.1 150 08:40 09.06.2020
1658 Clouds 12 1025 81 10000 4.1 150 08:21 09.06.2020
1659 Clouds 11 1025 87 10000 4.6 180 07:59 09.06.2020
1660 Clouds 11 1024 87 10000 3.1 160 07:36 09.06.2020
1661 Clouds 11 1024 87 10000 3.1 160 07:18 09.06.2020
1662 Clouds 10 1024 93 10000 1.5 170 06:51 09.06.2020
1663 Clouds 8 1024 100 10000 1.5 150 06:27 09.06.2020
1664 Clouds 8 1023 100 10000 1.5 140 04:35 09.06.2020
1665 Clouds 9 1023 93 10000 1 150 02:50 09.06.2020
1666 Clouds 10 1024 87 10000 1.5 140 01:39 09.06.2020
1667 Clouds 10 1024 87 10000 1.5 140 01:19 09.06.2020
1668 Clouds 10 1024 87 10000 2.6 130 00:44 09.06.2020
1669 Clouds 10 1024 87 10000 2.6 130 00:20 09.06.2020
1670 Clouds 11 1025 81 10000 3.6 140 23:43 08.06.2020
1671 Clouds 11 1025 81 10000 3.6 140 23:22 08.06.2020
1672 Clouds 12 1025 81 10000 3.6 150 22:59 08.06.2020
1673 Clouds 12 1025 81 10000 3.6 150 22:39 08.06.2020
1674 Clouds 12 1025 81 10000 3.6 150 22:20 08.06.2020
1675 Clouds 12 1025 81 10000 3.1 150 21:56 08.06.2020
1676 Clouds 12 1025 81 10000 3.1 150 21:38 08.06.2020
1677 Clouds 12 1025 81 10000 3.1 150 21:19 08.06.2020
1678 Clouds 13 1025 76 10000 3.6 140 20:55 08.06.2020
1679 Clouds 13 1025 76 10000 3.6 150 20:37 08.06.2020
1680 Clouds 13 1025 76 10000 3.6 150 20:18 08.06.2020
1681 Clouds 11 1025 87 10000 2.6 110 19:43 08.06.2020
1682 Clouds 11 1025 87 10000 2.6 110 19:43 08.06.2020
1683 Clouds 11 1025 87 10000 2.6 110 19:21 08.06.2020
1684 Clouds 13 1024 76 10000 4.1 120 18:44 08.06.2020
1685 Clouds 13 1024 76 10000 4.1 120 18:23 08.06.2020
1686 Clouds 14 1024 76 10000 4.6 120 17:58 08.06.2020
1687 Clouds 14 1023 76 10000 3.6 120 17:40 08.06.2020
1688 Clouds 14 1023 76 10000 3.6 120 17:22 08.06.2020
1689 Clouds 14 1023 71 10000 4.1 110 16:59 08.06.2020
1690 Clouds 15 1023 67 10000 4.1 140 16:41 08.06.2020
1691 Clouds 15 1023 67 10000 4.1 140 16:22 08.06.2020
1692 Clouds 16 1023 59 10000 6.2 130 15:44 08.06.2020
1693 Clouds 17 1023 59 10000 6.2 130 15:22 08.06.2020
1694 Clouds 18 1023 55 10000 5.1 140 14:58 08.06.2020
1695 Clouds 18 1023 52 10000 5.1 140 14:39 08.06.2020
1696 Clouds 18 1023 52 10000 5.1 140 14:20 08.06.2020
1697 Clouds 18 1023 48 10000 5.7 130 13:44 08.06.2020
1698 Clouds 18 1023 48 10000 5.7 130 13:44 08.06.2020
1699 Clouds 18 1023 48 10000 5.7 130 13:24 08.06.2020
1700 Clouds 16 1024 63 10000 6.2 140 12:44 08.06.2020
1701 Clouds 16 1024 63 10000 6.2 140 12:21 08.06.2020
1702 Clouds 16 1024 63 10000 6.7 140 11:59 08.06.2020
1703 Clouds 16 1024 67 10000 6.7 140 11:41 08.06.2020
1704 Clouds 16 1024 67 10000 6.7 140 11:22 08.06.2020
1705 Clouds 16 1025 67 10000 5.7 160 10:58 08.06.2020
1706 Clouds 16 1025 67 10000 5.7 130 10:38 08.06.2020
1707 Clouds 16 1025 67 10000 5.7 130 10:38 08.06.2020
1708 Clouds 16 1025 67 10000 5.7 130 10:20 08.06.2020
1709 Clouds 14 1025 76 10000 5.7 160 09:57 08.06.2020
1710 Clouds 14 1025 76 10000 5.7 160 09:57 08.06.2020
1711 Clouds 14 1026 71 10000 5.7 160 09:39 08.06.2020
1712 Clouds 14 1026 71 10000 5.7 160 09:20 08.06.2020
1713 Clouds 15 1025 62 10000 5.7 150 08:44 08.06.2020
1714 Clouds 15 1025 62 10000 5.7 150 08:21 08.06.2020
1715 Clouds 13 1025 71 10000 6.2 150 07:46 08.06.2020
1716 Clouds 12 1025 81 10000 6.2 140 07:21 08.06.2020
1717 Clouds 12 1025 87 10000 6.2 140 06:49 08.06.2020
1718 Clouds 12 1024 81 10000 6.2 140 06:28 08.06.2020
1719 Clouds 13 1024 87 10000 5.1 140 05:46 08.06.2020
1720 Clouds 13 1023 82 10000 5.1 150 04:29 08.06.2020
1721 Clouds 12 1024 93 10000 3.6 120 02:32 08.06.2020
1722 Clouds 13 1024 87 10000 4.6 130 01:45 08.06.2020
1723 Clouds 13 1024 87 10000 4.1 140 01:26 08.06.2020
1724 Clouds 14 1025 87 10000 3.1 140 00:30 08.06.2020
1725 Clouds 14 1025 93 10000 3.1 140 23:41 07.06.2020
1726 Clouds 14 1025 93 10000 3.1 140 23:20 07.06.2020
1727 Clouds 14 1025 93 10000 3.6 120 22:59 07.06.2020
1728 Clouds 14 1025 93 10000 2.6 120 22:39 07.06.2020
1729 Clouds 14 1025 93 10000 2.6 120 22:19 07.06.2020
1730 Clouds 14 1025 93 10000 2.6 130 21:58 07.06.2020
1731 Clouds 14 1025 93 10000 2.6 140 21:37 07.06.2020
1732 Clouds 14 1025 93 10000 2.6 140 21:37 07.06.2020
1733 Clouds 14 1025 93 10000 2.6 140 21:19 07.06.2020
1734 Clouds 14 1025 87 10000 2.6 120 20:54 07.06.2020
1735 Clouds 14 1025 87 10000 2.6 100 20:36 07.06.2020
1736 Clouds 14 1025 87 10000 2.6 100 20:18 07.06.2020
1737 Clouds 14 1025 87 10000 3.1 100 19:54 07.06.2020
1738 Clouds 15 1025 82 10000 3.1 140 19:36 07.06.2020
1739 Clouds 15 1025 82 10000 3.1 140 19:18 07.06.2020
1740 Clouds 15 1025 82 10000 3.6 150 18:40 07.06.2020
1741 Clouds 15 1025 82 10000 3.6 150 18:21 07.06.2020
1742 Clouds 15 1024 82 10000 4.6 160 17:58 07.06.2020
1743 Clouds 16 1024 77 10000 3.6 150 17:40 07.06.2020
1744 Clouds 16 1024 77 10000 3.6 150 17:21 07.06.2020
1745 Clouds 16 1024 77 10000 6.2 120 16:43 07.06.2020
1746 Clouds 16 1024 77 10000 6.2 120 16:22 07.06.2020
1747 Clouds 17 1023 72 10000 5.7 120 15:44 07.06.2020
1748 Clouds 17 1023 72 10000 5.7 120 15:44 07.06.2020
1749 Clouds 19 1023 63 10000 5.1 130 15:22 07.06.2020
1750 Clouds 19 1023 63 10000 6.2 110 14:41 07.06.2020
1751 Clouds 19 1023 63 10000 6.2 110 14:23 07.06.2020
1752 Clouds 19 1023 63 10000 5.1 130 13:59 07.06.2020
1753 Clouds 20 1023 56 10000 5.1 120 13:41 07.06.2020
1754 Clouds 20 1023 56 10000 5.1 120 13:41 07.06.2020
1755 Clouds 20 1023 56 10000 5.1 120 13:41 07.06.2020
1756 Clouds 20 1023 56 10000 5.1 120 13:41 07.06.2020
1757 Clouds 20 1023 56 10000 5.1 120 13:41 07.06.2020
1758 Clouds 20 1023 56 10000 5.1 120 13:19 07.06.2020
1759 Clouds 19 1023 59 10000 5.7 140 12:43 07.06.2020
1760 Clouds 19 1024 59 10000 5.7 140 12:24 07.06.2020
1761 Clouds 19 1024 59 10000 6.2 120 11:55 07.06.2020
1762 Clouds 19 1024 59 10000 6.2 120 11:55 07.06.2020
1763 Clouds 18 1024 59 10000 6.7 130 11:37 07.06.2020
1764 Clouds 18 1024 59 10000 6.7 130 11:19 07.06.2020
1765 Clouds 19 1025 59 10000 5.7 140 10:54 07.06.2020
1766 Clouds 19 1025 59 10000 5.7 130 10:36 07.06.2020
1767 Clouds 19 1025 59 10000 5.7 130 10:18 07.06.2020
1768 Clouds 17 1025 72 10000 5.1 150 09:41 07.06.2020
1769 Clouds 17 1025 72 10000 5.1 150 09:21 07.06.2020
1770 Clouds 16 1026 72 10000 4.1 160 08:59 07.06.2020
1771 Clouds 15 1026 82 10000 4.1 150 08:40 07.06.2020
1772 Clouds 15 1026 82 10000 4.1 150 08:21 07.06.2020
1773 Clouds 14 1025 82 10000 4.6 160 07:41 07.06.2020
1774 Clouds 14 1025 82 10000 4.6 160 07:41 07.06.2020
1775 Clouds 14 1025 82 10000 4.6 160 07:41 07.06.2020
1776 Clouds 14 1025 82 10000 3.6 140 06:56 07.06.2020
1777 Clouds 13 1024 87 10000 4.6 160 05:57 07.06.2020
1778 Clouds 13 1024 82 10000 3.6 150 04:22 07.06.2020
1779 Clouds 13 1024 87 10000 3.6 140 03:48 07.06.2020
1780 Clouds 13 1024 87 10000 3.6 140 03:48 07.06.2020
1781 Clouds 14 1024 87 10000 4.1 160 02:19 07.06.2020
1782 Clouds 14 1024 87 10000 4.1 150 01:26 07.06.2020
1783 Clouds 14 1025 87 10000 3.1 150 00:48 07.06.2020
1784 Clouds 14 1025 87 10000 3.1 150 00:21 07.06.2020
1785 Clouds 14 1025 87 10000 4.6 150 23:59 06.06.2020
1786 Clouds 14 1025 87 10000 4.6 150 23:38 06.06.2020
1787 Clouds 14 1025 87 10000 4.6 150 23:20 06.06.2020
1788 Clouds 14 1025 87 10000 3.6 140 22:57 06.06.2020
1789 Clouds 15 1025 82 10000 5.7 120 22:39 06.06.2020
1790 Clouds 15 1025 82 10000 5.7 120 22:20 06.06.2020
1791 Clouds 15 1025 87 10000 4.6 120 21:56 06.06.2020
1792 Clouds 15 1025 87 10000 4.6 150 21:37 06.06.2020
1793 Clouds 15 1025 87 10000 4.6 150 21:19 06.06.2020
1794 Clouds 15 1025 87 10000 3.6 150 20:40 06.06.2020
1795 Clouds 15 1025 87 10000 3.6 150 20:20 06.06.2020
1796 Clouds 16 1025 82 10000 3.1 140 19:58 06.06.2020
1797 Clouds 16 1025 82 10000 4.6 120 19:40 06.06.2020
1798 Clouds 16 1025 82 10000 4.6 120 19:21 06.06.2020
1799 Clouds 16 1025 82 10000 3.6 120 18:55 06.06.2020
1800 Clouds 15 1025 87 10000 5.1 110 18:36 06.06.2020
1801 Clouds 15 1025 87 10000 5.1 110 18:18 06.06.2020
1802 Clouds 16 1024 82 10000 4.6 130 17:43 06.06.2020
1803 Clouds 16 1024 82 10000 4.6 130 17:20 06.06.2020
1804 Clouds 16 1024 82 10000 5.1 110 16:55 06.06.2020
1805 Clouds 16 1024 82 10000 7.7 110 16:37 06.06.2020
1806 Clouds 16 1024 82 10000 7.7 110 16:19 06.06.2020
1807 Clouds 19 1023 68 10000 5.7 130 15:44 06.06.2020
1808 Clouds 21 1023 60 10000 5.1 100 15:20 06.06.2020
1809 Clouds 21 1023 60 10000 6.2 110 14:56 06.06.2020
1810 Clouds 21 1023 60 10000 6.2 110 14:56 06.06.2020
1811 Clouds 21 1023 60 10000 5.7 110 14:37 06.06.2020
1812 Clouds 21 1023 60 10000 5.7 110 14:19 06.06.2020
1813 Clouds 22 1023 56 10000 5.1 90 13:45 06.06.2020
1814 Clouds 22 1023 56 10000 4.6 110 13:19 06.06.2020
1815 Clouds 21 1023 60 10000 5.7 100 12:56 06.06.2020
1816 Clouds 21 1023 60 10000 5.7 100 12:37 06.06.2020
1817 Clouds 21 1023 60 10000 5.7 100 12:18 06.06.2020
1818 Clouds 21 1024 60 10000 4.1 120 11:40 06.06.2020
1819 Clouds 21 1024 60 10000 4.1 120 11:20 06.06.2020
1820 Clouds 19 1024 68 10000 3.1 150 10:59 06.06.2020
1821 Clouds 19 1024 68 10000 3.1 150 10:59 06.06.2020
1822 Clouds 19 1025 68 10000 3.6 170 10:40 06.06.2020
1823 Clouds 19 1025 68 10000 3.6 170 10:21 06.06.2020
1824 Clouds 18 1025 77 10000 4.6 170 09:58 06.06.2020
1825 Clouds 17 1025 77 10000 4.1 120 09:40 06.06.2020
1826 Clouds 17 1025 77 10000 4.1 120 09:21 06.06.2020
1827 Clouds 16 1025 82 10000 4.1 150 08:43 06.06.2020
1828 Clouds 17 1025 82 10000 4.1 130 08:23 06.06.2020
1829 Clouds 17 1025 82 10000 3.1 120 07:49 06.06.2020
1830 Clouds 16 1025 87 10000 2.1 110 07:23 06.06.2020
1831 Clouds 14 1024 100 10000 1 0 06:50 06.06.2020
1832 Clouds 13 1024 100 10000 1.5 90 06:31 06.06.2020
1833 Clouds 12 1024 100 10000 1.5 40 05:58 06.06.2020
1834 Clouds 13 1023 93 10000 1 0 05:30 06.06.2020
1835 Clouds 13 1023 100 10000 1 0 04:46 06.06.2020
1836 Clouds 14 1023 93 10000 1.14 113 02:52 06.06.2020
1837 Clouds 14 1023 93 10000 2.1 150 01:57 06.06.2020
1838 Clouds 14 1024 93 10000 2.1 120 01:19 06.06.2020
1839 Clouds 14 1024 93 10000 0.49 57 00:46 06.06.2020
1840 Clouds 14 1025 93 10000 1 0 00:27 06.06.2020
1841 Clouds 14 1024 93 10000 1 0 23:56 05.06.2020
1842 Clouds 13 1024 100 10000 1 80 23:37 05.06.2020
1843 Clouds 13 1024 100 10000 1 80 23:18 05.06.2020
1844 Clouds 14 1025 93 10000 1.5 0 22:41 05.06.2020
1845 Clouds 14 1025 93 10000 1.5 0 22:23 05.06.2020
1846 Clouds 14 1025 93 10000 2.1 120 21:59 05.06.2020
1847 Clouds 14 1025 93 10000 2.1 120 21:59 05.06.2020
1848 Clouds 14 1025 93 10000 1.5 0 21:40 05.06.2020
1849 Clouds 14 1025 93 10000 1.5 0 21:21 05.06.2020
1850 Clouds 15 1025 87 10000 2.1 130 20:57 05.06.2020
1851 Clouds 15 1025 87 10000 2.1 130 20:57 05.06.2020
1852 Clouds 15 1025 93 10000 3.1 120 20:38 05.06.2020
1853 Clouds 15 1025 93 10000 3.1 120 20:19 05.06.2020
1854 Clouds 15 1025 93 10000 1 0 19:40 05.06.2020
1855 Clouds 15 1025 93 10000 1 0 19:40 05.06.2020
1856 Clouds 15 1025 93 10000 1 0 19:22 05.06.2020
1857 Clouds 15 1024 87 10000 2.1 80 18:54 05.06.2020
1858 Clouds 15 1024 87 10000 3.1 80 18:36 05.06.2020
1859 Clouds 15 1024 87 10000 3.1 80 18:18 05.06.2020
1860 Clouds 16 1024 87 10000 3.1 80 17:55 05.06.2020
1861 Clouds 16 1023 87 10000 2.6 60 17:37 05.06.2020
1862 Clouds 16 1023 87 10000 2.6 60 17:18 05.06.2020
1863 Drizzle 17 1023 77 10000 2.6 60 16:38 05.06.2020
1864 Drizzle 17 1023 77 10000 2.6 60 16:19 05.06.2020
1865 Clouds 19 1023 63 10000 3.6 90 15:41 05.06.2020
1866 Clouds 19 1023 63 10000 3.6 90 15:21 05.06.2020
1867 Clouds 21 1023 60 10000 4.1 90 14:58 05.06.2020
1868 Clouds 21 1023 56 10000 4.1 90 14:40 05.06.2020
1869 Clouds 21 1023 56 10000 4.1 90 14:21 05.06.2020
1870 Clouds 21 1023 60 10000 3.6 110 13:47 05.06.2020
1871 Clouds 21 1023 60 10000 4.6 110 13:28 05.06.2020
1872 Clouds 21 1023 60 10000 3.6 110 12:57 05.06.2020
1873 Clouds 20 1024 64 10000 3.6 150 12:39 05.06.2020
1874 Clouds 20 1024 64 10000 3.6 150 12:19 05.06.2020
1875 Clouds 20 1024 64 10000 3.1 150 11:43 05.06.2020
1876 Clouds 20 1025 64 10000 4.1 110 11:43 05.06.2020
1877 Clouds 20 1025 64 10000 4.1 110 11:24 05.06.2020
1878 Clouds 19 1025 63 10000 3.6 120 10:59 05.06.2020
1879 Clouds 19 1026 68 10000 4.1 140 10:41 05.06.2020
1880 Clouds 19 1026 68 10000 4.1 140 10:20 05.06.2020
1881 Clouds 17 1026 72 10000 4.1 160 09:57 05.06.2020
1882 Clouds 17 1026 72 10000 4.1 160 09:37 05.06.2020
1883 Clouds 17 1026 72 10000 4.1 160 09:19 05.06.2020
1884 Clouds 16 1026 77 10000 4.1 170 08:57 05.06.2020
1885 Clouds 17 1026 72 10000 4.6 170 08:38 05.06.2020
1886 Clouds 17 1026 72 10000 4.6 170 08:18 05.06.2020
1887 Clouds 15 1026 82 10000 3.6 160 07:48 05.06.2020
1888 Clouds 15 1026 82 10000 3.1 140 07:30 05.06.2020
1889 Clouds 14 1025 87 10000 2.1 130 06:37 05.06.2020
1890 Clouds 14 1025 87 10000 3.1 90 05:22 05.06.2020
1891 Clouds 14 1024 87 10000 3.1 120 04:27 05.06.2020
1892 Clouds 14 1024 87 10000 2.6 140 03:29 05.06.2020
1893 Clouds 14 1024 93 10000 3.1 130 02:26 05.06.2020
1894 Clouds 13 1024 100 10000 2.1 130 01:57 05.06.2020
1895 Clouds 14 1025 93 10000 3.1 140 01:30 05.06.2020
1896 Clouds 14 1025 93 10000 2.6 150 00:43 05.06.2020
1897 Clouds 14 1025 93 10000 2.6 150 00:21 05.06.2020
1898 Clouds 14 1026 93 10000 3.1 170 23:47 04.06.2020
1899 Clouds 14 1026 93 10000 2.1 150 23:28 04.06.2020
1900 Clouds 15 1026 87 10000 2.1 130 22:56 04.06.2020
1901 Clouds 15 1026 87 10000 2.6 130 22:37 04.06.2020
1902 Clouds 15 1026 87 10000 2.6 130 22:18 04.06.2020
1903 Clouds 15 1026 87 10000 4.1 130 21:56 04.06.2020
1904 Clouds 15 1026 87 10000 5.1 120 21:37 04.06.2020
1905 Clouds 15 1026 87 10000 5.1 120 21:19 04.06.2020
1906 Clouds 15 1026 87 10000 3.6 120 20:54 04.06.2020
1907 Clouds 15 1026 87 10000 3.6 120 20:36 04.06.2020
1908 Clouds 15 1026 87 10000 3.6 120 20:18 04.06.2020
1909 Clouds 15 1025 87 10000 4.1 90 19:39 04.06.2020
1910 Clouds 15 1025 87 10000 4.1 90 19:39 04.06.2020
1911 Clouds 15 1025 87 10000 4.1 90 19:21 04.06.2020
1912 Clouds 15 1025 87 10000 4.1 90 18:56 04.06.2020
1913 Clouds 15 1025 87 10000 4.6 110 18:38 04.06.2020
1914 Clouds 15 1025 87 10000 4.6 110 18:38 04.06.2020
1915 Clouds 15 1025 87 10000 4.6 110 18:19 04.06.2020
1916 Clouds 17 1025 77 10000 4.6 100 17:42 04.06.2020
1917 Clouds 17 1025 77 10000 4.6 100 17:21 04.06.2020
1918 Clouds 17 1025 77 10000 4.6 100 16:56 04.06.2020
1919 Clouds 18 1024 72 10000 4.6 110 16:38 04.06.2020
1920 Clouds 18 1024 72 10000 4.6 110 16:18 04.06.2020
1921 Clouds 19 1024 68 10000 5.1 120 15:42 04.06.2020
1922 Clouds 19 1024 68 10000 5.1 120 15:24 04.06.2020
1923 Clouds 21 1024 64 10000 4.6 160 14:39 04.06.2020
1924 Clouds 21 1024 64 10000 4.6 160 14:20 04.06.2020
1925 Clouds 20 1024 68 10000 5.1 140 13:56 04.06.2020
1926 Clouds 20 1024 68 10000 5.1 140 13:56 04.06.2020
1927 Clouds 21 1024 64 10000 4.6 140 13:38 04.06.2020
1928 Clouds 21 1024 64 10000 4.6 140 13:19 04.06.2020
1929 Clouds 22 1024 60 10000 4.6 130 12:55 04.06.2020
1930 Clouds 20 1025 64 10000 4.1 150 12:36 04.06.2020
1931 Clouds 20 1025 64 10000 4.1 150 12:18 04.06.2020
1932 Clouds 21 1025 60 10000 5.7 120 11:40 04.06.2020
1933 Clouds 21 1025 60 10000 5.7 120 11:20 04.06.2020
1934 Clouds 21 1025 60 10000 5.7 120 11:20 04.06.2020
1935 Clouds 20 1025 64 10000 6.2 120 10:59 04.06.2020
1936 Clouds 20 1026 64 10000 6.2 120 10:38 04.06.2020
1937 Clouds 20 1026 64 10000 6.2 120 10:38 04.06.2020
1938 Clouds 20 1026 64 10000 6.2 120 10:20 04.06.2020
1939 Clouds 19 1026 68 10000 4.1 140 09:46 04.06.2020
1940 Clouds 19 1026 68 10000 4.1 140 09:28 04.06.2020
1941 Clouds 18 1026 72 10000 4.6 170 08:50 04.06.2020
1942 Clouds 17 1026 72 10000 3.6 170 08:30 04.06.2020
1943 Clouds 16 1026 77 10000 4.6 170 07:59 04.06.2020
1944 Clouds 14 1026 82 10000 2.6 170 07:30 04.06.2020
1945 Clouds 13 1026 87 10000 2.1 160 06:45 04.06.2020
1946 Clouds 11 1025 93 10000 1.5 100 06:26 04.06.2020
1947 Clouds 10 1025 100 10000 1 0 05:51 04.06.2020
1948 Clouds 10 1025 100 10000 1 0 05:30 04.06.2020
1949 Clouds 10 1024 100 10000 1 170 03:31 04.06.2020
1950 Clouds 11 1025 93 10000 2.1 110 01:58 04.06.2020
1951 Clouds 11 1025 93 10000 2.1 140 01:20 04.06.2020
1952 Clouds 11 1025 93 10000 2.1 140 00:51 04.06.2020
1953 Clouds 12 1026 87 10000 3.1 150 23:56 03.06.2020
1954 Clouds 12 1026 87 10000 3.1 150 23:36 03.06.2020
1955 Clouds 12 1026 87 10000 3.1 150 23:18 03.06.2020
1956 Clouds 12 1027 87 10000 3.1 110 22:40 03.06.2020
1957 Clouds 12 1027 87 10000 3.1 110 22:19 03.06.2020
1958 Clouds 13 1027 87 10000 4.1 120 21:58 03.06.2020
1959 Clouds 14 1027 87 10000 3.6 120 21:40 03.06.2020
1960 Clouds 14 1027 87 10000 3.6 120 21:21 03.06.2020
1961 Clouds 14 1027 87 10000 3.6 120 21:21 03.06.2020
1962 Clouds 13 1027 87 10000 4.6 130 20:57 03.06.2020
1963 Clouds 14 1026 82 10000 5.7 120 20:38 03.06.2020
1964 Clouds 14 1026 82 10000 5.7 120 20:20 03.06.2020
1965 Clouds 14 1026 87 10000 3.1 130 19:56 03.06.2020
1966 Clouds 14 1026 82 10000 3.1 130 19:37 03.06.2020
1967 Clouds 14 1026 82 10000 3.1 130 19:19 03.06.2020
1968 Clouds 13 1026 82 10000 2.1 150 18:54 03.06.2020
1969 Clouds 14 1025 82 10000 3.6 120 18:36 03.06.2020
1970 Clouds 14 1025 82 10000 3.6 120 18:18 03.06.2020
1971 Clouds 15 1025 67 10000 3.6 140 17:41 03.06.2020
1972 Clouds 15 1025 67 10000 3.6 140 17:21 03.06.2020
1973 Clouds 16 1024 63 10000 4.1 130 16:55 03.06.2020
1974 Clouds 17 1024 59 10000 5.1 140 16:37 03.06.2020
1975 Clouds 17 1024 59 10000 5.1 140 16:18 03.06.2020
1976 Clouds 19 1024 48 10000 5.7 130 15:41 03.06.2020
1977 Clouds 19 1024 48 10000 5.7 130 15:21 03.06.2020
1978 Clouds 19 1023 45 10000 5.7 130 14:57 03.06.2020
1979 Clouds 19 1023 48 10000 6.7 120 14:37 03.06.2020
1980 Clouds 19 1023 48 10000 6.7 120 14:19 03.06.2020
1981 Clouds 20 1023 42 10000 7.2 120 13:38 03.06.2020
1982 Clouds 20 1023 42 10000 7.2 120 13:19 03.06.2020
1983 Clouds 20 1024 49 10000 6.2 130 12:43 03.06.2020
1984 Clouds 20 1024 49 10000 6.2 130 12:21 03.06.2020
1985 Clouds 19 1024 52 10000 6.2 140 11:46 03.06.2020
1986 Clouds 19 1024 48 10000 6.2 160 11:27 03.06.2020
1987 Clouds 18 1025 55 10000 6.2 140 10:58 03.06.2020
1988 Clouds 18 1025 55 10000 6.7 140 10:39 03.06.2020
1989 Clouds 18 1025 55 10000 6.7 140 10:20 03.06.2020
1990 Clouds 17 1026 59 10000 6.7 160 09:44 03.06.2020
1991 Clouds 17 1026 59 10000 7.2 140 09:20 03.06.2020
1992 Clouds 15 1026 67 10000 6.7 150 08:48 03.06.2020
1993 Clouds 15 1026 67 10000 6.7 150 08:28 03.06.2020
1994 Clouds 14 1026 71 10000 5.1 150 07:59 03.06.2020
1995 Clouds 13 1026 82 10000 5.1 150 07:41 03.06.2020
1996 Clouds 13 1025 82 10000 5.7 160 07:19 03.06.2020
1997 Clouds 13 1025 82 10000 5.7 160 06:49 03.06.2020
1998 Clouds 13 1025 82 10000 4.6 140 06:30 03.06.2020
1999 Clouds 13 1025 87 10000 4.1 140 05:46 03.06.2020
2000 Clouds 14 1024 87 10000 4.6 140 04:46 03.06.2020
2001 Clouds 14 1023 87 10000 4.6 150 03:50 03.06.2020
2002 Clouds 14 1023 87 10000 4.6 160 02:47 03.06.2020
2003 Clouds 14 1023 87 10000 4.1 150 01:51 03.06.2020
2004 Clouds 14 1024 87 10000 2.1 130 00:43 03.06.2020
2005 Clouds 14 1024 87 10000 2.1 130 00:24 03.06.2020
2006 Clouds 14 1025 87 10000 3.6 170 23:51 02.06.2020
2007 Clouds 14 1025 82 10000 2.1 190 23:28 02.06.2020
2008 Clouds 14 1025 82 10000 2.1 190 23:28 02.06.2020
2009 Clouds 14 1025 82 10000 2.1 190 23:28 02.06.2020
2010 Clouds 14 1025 82 10000 3.1 200 22:56 02.06.2020
2011 Clouds 14 1025 82 10000 3.6 180 22:38 02.06.2020
2012 Clouds 14 1025 82 10000 3.6 180 22:18 02.06.2020
2013 Clouds 15 1026 82 10000 3.1 170 21:56 02.06.2020
2014 Clouds 14 1026 87 10000 2.1 160 21:37 02.06.2020
2015 Clouds 14 1026 87 10000 2.1 160 21:19 02.06.2020
2016 Clouds 14 1026 82 10000 2.6 150 20:55 02.06.2020
2017 Clouds 13 1026 87 10000 3.1 130 20:36 02.06.2020
2018 Clouds 13 1026 87 10000 3.1 130 20:18 02.06.2020
2019 Clouds 14 1026 82 10000 3.1 140 19:42 02.06.2020
2020 Clouds 14 1026 82 10000 3.1 140 19:23 02.06.2020
2021 Clouds 14 1025 82 10000 3.6 140 18:57 02.06.2020
2022 Clouds 14 1025 82 10000 2.6 140 18:38 02.06.2020
2023 Clouds 14 1025 82 10000 2.6 140 18:19 02.06.2020
2024 Clouds 15 1025 77 10000 4.1 110 17:43 02.06.2020
2025 Clouds 15 1025 77 10000 4.1 110 17:23 02.06.2020
2026 Clouds 16 1024 67 10000 5.1 110 16:59 02.06.2020
2027 Clouds 17 1024 59 10000 7.2 110 16:39 02.06.2020
2028 Clouds 17 1024 59 10000 7.2 110 16:21 02.06.2020
2029 Clouds 19 1024 55 10000 5.1 130 15:54 02.06.2020
2030 Clouds 19 1024 59 10000 5.1 140 15:36 02.06.2020
2031 Clouds 19 1024 59 10000 5.1 140 15:18 02.06.2020
2032 Clouds 20 1024 56 10000 5.7 130 14:42 02.06.2020
2033 Clouds 20 1024 56 10000 5.7 130 14:22 02.06.2020
2034 Clouds 21 1024 52 10000 5.1 140 13:40 02.06.2020
2035 Clouds 21 1024 52 10000 5.1 140 13:19 02.06.2020
2036 Clouds 21 1024 56 10000 4.1 140 12:59 02.06.2020
2037 Clouds 20 1024 60 10000 5.1 130 12:40 02.06.2020
2038 Clouds 20 1024 60 10000 5.1 130 12:21 02.06.2020
2039 Clouds 19 1025 63 10000 4.6 160 11:56 02.06.2020
2040 Clouds 19 1025 63 10000 5.1 140 11:38 02.06.2020
2041 Clouds 19 1025 63 10000 5.1 140 11:20 02.06.2020
2042 Clouds 19 1025 59 10000 5.1 160 10:47 02.06.2020
2043 Clouds 18 1026 68 10000 5.1 170 10:28 02.06.2020
2044 Clouds 18 1026 68 10000 4.6 170 09:56 02.06.2020
2045 Clouds 18 1026 68 10000 4.6 170 09:56 02.06.2020
2046 Clouds 17 1026 67 10000 4.6 160 09:37 02.06.2020
2047 Clouds 17 1026 67 10000 4.6 160 09:19 02.06.2020
2048 Clouds 17 1027 67 10000 4.6 150 08:47 02.06.2020
2049 Clouds 16 1027 72 10000 5.1 160 08:20 02.06.2020
2050 Clouds 15 1026 77 10000 4.1 170 07:52 02.06.2020
2051 Clouds 14 1026 82 10000 3.1 180 07:25 02.06.2020
2052 Clouds 13 1026 82 10000 3.1 150 06:43 02.06.2020
2053 Clouds 11 1025 93 10000 2.1 160 05:57 02.06.2020
2054 Clouds 12 1025 87 10000 2.1 160 05:19 02.06.2020
2055 Clouds 14 1025 87 10000 3.6 160 03:22 02.06.2020
2056 Clouds 14 1025 87 10000 3.1 170 02:25 02.06.2020
2057 Clouds 15 1026 87 10000 3.1 140 01:21 02.06.2020
2058 Clouds 15 1026 87 10000 3.1 140 00:25 02.06.2020
2059 Clouds 15 1026 87 10000 3.1 130 23:55 01.06.2020
2060 Clouds 15 1026 87 10000 3.1 140 23:36 01.06.2020
2061 Clouds 15 1026 87 10000 3.1 140 23:18 01.06.2020
2062 Clouds 15 1027 87 10000 3.1 140 22:41 01.06.2020
2063 Clouds 15 1027 87 10000 3.1 140 22:21 01.06.2020
2064 Clouds 15 1027 87 10000 3.1 140 22:21 01.06.2020
2065 Clouds 15 1027 87 10000 3.1 140 21:58 01.06.2020
2066 Clouds 15 1027 87 10000 3.1 140 21:39 01.06.2020
2067 Clouds 15 1027 87 10000 3.1 140 21:19 01.06.2020
2068 Clouds 15 1027 87 10000 2.6 140 20:55 01.06.2020
2069 Clouds 15 1027 87 10000 2.6 140 20:55 01.06.2020
2070 Clouds 15 1027 87 10000 3.1 140 20:37 01.06.2020
2071 Clouds 15 1027 87 10000 3.1 140 20:18 01.06.2020
2072 Clouds 15 1027 87 10000 2.6 140 19:43 01.06.2020
2073 Clouds 15 1027 87 10000 2.6 120 19:21 01.06.2020
2074 Clouds 15 1027 87 10000 2.1 100 18:59 01.06.2020
2075 Clouds 16 1026 82 10000 3.6 120 18:39 01.06.2020
2076 Clouds 16 1026 82 10000 3.6 120 18:19 01.06.2020
2077 Clouds 16 1026 82 10000 4.1 120 17:56 01.06.2020
2078 Clouds 15 1026 87 10000 3.1 100 17:38 01.06.2020
2079 Clouds 15 1026 87 10000 3.1 100 17:18 01.06.2020
2080 Clouds 17 1025 77 10000 4.6 140 16:40 01.06.2020
2081 Clouds 17 1025 77 10000 4.6 140 16:22 01.06.2020
2082 Rain 18 1025 72 10000 4.1 140 15:56 01.06.2020
2083 Clouds 18 1025 72 10000 4.1 130 15:37 01.06.2020
2084 Clouds 18 1025 72 10000 4.1 130 15:18 01.06.2020
2085 Clouds 18 1025 72 10000 5.7 120 14:56 01.06.2020
2086 Clouds 18 1025 72 10000 5.1 130 14:38 01.06.2020
2087 Clouds 18 1025 72 10000 5.1 130 14:19 01.06.2020
2088 Clouds 19 1025 68 10000 4.6 140 13:43 01.06.2020
2089 Clouds 19 1024 68 10000 5.1 140 13:21 01.06.2020
2090 Clouds 19 1025 68 10000 5.7 130 12:58 01.06.2020
2091 Clouds 19 1025 68 10000 5.7 130 12:40 01.06.2020
2092 Clouds 19 1025 68 10000 5.1 150 12:21 01.06.2020
2093 Clouds 19 1025 72 10000 6.2 140 11:57 01.06.2020
2094 Clouds 20 1025 68 10000 6.7 120 11:37 01.06.2020
2095 Clouds 20 1025 68 10000 6.7 120 11:18 01.06.2020
2096 Clouds 19 1026 72 10000 6.2 140 10:54 01.06.2020
2097 Rain 17 1026 88 10000 4.1 130 10:36 01.06.2020
2098 Rain 17 1026 88 10000 4.1 130 10:18 01.06.2020
2099 Drizzle 18 1026 77 10000 4.1 140 09:43 01.06.2020
2100 Rain 18 1026 77 10000 3.6 150 09:24 01.06.2020
2101 Clouds 19 1026 72 10000 3.6 130 08:54 01.06.2020
2102 Clouds 18 1026 77 10000 3.6 150 08:31 01.06.2020
2103 Clouds 17 1026 82 10000 3.6 140 07:57 01.06.2020
2104 Clouds 17 1026 82 10000 3.6 160 07:38 01.06.2020
2105 Clouds 17 1026 82 10000 3.6 160 07:20 01.06.2020
2106 Clouds 16 1026 87 10000 2.1 160 06:49 01.06.2020
2107 Clouds 14 1026 93 10000 2.6 110 05:54 01.06.2020
2108 Clouds 14 1025 93 10000 2.6 150 04:50 01.06.2020
2109 Clouds 13 1025 93 10000 1 0 03:55 01.06.2020
2110 Clouds 13 1025 93 10000 1 0 03:35 01.06.2020
2111 Clouds 14 1025 93 10000 2.1 140 02:34 01.06.2020
2112 Clouds 14 1025 93 10000 2.1 160 01:35 01.06.2020
2113 Clouds 14 1025 93 10000 1.5 100 00:59 01.06.2020
2114 Clouds 14 1025 93 10000 1.5 100 00:40 01.06.2020
2115 Clouds 14 1025 93 10000 2.6 110 00:21 01.06.2020
2116 Clouds 15 1025 93 10000 2.6 130 23:58 31.05.2020
2117 Clouds 16 1025 87 10000 3.6 130 23:39 31.05.2020
2118 Clouds 16 1025 87 10000 3.6 130 23:20 31.05.2020
2119 Clouds 16 1026 87 10000 3.6 130 22:54 31.05.2020
2120 Clouds 16 1026 87 10000 2.6 130 22:36 31.05.2020
2121 Clouds 16 1026 87 10000 2.6 130 22:18 31.05.2020
2122 Clouds 16 1026 87 10000 2.6 130 21:42 31.05.2020
2123 Clouds 16 1026 87 10000 2.6 140 21:23 31.05.2020
2124 Clouds 16 1026 87 10000 2.6 100 20:58 31.05.2020
2125 Clouds 16 1026 87 10000 2.6 100 20:40 31.05.2020
2126 Clouds 16 1026 87 10000 4.1 110 20:21 31.05.2020
2127 Clouds 16 1026 93 10000 3.6 110 19:56 31.05.2020
2128 Clouds 16 1025 87 10000 4.1 110 19:37 31.05.2020
2129 Clouds 16 1025 87 10000 4.1 110 19:19 31.05.2020
2130 Clouds 17 1025 88 10000 3.6 100 18:44 31.05.2020
2131 Clouds 17 1025 82 10000 4.1 110 18:25 31.05.2020
2132 Clouds 18 1025 77 10000 3.6 100 17:46 31.05.2020
2133 Clouds 18 1024 77 10000 4.1 80 17:26 31.05.2020
2134 Clouds 19 1024 72 10000 4.1 90 16:59 31.05.2020
2135 Clouds 19 1024 72 10000 4.1 90 16:40 31.05.2020
2136 Clouds 21 1024 56 10000 4.6 130 16:21 31.05.2020
2137 Clouds 22 1023 53 10000 5.1 120 15:40 31.05.2020
2138 Clouds 23 1023 53 10000 4.1 110 15:21 31.05.2020
2139 Clouds 23 1023 53 10000 3.6 110 14:47 31.05.2020
2140 Clouds 25 1023 47 10000 5.1 110 14:22 31.05.2020
2141 Clouds 24 1023 50 10000 3.1 130 13:57 31.05.2020
2142 Clouds 24 1023 50 10000 3.6 100 13:38 31.05.2020
2143 Clouds 24 1023 50 10000 3.6 100 13:20 31.05.2020
2144 Clouds 24 1023 50 10000 3.6 110 12:57 31.05.2020
2145 Clouds 23 1024 49 10000 3.6 130 12:38 31.05.2020
2146 Clouds 23 1024 49 10000 3.6 130 12:19 31.05.2020
2147 Clouds 23 1024 49 10000 3.6 130 12:19 31.05.2020
2148 Clouds 23 1024 53 10000 4.1 130 11:49 31.05.2020
2149 Clouds 23 1025 53 10000 4.1 120 11:24 31.05.2020
2150 Clouds 23 1025 53 10000 3.6 110 10:57 31.05.2020
2151 Clouds 22 1025 60 10000 4.6 120 10:39 31.05.2020
2152 Clouds 22 1025 60 10000 4.6 120 10:20 31.05.2020
2153 Clouds 20 1026 64 10000 3.6 140 09:42 31.05.2020
2154 Clouds 20 1026 68 10000 3.1 100 09:23 31.05.2020
2155 Clouds 18 1026 77 10000 3.1 120 08:58 31.05.2020
2156 Clouds 18 1026 77 10000 3.1 150 08:38 31.05.2020
2157 Clouds 18 1026 77 10000 3.1 150 08:20 31.05.2020
2158 Clouds 17 1026 82 10000 3.1 160 07:44 31.05.2020
2159 Clouds 16 1025 82 0 2.6 120 07:21 31.05.2020
2160 Clouds 16 1025 87 10000 1.5 0 06:54 31.05.2020
2161 Clouds 14 1025 93 10000 1 0 06:31 31.05.2020
2162 Clouds 13 1024 100 10000 1.5 170 05:44 31.05.2020
2163 Clouds 14 1024 93 10000 2.1 150 04:29 31.05.2020
2164 Clouds 15 1024 87 10000 3.1 150 03:48 31.05.2020
2165 Clouds 14 1024 93 10000 2.6 160 02:59 31.05.2020
2166 Clouds 14 1024 100 10000 2.1 140 01:49 31.05.2020
2167 Clouds 14 1024 100 10000 1.5 90 01:27 31.05.2020
2168 Clouds 15 1024 93 10000 2.1 90 00:30 31.05.2020
2169 Clouds 15 1024 93 10000 2.1 110 23:56 30.05.2020
2170 Clouds 15 1024 93 10000 1.5 80 23:38 30.05.2020
2171 Clouds 15 1024 93 10000 1.5 80 23:38 30.05.2020
2172 Clouds 15 1024 93 10000 1.5 80 23:19 30.05.2020
2173 Clouds 15 1024 100 10000 1.5 100 22:41 30.05.2020
2174 Clouds 15 1024 100 10000 1 90 22:22 30.05.2020
2175 Clouds 15 1024 93 10000 1 60 21:56 30.05.2020
2176 Clouds 15 1024 93 10000 1 60 21:56 30.05.2020
2177 Clouds 16 1024 93 10000 2.6 110 21:37 30.05.2020
2178 Clouds 16 1024 93 10000 2.6 110 21:19 30.05.2020
2179 Clouds 16 1024 87 10000 2.1 130 20:56 30.05.2020
2180 Clouds 16 1024 93 10000 2.1 110 20:37 30.05.2020
2181 Clouds 16 1024 93 10000 2.1 110 20:37 30.05.2020
2182 Clouds 16 1024 93 10000 2.1 110 20:19 30.05.2020
2183 Clouds 17 1024 88 10000 3.1 110 19:42 30.05.2020
2184 Clouds 18 1024 82 10000 4.1 110 19:22 30.05.2020
2185 Clouds 19 1024 72 10000 4.1 120 18:46 30.05.2020
2186 Clouds 18 1023 77 10000 3.6 110 18:24 30.05.2020
2187 Clouds 18 1023 77 10000 3.6 110 18:24 30.05.2020
2188 Clouds 19 1023 72 10000 2.6 120 17:55 30.05.2020
2189 Clouds 20 1023 68 10000 3.1 120 17:37 30.05.2020
2190 Clouds 20 1023 68 10000 3.1 120 17:18 30.05.2020
2191 Clouds 21 1022 60 10000 5.1 110 16:42 30.05.2020
2192 Clouds 23 1022 53 10000 5.1 100 16:22 30.05.2020
2193 Clouds 24 1022 47 10000 5.7 100 15:49 30.05.2020
2194 Clouds 25 1022 41 10000 5.7 120 15:29 30.05.2020
2195 Clouds 26 1021 36 10000 4.6 140 14:59 30.05.2020
2196 Clouds 26 1021 36 10000 4.6 140 14:41 30.05.2020
2197 Clouds 27 1021 34 10000 4.1 110 14:18 30.05.2020
2198 Clouds 27 1021 34 10000 3.6 110 13:41 30.05.2020
2199 Clouds 27 1021 34 10000 3.6 140 13:18 30.05.2020
2200 Clouds 27 1022 34 10000 3.1 160 12:39 30.05.2020
2201 Clouds 27 1022 34 10000 3.1 160 12:20 30.05.2020
2202 Clouds 26 1022 41 10000 3.6 0 11:54 30.05.2020
2203 Clouds 25 1023 44 10000 3.1 200 11:36 30.05.2020
2204 Clouds 25 1023 44 10000 3.1 200 11:18 30.05.2020
2205 Clouds 23 1024 53 10000 2.6 160 10:38 30.05.2020
2206 Clouds 23 1024 53 10000 2.6 160 10:20 30.05.2020
2207 Clouds 23 1024 53 10000 2.6 160 10:20 30.05.2020
2208 Clouds 21 1024 64 10000 2.6 180 09:45 30.05.2020
2209 Clouds 19 1024 72 9000 1.5 0 09:26 30.05.2020
2210 Clouds 16 1025 87 8000 1 0 08:45 30.05.2020
2211 Clouds 15 1025 93 6000 1.5 0 08:27 30.05.2020
2212 Mist 14 1025 100 2500 2.1 190 07:41 30.05.2020
2213 Mist 13 1024 100 1200 2.1 190 07:20 30.05.2020
2214 Fog 13 1024 100 400 1 0 06:31 30.05.2020
2215 Mist 12 1024 100 4000 0.5 0 05:52 30.05.2020
2216 Fog 10 1023 100 9000 0.5 0 05:19 30.05.2020
2217 Clouds 11 1022 100 10000 1.25 159 02:56 30.05.2020
2218 Clouds 12 1022 93 10000 1.34 166 02:23 30.05.2020
2219 Clouds 12 1023 100 10000 1.29 157 01:20 30.05.2020
2220 Clouds 12 1023 100 10000 0.5 0 00:36 30.05.2020
2221 Clouds 12 1023 100 10000 0.5 0 00:18 30.05.2020
2222 Clouds 12 1023 100 10000 1.04 114 23:41 29.05.2020
2223 Clouds 13 1023 100 10000 0.5 0 23:20 29.05.2020
2224 Clouds 14 1024 93 10000 1.07 121 22:56 29.05.2020
2225 Clouds 14 1024 100 10000 1 90 22:37 29.05.2020
2226 Clouds 14 1024 100 10000 1 90 22:18 29.05.2020
2227 Clouds 14 1024 100 10000 1.5 60 21:41 29.05.2020
2228 Clouds 14 1024 100 10000 1.5 60 21:41 29.05.2020
2229 Clouds 15 1024 93 10000 1.5 70 21:21 29.05.2020
2230 Clouds 15 1024 93 10000 2.1 70 20:58 29.05.2020
2231 Clouds 15 1024 93 10000 2.1 70 20:39 29.05.2020
2232 Clouds 15 1024 93 10000 2.1 70 20:19 29.05.2020
2233 Clouds 16 1024 87 10000 2.6 80 19:43 29.05.2020
2234 Clouds 16 1024 87 10000 3.1 90 19:25 29.05.2020
2235 Clouds 17 1024 82 10000 3.1 120 18:48 29.05.2020
2236 Clouds 17 1024 88 10000 2.6 120 18:23 29.05.2020
2237 Clouds 18 1023 77 10000 3.6 100 17:59 29.05.2020
2238 Clouds 18 1023 72 10000 3.1 90 17:39 29.05.2020
2239 Clouds 18 1023 72 10000 3.1 90 17:20 29.05.2020
2240 Clouds 19 1022 72 10000 4.6 100 16:54 29.05.2020
2241 Clouds 21 1022 60 10000 4.6 90 16:36 29.05.2020
2242 Clouds 21 1022 60 10000 4.6 90 16:18 29.05.2020
2243 Clouds 23 1022 53 10000 4.6 90 15:41 29.05.2020
2244 Clouds 24 1022 44 10000 3.6 90 15:21 29.05.2020
2245 Clouds 24 1022 44 10000 4.1 90 14:57 29.05.2020
2246 Clouds 25 1022 36 10000 4.1 90 14:38 29.05.2020
2247 Clouds 25 1022 36 10000 4.1 90 14:38 29.05.2020
2248 Clouds 25 1022 36 10000 4.1 90 14:19 29.05.2020
2249 Clouds 25 1021 36 10000 5.1 110 13:43 29.05.2020
2250 Clouds 25 1021 33 10000 4.1 90 13:22 29.05.2020
2251 Clouds 25 1022 31 10000 2.6 90 12:56 29.05.2020
2252 Clouds 25 1022 31 10000 2.6 90 12:56 29.05.2020
2253 Clouds 25 1022 29 10000 3.1 110 12:37 29.05.2020
2254 Clouds 25 1022 29 10000 3.1 110 12:18 29.05.2020
2255 Clouds 23 1024 31 10000 4.6 120 11:42 29.05.2020
2256 Clouds 23 1024 31 10000 4.6 120 11:42 29.05.2020
2257 Clouds 23 1024 31 10000 4.6 120 11:42 29.05.2020
2258 Clouds 23 1024 31 10000 4.6 120 11:42 29.05.2020
2259 Clouds 23 1024 31 10000 4.6 120 11:24 29.05.2020
2260 Clouds 23 1024 31 10000 5.1 110 10:46 29.05.2020
2261 Clouds 22 1024 37 10000 4.1 130 10:24 29.05.2020
2262 Clouds 21 1024 49 10000 3.6 110 09:58 29.05.2020
2263 Clouds 21 1024 49 10000 3.6 110 09:40 29.05.2020
2264 Clouds 20 1025 60 10000 3.6 110 09:19 29.05.2020
2265 Clouds 18 1025 72 10000 3.1 120 08:47 29.05.2020
2266 Clouds 18 1025 72 10000 3.1 120 08:23 29.05.2020
2267 Clouds 16 1024 77 10000 3.1 130 07:48 29.05.2020
2268 Clouds 16 1024 77 10000 2.6 120 07:29 29.05.2020
2269 Clouds 14 1024 93 10000 2.1 100 06:56 29.05.2020
2270 Clouds 12 1024 100 10000 1 60 06:37 29.05.2020
2271 Clouds 12 1024 100 10000 1 60 06:18 29.05.2020
2272 Clouds 11 1023 93 10000 1 0 05:37 29.05.2020
2273 Clouds 13 1023 93 10000 1.5 70 01:48 29.05.2020
2274 Clouds 13 1023 100 10000 2.1 80 01:27 29.05.2020
2275 Clouds 13 1023 100 10000 2.1 80 01:27 29.05.2020
2276 Clouds 14 1023 93 10000 2.1 110 00:50 29.05.2020
2277 Clouds 14 1023 93 10000 3.1 110 00:28 29.05.2020
2278 Clouds 15 1024 93 10000 2.6 130 23:41 28.05.2020
2279 Clouds 15 1024 87 10000 2.1 120 23:20 28.05.2020
2280 Clouds 15 1024 93 10000 2.1 110 22:59 28.05.2020
2281 Clouds 15 1024 93 10000 2.1 110 22:40 28.05.2020
2282 Clouds 15 1024 93 10000 2.1 110 22:40 28.05.2020
2283 Clouds 15 1024 93 10000 1 0 22:20 28.05.2020
2284 Clouds 15 1024 87 10000 2.1 130 21:55 28.05.2020
2285 Clouds 16 1024 87 10000 1 0 21:37 28.05.2020
2286 Clouds 16 1024 87 10000 1 0 21:18 28.05.2020
2287 Clouds 16 1024 87 10000 2.1 100 20:42 28.05.2020
2288 Clouds 16 1024 87 10000 2.1 140 20:20 28.05.2020
2289 Clouds 17 1024 77 10000 3.1 140 19:59 28.05.2020
2290 Clouds 17 1024 77 10000 3.1 140 19:41 28.05.2020
2291 Clouds 16 1024 82 10000 2.6 110 19:20 28.05.2020
2292 Clouds 17 1024 77 10000 2.1 150 18:57 28.05.2020
2293 Clouds 18 1023 72 10000 2.6 100 18:38 28.05.2020
2294 Clouds 18 1023 72 10000 2.6 100 18:20 28.05.2020
2295 Clouds 18 1023 72 10000 3.1 90 17:40 28.05.2020
2296 Clouds 19 1023 68 10000 3.1 90 17:21 28.05.2020
2297 Clouds 20 1023 64 10000 4.1 100 16:47 28.05.2020
2298 Clouds 22 1022 56 10000 4.6 100 16:21 28.05.2020
2299 Clouds 23 1022 49 10000 4.6 100 15:56 28.05.2020
2300 Clouds 25 1022 44 10000 3.6 100 15:38 28.05.2020
2301 Clouds 25 1022 44 10000 3.6 100 15:19 28.05.2020
2302 Clouds 26 1022 41 10000 3.6 160 14:42 28.05.2020
2303 Clouds 26 1022 41 10000 3.6 160 14:23 28.05.2020
2304 Clouds 26 1022 44 10000 4.1 150 13:46 28.05.2020
2305 Clouds 27 1022 36 10000 2.6 130 13:28 28.05.2020
2306 Clouds 26 1022 41 10000 3.1 170 12:56 28.05.2020
2307 Clouds 25 1022 44 10000 2.1 0 12:37 28.05.2020
2308 Clouds 25 1022 44 10000 2.1 0 12:18 28.05.2020
2309 Clouds 25 1023 47 10000 4.1 190 11:40 28.05.2020
2310 Clouds 24 1023 50 10000 2.6 0 11:22 28.05.2020
2311 Clouds 23 1024 53 10000 3.1 140 10:50 28.05.2020
2312 Clouds 22 1024 56 10000 1.5 0 10:28 28.05.2020
2313 Clouds 22 1024 56 10000 1.5 0 10:28 28.05.2020
2314 Clouds 20 1025 64 8000 2.1 130 09:59 28.05.2020
2315 Clouds 18 1025 77 7000 2.1 70 09:38 28.05.2020
2316 Clouds 18 1025 77 7000 2.1 70 09:38 28.05.2020
2317 Clouds 18 1025 77 7000 2.1 70 09:18 28.05.2020
2318 Mist 16 1025 93 6000 1 0 08:44 28.05.2020
2319 Mist 15 1025 100 3500 1 0 08:25 28.05.2020
2320 Fog 13 1025 100 650 1 190 07:45 28.05.2020
2321 Fog 13 1025 100 100 2.1 210 07:23 28.05.2020
2322 Fog 13 1024 100 100 0.5 0 06:45 28.05.2020
2323 Fog 13 1024 93 200 1 0 06:27 28.05.2020
2324 Fog 12 1024 100 400 1 0 05:40 28.05.2020
2325 Fog 12 1023 100 800 0.5 0 04:39 28.05.2020
2326 Fog 12 1023 100 800 0.5 0 04:20 28.05.2020
2327 Fog 12 1023 100 5000 1 40 02:59 28.05.2020
2328 Clouds 11 1023 100 7000 0.64 152 02:38 28.05.2020
2329 Clouds 12 1023 100 10000 1 50 01:45 28.05.2020
2330 Clouds 13 1023 93 10000 1 90 00:50 28.05.2020
2331 Clouds 13 1023 100 10000 1 80 00:21 28.05.2020
2332 Clouds 13 1023 100 10000 1 0 23:56 27.05.2020
2333 Clouds 13 1023 100 10000 1 90 23:37 27.05.2020
2334 Clouds 13 1023 100 10000 1 90 23:19 27.05.2020
2335 Clouds 13 1024 100 10000 1 110 22:41 27.05.2020
2336 Clouds 13 1024 93 10000 1 130 22:23 27.05.2020
2337 Clouds 13 1024 100 10000 0.74 148 21:56 27.05.2020
2338 Clouds 14 1024 93 10000 0.74 148 21:38 27.05.2020
2339 Clouds 14 1024 93 10000 1.03 109 21:20 27.05.2020
2340 Clouds 14 1024 93 10000 1.5 80 20:58 27.05.2020
2341 Clouds 14 1024 93 10000 1.5 80 20:58 27.05.2020
2342 Clouds 15 1024 87 10000 2.6 100 20:39 27.05.2020
2343 Clouds 15 1024 87 10000 2.6 100 20:19 27.05.2020
2344 Clouds 15 1023 87 10000 3.1 100 19:45 27.05.2020
2345 Clouds 15 1023 82 10000 2.6 90 19:21 27.05.2020
2346 Clouds 16 1023 77 10000 2.1 70 18:45 27.05.2020
2347 Clouds 16 1023 72 10000 2.1 60 18:20 27.05.2020
2348 Clouds 17 1023 67 10000 2.1 80 17:59 27.05.2020
2349 Clouds 17 1023 67 10000 2.1 80 17:40 27.05.2020
2350 Clouds 18 1023 59 10000 3.1 90 17:21 27.05.2020
2351 Clouds 20 1023 52 10000 3.1 80 16:56 27.05.2020
2352 Clouds 22 1022 40 10000 4.6 90 16:38 27.05.2020
2353 Clouds 22 1022 40 10000 4.6 90 16:19 27.05.2020
2354 Clouds 24 1022 33 10000 4.1 80 15:47 27.05.2020
2355 Clouds 25 1022 29 10000 3.6 110 15:22 27.05.2020
2356 Clouds 25 1022 29 10000 3.1 110 14:46 27.05.2020
2357 Clouds 25 1022 29 10000 3.1 110 14:46 27.05.2020
2358 Clouds 25 1022 29 10000 3.1 110 14:46 27.05.2020
2359 Clouds 26 1022 29 10000 3.1 120 14:22 27.05.2020
2360 Clouds 26 1022 29 10000 2.6 110 13:58 27.05.2020
2361 Clouds 26 1022 29 10000 4.6 110 13:39 27.05.2020
2362 Clouds 26 1022 29 10000 4.6 110 13:21 27.05.2020
2363 Clear 26 1022 27 10000 3.1 110 12:42 27.05.2020
2364 Clear 26 1022 31 10000 3.1 170 12:23 27.05.2020
2365 Clear 25 1023 31 10000 3.1 90 11:55 27.05.2020
2366 Clear 25 1023 31 10000 3.1 90 11:55 27.05.2020
2367 Clear 25 1023 33 10000 3.6 100 11:36 27.05.2020
2368 Clear 25 1023 33 10000 3.6 100 11:36 27.05.2020
2369 Clear 25 1023 33 10000 3.6 100 11:18 27.05.2020
2370 Clear 25 1023 36 10000 4.1 100 10:42 27.05.2020
2371 Clear 24 1023 38 10000 4.6 90 10:23 27.05.2020
2372 Clear 23 1024 40 10000 3.6 110 09:56 27.05.2020
2373 Clear 22 1024 49 10000 3.6 90 09:37 27.05.2020
2374 Clear 22 1024 49 10000 3.6 90 09:19 27.05.2020
2375 Clear 20 1024 64 10000 3.1 80 08:42 27.05.2020
2376 Clouds 18 1025 72 10000 2.6 110 08:23 27.05.2020
2377 Clouds 17 1025 77 9000 1.5 80 07:52 27.05.2020
2378 Clouds 17 1025 77 9000 1.5 80 07:52 27.05.2020
2379 Clear 15 1024 93 8000 1.78 106 07:34 27.05.2020
2380 Clouds 14 1024 100 9000 1.35 122 06:55 27.05.2020
2381 Clouds 10 1024 100 8000 1 40 06:24 27.05.2020
2382 Clouds 10 1024 93 9000 1.24 141 05:50 27.05.2020
2383 Clouds 10 1024 100 10000 1.21 150 05:24 27.05.2020
2384 Clear 11 1023 100 10000 1 60 02:51 27.05.2020
2385 Clear 11 1023 100 10000 0.5 60 02:25 27.05.2020
2386 Clear 12 1023 100 10000 1.5 80 01:31 27.05.2020
2387 Clear 12 1023 100 10000 1.5 80 00:47 27.05.2020
2388 Clear 12 1023 100 10000 1.5 60 00:21 27.05.2020
2389 Clouds 13 1023 93 10000 1.5 60 23:58 26.05.2020
2390 Clouds 13 1023 93 10000 1.5 60 23:58 26.05.2020
2391 Clouds 13 1024 93 10000 2.1 60 23:39 26.05.2020
2392 Clouds 13 1024 93 10000 2.1 60 23:20 26.05.2020
2393 Clouds 13 1024 93 10000 0.5 0 22:42 26.05.2020
2394 Clouds 13 1024 93 10000 0.5 0 22:23 26.05.2020
2395 Clouds 13 1024 93 10000 1 0 21:59 26.05.2020
2396 Clouds 13 1024 93 10000 1 0 21:41 26.05.2020
2397 Clouds 14 1024 93 10000 1 0 21:22 26.05.2020
2398 Clouds 14 1024 93 10000 1 0 21:22 26.05.2020
2399 Clouds 14 1024 93 10000 2.1 80 20:59 26.05.2020
2400 Clouds 14 1024 93 10000 2.1 80 20:41 26.05.2020
2401 Clouds 15 1024 87 10000 1 0 20:20 26.05.2020
2402 Clouds 15 1024 87 10000 2.6 80 19:41 26.05.2020
2403 Clouds 16 1023 82 10000 2.6 50 19:21 26.05.2020
2404 Clouds 16 1023 82 10000 2.1 50 18:59 26.05.2020
2405 Clouds 16 1023 82 10000 2.6 80 18:39 26.05.2020
2406 Clouds 16 1023 82 10000 2.6 80 18:21 26.05.2020
2407 Clouds 18 1022 72 10000 3.6 90 17:42 26.05.2020
2408 Clouds 19 1022 68 10000 3.6 100 17:23 26.05.2020
2409 Clouds 20 1022 64 10000 3.1 70 16:49 26.05.2020
2410 Clouds 22 1021 56 10000 3.6 70 16:23 26.05.2020
2411 Clouds 23 1021 46 10000 3.6 80 15:59 26.05.2020
2412 Clouds 23 1021 46 10000 3.6 80 15:40 26.05.2020
2413 Clouds 25 1021 38 10000 1 0 15:20 26.05.2020
2414 Clouds 26 1021 39 10000 1.5 0 14:55 26.05.2020
2415 Clouds 25 1021 41 10000 1.5 0 14:36 26.05.2020
2416 Clouds 25 1021 41 10000 1.5 0 14:18 26.05.2020
2417 Clouds 25 1021 41 10000 2.1 0 13:41 26.05.2020
2418 Clouds 25 1021 41 10000 1.5 80 13:22 26.05.2020
2419 Clouds 25 1021 44 10000 2.1 0 12:44 26.05.2020
2420 Clouds 25 1021 44 10000 2.1 0 12:44 26.05.2020
2421 Clouds 25 1021 44 10000 1 0 12:22 26.05.2020
2422 Clouds 25 1022 44 10000 1 0 11:59 26.05.2020
2423 Clouds 25 1022 44 10000 1 0 11:40 26.05.2020
2424 Clouds 23 1022 53 10000 1.5 0 11:19 26.05.2020
2425 Clouds 23 1022 53 10000 1.5 0 11:19 26.05.2020
2426 Clouds 22 1023 56 10000 1.5 0 10:44 26.05.2020
2427 Clouds 21 1023 56 10000 2.1 0 10:19 26.05.2020
2428 Clouds 21 1023 56 10000 2.1 0 10:19 26.05.2020
2429 Clouds 20 1024 60 10000 2.1 0 09:55 26.05.2020
2430 Clouds 20 1024 60 10000 1.5 0 09:37 26.05.2020
2431 Clouds 20 1024 60 10000 1.5 0 09:18 26.05.2020
2432 Clouds 18 1024 68 10000 2.1 170 08:39 26.05.2020
2433 Clouds 18 1024 68 10000 2.1 170 08:21 26.05.2020
2434 Clouds 16 1024 77 10000 1.5 150 07:40 26.05.2020
2435 Clouds 15 1024 82 10000 2.1 100 07:22 26.05.2020
2436 Clouds 14 1024 87 10000 2.6 80 06:49 26.05.2020
2437 Clouds 14 1023 87 10000 2.6 100 06:23 26.05.2020
2438 Clouds 14 1022 87 10000 3.1 100 05:35 26.05.2020
2439 Clouds 14 1022 93 10000 2.6 100 04:58 26.05.2020
2440 Clouds 14 1022 93 10000 2.6 100 04:40 26.05.2020
2441 Clouds 14 1022 93 10000 1 50 04:21 26.05.2020
2442 Clouds 14 1022 93 10000 1.5 50 02:52 26.05.2020
2443 Clouds 14 1022 93 10000 1.5 0 02:21 26.05.2020
2444 Clouds 14 1022 93 10000 2.1 50 01:40 26.05.2020
2445 Clouds 13 1023 93 10000 2.1 80 00:39 26.05.2020
2446 Clouds 13 1023 93 10000 2.1 80 00:20 26.05.2020
2447 Clouds 13 1023 93 10000 1.5 80 23:58 25.05.2020
2448 Clouds 13 1023 93 10000 2.1 80 23:38 25.05.2020
2449 Clouds 13 1023 93 10000 2.1 80 23:19 25.05.2020
2450 Clouds 13 1023 100 10000 2.1 90 22:55 25.05.2020
2451 Clouds 13 1023 100 10000 2.1 110 22:37 25.05.2020
2452 Clouds 13 1023 100 10000 2.1 110 22:19 25.05.2020
2453 Clouds 14 1023 93 10000 2.1 90 21:57 25.05.2020
2454 Clouds 14 1023 93 10000 2.6 90 21:36 25.05.2020
2455 Clouds 14 1023 93 10000 2.6 90 21:18 25.05.2020
2456 Clouds 14 1023 93 10000 3.6 100 20:43 25.05.2020
2457 Clouds 15 1023 93 10000 4.1 110 20:22 25.05.2020
2458 Clouds 15 1023 93 10000 3.6 110 19:59 25.05.2020
2459 Clouds 15 1023 93 10000 3.6 110 19:41 25.05.2020
2460 Clouds 15 1023 93 10000 2.6 90 19:19 25.05.2020
2461 Clouds 15 1022 93 10000 2.1 90 18:57 25.05.2020
2462 Clouds 16 1022 87 10000 3.1 90 18:38 25.05.2020
2463 Clouds 16 1022 87 10000 3.1 90 18:20 25.05.2020
2464 Clouds 16 1022 82 10000 2.1 80 17:44 25.05.2020
2465 Clouds 16 1022 82 10000 2.1 80 17:44 25.05.2020
2466 Clouds 18 1022 72 10000 3.1 80 17:23 25.05.2020
2467 Clouds 19 1022 68 10000 3.1 90 16:57 25.05.2020
2468 Clouds 20 1022 64 10000 3.6 100 16:39 25.05.2020
2469 Clouds 20 1022 64 10000 3.6 100 16:20 25.05.2020
2470 Clouds 21 1021 60 10000 2.6 100 15:44 25.05.2020
2471 Clouds 23 1021 49 10000 2.1 90 15:20 25.05.2020
2472 Clouds 23 1021 49 10000 2.1 100 14:59 25.05.2020
2473 Clouds 23 1021 46 10000 3.1 110 14:38 25.05.2020
2474 Clouds 23 1021 46 10000 3.1 110 14:20 25.05.2020
2475 Clouds 23 1021 49 10000 4.1 100 13:40 25.05.2020
2476 Clouds 22 1021 53 10000 3.1 100 13:21 25.05.2020
2477 Clouds 24 1022 47 10000 2.1 120 12:58 25.05.2020
2478 Clouds 23 1022 53 10000 3.6 90 12:38 25.05.2020
2479 Clouds 23 1022 53 10000 3.6 90 12:20 25.05.2020
2480 Clouds 22 1023 56 10000 3.1 120 11:40 25.05.2020
2481 Clouds 22 1023 56 10000 3.1 120 11:20 25.05.2020
2482 Clouds 21 1024 60 10000 2.6 120 10:56 25.05.2020
2483 Clouds 21 1024 60 10000 2.6 120 10:56 25.05.2020
2484 Clouds 20 1024 64 10000 2.1 120 10:37 25.05.2020
2485 Clouds 20 1024 64 10000 2.1 120 10:19 25.05.2020
2486 Clouds 19 1024 68 10000 2.1 130 09:54 25.05.2020
2487 Clouds 20 1024 64 10000 2.1 120 09:36 25.05.2020
2488 Clouds 20 1024 64 10000 2.1 120 09:18 25.05.2020
2489 Clouds 17 1025 82 10000 2.1 70 08:39 25.05.2020
2490 Clouds 17 1025 82 10000 2.1 70 08:20 25.05.2020
2491 Clouds 16 1024 87 10000 2.1 60 07:49 25.05.2020
2492 Clouds 16 1024 87 10000 2.6 100 07:27 25.05.2020
2493 Clouds 16 1024 87 10000 1.5 120 06:57 25.05.2020
2494 Clouds 15 1024 93 10000 1.5 130 06:35 25.05.2020
2495 Clouds 15 1023 93 10000 2.1 110 05:24 25.05.2020
2496 Clouds 15 1023 93 10000 1.5 80 03:26 25.05.2020
2497 Clouds 15 1023 93 10000 1 60 02:47 25.05.2020
2498 Clouds 15 1023 87 10000 1 80 02:18 25.05.2020
2499 Clouds 15 1023 87 10000 2.1 50 01:41 25.05.2020
2500 Clouds 15 1023 87 10000 3.6 90 00:46 25.05.2020
2501 Clouds 15 1024 87 10000 3.6 120 00:24 25.05.2020
2502 Clouds 15 1024 93 10000 2.1 90 23:58 24.05.2020
2503 Clouds 15 1024 93 10000 1.5 60 23:38 24.05.2020
2504 Clouds 15 1024 93 10000 1.5 60 23:19 24.05.2020
2505 Clouds 14 1024 93 10000 2.1 100 22:42 24.05.2020
2506 Clouds 14 1024 93 10000 2.1 100 22:42 24.05.2020
2507 Clouds 14 1024 93 10000 2.1 100 22:20 24.05.2020
2508 Clouds 14 1024 100 10000 2.1 110 21:59 24.05.2020
2509 Clouds 14 1024 100 10000 2.1 110 21:40 24.05.2020
2510 Clouds 14 1024 93 10000 2.1 100 21:22 24.05.2020
2511 Clouds 15 1024 87 10000 2.1 150 20:57 24.05.2020
2512 Clouds 14 1024 93 10000 2.1 120 20:38 24.05.2020
2513 Clouds 14 1024 93 10000 2.1 120 20:18 24.05.2020
2514 Clouds 15 1024 87 10000 3.6 110 19:56 24.05.2020
2515 Clouds 15 1024 87 10000 3.1 100 19:36 24.05.2020
2516 Clouds 15 1024 87 10000 3.1 100 19:18 24.05.2020
2517 Clouds 15 1024 87 10000 3.6 90 18:42 24.05.2020
2518 Clouds 16 1023 82 10000 4.6 80 18:23 24.05.2020
2519 Clouds 16 1023 82 10000 4.6 100 17:57 24.05.2020
2520 Clouds 17 1023 77 10000 5.7 100 17:37 24.05.2020
2521 Clouds 17 1023 77 10000 5.7 100 17:19 24.05.2020
2522 Clouds 18 1022 72 10000 4.6 90 16:54 24.05.2020
2523 Clouds 19 1022 68 10000 5.1 90 16:36 24.05.2020
2524 Clouds 19 1022 68 10000 5.1 90 16:18 24.05.2020
2525 Clouds 21 1022 60 10000 5.1 90 15:40 24.05.2020
2526 Clouds 22 1022 56 10000 4.6 80 15:20 24.05.2020
2527 Clouds 22 1022 56 10000 4.6 80 15:20 24.05.2020
2528 Clouds 22 1022 56 10000 5.1 100 14:58 24.05.2020
2529 Clouds 22 1022 56 10000 5.1 100 14:40 24.05.2020
2530 Clouds 23 1021 53 10000 4.6 110 14:21 24.05.2020
2531 Clouds 23 1021 53 10000 3.6 110 13:55 24.05.2020
2532 Clouds 23 1022 53 10000 3.6 130 13:36 24.05.2020
2533 Clouds 23 1022 53 10000 3.6 130 13:36 24.05.2020
2534 Clouds 23 1022 53 10000 3.6 130 13:18 24.05.2020
2535 Clouds 23 1022 53 10000 4.6 140 12:54 24.05.2020
2536 Clouds 23 1022 53 10000 4.6 140 12:36 24.05.2020
2537 Clouds 23 1022 53 10000 4.6 140 12:36 24.05.2020
2538 Clouds 23 1022 53 10000 4.6 140 12:18 24.05.2020
2539 Clouds 22 1023 60 10000 4.1 160 11:42 24.05.2020
2540 Clouds 22 1023 56 10000 3.1 120 11:23 24.05.2020
2541 Clouds 21 1024 64 10000 2.6 0 10:59 24.05.2020
2542 Clouds 19 1024 72 10000 3.1 180 10:39 24.05.2020
2543 Clouds 19 1024 72 10000 3.1 180 10:39 24.05.2020
2544 Clouds 19 1024 72 10000 3.1 180 10:21 24.05.2020
2545 Clouds 18 1025 77 10000 3.1 170 09:42 24.05.2020
2546 Clouds 17 1025 77 10000 2.6 190 09:19 24.05.2020
2547 Clouds 17 1025 82 10000 2.6 150 08:59 24.05.2020
2548 Clouds 17 1025 82 10000 2.6 150 08:40 24.05.2020
2549 Clouds 17 1025 82 10000 2.6 150 08:40 24.05.2020
2550 Clouds 16 1025 82 10000 3.1 180 08:22 24.05.2020
2551 Clouds 16 1025 82 10000 2.6 150 07:52 24.05.2020
2552 Clouds 15 1025 87 10000 2.6 150 07:27 24.05.2020
2553 Clouds 15 1024 87 10000 2.6 150 06:58 24.05.2020
2554 Clouds 15 1024 87 10000 1.5 160 06:37 24.05.2020
2555 Clouds 15 1024 87 10000 1.5 160 06:37 24.05.2020
2556 Clouds 14 1024 93 10000 2.1 110 05:24 24.05.2020
2557 Clouds 14 1023 93 10000 3.1 100 03:42 24.05.2020
2558 Clouds 14 1023 87 10000 2.6 130 02:48 24.05.2020
2559 Clouds 13 1024 100 10000 3.1 160 01:59 24.05.2020
2560 Clouds 12 1024 100 10000 2.1 170 00:42 24.05.2020
2561 Clouds 13 1024 93 10000 1.5 0 00:23 24.05.2020
2562 Clouds 13 1025 93 10000 2.1 90 23:46 23.05.2020
2563 Clouds 13 1025 93 10000 1.5 60 23:26 23.05.2020
2564 Clouds 13 1025 93 10000 1.5 0 22:59 23.05.2020
2565 Clouds 13 1025 93 10000 1.5 0 22:39 23.05.2020
2566 Clouds 13 1025 93 10000 1.5 0 22:21 23.05.2020
2567 Clouds 13 1025 93 10000 3.1 110 21:59 23.05.2020
2568 Clouds 13 1025 93 10000 3.1 110 21:41 23.05.2020
2569 Clouds 13 1026 93 10000 2.6 100 21:20 23.05.2020
2570 Clouds 14 1026 87 10000 2.6 120 20:59 23.05.2020
2571 Clouds 15 1026 87 10000 2.6 140 20:39 23.05.2020
2572 Clouds 15 1026 87 10000 2.6 140 20:19 23.05.2020
2573 Clouds 15 1026 87 10000 2.1 140 19:55 23.05.2020
2574 Clouds 15 1025 87 10000 2.6 130 19:37 23.05.2020
2575 Clouds 15 1025 87 10000 2.6 130 19:18 23.05.2020
2576 Clouds 15 1025 82 10000 3.1 110 18:40 23.05.2020
2577 Clouds 15 1025 82 10000 3.1 120 18:22 23.05.2020
2578 Clouds 16 1025 77 10000 3.6 100 17:57 23.05.2020
2579 Clouds 17 1024 72 10000 4.6 110 17:39 23.05.2020
2580 Clouds 17 1024 72 10000 4.6 110 17:19 23.05.2020
2581 Clouds 18 1024 72 10000 3.6 120 16:57 23.05.2020
2582 Clouds 19 1024 63 10000 4.1 100 16:39 23.05.2020
2583 Clouds 19 1024 63 10000 4.1 100 16:19 23.05.2020
2584 Clouds 21 1023 56 10000 4.6 110 15:43 23.05.2020
2585 Clouds 21 1023 56 10000 3.6 140 15:24 23.05.2020
2586 Clouds 22 1023 53 10000 4.1 120 14:58 23.05.2020
2587 Clouds 23 1023 49 10000 4.1 120 14:39 23.05.2020
2588 Clouds 23 1023 49 10000 4.1 120 14:21 23.05.2020
2589 Clouds 23 1023 49 10000 4.6 120 13:41 23.05.2020
2590 Clouds 23 1024 49 10000 4.1 110 13:19 23.05.2020
2591 Clouds 23 1024 49 10000 4.1 110 13:19 23.05.2020
2592 Clouds 23 1024 49 10000 4.1 140 12:56 23.05.2020
2593 Clouds 23 1024 49 10000 4.1 120 12:38 23.05.2020
2594 Clouds 23 1024 49 10000 4.1 120 12:19 23.05.2020
2595 Clouds 23 1025 49 10000 4.1 130 11:43 23.05.2020
2596 Clouds 23 1025 49 10000 4.1 130 11:43 23.05.2020
2597 Clouds 22 1025 56 10000 3.6 160 11:22 23.05.2020
2598 Clouds 21 1026 60 10000 3.1 150 10:57 23.05.2020
2599 Clouds 20 1026 64 10000 4.6 160 10:39 23.05.2020
2600 Clouds 20 1026 64 10000 4.6 160 10:20 23.05.2020
2601 Clouds 19 1026 68 10000 4.6 160 09:58 23.05.2020
2602 Clouds 19 1027 63 10000 4.6 150 09:39 23.05.2020
2603 Clouds 19 1027 63 10000 4.6 150 09:21 23.05.2020
2604 Clouds 17 1027 72 10000 4.1 160 08:43 23.05.2020
2605 Clouds 16 1027 72 10000 3.6 180 08:19 23.05.2020
2606 Clouds 15 1026 72 10000 4.6 170 07:47 23.05.2020
2607 Clouds 14 1026 76 10000 3.1 180 07:29 23.05.2020
2608 Clouds 13 1026 82 10000 2.6 180 06:55 23.05.2020
2609 Clouds 11 1026 93 10000 1.5 170 06:36 23.05.2020
2610 Clouds 10 1025 93 10000 2.1 190 04:49 23.05.2020
2611 Clouds 10 1025 100 10000 1.5 0 03:29 23.05.2020
2612 Clouds 11 1025 93 10000 1.5 180 02:56 23.05.2020
2613 Clouds 12 1025 87 10000 2.1 150 01:55 23.05.2020
2614 Clouds 12 1026 93 10000 2.1 160 01:20 23.05.2020
2615 Clouds 13 1026 87 10000 3.1 150 00:45 23.05.2020
2616 Clouds 13 1026 87 10000 3.1 150 00:23 23.05.2020
2617 Clouds 13 1027 87 10000 3.1 160 23:56 22.05.2020
2618 Clouds 12 1027 93 10000 2.6 170 23:38 22.05.2020
2619 Clouds 12 1027 93 10000 2.6 170 23:18 22.05.2020
2620 Clouds 12 1027 93 10000 2.6 170 23:18 22.05.2020
2621 Clouds 13 1027 87 10000 2.6 150 22:42 22.05.2020
2622 Clouds 12 1027 93 10000 2.1 140 22:21 22.05.2020
2623 Clouds 12 1027 93 10000 2.6 130 21:55 22.05.2020
2624 Clouds 12 1027 87 10000 1.5 0 21:37 22.05.2020
2625 Clouds 12 1027 87 10000 1.5 0 21:19 22.05.2020
2626 Clouds 13 1027 82 10000 2.1 150 20:45 22.05.2020
2627 Clouds 13 1027 82 10000 2.6 140 20:21 22.05.2020
2628 Clouds 14 1027 76 10000 2.1 150 19:45 22.05.2020
2629 Clouds 14 1027 76 10000 2.6 150 19:26 22.05.2020
2630 Clouds 14 1027 76 10000 3.1 140 18:58 22.05.2020
2631 Clouds 15 1027 72 10000 3.1 130 18:39 22.05.2020
2632 Clouds 15 1027 72 10000 3.1 130 18:19 22.05.2020
2633 Clouds 15 1026 72 10000 3.6 140 17:41 22.05.2020
2634 Clouds 16 1026 67 10000 3.6 120 17:20 22.05.2020
2635 Clouds 16 1026 67 10000 4.1 120 16:58 22.05.2020
2636 Clouds 18 1026 55 10000 5.1 150 16:39 22.05.2020
2637 Clouds 18 1026 55 10000 5.1 150 16:39 22.05.2020
2638 Clouds 18 1026 55 10000 5.1 150 16:19 22.05.2020
2639 Clouds 18 1026 59 10000 4.1 120 15:54 22.05.2020
2640 Clouds 19 1026 63 10000 5.7 130 15:36 22.05.2020
2641 Clouds 19 1026 63 10000 5.7 130 15:18 22.05.2020
2642 Clouds 20 1025 60 10000 4.6 130 14:39 22.05.2020
2643 Clouds 20 1025 60 10000 4.6 130 14:20 22.05.2020
2644 Clouds 20 1025 60 10000 5.1 140 13:42 22.05.2020
2645 Clouds 20 1025 60 10000 5.1 140 13:42 22.05.2020
2646 Clouds 19 1026 59 10000 6.2 150 13:19 22.05.2020
2647 Clouds 20 1026 56 10000 5.7 140 12:43 22.05.2020
2648 Clouds 20 1027 60 10000 4.1 160 12:24 22.05.2020
2649 Clouds 20 1027 60 10000 4.1 160 12:24 22.05.2020
2650 Clouds 19 1027 59 10000 6.7 120 11:48 22.05.2020
2651 Clouds 19 1027 59 10000 6.2 140 11:22 22.05.2020
2652 Clouds 19 1027 59 10000 5.7 150 10:59 22.05.2020
2653 Clouds 18 1028 68 10000 7.2 170 10:39 22.05.2020
2654 Clouds 18 1028 68 10000 7.2 170 10:20 22.05.2020
2655 Clouds 17 1028 67 10000 6.2 150 09:55 22.05.2020
2656 Clouds 17 1028 72 10000 5.1 140 09:36 22.05.2020
2657 Clouds 17 1028 72 10000 5.1 140 09:18 22.05.2020
2658 Clouds 16 1028 72 10000 5.7 150 08:42 22.05.2020
2659 Clouds 16 1028 72 10000 5.7 150 08:19 22.05.2020
2660 Clouds 14 1027 82 10000 3.6 160 07:52 22.05.2020
2661 Clouds 13 1027 87 10000 3.6 150 07:23 22.05.2020
2662 Clouds 13 1027 82 10000 3.1 150 06:53 22.05.2020
2663 Clouds 12 1026 87 10000 2.1 160 06:31 22.05.2020
2664 Clouds 11 1026 87 10000 1.5 150 05:37 22.05.2020
2665 Clouds 10 1026 93 10000 2.1 150 04:50 22.05.2020
2666 Clouds 11 1026 93 10000 2.1 160 03:57 22.05.2020
2667 Clouds 11 1026 87 10000 1.5 0 03:39 22.05.2020
2668 Clouds 11 1026 93 10000 3.1 140 02:55 22.05.2020
2669 Clouds 12 1026 87 10000 4.1 140 01:48 22.05.2020
2670 Clouds 12 1027 87 10000 3.6 140 01:22 22.05.2020
2671 Clouds 13 1027 87 10000 3.1 150 00:34 22.05.2020
2672 Clouds 13 1027 82 10000 3.1 140 23:58 21.05.2020
2673 Clouds 13 1027 82 10000 3.1 140 23:40 21.05.2020
2674 Clouds 13 1027 82 10000 2.6 150 23:22 21.05.2020
2675 Clouds 12 1028 87 10000 3.1 160 22:57 21.05.2020
2676 Clouds 12 1028 87 10000 3.6 150 22:37 21.05.2020
2677 Clouds 12 1028 87 10000 3.6 150 22:19 21.05.2020
2678 Clouds 13 1028 82 10000 5.1 150 21:48 21.05.2020
2679 Clouds 13 1028 87 10000 3.6 130 21:27 21.05.2020
2680 Clouds 13 1028 93 10000 3.6 140 20:57 21.05.2020
2681 Drizzle 14 1028 93 7000 3.1 130 20:39 21.05.2020
2682 Drizzle 14 1028 93 7000 3.1 130 20:21 21.05.2020
2683 Drizzle 14 1028 93 5000 4.1 140 19:40 21.05.2020
2684 Clouds 14 1028 87 10000 4.1 140 19:20 21.05.2020
2685 Clouds 14 1027 87 10000 4.1 140 18:57 21.05.2020
2686 Clouds 14 1027 93 10000 4.1 130 18:36 21.05.2020
2687 Clouds 14 1027 93 10000 4.1 130 18:18 21.05.2020
2688 Drizzle 14 1026 100 9000 3.1 140 17:45 21.05.2020
2689 Drizzle 14 1026 100 7000 3.1 150 17:26 21.05.2020
2690 Drizzle 15 1026 87 5000 5.7 150 16:48 21.05.2020
2691 Rain 16 1025 77 10000 5.7 140 16:28 21.05.2020
2692 Clouds 17 1025 72 10000 6.2 140 15:59 21.05.2020
2693 Clouds 17 1025 72 10000 6.2 140 15:40 21.05.2020
2694 Clouds 17 1025 72 10000 6.7 150 15:21 21.05.2020
2695 Rain 18 1025 68 10000 6.2 150 14:41 21.05.2020
2696 Rain 18 1025 68 10000 6.2 140 14:22 21.05.2020
2697 Clouds 19 1025 63 10000 6.7 140 13:55 21.05.2020
2698 Clouds 19 1025 63 10000 6.7 150 13:37 21.05.2020
2699 Clouds 19 1025 63 10000 6.7 150 13:18 21.05.2020
2700 Clouds 19 1026 59 10000 6.7 150 12:39 21.05.2020
2701 Clouds 19 1026 59 10000 6.7 150 12:20 21.05.2020
2702 Clouds 18 1027 63 10000 7.7 150 11:56 21.05.2020
2703 Clouds 18 1027 63 10000 7.7 150 11:37 21.05.2020
2704 Clouds 18 1027 63 10000 7.7 150 11:19 21.05.2020
2705 Clouds 18 1027 63 10000 7.7 160 10:43 21.05.2020
2706 Clouds 18 1028 59 10000 8.2 140 10:23 21.05.2020
2707 Clouds 18 1028 63 10000 6.7 150 09:57 21.05.2020
2708 Clouds 17 1028 67 10000 7.2 140 09:39 21.05.2020
2709 Clouds 17 1028 67 10000 7.2 140 09:21 21.05.2020
2710 Clouds 17 1028 67 10000 7.2 140 08:50 21.05.2020
2711 Clouds 17 1028 67 10000 6.2 140 08:31 21.05.2020
2712 Clouds 15 1027 77 10000 7.7 150 07:49 21.05.2020
2713 Clouds 15 1027 77 10000 5.7 170 07:28 21.05.2020
2714 Clouds 15 1027 77 10000 5.1 160 06:55 21.05.2020
2715 Clouds 14 1026 82 10000 5.7 160 06:25 21.05.2020
2716 Clouds 14 1026 82 10000 4.1 150 05:47 21.05.2020
2717 Clouds 13 1025 87 10000 3.1 160 03:22 21.05.2020
2718 Clouds 13 1025 87 10000 2.6 160 02:54 21.05.2020
2719 Clouds 13 1025 87 10000 3.1 150 02:30 21.05.2020
2720 Clouds 13 1026 87 10000 3.1 160 01:47 21.05.2020
2721 Clouds 13 1026 87 10000 2.6 140 01:23 21.05.2020
2722 Clouds 13 1026 82 10000 3.1 140 00:53 21.05.2020
2723 Clouds 13 1026 82 10000 4.1 140 00:24 21.05.2020
2724 Clouds 13 1027 82 10000 5.1 140 23:46 20.05.2020
2725 Clouds 14 1027 82 10000 4.1 140 23:21 20.05.2020
2726 Clouds 14 1027 82 10000 4.1 150 22:58 20.05.2020
2727 Clouds 14 1027 82 10000 3.1 150 22:39 20.05.2020
2728 Clouds 14 1027 82 10000 3.1 150 22:21 20.05.2020
2729 Clouds 14 1027 82 10000 3.6 140 21:41 20.05.2020
2730 Clouds 14 1027 87 10000 3.6 170 21:23 20.05.2020
2731 Clouds 14 1027 87 10000 3.1 140 20:45 20.05.2020
2732 Clouds 14 1027 87 10000 3.1 140 20:45 20.05.2020
2733 Clouds 14 1027 82 10000 3.1 130 20:27 20.05.2020
2734 Clouds 14 1027 82 10000 2.6 140 19:59 20.05.2020
2735 Clouds 14 1027 82 10000 2.6 140 19:38 20.05.2020
2736 Clouds 14 1027 82 10000 2.6 140 19:38 20.05.2020
2737 Clouds 14 1027 82 10000 2.6 140 19:20 20.05.2020
2738 Clouds 15 1027 77 10000 3.6 150 18:50 20.05.2020
2739 Clouds 15 1026 82 10000 3.1 130 18:31 20.05.2020
2740 Clouds 14 1026 82 10000 3.1 90 17:58 20.05.2020
2741 Clouds 15 1026 77 10000 4.6 120 17:37 20.05.2020
2742 Clouds 15 1026 77 10000 4.6 120 17:19 20.05.2020
2743 Clouds 17 1025 67 10000 4.6 140 16:41 20.05.2020
2744 Clouds 18 1025 59 10000 4.6 130 16:22 20.05.2020
2745 Clouds 19 1025 52 10000 3.6 130 15:56 20.05.2020
2746 Clouds 19 1025 52 10000 5.1 150 15:36 20.05.2020
2747 Clouds 19 1025 52 10000 5.1 150 15:18 20.05.2020
2748 Clouds 20 1025 49 10000 5.7 110 14:41 20.05.2020
2749 Clouds 20 1024 49 10000 6.2 170 14:20 20.05.2020
2750 Clouds 20 1024 45 10000 6.2 140 13:40 20.05.2020
2751 Clouds 19 1024 55 10000 5.7 140 13:19 20.05.2020
2752 Clouds 19 1024 55 10000 5.7 140 13:19 20.05.2020
2753 Clouds 20 1025 56 10000 6.2 110 12:43 20.05.2020
2754 Clouds 19 1025 55 10000 5.7 130 12:21 20.05.2020
2755 Clouds 19 1025 55 10000 5.7 130 12:21 20.05.2020
2756 Clouds 19 1025 55 10000 6.7 130 11:58 20.05.2020
2757 Clouds 19 1025 55 10000 7.7 110 11:36 20.05.2020
2758 Clouds 19 1025 55 10000 7.7 110 11:18 20.05.2020
2759 Clouds 19 1025 55 10000 7.7 110 11:18 20.05.2020
2760 Clouds 19 1025 55 10000 7.2 140 10:42 20.05.2020
2761 Clouds 17 1026 67 10000 4.6 140 10:19 20.05.2020
2762 Clouds 17 1026 67 10000 5.7 140 09:44 20.05.2020
2763 Clouds 17 1026 67 10000 6.2 140 09:21 20.05.2020
2764 Clouds 17 1026 67 10000 5.7 130 08:44 20.05.2020
2765 Clouds 16 1026 67 10000 4.6 140 08:20 20.05.2020
2766 Clouds 15 1026 67 10000 4.1 150 07:55 20.05.2020
2767 Clouds 14 1026 76 10000 3.1 150 07:37 20.05.2020
2768 Clouds 14 1026 76 10000 3.1 150 07:19 20.05.2020
2769 Clouds 13 1025 82 10000 3.6 130 06:28 20.05.2020
2770 Clouds 12 1025 87 10000 3.1 130 05:19 20.05.2020
2771 Clouds 11 1024 93 10000 4.1 110 04:25 20.05.2020
2772 Clouds 11 1024 93 10000 3.1 60 03:37 20.05.2020
2773 Clouds 11 1024 93 10000 2.6 120 01:58 20.05.2020
2774 Clouds 12 1024 93 10000 2.1 140 01:25 20.05.2020
2775 Clouds 12 1024 93 10000 2.1 120 00:42 20.05.2020
2776 Clouds 12 1024 93 10000 2.1 120 00:42 20.05.2020
2777 Clouds 12 1024 93 10000 1.5 0 00:23 20.05.2020
2778 Clouds 11 1025 100 10000 1.5 90 23:39 19.05.2020
2779 Clouds 11 1025 100 10000 1.5 90 23:19 19.05.2020
2780 Clouds 11 1025 100 10000 2.1 80 22:55 19.05.2020
2781 Clouds 12 1025 93 10000 1.5 70 22:37 19.05.2020
2782 Clouds 12 1025 93 10000 1.5 70 22:18 19.05.2020
2783 Clouds 13 1025 93 10000 3.1 110 21:55 19.05.2020
2784 Clouds 13 1025 87 10000 2.1 130 21:36 19.05.2020
2785 Clouds 13 1025 87 10000 2.1 130 21:18 19.05.2020
2786 Clouds 13 1025 87 10000 2.1 140 20:56 19.05.2020
2787 Clouds 12 1025 93 10000 2.1 130 20:38 19.05.2020
2788 Clouds 12 1025 93 10000 2.1 130 20:19 19.05.2020
2789 Clouds 13 1025 87 10000 4.1 100 19:39 19.05.2020
2790 Clouds 13 1025 87 10000 4.1 100 19:20 19.05.2020
2791 Clouds 14 1024 76 10000 4.1 100 18:45 19.05.2020
2792 Clouds 14 1024 76 10000 2.6 80 18:23 19.05.2020
2793 Clouds 15 1024 72 10000 3.6 110 17:59 19.05.2020
2794 Clouds 15 1023 67 10000 4.6 110 17:40 19.05.2020
2795 Clouds 15 1023 67 10000 4.6 110 17:20 19.05.2020
2796 Clouds 16 1023 63 10000 5.7 110 16:55 19.05.2020
2797 Clouds 18 1023 59 10000 5.7 110 16:37 19.05.2020
2798 Clouds 18 1023 59 10000 5.7 110 16:18 19.05.2020
2799 Clouds 19 1023 52 10000 4.6 100 15:41 19.05.2020
2800 Clouds 20 1022 49 10000 5.1 100 15:20 19.05.2020
2801 Clouds 21 1022 49 10000 4.6 120 14:55 19.05.2020
2802 Clouds 21 1022 49 10000 4.1 90 14:36 19.05.2020
2803 Clouds 21 1022 49 10000 4.1 90 14:18 19.05.2020
2804 Clouds 21 1022 46 10000 4.1 120 13:55 19.05.2020
2805 Clouds 21 1023 49 10000 3.6 150 13:37 19.05.2020
2806 Clouds 21 1023 49 10000 3.6 150 13:18 19.05.2020
2807 Clouds 21 1023 49 10000 4.1 140 12:55 19.05.2020
2808 Clouds 21 1023 49 10000 4.1 120 12:36 19.05.2020
2809 Clouds 21 1023 49 10000 4.1 120 12:18 19.05.2020
2810 Clouds 21 1024 49 10000 4.6 110 11:41 19.05.2020
2811 Clouds 21 1024 46 10000 5.7 110 11:22 19.05.2020
2812 Clouds 21 1024 46 10000 5.7 110 11:22 19.05.2020
2813 Clouds 20 1024 49 10000 5.7 120 10:55 19.05.2020
2814 Clouds 19 1025 55 10000 5.7 130 10:37 19.05.2020
2815 Clouds 19 1025 55 10000 5.7 130 10:18 19.05.2020
2816 Clouds 18 1025 59 10000 5.7 130 09:42 19.05.2020
2817 Clouds 17 1026 59 10000 5.7 140 09:24 19.05.2020
2818 Clouds 18 1026 59 10000 5.7 130 08:47 19.05.2020
2819 Clouds 17 1025 63 10000 5.1 130 08:25 19.05.2020
2820 Clouds 16 1025 77 10000 4.1 130 07:47 19.05.2020
2821 Clouds 14 1025 82 10000 4.6 140 07:27 19.05.2020
2822 Clouds 13 1025 100 10000 3.1 130 06:55 19.05.2020
2823 Clouds 12 1024 100 10000 1.5 150 06:26 19.05.2020
2824 Clouds 11 1024 100 10000 1 80 05:42 19.05.2020
2825 Clouds 11 1024 100 10000 2.6 80 05:19 19.05.2020
2826 Clouds 12 1023 93 10000 3.1 100 04:35 19.05.2020
2827 Clouds 13 1024 93 10000 2.6 130 02:21 19.05.2020
2828 Clouds 14 1024 93 10000 3.6 140 00:48 19.05.2020
2829 Clouds 13 1024 100 10000 2.1 80 00:26 19.05.2020
2830 Clouds 14 1024 87 10000 2.6 60 23:58 18.05.2020
2831 Clouds 15 1024 87 10000 2.1 150 23:40 18.05.2020
2832 Clouds 15 1024 87 10000 2.1 150 23:20 18.05.2020
2833 Clouds 15 1025 87 10000 2.1 140 22:41 18.05.2020
2834 Clouds 14 1025 93 10000 2.1 140 22:22 18.05.2020
2835 Clouds 14 1025 87 10000 2.1 140 21:58 18.05.2020
2836 Clouds 14 1025 87 10000 2.1 140 21:40 18.05.2020
2837 Clouds 14 1025 87 10000 2.6 120 21:19 18.05.2020
2838 Clouds 14 1025 87 10000 2.1 150 20:43 18.05.2020
2839 Clouds 14 1025 87 10000 2.6 140 20:22 18.05.2020
2840 Clouds 14 1025 87 10000 2.6 140 19:59 18.05.2020
2841 Clouds 14 1025 87 10000 2.6 140 19:41 18.05.2020
2842 Clouds 15 1025 87 10000 4.1 120 19:19 18.05.2020
2843 Clouds 15 1024 87 10000 4.1 100 18:46 18.05.2020
2844 Clouds 15 1024 87 10000 4.1 90 18:25 18.05.2020
2845 Clouds 16 1024 77 10000 3.6 90 17:55 18.05.2020
2846 Clouds 17 1024 72 10000 3.1 90 17:37 18.05.2020
2847 Clouds 17 1024 72 10000 3.1 90 17:18 18.05.2020
2848 Clouds 18 1023 72 10000 4.6 90 16:43 18.05.2020
2849 Clouds 20 1023 60 10000 2.6 100 16:21 18.05.2020
2850 Clouds 21 1023 56 10000 3.1 100 15:58 18.05.2020
2851 Clouds 22 1023 53 10000 2.1 100 15:39 18.05.2020
2852 Clouds 22 1023 53 10000 2.1 100 15:20 18.05.2020
2853 Clouds 22 1023 53 10000 3.1 110 14:56 18.05.2020
2854 Clouds 22 1023 53 10000 2.6 110 14:38 18.05.2020
2855 Clouds 22 1023 53 10000 2.6 110 14:19 18.05.2020
2856 Clouds 22 1023 56 10000 3.6 100 13:41 18.05.2020
2857 Clouds 22 1023 56 10000 3.6 120 13:20 18.05.2020
2858 Clouds 23 1023 53 10000 3.1 120 12:58 18.05.2020
2859 Clouds 22 1024 53 10000 2.6 130 12:39 18.05.2020
2860 Clouds 22 1024 53 10000 2.6 130 12:19 18.05.2020
2861 Clouds 22 1024 53 10000 3.1 170 11:47 18.05.2020
2862 Clouds 22 1024 53 10000 3.1 170 11:47 18.05.2020
2863 Clouds 21 1025 56 10000 3.1 0 11:27 18.05.2020
2864 Clouds 20 1025 60 10000 2.1 150 10:59 18.05.2020
2865 Clouds 20 1025 60 10000 2.1 150 10:41 18.05.2020
2866 Clouds 18 1026 68 10000 3.1 160 10:22 18.05.2020
2867 Clouds 18 1026 68 10000 2.6 150 09:44 18.05.2020
2868 Clouds 16 1027 77 10000 3.1 160 09:25 18.05.2020
2869 Clouds 15 1027 82 10000 3.6 150 08:46 18.05.2020
2870 Clouds 14 1026 87 10000 4.1 150 08:27 18.05.2020
2871 Clouds 14 1026 82 10000 3.6 130 07:58 18.05.2020
2872 Clouds 13 1026 87 10000 3.6 150 07:39 18.05.2020
2873 Clouds 13 1026 87 10000 3.6 150 07:20 18.05.2020
2874 Clouds 13 1026 87 10000 4.1 150 06:45 18.05.2020
2875 Clouds 12 1025 93 10000 2.1 150 05:50 18.05.2020
2876 Clouds 12 1025 93 10000 1.5 0 05:26 18.05.2020
2877 Clouds 14 1024 87 10000 2.1 140 03:37 18.05.2020
2878 Clouds 14 1024 87 10000 2.1 140 03:37 18.05.2020
2879 Clouds 14 1024 87 10000 2.1 130 02:31 18.05.2020
2880 Clouds 14 1024 87 10000 2.1 140 01:32 18.05.2020
2881 Clouds 14 1025 93 10000 3.1 90 00:27 18.05.2020
2882 Clouds 15 1025 87 10000 3.1 150 23:58 17.05.2020
2883 Clouds 15 1025 87 10000 3.1 150 23:58 17.05.2020
2884 Clouds 15 1025 87 10000 3.1 150 23:40 17.05.2020
2885 Clouds 14 1025 93 10000 2.6 130 23:20 17.05.2020
2886 Clouds 15 1025 87 10000 3.1 120 22:57 17.05.2020
2887 Clouds 15 1025 87 10000 2.1 130 22:37 17.05.2020
2888 Clouds 15 1025 87 10000 2.1 130 22:37 17.05.2020
2889 Clouds 15 1025 87 10000 2.1 130 22:19 17.05.2020
2890 Clouds 16 1025 87 10000 2.6 120 21:56 17.05.2020
2891 Clouds 16 1025 87 10000 2.1 120 21:38 17.05.2020
2892 Clouds 16 1025 87 10000 2.1 120 21:18 17.05.2020
2893 Clouds 16 1025 87 10000 3.1 130 20:42 17.05.2020
2894 Clouds 16 1025 87 10000 2.1 140 20:22 17.05.2020
2895 Clouds 16 1025 87 10000 2.6 120 19:58 17.05.2020
2896 Clouds 17 1025 88 10000 3.1 140 19:39 17.05.2020
2897 Clouds 17 1025 88 10000 3.1 140 19:20 17.05.2020
2898 Clouds 17 1025 82 10000 4.1 110 18:43 17.05.2020
2899 Clouds 17 1024 82 10000 3.6 90 18:24 17.05.2020
2900 Clouds 18 1024 72 10000 4.1 80 17:59 17.05.2020
2901 Clouds 18 1024 72 10000 3.1 70 17:39 17.05.2020
2902 Clouds 18 1024 72 10000 3.1 70 17:21 17.05.2020
2903 Clouds 20 1023 60 10000 3.6 80 16:40 17.05.2020
2904 Clouds 21 1023 52 10000 4.1 110 16:21 17.05.2020
2905 Clouds 23 1023 43 10000 4.1 90 15:59 17.05.2020
2906 Clouds 23 1022 40 10000 5.1 110 15:39 17.05.2020
2907 Clouds 23 1022 40 10000 5.1 110 15:21 17.05.2020
2908 Clouds 24 1022 41 10000 4.6 110 14:54 17.05.2020
2909 Clouds 24 1022 41 10000 4.6 110 14:54 17.05.2020
2910 Clouds 24 1022 38 10000 4.6 120 14:36 17.05.2020
2911 Clouds 24 1022 38 10000 4.6 120 14:18 17.05.2020
2912 Clouds 25 1022 41 10000 4.1 120 13:40 17.05.2020
2913 Clouds 25 1022 36 10000 3.6 130 13:20 17.05.2020
2914 Clouds 15 1023 93 10000 2.1 150 04:51 17.05.2020
2915 Clouds 17 1022 88 10000 3.1 150 03:18 17.05.2020
2916 Clouds 16 1020 84 0 1.56 127 02:20 17.05.2020
2917 Clouds 17 1022 88 10000 2.1 150 01:47 17.05.2020
2918 Clouds 17 1022 88 10000 2.1 150 00:41 17.05.2020
2919 Clouds 18 1022 88 10000 2.6 170 00:21 17.05.2020
2920 Clouds 18 1023 88 10000 2.1 160 23:40 16.05.2020
2921 Clouds 18 1023 88 10000 2.1 150 23:21 16.05.2020
2922 Clouds 18 1023 88 10000 2.6 150 22:58 16.05.2020
2923 Clouds 18 1023 88 10000 2.6 150 22:58 16.05.2020
2924 Clouds 18 1023 88 10000 2.6 150 22:40 16.05.2020
2925 Clouds 18 1023 88 10000 2.6 150 22:20 16.05.2020
2926 Clouds 17 1023 93 10000 2.1 160 21:46 16.05.2020
2927 Clouds 17 1022 93 10000 2.1 90 21:28 16.05.2020
2928 Clouds 17 1022 93 10000 2.6 100 20:59 16.05.2020
2929 Clouds 17 1022 93 10000 2.6 100 20:41 16.05.2020
2930 Clouds 18 1022 88 10000 3.6 100 20:22 16.05.2020
2931 Clouds 18 1022 88 10000 3.6 90 19:58 16.05.2020
2932 Clouds 18 1022 88 10000 4.1 110 19:40 16.05.2020
2933 Clouds 18 1022 88 10000 4.1 110 19:22 16.05.2020
2934 Clouds 19 1021 82 10000 4.6 110 18:42 16.05.2020
2935 Clouds 20 1021 77 10000 4.1 90 18:24 16.05.2020
2936 Clouds 20 1020 64 10000 1 0 17:57 16.05.2020
2937 Clouds 21 1020 56 10000 1.16 27 17:38 16.05.2020
2938 Clouds 21 1020 56 10000 1.65 26 17:19 16.05.2020
2939 Clouds 23 1019 46 10000 0.5 0 16:41 16.05.2020
2940 Clouds 23 1019 46 10000 1.5 160 16:22 16.05.2020
2941 Clouds 24 1019 44 10000 2.1 130 15:58 16.05.2020
2942 Clouds 24 1019 44 10000 3.1 90 15:39 16.05.2020
2943 Clouds 24 1019 44 10000 3.1 90 15:19 16.05.2020
2944 Clouds 26 1018 41 10000 2.1 50 14:46 16.05.2020
2945 Clouds 27 1018 36 10000 2.6 190 14:20 16.05.2020
2946 Clouds 27 1018 36 10000 2.1 0 13:58 16.05.2020
2947 Clouds 26 1018 41 10000 2.1 230 13:39 16.05.2020
2948 Clouds 26 1018 41 10000 2.1 230 13:21 16.05.2020
2949 Clouds 28 1018 32 10000 2.1 0 12:45 16.05.2020
2950 Clouds 27 1019 39 10000 2.1 0 12:21 16.05.2020
2951 Clouds 25 1019 47 10000 2.1 0 11:56 16.05.2020
2952 Clouds 25 1019 47 10000 2.1 0 11:38 16.05.2020
2953 Clouds 25 1019 47 10000 2.1 0 11:20 16.05.2020
2954 Clouds 25 1020 47 10000 2.6 0 10:55 16.05.2020
2955 Clouds 24 1020 57 10000 1.5 0 10:36 16.05.2020
2956 Clouds 24 1020 57 10000 1.5 0 10:18 16.05.2020
2957 Clouds 23 1021 60 10000 1.5 0 09:40 16.05.2020
2958 Clouds 23 1021 60 10000 1.5 0 09:19 16.05.2020
2959 Clouds 21 1021 68 10000 1.5 0 08:43 16.05.2020
2960 Clouds 20 1021 72 10000 2.1 100 08:21 16.05.2020
2961 Clouds 20 1021 72 10000 2.1 110 07:46 16.05.2020
2962 Clouds 19 1021 77 10000 2.1 150 07:26 16.05.2020
2963 Clouds 17 1021 88 10000 1 0 06:57 16.05.2020
2964 Clouds 16 1020 93 10000 1 0 06:37 16.05.2020
2965 Clouds 16 1020 93 10000 1 0 06:18 16.05.2020
2966 Clouds 15 1019 100 10000 2.1 90 05:32 16.05.2020
2967 Clouds 16 1018 93 10000 2.1 90 03:36 16.05.2020
2968 Clouds 16 1018 93 10000 1.5 140 02:59 16.05.2020
2969 Clouds 16 1018 93 10000 1.5 0 02:20 16.05.2020
2970 Clouds 15 1018 93 10000 0.5 0 01:45 16.05.2020
2971 Clouds 15 1018 93 10000 1.1 125 01:22 16.05.2020
2972 Clouds 14 1018 100 10000 1 300 00:44 16.05.2020
2973 Clouds 15 1019 93 10000 1 330 00:21 16.05.2020
2974 Clouds 15 1019 93 10000 1 330 00:21 16.05.2020
2975 Clouds 16 1019 93 10000 0.5 0 23:41 15.05.2020
2976 Clouds 16 1019 93 10000 1.5 50 23:20 15.05.2020
2977 Clouds 16 1019 93 10000 1 70 22:57 15.05.2020
2978 Clouds 16 1019 93 10000 1.5 70 22:38 15.05.2020
2979 Clouds 16 1019 93 10000 1.5 70 22:18 15.05.2020
2980 Clouds 17 1019 82 10000 0.5 0 21:40 15.05.2020
2981 Clouds 17 1019 82 10000 0.5 0 21:21 15.05.2020
2982 Clouds 17 1019 82 10000 0.5 0 21:21 15.05.2020
2983 Clouds 17 1019 77 10000 1.5 30 20:59 15.05.2020
2984 Clouds 17 1019 77 10000 1.5 30 20:40 15.05.2020
2985 Clouds 17 1019 77 10000 1.5 50 20:22 15.05.2020
2986 Clouds 17 1019 77 10000 2.1 90 19:56 15.05.2020
2987 Clouds 17 1019 72 10000 2.1 330 19:37 15.05.2020
2988 Clouds 17 1019 72 10000 2.1 330 19:37 15.05.2020
2989 Clouds 17 1019 72 10000 2.1 330 19:19 15.05.2020
2990 Clouds 17 1019 72 10000 2.1 320 18:43 15.05.2020
2991 Clouds 17 1018 72 10000 2.1 320 18:24 15.05.2020
2992 -273 0 0 0 0 0 17:40 15.05.2020
2993 Clouds 19 1018 59 10000 2.1 320 17:20 15.05.2020
2994 Clouds 21 1017 52 10000 2.1 300 16:57 15.05.2020
2995 Clouds 23 1017 46 10000 2.1 280 16:38 15.05.2020
2996 Clouds 23 1017 46 10000 2.1 280 16:19 15.05.2020
2997 Clouds 23 1017 49 10000 3.1 290 15:54 15.05.2020
2998 Clouds 25 1017 44 10000 4.1 0 15:36 15.05.2020
2999 Clouds 25 1017 44 10000 4.1 0 15:18 15.05.2020
3000 Clouds 25 1017 44 10000 4.1 0 15:18 15.05.2020
3001 Clouds 24 1017 47 10000 2.6 240 14:41 15.05.2020
3002 Clouds 25 1017 44 10000 2.6 300 14:23 15.05.2020
3003 Clouds 27 1017 39 10000 3.1 300 13:58 15.05.2020
3004 Clouds 26 1017 41 10000 2.6 0 13:39 15.05.2020
3005 Clouds 26 1017 41 10000 2.6 0 13:19 15.05.2020
3006 Clouds 26 1018 41 10000 3.1 310 12:39 15.05.2020
3007 Clouds 26 1018 41 10000 3.1 310 12:18 15.05.2020
3008 Clouds 25 1018 44 10000 4.1 320 11:57 15.05.2020
3009 Clouds 24 1019 47 10000 3.6 280 11:38 15.05.2020
3010 Clouds 24 1019 47 10000 3.6 280 11:19 15.05.2020
3011 Clouds 24 1019 47 10000 3.6 0 10:57 15.05.2020
3012 Clouds 24 1019 50 10000 3.6 320 10:39 15.05.2020
3013 Clouds 24 1019 50 10000 3.6 320 10:39 15.05.2020
3014 Clouds 24 1019 50 10000 3.6 320 10:20 15.05.2020
3015 Clouds 23 1020 53 10000 2.1 190 09:57 15.05.2020
3016 Clouds 22 1020 60 10000 1.5 170 09:36 15.05.2020
3017 Clouds 22 1020 60 10000 1.5 170 09:18 15.05.2020
3018 Clouds 20 1020 64 10000 1 0 08:38 15.05.2020
3019 Clouds 20 1020 64 10000 1 0 08:20 15.05.2020
3020 Clouds 20 1020 64 10000 1 0 08:20 15.05.2020
3021 Clouds 20 1020 64 10000 0.87 252 07:47 15.05.2020
3022 Clouds 18 1020 68 10000 0.87 252 07:29 15.05.2020
3023 Clouds 15 1020 77 10000 0.62 186 06:59 15.05.2020
3024 Clouds 13 1020 87 10000 0.82 162 06:28 15.05.2020
3025 Clouds 13 1019 93 10000 0.86 171 04:39 15.05.2020
3026 Clouds 13 1018 93 10000 2.1 280 03:51 15.05.2020
3027 Clouds 12 1018 100 10000 2.1 320 02:55 15.05.2020
3028 Clouds 13 1018 87 10000 1 280 01:37 15.05.2020
3029 Clouds 13 1018 87 10000 1 280 01:18 15.05.2020
3030 Clouds 13 1019 87 10000 1.5 290 00:40 15.05.2020
3031 Clouds 13 1019 87 10000 2.1 310 00:21 15.05.2020
3032 Clouds 14 1019 87 10000 1 0 23:41 14.05.2020
3033 Clouds 14 1019 93 10000 1 0 23:19 14.05.2020
3034 Clouds 14 1019 87 10000 1 50 22:42 14.05.2020
3035 Clouds 14 1019 82 10000 2.1 20 22:23 14.05.2020
3036 Clouds 15 1019 82 10000 2.6 40 21:58 14.05.2020
3037 Clouds 15 1020 82 10000 2.1 60 21:40 14.05.2020
3038 Clouds 15 1020 82 10000 2.1 60 21:40 14.05.2020
3039 Clouds 15 1020 82 10000 2.1 60 21:20 14.05.2020
3040 Clouds 15 1020 82 10000 2.1 60 21:20 14.05.2020
3041 Clouds 16 1020 72 10000 0.71 112 20:57 14.05.2020
3042 Clouds 16 1019 72 10000 2.1 280 20:38 14.05.2020
3043 Clouds 16 1019 72 10000 2.1 280 20:19 14.05.2020
3044 Clouds 16 1019 72 10000 2.6 320 19:56 14.05.2020
3045 Clouds 16 1019 77 10000 3.6 320 19:37 14.05.2020
3046 Clouds 16 1019 77 10000 3.6 320 19:19 14.05.2020
3047 Clouds 17 1019 72 10000 2.6 320 18:56 14.05.2020
3048 Clouds 17 1019 72 10000 2.1 300 18:37 14.05.2020
3049 Clouds 17 1019 72 10000 2.1 300 18:18 14.05.2020
3050 Clouds 18 1019 63 10000 2.1 320 17:55 14.05.2020
3051 Clouds 20 1018 52 10000 2.1 310 17:36 14.05.2020
3052 Clouds 20 1018 52 10000 2.1 310 17:18 14.05.2020
3053 Clouds 24 1018 41 10000 3.1 290 16:39 14.05.2020
3054 Clouds 24 1018 41 10000 3.1 290 16:20 14.05.2020
3055 Clouds 25 1017 36 10000 4.6 300 15:57 14.05.2020
3056 Clouds 26 1017 39 10000 3.1 310 15:39 14.05.2020
3057 Clouds 26 1017 39 10000 3.1 310 15:19 14.05.2020
3058 Clouds 26 1017 39 10000 5.1 300 14:56 14.05.2020
3059 Clouds 26 1018 39 10000 4.6 270 14:38 14.05.2020
3060 Clouds 26 1018 39 10000 4.6 270 14:19 14.05.2020
3061 Clouds 27 1018 36 10000 4.1 290 13:55 14.05.2020
3062 Clouds 27 1018 42 10000 2.6 290 13:37 14.05.2020
3063 Clouds 27 1018 42 10000 2.6 290 13:18 14.05.2020
3064 Clouds 26 1018 47 10000 2.1 0 12:56 14.05.2020
3065 Clouds 26 1018 50 10000 3.6 220 12:37 14.05.2020
3066 Clouds 26 1018 50 10000 3.6 220 12:18 14.05.2020
3067 Clouds 25 1019 47 10000 2.1 0 11:42 14.05.2020
3068 Clouds 24 1019 57 10000 2.1 50 11:24 14.05.2020
3069 Clouds 24 1020 57 10000 1.5 0 10:58 14.05.2020
3070 Clouds 22 1020 68 10000 1.5 150 10:40 14.05.2020
3071 Clouds 22 1020 68 10000 1.5 150 10:21 14.05.2020
3072 Clouds 21 1021 73 10000 1.5 0 09:43 14.05.2020
3073 Clouds 20 1021 77 6000 1.5 190 09:23 14.05.2020
3074 Mist 17 1021 88 4000 1.5 0 08:56 14.05.2020
3075 Mist 16 1021 100 2500 1 0 08:36 14.05.2020
3076 Mist 16 1021 100 2500 1 0 08:18 14.05.2020
3077 Mist 16 1021 100 2000 1 0 07:43 14.05.2020
3078 Mist 15 1021 100 4000 1.5 0 07:20 14.05.2020
3079 Mist 15 1021 100 4000 1.5 230 06:43 14.05.2020
3080 Mist 14 1020 100 3000 1.5 0 06:23 14.05.2020
3081 Clouds 13 1020 100 10000 0.72 164 05:37 14.05.2020
3082 Clouds 13 1019 100 10000 1.5 0 04:43 14.05.2020
3083 Clouds 14 1019 93 10000 0.7 108 03:32 14.05.2020
3084 Clouds 14 1019 100 10000 1 340 02:43 14.05.2020
3085 Clouds 15 1020 93 10000 0.5 0 02:20 14.05.2020
3086 Clouds 15 1020 93 10000 0.5 300 01:44 14.05.2020
3087 Clouds 16 1020 93 10000 1.5 340 00:51 14.05.2020
3088 Clouds 16 1020 93 10000 1.5 340 00:51 14.05.2020
3089 Clouds 16 1020 93 10000 2.1 320 00:26 14.05.2020
3090 Clouds 16 1020 93 10000 1.5 340 23:45 13.05.2020
3091 Clouds 16 1020 93 10000 1.5 340 23:45 13.05.2020
3092 Clouds 15 1020 93 10000 2.1 280 23:22 13.05.2020
3093 Clouds 15 1020 87 10000 1 0 22:58 13.05.2020
3094 Clouds 15 1020 93 10000 1.5 290 22:39 13.05.2020
3095 Clouds 15 1020 93 10000 1.5 290 22:39 13.05.2020
3096 Clouds 15 1020 93 10000 1.5 290 22:21 13.05.2020
3097 Clouds 16 1020 87 10000 2.1 330 21:57 13.05.2020
3098 Clouds 15 1021 93 10000 2.6 310 21:38 13.05.2020
3099 Clouds 15 1021 93 10000 2.6 310 21:38 13.05.2020
3100 Clouds 15 1021 93 10000 2.6 310 21:19 13.05.2020
3101 Clouds 16 1021 87 10000 2.6 310 20:41 13.05.2020
3102 Clouds 17 1021 82 10000 1.5 310 20:23 13.05.2020
3103 Clouds 17 1021 82 10000 2.1 330 19:57 13.05.2020
3104 Clouds 17 1021 82 10000 1.5 320 19:39 13.05.2020
3105 Clouds 17 1021 82 10000 1.5 320 19:21 13.05.2020
3106 Clouds 17 1020 82 10000 2.1 320 18:42 13.05.2020
3107 Clouds 17 1020 82 10000 2.1 320 18:42 13.05.2020
3108 Clouds 18 1020 77 10000 2.1 320 18:21 13.05.2020
3109 Clouds 19 1019 72 10000 1.5 310 17:40 13.05.2020
3110 Clouds 20 1019 68 10000 2.1 330 17:20 13.05.2020
3111 Clouds 22 1019 60 10000 1.5 310 16:59 13.05.2020
3112 Clouds 22 1019 60 10000 1.5 310 16:40 13.05.2020
3113 Clouds 23 1019 60 10000 2.6 300 16:19 13.05.2020
3114 Clouds 24 1019 53 10000 4.1 290 15:54 13.05.2020
3115 Clouds 25 1018 50 10000 3.6 310 15:36 13.05.2020
3116 Clouds 25 1018 50 10000 3.6 310 15:18 13.05.2020
3117 Clouds 25 1018 53 10000 2.6 280 14:41 13.05.2020
3118 Clouds 25 1018 53 10000 4.1 290 14:22 13.05.2020
3119 Clouds 25 1018 53 10000 2.6 270 13:58 13.05.2020
3120 Clouds 24 1019 60 10000 2.1 270 13:39 13.05.2020
3121 Clouds 24 1019 60 10000 2.1 270 13:39 13.05.2020
3122 Clouds 24 1019 60 10000 2.1 270 13:21 13.05.2020
3123 Clouds 24 1019 57 10000 1.5 0 12:57 13.05.2020
3124 Clouds 25 1019 53 10000 1.5 0 12:38 13.05.2020
3125 Clouds 25 1019 53 10000 1.5 0 12:18 13.05.2020
3126 Clouds 23 1020 60 10000 1.5 30 11:55 13.05.2020
3127 Clouds 21 1020 68 10000 2.1 20 11:36 13.05.2020
3128 Clouds 21 1020 68 10000 2.1 20 11:18 13.05.2020
3129 Clouds 21 1021 68 10000 2.1 50 10:56 13.05.2020
3130 Clouds 20 1021 72 10000 3.1 350 10:37 13.05.2020
3131 Clouds 20 1021 72 10000 3.1 350 10:18 13.05.2020
3132 Clouds 20 1021 72 10000 2.1 0 09:41 13.05.2020
3133 Clouds 19 1021 77 10000 2.1 40 09:22 13.05.2020
3134 Clouds 18 1022 82 10000 2.6 50 08:54 13.05.2020
3135 Clouds 17 1022 82 10000 3.1 40 08:36 13.05.2020
3136 Clouds 17 1022 82 10000 3.1 40 08:18 13.05.2020
3137 Clouds 17 1022 82 10000 2.1 40 07:42 13.05.2020
3138 Clouds 17 1021 82 10000 1 0 07:24 13.05.2020
3139 Clouds 16 1021 87 10000 1 0 06:47 13.05.2020
3140 Clouds 16 1021 87 10000 2.1 90 05:59 13.05.2020
3141 Clouds 16 1020 87 10000 1 0 04:49 13.05.2020
3142 Clouds 15 1020 100 10000 2.6 90 03:26 13.05.2020
3143 Clouds 16 1020 87 10000 2.6 90 02:27 13.05.2020
3144 Clouds 16 1021 87 10000 1.5 90 01:28 13.05.2020
3145 Clouds 16 1021 87 10000 2.6 90 00:45 13.05.2020
3146 Clouds 16 1021 87 10000 3.1 110 00:20 13.05.2020
3147 Clouds 15 1021 93 10000 2.6 90 23:40 12.05.2020
3148 Clouds 15 1021 93 10000 3.1 100 23:21 12.05.2020
3149 Clouds 15 1021 93 10000 3.1 100 22:57 12.05.2020
3150 Clouds 15 1021 93 10000 3.1 100 22:39 12.05.2020
3151 Clouds 15 1021 93 10000 3.1 100 22:20 12.05.2020
3152 Clouds 15 1021 93 10000 2.6 110 21:55 12.05.2020
3153 Clouds 15 1021 93 10000 3.1 120 21:37 12.05.2020
3154 Clouds 15 1021 93 10000 3.1 120 21:18 12.05.2020
3155 Clouds 15 1021 93 10000 3.1 110 20:56 12.05.2020
3156 Clouds 15 1021 93 10000 3.1 120 20:38 12.05.2020
3157 Clouds 15 1021 93 10000 3.1 120 20:19 12.05.2020
3158 Clouds 16 1021 93 10000 5.1 120 19:55 12.05.2020
3159 Clouds 16 1021 93 10000 5.1 120 19:37 12.05.2020
3160 Clouds 16 1021 93 10000 5.1 120 19:18 12.05.2020
3161 Clouds 16 1020 93 10000 3.6 120 18:41 12.05.2020
3162 Clouds 17 1020 88 10000 3.1 100 18:23 12.05.2020
3163 Clouds 18 1019 77 10000 0.5 340 17:54 12.05.2020
3164 Clouds 20 1019 68 10000 0.5 340 17:36 12.05.2020
3165 Clouds 20 1019 68 10000 0.5 340 17:18 12.05.2020
3166 Clouds 21 1019 64 10000 1 310 16:42 12.05.2020
3167 Clouds 23 1019 56 10000 1.5 290 16:20 12.05.2020
3168 Clouds 24 1019 53 10000 1.5 340 15:55 12.05.2020
3169 Clouds 24 1019 53 10000 1.5 340 15:55 12.05.2020
3170 Clouds 24 1019 53 10000 1.5 340 15:55 12.05.2020
3171 Clouds 24 1019 53 10000 2.6 320 15:36 12.05.2020
3172 Clouds 24 1019 53 10000 2.6 320 15:18 12.05.2020
3173 Clouds 24 1019 57 10000 2.1 300 14:54 12.05.2020
3174 Clouds 24 1019 57 10000 2.1 0 14:36 12.05.2020
3175 Clouds 24 1019 57 10000 2.1 0 14:18 12.05.2020
3176 Clouds 23 1019 60 10000 2.1 190 13:54 12.05.2020
3177 Clouds 24 1019 53 10000 1 0 13:36 12.05.2020
3178 Clouds 24 1019 53 10000 1 0 13:18 12.05.2020
3179 Clouds 23 1020 56 10000 2.1 160 12:54 12.05.2020
3180 Clouds 23 1020 56 10000 2.1 160 12:36 12.05.2020
3181 Clouds 23 1020 56 10000 2.1 160 12:36 12.05.2020
3182 Clouds 23 1020 56 10000 2.1 160 12:18 12.05.2020
3183 Clouds 23 1020 56 10000 2.6 160 11:55 12.05.2020
3184 Clouds 22 1021 60 10000 2.1 60 11:36 12.05.2020
3185 Clouds 22 1021 60 10000 2.1 60 11:18 12.05.2020
3186 Clouds 20 1021 68 10000 1.5 0 10:54 12.05.2020
3187 Clouds 19 1022 72 10000 1.5 0 10:36 12.05.2020
3188 Clouds 19 1022 72 10000 1.5 0 10:18 12.05.2020
3189 Clouds 17 1023 77 10000 1.5 0 09:40 12.05.2020
3190 Clouds 17 1023 77 10000 1.5 0 09:21 12.05.2020
3191 Clouds 17 1023 77 10000 2.1 50 08:59 12.05.2020
3192 Clouds 16 1023 82 10000 2.6 90 08:38 12.05.2020
3193 Clouds 16 1023 82 10000 2.6 90 08:19 12.05.2020
3194 Clouds 16 1023 82 10000 2.6 90 08:19 12.05.2020
3195 Clouds 15 1023 87 10000 2.6 70 07:42 12.05.2020
3196 Clouds 15 1023 87 10000 2.1 120 07:24 12.05.2020
3197 Clouds 15 1023 87 10000 2.1 90 06:50 12.05.2020
3198 Clouds 15 1023 87 10000 2.6 90 06:29 12.05.2020
3199 Clouds 15 1023 87 10000 2.1 80 05:54 12.05.2020
3200 Clouds 15 1022 87 10000 2.1 90 05:35 12.05.2020
3201 Clouds 15 1022 87 10000 2.6 90 03:27 12.05.2020
3202 Clouds 15 1022 87 10000 2.6 90 02:52 12.05.2020
3203 Clouds 15 1022 87 10000 2.6 100 02:25 12.05.2020
3204 Clouds 16 1023 82 10000 2.6 140 01:27 12.05.2020
3205 Clouds 16 1024 87 10000 2.1 110 00:28 12.05.2020
3206 Clouds 16 1024 87 10000 3.1 100 23:59 11.05.2020
3207 Clouds 16 1024 87 10000 3.1 100 23:40 11.05.2020
3208 Clouds 16 1024 87 10000 3.1 100 23:21 11.05.2020
3209 Clouds 16 1024 87 10000 2.1 110 22:59 11.05.2020
3210 Clouds 16 1024 87 10000 2.1 110 22:40 11.05.2020
3211 Clouds 16 1024 87 10000 2.1 110 22:20 11.05.2020
3212 Clouds 16 1024 87 10000 3.1 140 21:58 11.05.2020
3213 Clouds 16 1024 87 10000 3.1 130 21:40 11.05.2020
3214 Clouds 16 1024 87 10000 3.1 130 21:19 11.05.2020
3215 Clouds 16 1024 87 10000 2.1 140 20:58 11.05.2020
3216 Clouds 15 1024 93 10000 2.6 130 20:40 11.05.2020
3217 Clouds 15 1024 93 10000 2.6 130 20:20 11.05.2020
3218 Clouds 15 1024 93 10000 2.6 120 19:55 11.05.2020
3219 Clouds 15 1024 93 10000 2.6 120 19:55 11.05.2020
3220 Clouds 15 1023 93 10000 2.6 120 19:36 11.05.2020
3221 Clouds 15 1023 93 10000 2.6 120 19:18 11.05.2020
3222 Clouds 16 1023 87 10000 3.1 110 18:55 11.05.2020
3223 Clouds 16 1023 87 10000 3.1 110 18:55 11.05.2020
3224 Clouds 16 1023 87 10000 3.6 120 18:36 11.05.2020
3225 Clouds 16 1023 87 10000 3.6 120 18:18 11.05.2020
3226 Clouds 17 1022 82 10000 4.1 110 17:41 11.05.2020
3227 Clouds 17 1022 82 10000 4.1 110 17:41 11.05.2020
3228 Clouds 17 1022 88 10000 4.1 100 17:23 11.05.2020
3229 Clouds 17 1022 88 10000 3.6 100 16:59 11.05.2020
3230 Clouds 17 1022 88 10000 3.6 100 16:40 11.05.2020
3231 Rain 18 1022 82 10000 5.7 110 16:21 11.05.2020
3232 Rain 19 1022 77 10000 5.1 90 15:57 11.05.2020
3233 Rain 19 1022 77 10000 6.7 100 15:39 11.05.2020
3234 Rain 19 1022 77 10000 6.7 100 15:18 11.05.2020
3235 Rain 19 1022 77 10000 5.1 150 14:42 11.05.2020
3236 Rain 20 1022 72 10000 4.6 110 14:23 11.05.2020
3237 Clouds 21 1022 68 10000 4.6 120 13:59 11.05.2020
3238 Clouds 21 1022 68 10000 4.6 120 13:41 11.05.2020
3239 Clouds 21 1022 68 10000 3.6 130 13:19 11.05.2020
3240 Clouds 21 1022 68 10000 5.1 120 12:58 11.05.2020
3241 Clouds 21 1022 64 10000 5.7 120 12:39 11.05.2020
3242 Clouds 21 1022 64 10000 5.7 120 12:21 11.05.2020
3243 Clouds 20 1023 68 10000 6.2 130 11:56 11.05.2020
3244 Clouds 20 1023 68 10000 5.7 140 11:37 11.05.2020
3245 Clouds 20 1023 68 10000 5.7 140 11:19 11.05.2020
3246 Clouds 21 1023 64 10000 5.7 110 10:54 11.05.2020
3247 Clouds 20 1024 68 10000 5.1 130 10:36 11.05.2020
3248 Clouds 20 1024 68 10000 5.1 130 10:18 11.05.2020
3249 Clouds 19 1024 72 10000 5.1 140 09:42 11.05.2020
3250 Clouds 19 1025 72 10000 5.1 140 09:22 11.05.2020
3251 Clouds 18 1025 77 10000 3.6 150 08:58 11.05.2020
3252 Clouds 18 1025 77 10000 3.6 150 08:58 11.05.2020
3253 Clouds 18 1025 77 10000 4.6 160 08:38 11.05.2020
3254 Clouds 18 1025 77 10000 4.6 160 08:18 11.05.2020
3255 Clouds 17 1025 82 10000 4.1 160 07:50 11.05.2020
3256 Clouds 17 1024 82 10000 4.1 160 07:31 11.05.2020
3257 Clouds 16 1024 82 10000 3.1 150 06:52 11.05.2020
3258 Clouds 15 1024 87 10000 2.6 160 06:18 11.05.2020
3259 Clouds 15 1024 87 10000 5.1 140 05:28 11.05.2020
3260 Clouds 15 1023 87 10000 3.1 160 04:35 11.05.2020
3261 Clouds 15 1023 87 10000 2.6 150 03:33 11.05.2020
3262 Clouds 15 1023 82 10000 4.1 140 02:33 11.05.2020
3263 Clouds 15 1024 82 10000 4.6 140 01:43 11.05.2020
3264 Clouds 15 1024 87 10000 4.1 130 00:53 11.05.2020
3265 Clouds 15 1025 87 10000 4.1 140 00:20 11.05.2020
3266 Clouds 15 1025 87 10000 4.6 130 23:44 10.05.2020
3267 Clouds 15 1025 87 10000 4.6 150 23:26 10.05.2020
3268 Clouds 16 1025 82 10000 4.1 160 22:57 10.05.2020
3269 Clouds 15 1025 87 10000 4.6 150 22:38 10.05.2020
3270 Clouds 15 1025 87 10000 4.6 150 22:20 10.05.2020
3271 Clouds 15 1025 87 10000 3.6 150 21:44 10.05.2020
3272 Clouds 15 1025 87 10000 3.6 150 21:20 10.05.2020
3273 Clouds 16 1025 82 10000 4.1 150 20:55 10.05.2020
3274 Clouds 16 1025 87 10000 3.1 140 20:37 10.05.2020
3275 Clouds 16 1025 87 10000 3.1 140 20:19 10.05.2020
3276 Clouds 16 1025 87 10000 4.1 120 19:40 10.05.2020
3277 Clouds 16 1025 87 10000 4.1 130 19:22 10.05.2020
3278 Clouds 17 1024 82 10000 4.1 140 18:57 10.05.2020
3279 Clouds 17 1024 82 10000 4.1 140 18:57 10.05.2020
3280 Clouds 16 1024 87 10000 5.1 110 18:37 10.05.2020
3281 Clouds 16 1024 87 10000 5.1 110 18:19 10.05.2020
3282 Clouds 17 1024 82 10000 4.6 110 17:59 10.05.2020
3283 Clouds 17 1024 82 10000 4.6 110 17:40 10.05.2020
3284 Clouds 17 1024 82 10000 4.6 110 17:21 10.05.2020
3285 Clouds 17 1024 82 10000 4.1 140 16:57 10.05.2020
3286 Clouds 18 1023 77 10000 6.2 120 16:38 10.05.2020
3287 Clouds 18 1023 77 10000 6.2 120 16:19 10.05.2020
3288 Clouds 18 1023 77 10000 5.1 130 15:44 10.05.2020
3289 Clouds 20 1022 72 10000 4.6 150 15:25 10.05.2020
3290 Clouds 20 1022 68 10000 4.6 120 14:58 10.05.2020
3291 Clouds 21 1022 64 10000 3.6 150 14:38 10.05.2020
3292 Clouds 21 1022 64 10000 3.6 150 14:38 10.05.2020
3293 Clouds 21 1022 64 10000 3.6 150 14:19 10.05.2020
3294 Clouds 20 1022 72 10000 4.6 130 13:59 10.05.2020
3295 Clouds 21 1022 64 10000 5.1 150 13:38 10.05.2020
3296 Clouds 21 1022 64 10000 5.1 150 13:20 10.05.2020
3297 Clouds 21 1022 64 10000 5.1 170 12:57 10.05.2020
3298 Clouds 21 1023 64 10000 5.7 160 12:38 10.05.2020
3299 Clouds 21 1023 64 10000 5.7 160 12:20 10.05.2020
3300 Clouds 21 1023 68 10000 5.1 160 11:55 10.05.2020
3301 Clouds 21 1023 68 10000 5.1 160 11:55 10.05.2020
3302 Clouds 20 1023 72 10000 5.1 150 11:36 10.05.2020
3303 Clouds 20 1023 72 10000 5.1 150 11:18 10.05.2020
3304 Clouds 20 1024 68 10000 6.2 150 10:43 10.05.2020
3305 Clouds 20 1024 68 10000 5.1 150 10:25 10.05.2020
3306 Clouds 19 1024 72 10000 5.1 150 09:56 10.05.2020
3307 Clouds 19 1024 72 10000 4.6 140 09:38 10.05.2020
3308 Clouds 19 1024 72 10000 4.6 140 09:38 10.05.2020
3309 Clouds 19 1024 72 10000 4.6 140 09:19 10.05.2020
3310 Clouds 18 1024 77 10000 4.6 150 08:44 10.05.2020
3311 Clouds 18 1024 77 10000 3.6 150 08:23 10.05.2020
3312 Clouds 17 1024 77 10000 4.6 170 07:44 10.05.2020
3313 Clouds 17 1024 77 10000 3.6 170 07:19 10.05.2020
3314 Clouds 16 1023 82 10000 2.6 160 06:52 10.05.2020
3315 Clouds 16 1023 82 10000 3.6 140 06:29 10.05.2020
3316 Clouds 16 1023 82 10000 3.1 130 05:48 10.05.2020
3317 Clouds 16 1022 87 10000 2.6 110 04:49 10.05.2020
3318 Clouds 16 1022 87 10000 2.6 110 04:29 10.05.2020
3319 Clouds 16 1022 87 10000 3.1 130 03:52 10.05.2020
3320 Clouds 16 1022 87 10000 2.6 140 03:30 10.05.2020
3321 Clouds 16 1022 87 10000 3.1 100 02:25 10.05.2020
3322 Clouds 16 1023 93 10000 3.1 90 01:59 10.05.2020
3323 Clouds 16 1023 93 10000 3.1 90 01:59 10.05.2020
3324 Clouds 16 1023 93 10000 3.1 90 01:40 10.05.2020
3325 Clouds 16 1023 93 10000 3.1 90 01:19 10.05.2020
3326 Clouds 16 1023 87 10000 2.1 70 00:53 10.05.2020
3327 Clouds 16 1023 87 10000 3.1 80 00:22 10.05.2020
3328 Clouds 16 1023 87 10000 3.1 70 23:41 09.05.2020
3329 Clouds 16 1023 87 10000 2.6 80 23:23 09.05.2020
3330 Clouds 16 1024 87 10000 3.6 110 22:59 09.05.2020
3331 Clouds 16 1024 87 10000 3.6 110 22:41 09.05.2020
3332 Clouds 16 1023 87 10000 4.6 110 22:22 09.05.2020
3333 Clouds 17 1024 82 10000 4.6 120 21:57 09.05.2020
3334 Clouds 17 1023 82 10000 3.6 130 21:39 09.05.2020
3335 Clouds 17 1023 82 10000 3.6 130 21:20 09.05.2020
3336 Clouds 17 1023 82 10000 3.6 130 21:20 09.05.2020
3337 Clouds 17 1023 82 10000 3.6 150 20:57 09.05.2020
3338 Clouds 17 1024 88 10000 4.1 100 20:38 09.05.2020
3339 Clouds 17 1024 88 10000 4.1 100 20:19 09.05.2020
3340 Clouds 17 1023 88 10000 4.6 120 19:54 09.05.2020
3341 Clouds 17 1023 88 10000 4.6 120 19:36 09.05.2020
3342 Clouds 17 1023 88 10000 4.6 120 19:36 09.05.2020
3343 Clouds 17 1023 88 10000 4.6 120 19:18 09.05.2020
3344 Clouds 17 1023 88 10000 4.1 110 18:41 09.05.2020
3345 Clouds 17 1022 88 10000 4.6 110 18:21 09.05.2020
3346 Clouds 18 1022 82 10000 5.1 110 17:44 09.05.2020
3347 Clouds 19 1022 72 10000 4.6 100 17:23 09.05.2020
3348 Clouds 20 1021 68 10000 5.1 100 16:56 09.05.2020
3349 Clouds 21 1021 64 10000 4.6 100 16:37 09.05.2020
3350 Clouds 21 1021 64 10000 4.6 100 16:18 09.05.2020
3351 Clouds 23 1021 53 10000 4.1 110 15:42 09.05.2020
3352 Clouds 24 1020 50 10000 2.6 90 15:22 09.05.2020
3353 Clouds 24 1020 50 10000 3.1 80 14:55 09.05.2020
3354 Clouds 25 1020 50 10000 3.6 110 14:36 09.05.2020
3355 Clouds 25 1020 50 10000 3.6 110 14:18 09.05.2020
3356 Clouds 25 1020 50 10000 4.1 120 13:41 09.05.2020
3357 Clouds 25 1021 53 10000 3.1 120 13:22 09.05.2020
3358 Clouds 25 1021 50 10000 3.6 130 12:58 09.05.2020
3359 Clouds 24 1021 53 10000 3.6 130 12:39 09.05.2020
3360 Clouds 24 1021 53 10000 3.6 130 12:21 09.05.2020
3361 Clouds 22 1022 60 10000 2.6 130 11:44 09.05.2020
3362 Clouds 23 1022 60 10000 4.1 160 11:20 09.05.2020
3363 Clouds 23 1022 60 10000 4.1 160 11:20 09.05.2020
3364 Clouds 22 1022 60 10000 4.1 110 10:54 09.05.2020
3365 Clouds 21 1023 68 10000 4.1 110 10:36 09.05.2020
3366 Clouds 21 1023 68 10000 4.1 110 10:18 09.05.2020
3367 Clouds 21 1023 68 10000 5.1 120 09:41 09.05.2020
3368 Clouds 20 1023 72 10000 3.1 160 09:20 09.05.2020
3369 Clouds 20 1023 72 10000 2.6 150 08:54 09.05.2020
3370 Clouds 20 1023 72 10000 2.6 150 08:54 09.05.2020
3371 Clouds 20 1023 72 10000 3.1 130 08:35 09.05.2020
3372 Clouds 18 1023 82 10000 1.5 0 07:56 09.05.2020
3373 Clouds 17 1023 88 10000 2.1 100 07:38 09.05.2020
3374 Clouds 17 1023 88 10000 2.1 100 07:20 09.05.2020
3375 Clouds 15 1022 93 10000 0.5 0 06:27 09.05.2020
3376 Clouds 14 1022 100 10000 1.5 50 05:50 09.05.2020
3377 Clouds 15 1021 93 10000 2.1 120 05:19 09.05.2020
3378 Clouds 16 1021 93 10000 2.6 140 03:39 09.05.2020
3379 Clouds 16 1021 87 10000 3.1 110 02:53 09.05.2020
3380 Clouds 16 1021 87 10000 3.1 110 02:29 09.05.2020
3381 Clouds 17 1021 88 10000 3.1 100 01:48 09.05.2020
3382 Clouds 17 1022 88 10000 2.6 120 01:20 09.05.2020
3383 Clouds 17 1022 88 10000 2.6 80 00:42 09.05.2020
3384 Clouds 17 1022 88 10000 2.6 80 00:18 09.05.2020
3385 Clouds 18 1022 82 10000 3.6 90 23:43 08.05.2020
3386 Clouds 28 1022 45 10000 3.6 100 23:24 08.05.2020
3387 Clouds 18 1022 82 10000 3.1 110 22:55 08.05.2020
3388 Clouds 18 1022 82 10000 3.6 110 22:36 08.05.2020
3389 Clouds 18 1022 82 10000 3.6 110 22:18 08.05.2020
3390 Clouds 18 1022 82 10000 3.1 130 21:54 08.05.2020
3391 Clouds 18 1022 82 10000 3.6 150 21:36 08.05.2020
3392 Clouds 18 1022 82 10000 3.6 150 21:18 08.05.2020
3393 Clouds 17 1022 88 10000 2.6 140 20:41 08.05.2020
3394 Clouds 18 1022 82 10000 3.6 150 20:23 08.05.2020
3395 Clouds 18 1021 88 10000 3.6 110 19:56 08.05.2020
3396 Clouds 18 1021 88 10000 4.1 100 19:38 08.05.2020
3397 Clouds 18 1021 88 10000 4.1 100 19:19 08.05.2020
3398 Clouds 18 1021 88 10000 4.1 90 18:44 08.05.2020
3399 Clouds 18 1021 88 10000 4.1 90 18:44 08.05.2020
3400 Clouds 19 1021 82 10000 4.1 110 18:26 08.05.2020
3401 Clouds 19 1020 82 10000 5.1 110 17:43 08.05.2020
3402 Clouds 20 1020 72 10000 3.6 90 17:20 08.05.2020
3403 Clouds 21 1020 64 10000 2.6 90 16:55 08.05.2020
3404 Clouds 23 1020 53 10000 2.6 90 16:37 08.05.2020
3405 Clouds 23 1020 53 10000 2.6 90 16:18 08.05.2020
3406 Clouds 24 1019 50 10000 2.1 100 15:42 08.05.2020
3407 Clouds 25 1019 47 10000 2.6 150 15:20 08.05.2020
3408 Clouds 24 1019 50 10000 2.1 140 14:56 08.05.2020
3409 Clouds 24 1019 50 10000 2.1 130 14:37 08.05.2020
3410 Clouds 24 1019 50 10000 2.1 130 14:18 08.05.2020
3411 Clouds 23 1019 53 10000 2.6 140 13:41 08.05.2020
3412 Clouds 24 1019 50 10000 2.1 140 13:20 08.05.2020
3413 Clouds 24 1020 50 10000 3.6 120 12:56 08.05.2020
3414 Clouds 25 1020 50 10000 2.6 130 12:38 08.05.2020
3415 Clouds 25 1020 50 10000 2.6 130 12:20 08.05.2020
3416 Clouds 25 1020 50 10000 3.1 120 11:44 08.05.2020
3417 Clouds 25 1020 50 10000 3.1 120 11:44 08.05.2020
3418 Clouds 25 1021 50 10000 3.6 110 11:23 08.05.2020
3419 Clouds 24 1021 53 10000 4.1 110 10:58 08.05.2020
3420 Clouds 24 1021 53 10000 4.1 110 10:40 08.05.2020
3421 Clouds 23 1021 60 10000 4.1 130 10:19 08.05.2020
3422 Clouds 22 1022 64 10000 3.6 150 09:54 08.05.2020
3423 Clouds 22 1022 68 10000 3.6 140 09:36 08.05.2020
3424 Clouds 22 1022 68 10000 3.6 140 09:18 08.05.2020
3425 Clouds 19 1022 82 10000 3.1 170 08:40 08.05.2020
3426 Clouds 19 1022 82 10000 3.1 170 08:21 08.05.2020
3427 Clouds 19 1022 82 9000 3.1 170 07:43 08.05.2020
3428 Clouds 18 1022 93 9000 2.6 180 07:23 08.05.2020
3429 Mist 17 1021 100 4500 1.5 160 06:50 08.05.2020
3430 Mist 16 1021 100 4500 2.1 140 06:21 08.05.2020
3431 Mist 16 1020 93 2500 1 0 05:36 08.05.2020
3432 Mist 14 1020 100 2500 1 0 04:21 08.05.2020
3433 Clouds 16 1020 93 10000 1.5 0 02:32 08.05.2020
3434 Clouds 16 1020 93 10000 1.5 0 01:44 08.05.2020
3435 Clouds 16 1020 93 10000 1 0 01:21 08.05.2020
3436 Clouds 16 1020 100 10000 1.5 0 00:48 08.05.2020
3437 Clouds 16 1020 100 10000 0.5 0 00:28 08.05.2020
3438 Clouds 16 1020 100 10000 1.5 100 23:57 07.05.2020
3439 Clouds 16 1021 100 10000 1.5 0 23:39 07.05.2020
3440 Clouds 16 1021 100 10000 1.5 0 23:39 07.05.2020
3441 Clouds 16 1021 100 10000 1.5 0 23:21 07.05.2020
3442 Clouds 17 1020 88 10000 1.5 0 22:42 07.05.2020
3443 Clouds 17 1020 88 10000 1.5 0 22:21 07.05.2020
3444 Clouds 17 1021 88 10000 3.1 60 21:58 07.05.2020
3445 Clouds 17 1021 88 10000 1.5 50 21:39 07.05.2020
3446 Clouds 17 1021 88 10000 1.5 50 21:20 07.05.2020
3447 Clouds 17 1021 88 10000 2.6 60 20:58 07.05.2020
3448 Clouds 17 1021 88 10000 2.6 60 20:40 07.05.2020
3449 Clouds 17 1021 88 10000 2.1 60 20:20 07.05.2020
3450 Clouds 17 1021 88 10000 2.1 60 20:20 07.05.2020
3451 Clouds 18 1021 77 10000 1 0 19:48 07.05.2020
3452 Clouds 18 1020 72 10000 1.62 74 19:23 07.05.2020
3453 Clouds 17 1020 77 10000 2.1 330 18:57 07.05.2020
3454 Clouds 18 1020 72 10000 2.6 310 18:38 07.05.2020
3455 Clouds 18 1020 72 10000 2.6 310 18:38 07.05.2020
3456 Clouds 18 1020 72 10000 2.6 310 18:20 07.05.2020
3457 Clouds 19 1020 68 10000 2.1 290 17:41 07.05.2020
3458 Clouds 20 1020 64 10000 2.1 300 17:20 07.05.2020
3459 Clouds 22 1019 56 10000 2.1 290 16:43 07.05.2020
3460 Clouds 23 1019 49 10000 2.1 270 16:19 07.05.2020
3461 Clouds 25 1019 44 10000 1.5 0 15:58 07.05.2020
3462 Clouds 26 1019 39 10000 2.6 240 15:39 07.05.2020
3463 Clouds 26 1019 39 10000 2.6 240 15:39 07.05.2020
3464 Clouds 26 1019 39 10000 2.6 240 15:18 07.05.2020
3465 Clouds 26 1019 41 10000 2.6 270 14:57 07.05.2020
3466 Clouds 27 1019 42 10000 1 0 14:39 07.05.2020
3467 Clouds 27 1019 42 10000 1 0 14:18 07.05.2020
3468 Clouds 26 1019 44 10000 1.5 0 13:42 07.05.2020
3469 Clouds 27 1019 39 10000 1.5 0 13:23 07.05.2020
3470 Clouds 27 1019 39 10000 1.5 0 12:43 07.05.2020
3471 Clouds 26 1020 41 10000 2.6 60 12:20 07.05.2020
3472 Clouds 25 1020 50 10000 1.5 0 11:54 07.05.2020
3473 Clouds 24 1021 53 10000 2.1 0 11:36 07.05.2020
3474 Clouds 24 1021 53 10000 2.1 0 11:18 07.05.2020
3475 Clouds 23 1022 64 8000 1.5 50 10:40 07.05.2020
3476 Clouds 23 1022 64 8000 1.5 50 10:20 07.05.2020
3477 Clouds 22 1022 68 8000 1.5 70 09:40 07.05.2020
3478 Clouds 21 1022 73 8000 1.5 0 09:20 07.05.2020
3479 Clouds 22 1023 64 7000 1 0 08:56 07.05.2020
3480 Clouds 19 1023 77 10000 1.5 210 08:37 07.05.2020
3481 Clouds 19 1023 77 10000 1.5 210 08:19 07.05.2020
3482 Clouds 19 1023 77 10000 1.5 0 07:41 07.05.2020
3483 Clouds 18 1022 82 10000 0.5 0 07:22 07.05.2020
3484 Clouds 17 1022 88 10000 1 0 06:45 07.05.2020
3485 Clouds 17 1022 88 10000 1 0 06:45 07.05.2020
3486 Clouds 17 1022 88 10000 1 0 06:23 07.05.2020
3487 Clouds 16 1021 93 10000 1 60 05:28 07.05.2020
3488 Clouds 16 1021 93 10000 0.87 150 03:50 07.05.2020
3489 Clouds 17 1021 93 10000 1 70 03:23 07.05.2020
3490 Clouds 17 1021 93 10000 1 50 02:41 07.05.2020
3491 Clouds 17 1022 93 10000 1.5 50 01:41 07.05.2020
3492 Clouds 17 1022 93 10000 1 40 01:23 07.05.2020
3493 Clouds 17 1022 93 10000 1 40 00:44 07.05.2020
3494 Clouds 16 1023 100 10000 1 0 00:25 07.05.2020
3495 Clouds 16 1023 93 10000 1 0 23:46 06.05.2020
3496 Clouds 16 1023 93 10000 1.5 70 23:24 06.05.2020
3497 Clouds 17 1023 93 10000 2.6 110 22:57 06.05.2020
3498 Clouds 17 1023 93 10000 2.6 110 22:39 06.05.2020
3499 Clouds 17 1023 93 10000 2.6 110 22:19 06.05.2020
3500 Clouds 17 1023 93 10000 2.1 150 21:56 06.05.2020
3501 Clouds 17 1023 93 10000 2.1 150 21:38 06.05.2020
3502 Clouds 17 1023 93 10000 2.1 150 21:18 06.05.2020
3503 Clouds 17 1023 88 10000 3.6 110 20:42 06.05.2020
3504 Clouds 17 1023 93 10000 2.6 80 20:23 06.05.2020
3505 Clouds 17 1022 93 10000 4.1 100 19:57 06.05.2020
3506 Clouds 17 1022 93 10000 3.6 100 19:38 06.05.2020
3507 Clouds 17 1022 93 10000 3.6 100 19:19 06.05.2020
3508 Clouds 18 1022 88 10000 3.1 90 18:58 06.05.2020
3509 Clouds 18 1021 88 10000 2.6 90 18:38 06.05.2020
3510 Clouds 18 1021 88 10000 2.6 90 18:20 06.05.2020
3511 Clouds 18 1021 88 10000 2.6 90 18:20 06.05.2020
3512 Clouds 19 1021 77 10000 2.6 80 17:56 06.05.2020
3513 Clouds 19 1021 77 10000 2.6 80 17:56 06.05.2020
3514 Clouds 19 1021 77 10000 2.6 80 17:56 06.05.2020
3515 Clouds 20 1021 77 10000 2.6 60 17:38 06.05.2020
3516 Clouds 20 1021 77 10000 2.6 60 17:20 06.05.2020
3517 Clouds 21 1021 68 10000 2.6 70 16:58 06.05.2020
3518 Clouds 23 1021 60 10000 3.1 80 16:40 06.05.2020
3519 Clouds 23 1021 60 10000 3.1 80 16:20 06.05.2020
3520 Clouds 24 1021 57 10000 3.6 90 15:57 06.05.2020
3521 Clouds 25 1021 53 10000 2.6 70 15:39 06.05.2020
3522 Clouds 25 1021 53 10000 2.6 70 15:19 06.05.2020
3523 Clouds 25 1021 50 10000 2.1 0 14:42 06.05.2020
3524 Clouds 25 1021 50 10000 2.6 90 14:19 06.05.2020
3525 Clouds 25 1021 50 10000 2.6 0 13:59 06.05.2020
3526 Clouds 25 1021 50 10000 2.6 0 13:59 06.05.2020
3527 Clouds 26 1021 47 10000 3.1 70 13:39 06.05.2020
3528 Clouds 26 1021 47 10000 3.1 70 13:19 06.05.2020
3529 Clouds 26 1021 47 10000 2.6 100 12:44 06.05.2020
3530 Clouds 25 1021 53 10000 3.6 110 12:26 06.05.2020
3531 Clouds 24 1022 60 10000 2.1 130 11:56 06.05.2020
3532 Clouds 23 1022 64 10000 2.1 180 11:37 06.05.2020
3533 Clouds 23 1022 64 10000 2.1 180 11:19 06.05.2020
3534 Clouds 22 1023 68 10000 2.6 190 10:55 06.05.2020
3535 Clouds 22 1023 68 10000 2.1 210 10:37 06.05.2020
3536 Clouds 22 1023 68 10000 2.1 210 10:18 06.05.2020
3537 Clouds 20 1023 77 10000 2.1 150 09:39 06.05.2020
3538 Clouds 20 1023 77 10000 2.1 150 09:20 06.05.2020
3539 Clouds 19 1024 82 10000 2.6 110 08:44 06.05.2020
3540 Clouds 18 1023 88 10000 3.6 120 08:21 06.05.2020
3541 Clouds 18 1023 88 10000 3.6 120 08:21 06.05.2020
3542 Clouds 18 1023 88 10000 2.6 150 07:57 06.05.2020
3543 Clouds 17 1023 88 10000 2.6 140 07:38 06.05.2020
3544 Clouds 17 1023 88 10000 2.6 140 07:19 06.05.2020
3545 Clouds 16 1023 93 10000 2.1 130 06:49 06.05.2020
3546 Clouds 16 1023 93 10000 2.1 150 06:21 06.05.2020
3547 Clouds 15 1022 100 10000 2.1 110 05:50 06.05.2020
3548 Clouds 15 1022 100 10000 2.1 140 05:31 06.05.2020
3549 Clouds 15 1021 93 10000 1.5 150 03:54 06.05.2020
3550 Clouds 15 1021 93 10000 1 0 03:31 06.05.2020
3551 Clouds 15 1022 93 10000 2.1 90 02:55 06.05.2020
3552 Clouds 15 1022 93 10000 2.6 60 02:27 06.05.2020
3553 Clouds 16 1022 93 10000 2.6 110 01:43 06.05.2020
3554 Clouds 16 1023 93 10000 1.5 0 01:25 06.05.2020
3555 Clouds 16 1023 93 10000 1 0 00:44 06.05.2020
3556 Clouds 16 1023 93 10000 1 0 00:19 06.05.2020
3557 Clouds 16 1023 93 10000 2.6 100 23:42 05.05.2020
3558 Clouds 17 1024 88 10000 2.1 140 23:20 05.05.2020
3559 Clouds 17 1023 88 10000 2.1 140 22:55 05.05.2020
3560 Clouds 17 1024 88 10000 2.1 140 22:37 05.05.2020
3561 Clouds 17 1024 88 10000 2.1 140 22:18 05.05.2020
3562 Clouds 17 1024 88 10000 3.1 140 21:41 05.05.2020
3563 Clouds 17 1024 88 10000 3.1 140 21:41 05.05.2020
3564 Clouds 18 1024 82 10000 2.1 150 21:22 05.05.2020
3565 Clouds 18 1023 88 10000 3.6 120 20:59 05.05.2020
3566 Clouds 18 1023 88 10000 3.6 120 20:40 05.05.2020
3567 Clouds 18 1024 88 10000 3.6 130 20:20 05.05.2020
3568 Clouds 18 1023 88 10000 3.6 130 19:59 05.05.2020
3569 Clouds 19 1023 82 10000 3.1 130 19:39 05.05.2020
3570 Clouds 19 1023 82 10000 3.1 130 19:21 05.05.2020
3571 Clouds 19 1023 82 10000 4.1 120 18:57 05.05.2020
3572 Clouds 19 1022 82 10000 5.1 110 18:38 05.05.2020
3573 Clouds 19 1022 82 10000 5.1 110 18:19 05.05.2020
3574 Clouds 20 1022 77 10000 4.6 110 17:54 05.05.2020
3575 Clouds 21 1022 68 10000 4.1 100 17:36 05.05.2020
3576 Clouds 21 1022 68 10000 4.1 100 17:18 05.05.2020
3577 Clouds 23 1021 56 10000 4.1 100 16:38 05.05.2020
3578 Clouds 23 1021 56 10000 4.1 100 16:19 05.05.2020
3579 Clouds 24 1021 50 10000 4.1 100 15:57 05.05.2020
3580 Clouds 26 1021 44 10000 3.1 120 15:38 05.05.2020
3581 Clouds 26 1021 44 10000 3.1 120 15:20 05.05.2020
3582 Clouds 26 1021 44 10000 2.1 170 14:54 05.05.2020
3583 Clouds 26 1021 47 10000 3.1 130 14:36 05.05.2020
3584 Clouds 26 1021 47 10000 3.1 130 14:18 05.05.2020
3585 Clouds 27 1021 44 10000 2.6 0 13:54 05.05.2020
3586 Clouds 27 1021 39 10000 2.6 190 13:36 05.05.2020
3587 Clouds 27 1021 39 10000 2.6 190 13:18 05.05.2020
3588 Clouds 26 1022 50 10000 3.1 160 12:40 05.05.2020
3589 Clouds 26 1022 50 10000 3.1 160 12:22 05.05.2020
3590 Clouds 26 1022 50 10000 2.6 120 11:59 05.05.2020
3591 Clouds 25 1022 53 10000 2.1 0 11:40 05.05.2020
3592 Clouds 25 1022 53 10000 2.1 0 11:19 05.05.2020
3593 Clouds 25 1023 57 10000 3.1 190 10:55 05.05.2020
3594 Clouds 24 1023 60 10000 2.6 140 10:36 05.05.2020
3595 Clouds 24 1023 60 10000 2.6 140 10:18 05.05.2020
3596 Clouds 23 1024 64 10000 2.6 150 09:44 05.05.2020
3597 Clouds 22 1024 64 10000 2.6 130 09:25 05.05.2020
3598 Clouds 21 1024 73 10000 2.6 150 08:56 05.05.2020
3599 Clouds 20 1024 72 10000 3.1 130 08:37 05.05.2020
3600 Clouds 20 1024 72 10000 3.1 130 08:18 05.05.2020
3601 Clouds 17 1024 88 10000 3.1 130 07:43 05.05.2020
3602 Clouds 17 1024 88 10000 3.1 130 07:20 05.05.2020
3603 Clouds 17 1024 82 10000 2.6 160 06:51 05.05.2020
3604 Clouds 17 1024 82 10000 0.5 0 06:30 05.05.2020
3605 Clouds 16 1023 87 10000 1.5 0 05:51 05.05.2020
3606 Clouds 15 1022 93 10000 3.6 100 04:54 05.05.2020
3607 Clouds 16 1022 87 10000 3.1 110 02:37 05.05.2020
3608 Clouds 18 1023 82 10000 2.6 130 00:56 05.05.2020
3609 Clouds 18 1023 82 10000 3.1 110 00:28 05.05.2020
3610 Clouds 18 1023 82 10000 4.6 110 23:48 04.05.2020
3611 Clouds 18 1023 82 10000 4.6 110 23:48 04.05.2020
3612 Clouds 18 1023 82 10000 4.6 120 23:25 04.05.2020
3613 Clouds 17 1023 88 10000 4.1 100 22:58 04.05.2020
3614 Clouds 17 1023 88 10000 4.1 90 22:40 04.05.2020
3615 Clouds 17 1023 88 10000 4.1 90 22:21 04.05.2020
3616 Clouds 17 1023 88 10000 3.6 110 21:57 04.05.2020
3617 Clouds 17 1023 88 10000 3.6 110 21:57 04.05.2020
3618 Clouds 17 1023 88 10000 4.1 110 21:36 04.05.2020
3619 Clouds 17 1023 88 10000 4.1 110 21:18 04.05.2020
3620 Clouds 18 1023 88 10000 3.1 110 20:40 04.05.2020
3621 Clouds 18 1023 88 10000 3.1 110 20:40 04.05.2020
3622 Clouds 18 1023 88 10000 3.1 110 20:40 04.05.2020
3623 Clouds 18 1023 88 10000 3.1 110 20:40 04.05.2020
3624 Clouds 18 1023 88 10000 3.1 110 20:40 04.05.2020
3625 Clouds 18 1023 88 10000 3.1 110 20:19 04.05.2020
3626 Clouds 18 1023 88 10000 3.6 90 19:43 04.05.2020
3627 Clouds 19 1023 82 10000 3.1 120 19:24 04.05.2020
3628 Clouds 19 1022 82 10000 4.6 110 18:59 04.05.2020
3629 Clouds 20 1022 77 10000 4.1 90 18:38 04.05.2020
3630 Clouds 20 1022 77 10000 4.1 90 18:38 04.05.2020
3631 Clouds 20 1022 77 10000 4.1 90 18:19 04.05.2020
3632 Clouds 20 1022 77 10000 4.1 90 18:19 04.05.2020
3633 Clouds 20 1021 77 10000 4.1 100 17:56 04.05.2020
3634 Clouds 20 1021 77 10000 4.1 100 17:56 04.05.2020
3635 Clouds 21 1021 73 10000 4.6 90 17:37 04.05.2020
3636 Clouds 21 1021 73 10000 4.6 90 17:19 04.05.2020
3637 Clouds 22 1020 68 10000 3.6 90 16:43 04.05.2020
3638 Clouds 24 1020 60 10000 3.1 70 16:22 04.05.2020
3639 Clouds 26 1020 44 10000 2.1 330 15:57 04.05.2020
3640 Clouds 27 1020 42 10000 1.5 0 15:38 04.05.2020
3641 Clouds 27 1020 42 10000 1.5 0 15:19 04.05.2020
3642 Clouds 27 1020 42 10000 1 0 14:48 04.05.2020
3643 Clouds 27 1020 42 10000 1 0 14:48 04.05.2020
3644 Clouds 27 1020 42 10000 1 0 14:48 04.05.2020
3645 Clouds 27 1020 42 10000 1 0 14:48 04.05.2020
3646 Clouds 27 1020 42 10000 1 0 14:48 04.05.2020
3647 Clouds 26 1020 41 10000 1.5 0 14:20 04.05.2020
3648 Clouds 26 1020 47 10000 2.6 0 13:20 04.05.2020
3649 Clouds 26 1020 47 10000 2.6 0 13:20 04.05.2020
3650 Clouds 26 1020 47 10000 2.6 0 13:20 04.05.2020
3651 Clouds 26 1020 47 10000 2.6 0 13:19 04.05.2020
3652 Clouds 26 1020 47 10000 2.6 0 13:19 04.05.2020
3653 Clouds 26 1021 50 10000 2.6 220 12:39 04.05.2020
3654 Clouds 26 1021 50 10000 2.6 220 12:37 04.05.2020
3655 Clouds 26 1021 50 10000 2.6 220 12:37 04.05.2020
3656 Clouds 26 1021 50 10000 2.6 220 12:37 04.05.2020
3657 Clouds 26 1021 50 10000 2.6 220 12:37 04.05.2020
3658 Clouds 25 1022 53 10000 2.1 0 10:38 04.05.2020
3659 Clouds 24 1023 64 10000 2.1 70 09:26 04.05.2020
3660 Clouds 24 1023 64 10000 2.1 70 09:26 04.05.2020
3661 Clouds 24 1023 64 10000 2.1 70 09:26 04.05.2020
3662 Clouds 24 1023 64 10000 2.1 70 09:26 04.05.2020
3663 Clouds 24 1023 64 10000 2.1 70 09:26 04.05.2020
3664 Clouds 19 1023 88 10000 1.5 0 07:53 04.05.2020
3665 Clouds 18 1023 93 10000 1 0 07:33 04.05.2020
3666 Clouds 18 1023 93 10000 1 0 07:33 04.05.2020
3667 Clouds 18 1023 93 10000 1 0 07:33 04.05.2020
3668 Clouds 18 1023 93 10000 1 0 07:33 04.05.2020
3669 Clouds 18 1023 93 10000 1 0 07:33 04.05.2020
3670 Clouds 17 1022 93 10000 1 40 05:18 04.05.2020
3671 Clouds 16 1021 100 10000 2.1 90 04:09 04.05.2020
3672 Clouds 16 1020 100 10000 1.5 110 02:38 04.05.2020
3673 Clouds 18 1021 93 10000 1.5 150 01:20 04.05.2020
3674 Clouds 18 1021 93 10000 2.1 140 23:58 03.05.2020
3675 Clouds 18 1022 93 10000 2.1 140 23:40 03.05.2020
3676 Clouds 18 1022 93 10000 2.1 140 23:22 03.05.2020
3677 Clouds 19 1022 88 10000 1.5 0 22:43 03.05.2020
3678 Clouds 19 1022 88 10000 1.5 0 22:43 03.05.2020
3679 Clouds 19 1022 88 10000 1.5 0 22:22 03.05.2020
3680 Clouds 19 1022 88 10000 2.6 130 21:42 03.05.2020
3681 Clouds 19 1022 88 10000 2.6 130 21:42 03.05.2020
3682 Clouds 19 1022 88 10000 2.6 130 21:42 03.05.2020
3683 Clouds 19 1022 88 10000 4.1 110 21:21 03.05.2020
3684 Clouds 20 1022 82 10000 3.6 90 20:54 03.05.2020
3685 Clouds 20 1022 72 10000 4.1 100 20:36 03.05.2020
3686 Clouds 20 1022 72 10000 4.1 100 20:18 03.05.2020
3687 Clouds 20 1021 72 10000 2.6 140 19:46 03.05.2020
3688 Clouds 20 1021 72 10000 1.5 90 19:26 03.05.2020
3689 Clouds 20 1021 72 10000 1.5 90 19:23 03.05.2020
3690 Clouds 21 1020 73 10000 2.1 80 18:40 03.05.2020
3691 Clouds 21 1020 73 10000 2.1 80 18:21 03.05.2020
3692 Clouds 22 1020 64 10000 1.5 330 17:58 03.05.2020
3693 Clouds 23 1019 60 10000 2.1 350 17:40 03.05.2020
3694 Clouds 23 1019 60 10000 2.1 350 17:20 03.05.2020
3695 Clouds 23 1019 60 10000 2.1 350 17:20 03.05.2020
3696 Clouds 24 1019 57 10000 1 0 16:44 03.05.2020
3697 Clouds 26 1018 50 10000 1 0 16:19 03.05.2020
3698 Clouds 27 1018 44 10000 1.5 310 15:58 03.05.2020
3699 Clouds 28 1018 42 10000 2.1 340 15:39 03.05.2020
3700 Clouds 28 1018 42 10000 2.1 340 15:39 03.05.2020
3701 Clouds 28 1018 42 10000 2.1 340 15:20 03.05.2020
3702 Clouds 28 1018 45 10000 2.1 230 14:57 03.05.2020
3703 Clouds 28 1018 45 10000 2.1 210 14:38 03.05.2020
3704 Clouds 28 1018 45 10000 2.1 210 14:20 03.05.2020
3705 Clouds 26 1018 47 10000 1.5 0 13:39 03.05.2020
3706 Clouds 28 1019 45 10000 1.5 0 12:59 03.05.2020
3707 Clouds 28 1019 45 10000 1.5 0 12:59 03.05.2020
3708 Clouds 28 1019 45 10000 1.5 0 12:59 03.05.2020
3709 Clouds 28 1019 45 10000 1.5 0 12:59 03.05.2020
3710 Clouds 28 1019 45 10000 1.5 0 12:38 03.05.2020
3711 Clouds 27 1019 51 10000 2.1 0 11:58 03.05.2020
3712 Clouds 27 1019 51 10000 2.1 0 11:40 03.05.2020
3713 Clouds 26 1020 54 10000 1.5 0 11:21 03.05.2020
3714 Clouds 24 1020 60 10000 1.5 0 10:55 03.05.2020
3715 Clouds 23 1020 69 10000 1.5 0 10:26 03.05.2020
3716 Clouds 22 1021 68 9000 1 0 09:45 03.05.2020
3717 Clouds 18 1021 82 6000 1 0 09:26 03.05.2020
3718 Mist 16 1022 100 2500 1.5 170 08:36 03.05.2020
3719 Fog 16 1022 100 900 1 0 08:00 03.05.2020
3720 Fog 15 1022 100 700 1 0 07:38 03.05.2020
3721 Fog 15 1022 100 700 1 0 07:38 03.05.2020
3722 Fog 15 1022 100 700 1 0 07:38 03.05.2020
3723 Clouds 14 1020 93 10000 0.5 0 06:00 03.05.2020
3724 Clouds 14 1020 93 10000 0.5 0 05:41 03.05.2020
3725 Clouds 13 1019 100 10000 1 0 04:29 03.05.2020
3726 Clouds 14 1019 93 10000 0.5 170 03:56 03.05.2020
3727 Clouds 14 1019 100 10000 1.5 70 02:38 03.05.2020
3728 Clouds 14 1019 100 10000 1.5 70 02:19 03.05.2020
3729 Clouds 14 1019 100 10000 1.5 70 02:19 03.05.2020
3730 Clouds 15 1020 93 10000 0.38 62 01:41 03.05.2020
3731 Clouds 15 1020 93 10000 0.54 87 01:22 03.05.2020
3732 Clouds 15 1020 100 10000 2.1 90 00:40 03.05.2020
3733 Clouds 15 1020 93 10000 2.1 100 00:21 03.05.2020
3734 Clouds 15 1020 93 10000 1.5 70 23:49 02.05.2020
3735 Clouds 15 1021 100 10000 1.5 60 23:30 02.05.2020
3736 Clouds 16 1021 87 10000 2.1 40 22:59 02.05.2020
3737 Clouds 16 1021 87 10000 2.1 40 22:41 02.05.2020
3738 Clouds 16 1021 93 10000 2.1 50 22:22 02.05.2020
3739 Clouds 16 1021 93 10000 2.1 140 21:54 02.05.2020
3740 Clouds 17 1022 88 10000 2.1 140 21:36 02.05.2020
3741 Clouds 17 1022 88 10000 2.1 140 21:18 02.05.2020
3742 Clouds 17 1022 88 10000 2.6 120 20:54 02.05.2020
3743 Clouds 17 1022 88 10000 3.1 110 20:36 02.05.2020
3744 Clouds 17 1022 88 10000 3.1 110 20:36 02.05.2020
3745 Clouds 17 1022 88 10000 3.1 110 20:18 02.05.2020
3746 Clouds 17 1022 88 10000 3.1 110 20:18 02.05.2020
3747 Clouds 18 1021 82 10000 4.1 80 19:39 02.05.2020
3748 Clouds 18 1021 82 10000 4.1 80 19:20 02.05.2020
3749 Clouds 19 1021 77 10000 4.1 90 18:57 02.05.2020
3750 Clouds 19 1021 77 10000 5.1 100 18:38 02.05.2020
3751 Clouds 19 1021 77 10000 5.1 100 18:20 02.05.2020
3752 Clouds 20 1020 72 10000 3.6 100 17:57 02.05.2020
3753 Clouds 20 1020 72 10000 3.1 90 17:38 02.05.2020
3754 Clouds 20 1020 72 10000 3.1 90 17:19 02.05.2020
3755 Clouds 21 1019 68 10000 3.6 80 16:54 02.05.2020
3756 Clouds 23 1019 60 10000 4.6 80 16:36 02.05.2020
3757 Clouds 23 1019 60 10000 4.6 80 16:18 02.05.2020
3758 Clouds 25 1019 50 10000 4.6 80 15:41 02.05.2020
3759 Clouds 26 1019 44 10000 4.1 90 15:19 02.05.2020
3760 Clouds 27 1019 42 10000 3.6 100 14:42 02.05.2020
3761 Clouds 28 1019 37 10000 2.1 60 14:24 02.05.2020
3762 Clouds 28 1019 39 10000 2.1 0 13:58 02.05.2020
3763 Clouds 28 1019 39 10000 2.1 0 13:39 02.05.2020
3764 Clouds 28 1019 39 10000 2.1 0 13:19 02.05.2020
3765 Clouds 27 1019 44 10000 2.1 200 12:41 02.05.2020
3766 Clouds 27 1020 42 10000 2.6 0 12:21 02.05.2020
3767 Clouds 26 1020 44 10000 2.1 0 11:57 02.05.2020
3768 Clouds 25 1021 50 10000 2.1 190 11:39 02.05.2020
3769 Clouds 25 1021 50 10000 2.1 190 11:20 02.05.2020
3770 Clouds 23 1022 64 10000 3.1 190 10:40 02.05.2020
3771 Clouds 23 1022 64 10000 3.1 190 10:40 02.05.2020
3772 Clouds 23 1022 64 10000 3.1 190 10:22 02.05.2020
3773 Clouds 22 1022 68 10000 3.1 190 09:59 02.05.2020
3774 Clouds 22 1022 68 10000 3.1 190 09:41 02.05.2020
3775 Clouds 21 1023 68 10000 1.5 0 09:23 02.05.2020
3776 Clouds 21 1023 68 10000 2.6 190 08:55 02.05.2020
3777 Clouds 20 1023 72 10000 2.1 180 08:37 02.05.2020
3778 Clouds 20 1023 72 10000 2.1 180 08:37 02.05.2020
3779 Clouds 20 1023 72 10000 2.1 180 08:19 02.05.2020
3780 Clouds 18 1023 77 10000 2.6 150 07:42 02.05.2020
3781 Clouds 18 1023 82 10000 2.1 140 07:23 02.05.2020
3782 Clouds 17 1023 88 10000 2.1 140 06:43 02.05.2020
3783 Clouds 16 1022 93 10000 0.5 0 05:28 02.05.2020
3784 Clouds 16 1022 93 10000 1.5 120 04:30 02.05.2020
3785 Clouds 15 1021 100 10000 1.5 0 03:50 02.05.2020
3786 Clouds 15 1022 100 10000 1 320 02:42 02.05.2020
3787 Clouds 15 1022 100 10000 0.5 340 01:58 02.05.2020
3788 Clouds 15 1022 93 10000 1.13 152 01:26 02.05.2020
3789 Clouds 15 1022 93 10000 0.5 330 00:43 02.05.2020
3790 Clouds 15 1023 100 10000 1 0 00:22 02.05.2020
3791 Clouds 14 1023 100 10000 1 0 23:55 01.05.2020
3792 Clouds 14 1023 100 10000 0.5 0 23:37 01.05.2020
3793 Clouds 14 1023 100 10000 0.5 0 23:18 01.05.2020
3794 Clouds 15 1024 93 10000 1.39 137 22:39 01.05.2020
3795 Clouds 15 1024 93 10000 1.6 132 22:19 01.05.2020
3796 Clouds 15 1024 93 10000 1 50 21:57 01.05.2020
3797 Clouds 15 1025 100 10000 1.5 60 21:39 01.05.2020
3798 Clouds 15 1025 100 10000 1.5 60 21:20 01.05.2020
3799 Clouds 15 1025 93 10000 2.1 80 20:57 01.05.2020
3800 Clouds 16 1025 93 10000 2.1 70 20:38 01.05.2020
3801 Clouds 16 1025 93 10000 2.1 70 20:19 01.05.2020
3802 Clouds 16 1025 87 10000 2.1 70 19:55 01.05.2020
3803 Clouds 16 1025 87 10000 2.6 90 19:36 01.05.2020
3804 Clouds 16 1025 87 10000 2.6 90 19:18 01.05.2020
3805 Clouds 17 1024 82 10000 3.1 80 18:54 01.05.2020
3806 Clouds 17 1024 82 10000 2.6 90 18:36 01.05.2020
3807 Clouds 17 1024 82 10000 2.6 90 18:18 01.05.2020
3808 Clouds 19 1024 72 10000 4.1 110 17:39 01.05.2020
3809 Clouds 19 1024 72 10000 4.1 110 17:21 01.05.2020
3810 Clouds 20 1023 64 10000 4.6 110 16:57 01.05.2020
3811 Clouds 21 1023 64 10000 4.1 90 16:38 01.05.2020
3812 Clouds 21 1023 64 10000 4.1 90 16:20 01.05.2020
3813 Clouds 22 1023 60 10000 4.1 90 15:56 01.05.2020
3814 Clouds 23 1023 56 10000 4.6 100 15:38 01.05.2020
3815 Clouds 23 1023 56 10000 4.6 100 15:18 01.05.2020
3816 Clouds 24 1023 53 10000 5.1 110 14:42 01.05.2020
3817 Clouds 24 1023 53 10000 4.1 110 14:23 01.05.2020
3818 Clouds 24 1023 53 10000 4.6 140 13:42 01.05.2020
3819 Clouds 24 1023 53 10000 4.1 150 13:23 01.05.2020
3820 Clouds 24 1023 53 10000 4.6 140 12:59 01.05.2020
3821 Clouds 24 1023 53 10000 4.6 140 12:40 01.05.2020
3822 Clouds 24 1023 53 10000 4.6 110 12:21 01.05.2020
3823 Clouds 24 1024 53 10000 4.1 130 11:59 01.05.2020
3824 Clouds 24 1024 53 10000 4.1 130 11:41 01.05.2020
3825 Clouds 23 1024 53 10000 4.6 110 11:19 01.05.2020
3826 Clouds 23 1024 56 10000 4.6 150 10:54 01.05.2020
3827 Clouds 23 1025 56 10000 4.1 130 10:36 01.05.2020
3828 Clouds 23 1025 56 10000 4.1 130 10:18 01.05.2020
3829 Clouds 21 1025 64 10000 4.1 160 09:41 01.05.2020
3830 Clouds 21 1025 64 10000 4.1 120 09:19 01.05.2020
3831 Clouds 20 1025 64 10000 4.1 130 08:46 01.05.2020
3832 Clouds 19 1025 68 10000 3.6 130 08:28 01.05.2020
3833 Clouds 18 1026 72 10000 2.6 150 07:58 01.05.2020
3834 Clouds 17 1025 77 10000 3.1 130 07:38 01.05.2020
3835 Clouds 16 1025 82 10000 2.6 140 06:59 01.05.2020
3836 Clouds 16 1025 82 10000 1.5 0 06:18 01.05.2020
3837 Clouds 13 1024 93 10000 1.5 160 05:21 01.05.2020
3838 Clouds 14 1024 87 10000 2.1 170 03:43 01.05.2020
3839 Clouds 14 1024 87 10000 2.1 160 02:52 01.05.2020
3840 Clouds 14 1024 87 10000 2.1 150 02:34 01.05.2020
3841 Clouds 14 1025 93 10000 2.6 140 01:47 01.05.2020
3842 Clouds 14 1025 93 10000 2.1 160 01:26 01.05.2020
3843 Clouds 14 1025 87 10000 2.6 120 00:40 01.05.2020
3844 Clouds 14 1025 87 10000 2.6 120 00:20 01.05.2020
3845 Clouds 15 1026 87 10000 2.6 120 23:57 30.04.2020
3846 Clouds 15 1026 87 10000 2.6 140 23:38 30.04.2020
3847 Clouds 15 1026 87 10000 2.6 140 23:38 30.04.2020
3848 Clouds 15 1026 87 10000 2.6 140 23:19 30.04.2020
3849 Clouds 15 1026 87 10000 2.1 140 22:54 30.04.2020
3850 Clouds 15 1026 87 10000 2.1 140 22:36 30.04.2020
3851 Clouds 15 1026 87 10000 2.1 140 22:18 30.04.2020
3852 Clouds 15 1026 93 10000 2.1 140 21:41 30.04.2020
3853 Clouds 15 1026 93 10000 2.1 120 21:21 30.04.2020
3854 Clouds 15 1027 93 10000 1.5 70 20:57 30.04.2020
3855 Clouds 16 1027 87 10000 2.6 80 20:39 30.04.2020
3856 Clouds 16 1027 87 10000 2.6 80 20:18 30.04.2020
3857 Clouds 16 1027 87 10000 2.6 80 20:18 30.04.2020
3858 Clouds 16 1027 87 10000 4.1 90 19:45 30.04.2020
3859 Clouds 17 1026 82 10000 3.6 100 19:26 30.04.2020
3860 Clouds 17 1026 82 10000 4.1 80 18:57 30.04.2020
3861 Clouds 17 1026 77 10000 3.6 90 18:39 30.04.2020
3862 Clouds 17 1026 77 10000 3.6 90 18:21 30.04.2020
3863 Clouds 18 1025 72 10000 4.1 110 17:57 30.04.2020
3864 Clouds 18 1025 72 10000 4.6 110 17:39 30.04.2020
3865 Clouds 18 1025 72 10000 4.6 110 17:20 30.04.2020
3866 Clouds 20 1025 64 10000 4.1 130 16:56 30.04.2020
3867 Clouds 21 1024 60 10000 4.6 120 16:37 30.04.2020
3868 Clouds 21 1024 60 10000 4.6 120 16:18 30.04.2020
3869 Clouds 22 1024 56 10000 5.1 120 15:44 30.04.2020
3870 Clouds 22 1024 56 10000 5.1 120 15:23 30.04.2020
3871 Clouds 23 1024 53 10000 4.6 150 14:43 30.04.2020
3872 Clouds 23 1024 53 10000 5.7 120 14:22 30.04.2020
3873 Clouds 23 1024 56 10000 4.6 130 13:59 30.04.2020
3874 Clouds 23 1024 56 10000 4.6 130 13:41 30.04.2020
3875 Clouds 24 1024 53 10000 4.1 130 13:23 30.04.2020
3876 Clouds 23 1024 56 10000 5.1 140 12:59 30.04.2020
3877 Clouds 23 1024 56 10000 5.1 140 12:41 30.04.2020
3878 Clouds 23 1024 56 10000 5.1 140 12:19 30.04.2020
3879 Clouds 23 1025 56 10000 5.7 120 11:38 30.04.2020
3880 Clouds 23 1025 56 10000 5.7 120 11:19 30.04.2020
3881 Clouds 23 1025 56 10000 5.7 120 11:19 30.04.2020
3882 Clouds 23 1025 56 10000 6.2 110 10:58 30.04.2020
3883 Clouds 23 1025 56 10000 6.2 110 10:39 30.04.2020
3884 Clouds 23 1025 56 10000 6.2 110 10:20 30.04.2020
3885 Clouds 21 1026 64 10000 6.2 120 09:55 30.04.2020
3886 Clouds 21 1026 64 10000 6.2 120 09:37 30.04.2020
3887 Clouds 21 1026 64 10000 6.2 120 09:18 30.04.2020
3888 Clouds 19 1026 68 10000 4.1 140 08:44 30.04.2020
3889 Clouds 18 1026 72 10000 5.7 120 08:23 30.04.2020
3890 Clouds 17 1025 82 10000 3.6 140 07:43 30.04.2020
3891 Clouds 17 1025 82 10000 4.1 120 07:25 30.04.2020
3892 Clouds 17 1025 77 10000 3.6 130 06:51 30.04.2020
3893 Clouds 16 1024 87 10000 3.1 140 05:56 30.04.2020
3894 Clouds 17 1024 82 10000 3.1 140 05:36 30.04.2020
3895 Clouds 17 1024 82 10000 2.6 150 04:33 30.04.2020
3896 Clouds 17 1024 82 10000 2.6 150 03:54 30.04.2020
3897 Clouds 17 1024 82 10000 3.1 150 02:45 30.04.2020
3898 Clouds 16 1025 87 10000 2.6 140 02:24 30.04.2020
3899 Clouds 16 1025 87 10000 2.6 140 01:35 30.04.2020
3900 Clouds 16 1025 87 10000 2.6 150 00:42 30.04.2020
3901 Clouds 16 1025 87 10000 2.1 150 00:19 30.04.2020
3902 Clouds 16 1025 87 10000 3.1 140 23:56 29.04.2020
3903 Clouds 16 1025 87 10000 3.6 130 23:36 29.04.2020
3904 Clouds 16 1025 87 10000 3.6 130 23:18 29.04.2020
3905 Clouds 17 1025 82 10000 3.1 140 22:40 29.04.2020
3906 Clouds 17 1025 82 10000 3.1 140 22:21 29.04.2020
3907 Clouds 17 1025 88 10000 3.1 120 21:57 29.04.2020
3908 Clouds 17 1026 88 10000 2.1 140 21:37 29.04.2020
3909 Clouds 17 1026 88 10000 2.1 140 21:18 29.04.2020
3910 Clouds 17 1026 88 10000 3.6 120 20:41 29.04.2020
3911 Clouds 17 1026 88 10000 2.6 120 20:20 29.04.2020
3912 Clouds 17 1025 88 10000 2.6 130 19:59 29.04.2020
3913 Clouds 17 1025 88 10000 2.6 130 19:41 29.04.2020
3914 Clouds 17 1025 88 10000 3.1 140 19:20 29.04.2020
3915 Clouds 18 1025 82 10000 5.1 120 18:43 29.04.2020
3916 Clouds 18 1025 82 10000 4.1 110 18:25 29.04.2020
3917 Clouds 18 1024 82 10000 4.6 80 17:57 29.04.2020
3918 Clouds 19 1024 77 10000 5.7 100 17:39 29.04.2020
3919 Clouds 19 1024 77 10000 5.7 100 17:21 29.04.2020
3920 Clouds 20 1024 77 10000 5.7 100 16:39 29.04.2020
3921 Clouds 20 1024 77 10000 5.7 100 16:19 29.04.2020
3922 Clouds 21 1023 73 10000 5.1 100 15:57 29.04.2020
3923 Clouds 22 1023 68 10000 5.1 100 15:39 29.04.2020
3924 Clouds 22 1023 68 10000 5.1 100 15:21 29.04.2020
3925 Clouds 22 1023 68 10000 6.2 100 14:57 29.04.2020
3926 Clouds 23 1023 64 10000 5.1 110 14:38 29.04.2020
3927 Clouds 23 1023 64 10000 5.1 110 14:20 29.04.2020
3928 Clouds 22 1023 68 10000 4.6 150 13:42 29.04.2020
3929 Clouds 22 1023 68 10000 4.6 150 13:20 29.04.2020
3930 Clouds 22 1023 68 10000 4.6 150 13:20 29.04.2020
3931 Clouds 22 1023 64 10000 3.6 130 12:59 29.04.2020
3932 Clouds 22 1024 68 10000 4.1 120 12:40 29.04.2020
3933 Clouds 22 1024 68 10000 4.1 120 12:19 29.04.2020
3934 Clouds 22 1024 64 10000 4.6 110 11:58 29.04.2020
3935 Clouds 22 1024 68 10000 4.6 110 11:36 29.04.2020
3936 Clouds 22 1024 68 10000 4.6 110 11:18 29.04.2020
3937 Clouds 23 1025 60 10000 3.6 150 10:37 29.04.2020
3938 Clouds 23 1025 60 10000 3.6 150 10:19 29.04.2020
3939 Clouds 22 1025 68 10000 3.6 170 09:42 29.04.2020
3940 Clouds 21 1025 68 10000 4.1 170 09:24 29.04.2020
3941 Clouds 20 1025 72 10000 5.1 130 08:59 29.04.2020
3942 Clouds 20 1025 72 10000 5.1 130 08:41 29.04.2020
3943 Clouds 19 1025 77 10000 4.6 120 08:23 29.04.2020
3944 Clouds 19 1025 77 10000 4.6 120 07:47 29.04.2020
3945 Clouds 18 1025 82 10000 3.1 140 07:24 29.04.2020
3946 Clouds 18 1025 82 10000 2.6 140 06:51 29.04.2020
3947 Clouds 17 1025 88 10000 2.6 160 06:31 29.04.2020
3948 Clouds 17 1024 88 10000 3.1 170 05:22 29.04.2020
3949 Clouds 17 1024 88 10000 3.6 170 04:45 29.04.2020
3950 Clouds 17 1023 88 10000 2.6 170 04:18 29.04.2020
3951 Clouds 17 1024 88 10000 2.1 130 02:43 29.04.2020
3952 Clouds 17 1024 88 10000 2.6 120 01:44 29.04.2020
3953 Clouds 17 1024 88 10000 2.6 120 01:26 29.04.2020
3954 Clouds 17 1024 88 10000 2.6 130 00:42 29.04.2020
3955 Clouds 17 1024 88 10000 3.1 100 00:20 29.04.2020
3956 Clouds 19 1024 82 10000 3.1 100 23:51 28.04.2020
3957 Clouds 18 1025 82 10000 3.6 130 23:24 28.04.2020
3958 Clouds 18 1025 82 10000 3.6 130 22:57 28.04.2020
3959 Clouds 18 1025 82 10000 3.1 140 22:37 28.04.2020
3960 Clouds 18 1025 82 10000 3.1 140 22:18 28.04.2020
3961 Clouds 18 1025 88 10000 2.6 120 21:56 28.04.2020
3962 Drizzle 18 1025 88 10000 3.1 130 21:37 28.04.2020
3963 Drizzle 18 1025 88 10000 3.1 130 21:37 28.04.2020
3964 Drizzle 18 1025 88 10000 3.1 130 21:19 28.04.2020
3965 Clouds 18 1025 88 10000 2.6 120 20:55 28.04.2020
3966 Clouds 18 1025 88 10000 3.6 120 20:36 28.04.2020
3967 Clouds 18 1025 88 10000 3.6 120 20:18 28.04.2020
3968 Clouds 19 1025 82 10000 3.6 90 19:42 28.04.2020
3969 Clouds 19 1024 82 10000 4.1 110 19:22 28.04.2020
3970 Clouds 19 1024 82 10000 4.1 100 18:59 28.04.2020
3971 Clouds 19 1024 82 10000 4.1 100 18:40 28.04.2020
3972 Clouds 19 1024 82 10000 4.1 100 18:19 28.04.2020
3973 Clouds 19 1023 82 10000 4.6 90 17:57 28.04.2020
3974 Clouds 19 1023 82 10000 4.1 90 17:36 28.04.2020
3975 Clouds 19 1023 82 10000 4.1 90 17:18 28.04.2020
3976 Clouds 20 1023 77 10000 5.7 90 16:42 28.04.2020
3977 Clouds 20 1023 77 10000 3.6 80 16:23 28.04.2020
3978 Clouds 21 1023 77 10000 4.6 90 15:58 28.04.2020
3979 Clouds 22 1023 68 10000 4.1 90 15:39 28.04.2020
3980 Clouds 22 1023 68 10000 4.1 90 15:21 28.04.2020
3981 Clouds 22 1023 68 10000 5.1 110 14:58 28.04.2020
3982 Clouds 22 1023 68 10000 5.1 110 14:58 28.04.2020
3983 Clouds 23 1022 64 10000 3.1 120 14:40 28.04.2020
3984 Clouds 23 1022 64 10000 3.1 120 14:20 28.04.2020
3985 Clouds 23 1022 64 10000 4.1 110 13:57 28.04.2020
3986 Clouds 23 1023 64 10000 4.6 100 13:37 28.04.2020
3987 Clouds 23 1023 64 10000 4.6 100 13:19 28.04.2020
3988 Clouds 23 1023 60 10000 5.1 120 12:44 28.04.2020
3989 Clouds 23 1024 64 10000 4.6 130 12:24 28.04.2020
3990 Clouds 22 1024 64 10000 4.1 130 11:44 28.04.2020
3991 Clouds 21 1024 73 10000 4.6 130 11:24 28.04.2020
3992 Clouds 21 1025 68 10000 4.6 120 10:59 28.04.2020
3993 Clouds 20 1025 72 10000 4.6 120 10:39 28.04.2020
3994 Clouds 20 1025 72 10000 4.6 120 10:19 28.04.2020
3995 Clouds 20 1025 72 10000 4.1 140 09:55 28.04.2020
3996 Clouds 20 1025 72 10000 5.1 130 09:37 28.04.2020
3997 Clouds 20 1025 72 10000 5.1 130 09:19 28.04.2020
3998 Clouds 19 1026 77 10000 4.6 160 08:45 28.04.2020
3999 Clouds 19 1025 77 10000 4.1 160 08:26 28.04.2020
4000 Clouds 18 1025 82 10000 3.6 160 07:44 28.04.2020
4001 Clouds 18 1025 82 10000 4.6 160 07:19 28.04.2020
4002 Clouds 17 1025 88 10000 4.1 150 06:44 28.04.2020
4003 Clouds 17 1024 82 10000 3.1 160 05:57 28.04.2020
4004 Clouds 17 1024 82 10000 3.6 160 05:38 28.04.2020
4005 Clouds 17 1023 82 10000 4.1 150 04:39 28.04.2020
4006 Clouds 17 1024 82 10000 3.6 160 02:59 28.04.2020
4007 Clouds 17 1024 88 10000 4.1 150 02:25 28.04.2020
4008 Clouds 17 1024 88 10000 3.6 150 01:23 28.04.2020
4009 Clouds 17 1024 88 10000 3.1 150 00:49 28.04.2020
4010 Clouds 18 1024 82 10000 3.1 160 00:19 28.04.2020
4011 Clouds 18 1024 82 10000 4.1 150 23:43 27.04.2020
4012 Clouds 18 1024 82 10000 4.1 150 23:43 27.04.2020
4013 Clouds 18 1024 82 10000 3.6 150 23:21 27.04.2020
4014 Clouds 18 1024 88 10000 3.1 140 22:43 27.04.2020
4015 Clouds 18 1025 88 10000 3.1 140 22:24 27.04.2020
4016 Clouds 18 1024 88 10000 4.6 110 21:58 27.04.2020
4017 Clouds 18 1024 88 10000 4.6 110 21:39 27.04.2020
4018 Clouds 18 1024 88 10000 4.6 110 21:20 27.04.2020
4019 Clouds 19 1024 82 10000 4.1 110 20:59 27.04.2020
4020 Clouds 19 1024 82 10000 4.6 130 20:40 27.04.2020
4021 Clouds 19 1024 82 10000 4.6 130 20:21 27.04.2020
4022 Clouds 19 1024 82 10000 5.1 110 19:57 27.04.2020
4023 Clouds 19 1024 82 10000 5.7 110 19:38 27.04.2020
4024 Clouds 19 1024 82 10000 5.7 110 19:19 27.04.2020
4025 Clouds 19 1024 82 10000 5.1 120 18:56 27.04.2020
4026 Clouds 20 1024 77 10000 4.6 140 18:37 27.04.2020
4027 Clouds 20 1024 77 10000 4.6 140 18:18 27.04.2020
4028 Clouds 20 1023 77 10000 4.6 140 17:41 27.04.2020
4029 Clouds 21 1023 73 10000 5.1 130 17:20 27.04.2020
4030 Clouds 22 1023 68 10000 5.1 130 16:54 27.04.2020
4031 Clouds 23 1022 64 10000 6.2 110 16:36 27.04.2020
4032 Clouds 23 1022 64 10000 6.2 110 16:18 27.04.2020
4033 Clouds 25 1022 57 10000 4.6 130 15:55 27.04.2020
4034 Clouds 25 1022 53 10000 5.1 90 15:36 27.04.2020
4035 Clouds 25 1022 53 10000 5.1 90 15:18 27.04.2020
4036 Clouds 26 1021 50 10000 4.6 110 14:40 27.04.2020
4037 Clouds 26 1021 50 10000 4.6 110 14:19 27.04.2020
4038 Clouds 27 1021 47 10000 4.1 120 13:57 27.04.2020
4039 Clouds 27 1021 47 10000 4.1 120 13:57 27.04.2020
4040 Clouds 26 1021 50 10000 5.1 110 13:37 27.04.2020
4041 Clouds 26 1021 50 10000 5.1 110 13:18 27.04.2020
4042 Clouds 26 1022 54 10000 5.1 150 12:43 27.04.2020
4043 Clouds 26 1022 54 10000 4.1 140 12:22 27.04.2020
4044 Clouds 25 1023 57 10000 4.6 120 11:55 27.04.2020
4045 Clouds 25 1023 57 10000 5.1 110 11:37 27.04.2020
4046 Clouds 25 1023 57 10000 5.1 110 11:18 27.04.2020
4047 Clouds 23 1023 64 10000 5.1 130 10:42 27.04.2020
4048 Clouds 22 1024 68 10000 5.1 140 10:24 27.04.2020
4049 Clouds 22 1024 68 10000 5.1 160 09:58 27.04.2020
4050 Clouds 21 1024 73 10000 4.6 150 09:39 27.04.2020
4051 Clouds 21 1024 73 10000 4.6 150 09:18 27.04.2020
4052 Clouds 21 1024 68 10000 5.7 140 08:48 27.04.2020
4053 Clouds 21 1024 73 10000 4.1 160 08:30 27.04.2020
4054 Clouds 20 1024 77 10000 4.1 120 07:45 27.04.2020
4055 Clouds 20 1024 82 10000 3.6 150 07:23 27.04.2020
4056 Clouds 19 1023 82 10000 3.6 160 06:58 27.04.2020
4057 Clouds 18 1023 88 10000 2.1 160 06:30 27.04.2020
4058 Clouds 17 1022 93 10000 2.1 130 05:55 27.04.2020
4059 Clouds 17 1022 93 10000 1.5 150 04:59 27.04.2020
4060 Clouds 17 1022 93 10000 1.5 160 04:37 27.04.2020
4061 Clouds 17 1022 93 10000 2.1 150 03:45 27.04.2020
4062 Clouds 17 1021 100 10000 3.1 170 01:51 27.04.2020
4063 Clouds 17 1021 100 10000 2.1 170 01:20 27.04.2020
4064 Clouds 17 1021 100 10000 1.81 130 00:21 27.04.2020
4065 Clouds 18 1021 93 10000 1 150 23:59 26.04.2020
4066 Clouds 18 1021 93 10000 1 150 23:41 26.04.2020
4067 Clouds 18 1021 93 10000 1 0 23:22 26.04.2020
4068 Clouds 18 1021 93 10000 2.1 100 22:58 26.04.2020
4069 Clouds 18 1021 93 10000 2.1 90 22:40 26.04.2020
4070 Clouds 18 1021 93 10000 2.1 90 22:40 26.04.2020
4071 Clouds 18 1021 93 10000 2.1 90 22:21 26.04.2020
4072 Clouds 17 1021 93 10000 2.1 160 21:58 26.04.2020
4073 Clouds 17 1021 93 10000 2.1 160 21:39 26.04.2020
4074 Clouds 17 1021 93 10000 2.1 160 21:18 26.04.2020
4075 Clouds 17 1021 93 10000 1 80 20:55 26.04.2020
4076 Clouds 18 1021 82 10000 0.5 0 20:37 26.04.2020
4077 Clouds 18 1021 82 10000 0.5 0 20:37 26.04.2020
4078 Clouds 18 1021 82 10000 0.5 0 20:18 26.04.2020
4079 Clouds 18 1021 82 10000 1 0 19:57 26.04.2020
4080 Clouds 18 1020 82 10000 1.5 310 19:36 26.04.2020
4081 Clouds 18 1020 82 10000 1.5 310 19:18 26.04.2020
4082 Clouds 19 1020 77 10000 1.5 300 18:43 26.04.2020
4083 Clouds 20 1020 72 10000 2.47 271 18:24 26.04.2020
4084 Clouds 21 1019 68 10000 1 0 17:43 26.04.2020
4085 Clouds 22 1019 64 10000 1.5 250 17:23 26.04.2020
4086 Clouds 24 1019 53 10000 2.6 270 16:57 26.04.2020
4087 Clouds 26 1019 50 10000 2.6 260 16:38 26.04.2020
4088 Clouds 26 1019 50 10000 2.6 260 16:19 26.04.2020
4089 Clouds 26 1018 47 10000 3.1 250 15:56 26.04.2020
4090 Clouds 26 1018 47 10000 3.6 250 15:37 26.04.2020
4091 Clouds 26 1018 47 10000 3.6 250 15:37 26.04.2020
4092 Clouds 26 1018 47 10000 3.6 250 15:18 26.04.2020
4093 Clouds 26 1018 44 10000 3.1 270 14:41 26.04.2020
4094 Clouds 26 1018 44 10000 3.1 270 14:41 26.04.2020
4095 Clouds 27 1018 44 10000 3.1 280 14:19 26.04.2020
4096 Clouds 27 1018 44 10000 3.1 280 14:19 26.04.2020
4097 Clouds 27 1018 44 10000 3.6 260 13:58 26.04.2020
4098 Clouds 28 1018 45 10000 3.6 290 13:40 26.04.2020
4099 Clouds 28 1018 45 10000 3.6 290 13:21 26.04.2020
4100 Clouds 27 1018 51 10000 3.6 250 12:56 26.04.2020
4101 Clouds 27 1019 54 10000 2.1 0 12:37 26.04.2020
4102 Clouds 27 1019 54 10000 2.1 0 12:19 26.04.2020
4103 Clouds 27 1019 51 10000 3.1 290 11:54 26.04.2020
4104 Clouds 26 1020 57 10000 2.1 270 11:36 26.04.2020
4105 Clouds 26 1020 57 10000 2.1 270 11:18 26.04.2020
4106 Clouds 25 1020 57 10000 3.6 250 10:42 26.04.2020
4107 Clouds 25 1020 65 10000 2.1 0 10:24 26.04.2020
4108 Clouds 25 1021 65 10000 2.6 310 09:58 26.04.2020
4109 Clouds 24 1021 69 10000 1.5 0 09:38 26.04.2020
4110 Clouds 24 1021 69 10000 1.5 0 09:19 26.04.2020
4111 Clouds 22 1021 73 10000 1.5 0 08:41 26.04.2020
4112 Clouds 21 1021 77 10000 1 0 08:22 26.04.2020
4113 Clouds 19 1021 88 10000 1 0 07:48 26.04.2020
4114 Clouds 18 1021 93 10000 1 0 07:24 26.04.2020
4115 Clouds 17 1020 100 10000 1.5 350 06:47 26.04.2020
4116 Clouds 17 1020 100 10000 1 0 06:23 26.04.2020
4117 Clouds 17 1020 93 10000 0.5 0 05:49 26.04.2020
4118 Clouds 17 1019 93 10000 1 0 05:30 26.04.2020
4119 Clouds 17 1019 93 10000 1 0 04:37 26.04.2020
4120 Clouds 17 1019 93 10000 2.1 80 03:39 26.04.2020
4121 Drizzle 17 1020 93 10000 1 0 02:37 26.04.2020
4122 Drizzle 17 1020 93 10000 1 0 02:19 26.04.2020
4123 Drizzle 17 1020 93 10000 1.5 0 01:36 26.04.2020
4124 Clouds 17 1020 93 10000 2.1 330 00:41 26.04.2020
4125 Clouds 17 1020 93 10000 2.1 330 00:21 26.04.2020
4126 Clouds 17 1020 93 10000 1.5 110 23:55 25.04.2020
4127 Drizzle 17 1020 93 10000 0.31 251 23:36 25.04.2020
4128 Drizzle 17 1020 93 10000 0.31 251 23:18 25.04.2020
4129 Drizzle 17 1021 93 10000 1.5 0 22:42 25.04.2020
4130 Clouds 17 1021 93 10000 1 0 22:20 25.04.2020
4131 Clouds 17 1021 93 10000 2.6 350 21:58 25.04.2020
4132 Clouds 18 1020 88 10000 1.5 60 21:37 25.04.2020
4133 Clouds 18 1020 88 10000 1.5 60 21:18 25.04.2020
4134 Clouds 17 1020 93 10000 1.5 0 20:42 25.04.2020
4135 Rain 18 1020 88 8000 4.1 330 20:23 25.04.2020
4136 Drizzle 20 1020 82 10000 2.6 330 19:59 25.04.2020
4137 Clouds 20 1019 77 10000 3.1 90 19:38 25.04.2020
4138 Clouds 20 1019 77 10000 3.1 90 19:20 25.04.2020
4139 Clouds 20 1019 82 10000 2.1 100 18:43 25.04.2020
4140 Clouds 20 1018 77 10000 3.6 360 18:22 25.04.2020
4141 Drizzle 21 1018 77 10000 2.1 360 17:59 25.04.2020
4142 Clouds 22 1018 73 10000 1.5 70 17:39 25.04.2020
4143 Clouds 22 1018 73 10000 1.5 70 17:21 25.04.2020
4144 Clouds 22 1017 68 10000 3.1 40 16:59 25.04.2020
4145 Clouds 23 1017 64 10000 3.1 30 16:41 25.04.2020
4146 Clouds 23 1017 64 10000 3.1 30 16:21 25.04.2020
4147 Clouds 24 1017 60 10000 4.1 60 15:55 25.04.2020
4148 Clouds 25 1017 53 10000 3.6 60 15:36 25.04.2020
4149 Clouds 25 1017 53 10000 3.6 60 15:18 25.04.2020
4150 Clouds 26 1017 54 10000 3.6 20 14:40 25.04.2020
4151 Clouds 26 1017 54 10000 2.6 40 14:21 25.04.2020
4152 Clouds 26 1017 54 10000 4.1 30 13:59 25.04.2020
4153 Clouds 26 1017 54 10000 4.1 30 13:59 25.04.2020
4154 Clouds 26 1017 54 10000 4.1 30 13:41 25.04.2020
4155 Clouds 26 1017 54 10000 3.1 60 13:18 25.04.2020
4156 Clouds 26 1017 57 10000 2.6 0 12:55 25.04.2020
4157 Clouds 26 1018 54 10000 2.6 20 12:37 25.04.2020
4158 Clouds 26 1018 54 10000 2.6 20 12:18 25.04.2020
4159 Clouds 26 1018 54 10000 2.6 20 12:18 25.04.2020
4160 Clouds 26 1018 57 10000 2.1 80 11:42 25.04.2020
4161 Clouds 25 1018 65 10000 2.1 70 11:24 25.04.2020
4162 Clouds 22 1019 73 10000 1.5 150 10:57 25.04.2020
4163 Clouds 22 1019 73 10000 1.5 150 10:38 25.04.2020
4164 Clouds 22 1019 73 10000 1.5 150 10:19 25.04.2020
4165 Clouds 20 1020 77 10000 2.1 130 09:43 25.04.2020
4166 Clouds 19 1020 82 10000 2.1 0 09:22 25.04.2020
4167 Clouds 18 1020 88 10000 2.1 160 08:55 25.04.2020
4168 Clouds 17 1020 93 10000 2.6 170 08:36 25.04.2020
4169 Clouds 17 1020 93 10000 2.6 170 08:18 25.04.2020
4170 Clouds 17 1020 93 10000 3.1 180 07:42 25.04.2020
4171 Clouds 17 1020 93 10000 2.6 160 07:19 25.04.2020
4172 Clouds 17 1019 93 10000 2.6 100 06:42 25.04.2020
4173 Clouds 16 1019 100 10000 2.6 160 05:42 25.04.2020
4174 Clouds 17 1019 93 10000 2.1 180 05:24 25.04.2020
4175 Clouds 17 1018 93 10000 2.1 130 04:20 25.04.2020
4176 Clouds 16 1018 100 10000 0.5 0 02:38 25.04.2020
4177 Clouds 17 1019 93 10000 2.1 130 01:56 25.04.2020
4178 Clouds 17 1019 93 10000 2.1 130 01:38 25.04.2020
4179 Clouds 17 1019 93 10000 2.1 130 01:19 25.04.2020
4180 Clouds 17 1019 100 10000 1.5 100 00:39 25.04.2020
4181 Clouds 17 1019 100 10000 1.5 100 00:18 25.04.2020
4182 Clouds 17 1020 100 10000 1 0 23:40 24.04.2020
4183 Clouds 17 1020 100 10000 1 0 23:20 24.04.2020
4184 Rain 17 1020 100 10000 2.6 100 22:41 24.04.2020
4185 Rain 17 1020 93 10000 4.1 90 22:20 24.04.2020
4186 Rain 18 1020 93 6000 3.1 90 21:58 24.04.2020
4187 Rain 18 1020 93 10000 3.1 100 21:39 24.04.2020
4188 Rain 18 1020 93 10000 3.1 100 21:21 24.04.2020
4189 Rain 18 1020 93 10000 4.1 90 20:56 24.04.2020
4190 Rain 18 1020 93 10000 3.6 130 20:38 24.04.2020
4191 Rain 18 1020 93 10000 3.6 130 20:18 24.04.2020
4192 Rain 18 1020 93 10000 3.1 120 19:43 24.04.2020
4193 Rain 18 1020 93 10000 3.1 90 19:25 24.04.2020
4194 Clouds 19 1019 82 10000 3.1 110 18:46 24.04.2020
4195 Clouds 19 1018 82 10000 4.1 110 18:28 24.04.2020
4196 Clouds 19 1018 82 10000 5.7 110 17:59 24.04.2020
4197 Clouds 19 1018 82 10000 5.7 110 17:41 24.04.2020
4198 Clouds 20 1018 77 10000 3.6 100 17:22 24.04.2020
4199 Clouds 21 1018 73 10000 4.1 90 16:58 24.04.2020
4200 Clouds 21 1018 73 10000 4.1 90 16:58 24.04.2020
4201 Clouds 22 1018 73 10000 5.1 100 16:40 24.04.2020
4202 Clouds 22 1018 73 10000 5.1 100 16:40 24.04.2020
4203 Clouds 22 1018 73 10000 5.1 100 16:21 24.04.2020
4204 Clouds 22 1018 73 10000 4.6 100 15:55 24.04.2020
4205 Clouds 23 1017 64 10000 3.1 80 15:37 24.04.2020
4206 Clouds 23 1017 64 10000 3.1 80 15:37 24.04.2020
4207 Clouds 23 1017 64 10000 3.1 80 15:18 24.04.2020
4208 Clouds 25 1017 57 10000 2.6 120 14:40 24.04.2020
4209 Clouds 25 1017 57 10000 2.6 120 14:20 24.04.2020
4210 Clouds 25 1018 57 10000 3.1 130 13:45 24.04.2020
4211 Clouds 25 1018 57 10000 3.1 130 13:27 24.04.2020
4212 Clouds 25 1019 61 10000 2.6 140 12:59 24.04.2020
4213 Clouds 25 1019 61 10000 2.6 140 12:41 24.04.2020
4214 Clouds 25 1019 61 10000 2.6 140 12:21 24.04.2020
4215 Clouds 25 1019 57 10000 2.6 0 11:57 24.04.2020
4216 Clouds 25 1020 61 10000 2.1 130 11:37 24.04.2020
4217 Clouds 25 1020 61 10000 2.1 130 11:19 24.04.2020
4218 Clouds 23 1020 69 10000 3.1 80 10:39 24.04.2020
4219 Clouds 23 1020 69 10000 3.1 80 10:20 24.04.2020
4220 Clouds 22 1021 73 10000 3.1 90 09:58 24.04.2020
4221 Clouds 20 1021 77 10000 3.1 90 09:39 24.04.2020
4222 Clouds 20 1021 77 10000 3.1 90 09:21 24.04.2020
4223 Clouds 19 1021 82 10000 3.1 100 08:55 24.04.2020
4224 Clouds 19 1021 82 10000 3.6 110 08:37 24.04.2020
4225 Clouds 19 1021 82 10000 3.6 110 08:18 24.04.2020
4226 Clouds 18 1021 88 10000 2.6 170 07:43 24.04.2020
4227 Clouds 18 1021 88 10000 2.6 170 07:24 24.04.2020
4228 Clouds 18 1020 88 10000 1.5 120 06:49 24.04.2020
4229 Clouds 17 1020 93 10000 1 80 06:30 24.04.2020
4230 Clouds 16 1020 100 10000 2.6 110 05:42 24.04.2020
4231 Rain 16 1019 100 9000 1.57 138 03:57 24.04.2020
4232 Clouds 17 1019 93 10000 1.5 180 02:56 24.04.2020
4233 Clouds 17 1019 93 10000 3.1 160 02:37 24.04.2020
4234 Rain 17 1019 93 8000 1.5 150 01:47 24.04.2020
4235 Rain 17 1020 93 7000 2.6 110 00:56 24.04.2020
4236 Rain 17 1020 93 8000 2.1 150 00:20 24.04.2020
4237 Rain 17 1021 100 8000 3.6 110 23:48 23.04.2020
4238 Rain 17 1021 100 8000 3.1 170 23:28 23.04.2020
4239 Rain 17 1021 100 8000 1 0 22:59 23.04.2020
4240 Rain 17 1021 100 8000 1 0 22:41 23.04.2020
4241 Rain 17 1021 100 8000 2.1 160 22:21 23.04.2020
4242 Thunderstorm 17 1021 100 7000 3.1 150 21:58 23.04.2020
4243 Thunderstorm 17 1021 100 7000 4.6 120 21:40 23.04.2020
4244 Thunderstorm 17 1021 100 7000 4.6 120 21:21 23.04.2020
4245 Thunderstorm 17 1021 100 5000 4.6 110 20:59 23.04.2020
4246 Thunderstorm 17 1021 100 5000 4.6 110 20:41 23.04.2020
4247 Thunderstorm 18 1021 93 4000 3.6 160 20:21 23.04.2020
4248 Thunderstorm 18 1020 93 7000 4.1 140 19:56 23.04.2020
4249 Clouds 19 1020 82 10000 4.1 140 19:38 23.04.2020
4250 Clouds 19 1020 82 10000 4.1 140 19:20 23.04.2020
4251 Clouds 19 1020 82 10000 4.6 120 18:43 23.04.2020
4252 Clouds 19 1019 82 10000 4.6 100 18:24 23.04.2020
4253 Clouds 20 1019 77 10000 4.6 90 17:59 23.04.2020
4254 Clouds 20 1019 77 10000 4.6 90 17:59 23.04.2020
4255 Clouds 20 1019 77 10000 4.6 100 17:39 23.04.2020
4256 Clouds 20 1019 77 10000 4.6 100 17:21 23.04.2020
4257 Clouds 21 1018 73 10000 5.7 90 16:57 23.04.2020
4258 Clouds 22 1018 68 10000 5.1 90 16:38 23.04.2020
4259 Clouds 22 1018 68 10000 5.1 90 16:18 23.04.2020
4260 Clouds 22 1018 68 10000 5.7 100 15:42 23.04.2020
4261 Clouds 23 1018 64 10000 5.1 90 15:22 23.04.2020
4262 Clouds 24 1018 57 10000 5.7 100 14:56 23.04.2020
4263 Clouds 25 1018 57 10000 6.2 90 14:37 23.04.2020
4264 Clouds 25 1018 57 10000 6.2 90 14:19 23.04.2020
4265 Clouds 25 1018 57 10000 5.7 110 13:55 23.04.2020
4266 Clouds 25 1018 57 10000 5.7 120 13:36 23.04.2020
4267 Clouds 25 1018 57 10000 5.7 120 13:36 23.04.2020
4268 Clouds 25 1018 57 10000 5.7 120 13:18 23.04.2020
4269 Clouds 26 1018 54 10000 4.6 130 12:42 23.04.2020
4270 Clouds 26 1018 54 10000 3.1 120 12:23 23.04.2020
4271 Clouds 25 1019 61 10000 4.1 110 11:55 23.04.2020
4272 Clouds 24 1019 60 10000 3.6 100 11:36 23.04.2020
4273 Clouds 24 1019 60 10000 3.6 100 11:18 23.04.2020
4274 Clouds 24 1020 57 10000 4.1 100 10:41 23.04.2020
4275 Clouds 24 1020 60 10000 3.6 100 10:20 23.04.2020
4276 Clouds 24 1020 60 10000 2.6 110 09:41 23.04.2020
4277 Clouds 23 1020 64 10000 2.6 140 09:20 23.04.2020
4278 Clouds 22 1021 68 10000 2.6 130 08:55 23.04.2020
4279 Clouds 21 1021 68 10000 2.6 160 08:37 23.04.2020
4280 Clouds 21 1021 68 10000 2.6 160 08:18 23.04.2020
4281 Clouds 20 1021 72 10000 2.6 120 07:41 23.04.2020
4282 Clouds 19 1020 77 10000 2.6 130 07:22 23.04.2020
4283 Clouds 17 1020 88 10000 4.1 150 06:46 23.04.2020
4284 Clouds 17 1020 88 10000 2.6 170 05:56 23.04.2020
4285 Clouds 17 1020 88 10000 2.1 140 05:22 23.04.2020
4286 Clouds 17 1020 88 10000 2.6 170 04:50 23.04.2020
4287 Clouds 17 1019 88 10000 2.6 140 02:24 23.04.2020
4288 Clouds 17 1019 88 10000 2.1 160 01:41 23.04.2020
4289 Clouds 18 1020 82 10000 3.1 150 00:57 23.04.2020
4290 Clouds 18 1020 82 10000 3.1 150 00:29 23.04.2020
4291 Clouds 18 1020 82 10000 3.1 140 23:59 22.04.2020
4292 Clouds 18 1020 82 10000 3.1 140 23:41 22.04.2020
4293 Clouds 18 1020 82 10000 2.6 140 23:22 22.04.2020
4294 Clouds 18 1020 88 10000 2.1 120 22:41 22.04.2020
4295 Clouds 18 1020 88 10000 2.1 120 22:20 22.04.2020
4296 Clouds 18 1021 88 10000 3.6 110 21:59 22.04.2020
4297 Clouds 18 1021 88 10000 3.6 110 21:59 22.04.2020
4298 Clouds 18 1021 88 10000 3.6 110 21:41 22.04.2020
4299 Clouds 18 1021 88 10000 3.6 110 21:22 22.04.2020
4300 Clouds 18 1021 88 10000 3.6 120 20:59 22.04.2020
4301 Clouds 18 1021 88 10000 3.6 120 20:41 22.04.2020
4302 Clouds 18 1021 88 10000 3.6 110 20:19 22.04.2020
4303 Clouds 18 1021 88 10000 3.1 110 19:57 22.04.2020
4304 Clouds 19 1020 82 10000 3.1 140 19:37 22.04.2020
4305 Clouds 19 1020 82 10000 3.1 140 19:18 22.04.2020
4306 Clouds 19 1020 82 10000 4.1 100 18:56 22.04.2020
4307 Clouds 19 1020 82 10000 4.1 110 18:38 22.04.2020
4308 Clouds 19 1020 82 10000 4.1 110 18:38 22.04.2020
4309 Clouds 19 1020 82 10000 4.1 110 18:20 22.04.2020
4310 Clouds 19 1019 82 10000 3.6 110 17:43 22.04.2020
4311 Clouds 20 1019 77 10000 3.6 90 17:25 22.04.2020
4312 Clouds 20 1019 77 10000 4.6 100 16:56 22.04.2020
4313 Clouds 20 1019 77 10000 4.6 100 16:56 22.04.2020
4314 Clouds 21 1018 73 10000 4.1 100 16:38 22.04.2020
4315 Clouds 21 1018 73 10000 4.1 100 16:19 22.04.2020
4316 Clouds 22 1018 68 10000 5.1 100 15:41 22.04.2020
4317 Clouds 22 1018 68 10000 5.1 100 15:22 22.04.2020
4318 Clouds 23 1018 64 10000 4.1 100 14:58 22.04.2020
4319 Clouds 23 1018 64 10000 3.1 110 14:37 22.04.2020
4320 Clouds 23 1018 64 10000 3.1 110 14:19 22.04.2020
4321 Clouds 24 1018 60 10000 3.6 120 13:44 22.04.2020
4322 Clouds 23 1018 64 10000 3.6 130 13:20 22.04.2020
4323 Clouds 23 1019 64 10000 3.1 120 12:54 22.04.2020
4324 Clouds 23 1019 64 10000 3.1 120 12:54 22.04.2020
4325 Clouds 23 1020 64 10000 3.1 140 12:36 22.04.2020
4326 Clouds 23 1020 64 10000 3.1 140 12:18 22.04.2020
4327 Clouds 23 1020 64 10000 2.6 110 11:39 22.04.2020
4328 Clouds 23 1020 64 10000 2.6 110 11:20 22.04.2020
4329 Clouds 22 1021 68 10000 2.1 140 10:46 22.04.2020
4330 Clouds 22 1021 64 10000 2.1 130 10:25 22.04.2020
4331 Clouds 21 1021 68 10000 2.1 160 09:56 22.04.2020
4332 Clouds 21 1021 68 10000 2.1 140 09:38 22.04.2020
4333 Clouds 21 1021 68 10000 2.1 140 09:19 22.04.2020
4334 Clouds 20 1021 72 10000 2.6 140 08:54 22.04.2020
4335 Clouds 19 1021 72 10000 2.6 140 08:36 22.04.2020
4336 Clouds 19 1021 72 10000 2.6 140 08:18 22.04.2020
4337 Clouds 18 1021 77 10000 3.1 120 07:44 22.04.2020
4338 Clouds 18 1021 77 10000 2.1 0 07:21 22.04.2020
4339 Clouds 16 1021 87 10000 2.1 140 06:44 22.04.2020
4340 Clouds 16 1020 87 10000 1.5 140 05:45 22.04.2020
4341 Clouds 16 1019 87 10000 2.6 150 04:59 22.04.2020
4342 Clouds 16 1018 87 10000 2.6 150 03:40 22.04.2020
4343 Clouds 16 1019 87 10000 3.6 170 02:28 22.04.2020
4344 Clouds 16 1019 87 10000 3.6 170 02:28 22.04.2020
4345 Clouds 16 1019 87 10000 2.6 160 01:41 22.04.2020
4346 Clouds 16 1019 87 10000 2.6 160 01:21 22.04.2020
4347 Clouds 16 1020 87 10000 3.1 170 00:41 22.04.2020
4348 Clouds 16 1020 87 10000 3.1 170 00:20 22.04.2020
4349 Clouds 17 1021 93 10000 1.65 130 23:44 21.04.2020
4350 Clouds 17 1021 93 10000 1.65 130 23:22 21.04.2020
4351 Clouds 17 1021 82 10000 3.6 130 22:58 21.04.2020
4352 Clouds 17 1021 82 10000 3.6 130 22:39 21.04.2020
4353 Clouds 17 1021 82 10000 3.6 130 22:19 21.04.2020
4354 Clouds 17 1022 82 10000 5.1 100 21:43 21.04.2020
4355 Clouds 17 1022 82 10000 5.1 100 21:24 21.04.2020
4356 Clouds 17 1022 88 10000 4.6 110 20:59 21.04.2020
4357 Clouds 17 1022 88 10000 4.6 110 20:40 21.04.2020
4358 Clouds 17 1022 88 10000 4.6 110 20:22 21.04.2020
4359 Clouds 18 1021 88 10000 3.6 120 19:57 21.04.2020
4360 Clouds 18 1021 88 10000 3.6 120 19:37 21.04.2020
4361 Clouds 18 1021 88 10000 3.6 120 19:18 21.04.2020
4362 Clouds 18 1020 88 10000 3.6 140 18:54 21.04.2020
4363 Clouds 18 1020 88 10000 3.6 140 18:36 21.04.2020
4364 Clouds 18 1020 88 10000 3.6 140 18:18 21.04.2020
4365 Clouds 19 1020 82 10000 4.6 110 17:39 21.04.2020
4366 Clouds 19 1020 82 10000 4.6 110 17:19 21.04.2020
4367 Clouds 20 1020 72 10000 4.6 130 16:54 21.04.2020
4368 Clouds 20 1020 72 10000 4.6 130 16:36 21.04.2020
4369 Clouds 20 1020 72 10000 4.6 130 16:18 21.04.2020
4370 Clouds 21 1019 68 10000 4.6 110 15:54 21.04.2020
4371 Clouds 21 1019 68 10000 4.6 110 15:36 21.04.2020
4372 Clouds 21 1019 68 10000 4.6 110 15:18 21.04.2020
4373 Clouds 21 1019 68 10000 5.7 140 14:43 21.04.2020
4374 Clouds 21 1019 68 10000 5.7 140 14:23 21.04.2020
4375 Clouds 22 1020 64 10000 5.7 140 13:55 21.04.2020
4376 Clouds 22 1020 64 10000 5.7 140 13:37 21.04.2020
4377 Clouds 22 1020 64 10000 5.7 140 13:18 21.04.2020
4378 Clouds 22 1020 64 10000 6.2 140 12:38 21.04.2020
4379 Clouds 22 1020 64 10000 6.2 140 12:19 21.04.2020
4380 Clouds 23 1021 64 10000 5.7 130 11:57 21.04.2020
4381 Clouds 23 1021 64 10000 5.7 130 11:38 21.04.2020
4382 Clouds 23 1021 64 10000 5.7 130 11:19 21.04.2020
4383 Clouds 22 1021 68 10000 5.1 140 10:58 21.04.2020
4384 Clouds 22 1021 68 10000 5.1 140 10:39 21.04.2020
4385 Clouds 22 1021 68 10000 5.1 140 10:20 21.04.2020
4386 Clouds 20 1022 72 10000 5.1 140 09:55 21.04.2020
4387 Clouds 20 1022 72 10000 5.1 140 09:36 21.04.2020
4388 Clouds 20 1022 72 10000 5.1 140 09:36 21.04.2020
4389 Clouds 20 1022 72 10000 5.1 140 09:18 21.04.2020
4390 Clouds 19 1022 77 10000 5.7 170 08:42 21.04.2020
4391 Clouds 19 1022 77 10000 5.7 170 08:23 21.04.2020
4392 Clouds 17 1022 82 10000 4.6 180 07:49 21.04.2020
4393 Clouds 17 1022 82 10000 4.6 180 07:26 21.04.2020
4394 Clouds 16 1021 87 10000 2.1 170 06:50 21.04.2020
4395 Clouds 16 1021 87 10000 2.1 170 06:24 21.04.2020
4396 Clouds 15 1020 87 10000 2.1 140 05:49 21.04.2020
4397 Clouds 15 1020 87 10000 3.6 170 04:24 21.04.2020
4398 Clouds 15 1021 87 10000 2.6 140 03:45 21.04.2020
4399 Clouds 13 1017 61 0 2.28 154 01:46 21.04.2020
4400 Clouds 15 1021 87 10000 2.6 160 01:28 21.04.2020
4401 Clouds 15 1021 87 10000 2.6 160 00:37 21.04.2020
4402 Clouds 15 1021 87 10000 2.6 160 00:37 21.04.2020
4403 Clouds 15 1022 87 10000 4.1 140 23:47 20.04.2020
4404 Clouds 15 1022 87 10000 4.1 140 23:25 20.04.2020
4405 Clouds 16 1023 82 10000 3.6 140 22:58 20.04.2020
4406 Clouds 16 1023 82 10000 3.6 140 22:40 20.04.2020
4407 Clouds 16 1023 82 10000 3.6 140 22:21 20.04.2020
4408 Clouds 16 1023 87 10000 4.1 150 21:58 20.04.2020
4409 Clouds 16 1023 87 10000 4.1 150 21:39 20.04.2020
4410 Clouds 16 1023 87 10000 4.1 150 21:19 20.04.2020
4411 Clouds 17 1023 82 10000 4.1 130 20:58 20.04.2020
4412 Clouds 17 1023 82 10000 4.1 130 20:38 20.04.2020
4413 Clouds 17 1023 82 10000 4.1 130 20:18 20.04.2020
4414 Clouds 17 1023 82 10000 3.1 110 19:58 20.04.2020
4415 Clouds 17 1023 82 10000 3.1 110 19:39 20.04.2020
4416 Clouds 17 1023 82 10000 3.1 110 19:19 20.04.2020
4417 Clouds 17 1022 82 10000 3.6 150 18:43 20.04.2020
4418 Clouds 17 1022 82 10000 3.6 150 18:23 20.04.2020
4419 Clouds 17 1021 82 10000 3.6 150 17:56 20.04.2020
4420 Clouds 17 1021 82 10000 3.6 150 17:38 20.04.2020
4421 Clouds 17 1021 82 10000 3.6 150 17:19 20.04.2020
4422 Clouds 17 1021 82 10000 5.1 130 16:58 20.04.2020
4423 Clouds 17 1021 82 10000 5.1 130 16:39 20.04.2020
4424 Clouds 17 1021 82 10000 5.1 130 16:18 20.04.2020
4425 Clouds 20 1020 64 10000 5.7 130 15:43 20.04.2020
4426 Clouds 20 1020 64 10000 5.7 130 15:23 20.04.2020
4427 Clouds 21 1020 56 10000 4.1 150 14:58 20.04.2020
4428 Clouds 21 1020 56 10000 4.1 150 14:40 20.04.2020
4429 Clouds 21 1020 56 10000 4.1 150 14:19 20.04.2020
4430 Clouds 21 1020 56 10000 5.7 160 13:54 20.04.2020
4431 Clouds 21 1020 56 10000 5.7 160 13:36 20.04.2020
4432 Clouds 21 1020 56 10000 5.7 160 13:36 20.04.2020
4433 Clouds 21 1020 56 10000 5.7 160 13:18 20.04.2020
4434 Clouds 20 1015 50 0 5.36 123 12:42 20.04.2020
4435 Clouds 21 1021 60 10000 6.2 140 12:19 20.04.2020
4436 Clouds 21 1021 60 10000 6.2 140 11:41 20.04.2020
4437 Clouds 21 1021 60 10000 6.2 140 11:22 20.04.2020
4438 Clouds 23 1022 53 10000 7.7 140 10:57 20.04.2020
4439 Clouds 23 1022 53 10000 7.7 140 10:39 20.04.2020
4440 Clouds 23 1022 53 10000 7.7 140 10:19 20.04.2020
4441 Clouds 20 1022 60 10000 7.2 160 09:56 20.04.2020
4442 Clouds 20 1022 60 10000 7.2 160 09:37 20.04.2020
4443 Clouds 20 1022 60 10000 7.2 160 09:19 20.04.2020
4444 Clouds 20 1023 60 10000 8.2 160 08:41 20.04.2020
4445 Clouds 20 1023 60 10000 8.2 160 08:22 20.04.2020
4446 Clouds 18 1022 72 10000 5.7 150 07:52 20.04.2020
4447 Clouds 18 1022 72 10000 5.7 150 07:52 20.04.2020
4448 Clouds 18 1022 72 10000 5.7 150 07:29 20.04.2020
4449 Clouds 16 1021 82 10000 3.1 150 06:57 20.04.2020
4450 Clouds 16 1021 82 10000 3.1 150 06:36 20.04.2020
4451 Clouds 16 1021 77 10000 4.6 160 05:43 20.04.2020
4452 Clouds 15 1020 77 10000 4.1 170 04:18 20.04.2020
4453 Clouds 16 1021 77 10000 5.7 170 02:46 20.04.2020
4454 Clouds 16 1021 77 10000 5.7 170 02:46 20.04.2020
4455 Clouds 16 1021 77 10000 5.1 170 01:52 20.04.2020
4456 Clouds 16 1021 77 10000 5.1 170 01:28 20.04.2020
4457 Clouds 16 1022 77 10000 5.7 160 00:36 20.04.2020
4458 Clouds 17 1022 77 10000 4.1 140 23:59 19.04.2020
4459 Clouds 17 1022 77 10000 4.1 140 23:38 19.04.2020
4460 Clouds 17 1022 77 10000 4.1 140 23:19 19.04.2020
4461 Clouds 17 1022 77 10000 4.6 160 22:41 19.04.2020
4462 Clouds 17 1022 77 10000 4.6 160 22:23 19.04.2020
4463 Clouds 17 1023 82 10000 4.1 150 21:58 19.04.2020
4464 Clouds 17 1023 82 10000 4.1 150 21:40 19.04.2020
4465 Clouds 17 1023 82 10000 4.1 150 21:21 19.04.2020
4466 Clouds 18 1023 82 10000 5.1 160 20:55 19.04.2020
4467 Clouds 18 1023 82 10000 5.1 160 20:37 19.04.2020
4468 Clouds 18 1023 82 10000 5.1 160 20:19 19.04.2020
4469 Clouds 19 1022 77 10000 5.7 150 19:41 19.04.2020
4470 Clouds 19 1022 77 10000 5.7 150 19:23 19.04.2020
4471 Clouds 19 1021 82 10000 4.1 140 18:58 19.04.2020
4472 Clouds 19 1021 82 10000 4.1 140 18:40 19.04.2020
4473 Clouds 19 1021 82 10000 4.1 140 18:40 19.04.2020
4474 Clouds 19 1021 82 10000 4.1 140 18:20 19.04.2020
4475 Clouds 21 1020 73 10000 4.6 150 17:59 19.04.2020
4476 Clouds 21 1020 73 10000 4.6 150 17:40 19.04.2020
4477 Clouds 21 1020 73 10000 4.6 150 17:22 19.04.2020
4478 Clouds 22 1019 68 10000 5.7 120 16:58 19.04.2020
4479 Clouds 22 1019 68 10000 5.7 120 16:38 19.04.2020
4480 Clouds 22 1019 68 10000 5.7 120 16:38 19.04.2020
4481 Clouds 22 1019 68 10000 5.7 120 16:20 19.04.2020
4482 Clouds 23 1019 60 10000 5.7 120 15:43 19.04.2020
4483 Clouds 23 1019 60 10000 5.7 120 15:22 19.04.2020
4484 Clouds 24 1019 57 10000 6.2 130 14:56 19.04.2020
4485 Clouds 24 1019 57 10000 6.2 130 14:37 19.04.2020
4486 Clouds 24 1019 57 10000 6.2 130 14:19 19.04.2020
4487 Clouds 24 1019 60 10000 5.1 140 13:40 19.04.2020
4488 Clouds 24 1019 60 10000 5.1 140 13:21 19.04.2020
4489 Clouds 25 1020 53 10000 6.7 130 12:50 19.04.2020
4490 Clouds 25 1020 53 10000 6.7 130 12:25 19.04.2020
4491 Clouds 25 1020 53 10000 8.2 130 11:59 19.04.2020
4492 Clouds 25 1020 53 10000 8.2 130 11:37 19.04.2020
4493 Clouds 25 1020 53 10000 8.2 130 11:19 19.04.2020
4494 Clouds 24 1021 47 10000 5.7 160 10:56 19.04.2020
4495 Clouds 24 1021 47 10000 5.7 160 10:38 19.04.2020
4496 Clouds 24 1021 47 10000 5.7 160 10:19 19.04.2020
4497 Clouds 22 1022 53 10000 6.2 170 09:45 19.04.2020
4498 Clouds 22 1022 53 10000 6.2 170 09:27 19.04.2020
4499 Clouds 21 1022 64 10000 5.7 150 08:41 19.04.2020
4500 Clouds 21 1022 64 10000 5.7 150 08:23 19.04.2020
4501 Clouds 19 1022 77 10000 4.6 160 07:59 19.04.2020
4502 Clouds 19 1022 77 10000 4.6 160 07:41 19.04.2020
4503 Clouds 19 1022 77 10000 4.6 160 07:22 19.04.2020
4504 Clouds 17 1021 88 10000 3.1 180 06:29 19.04.2020
4505 Clouds 17 1020 82 10000 3.6 180 05:55 19.04.2020
4506 Clouds 17 1020 88 10000 3.1 170 04:43 19.04.2020
4507 Clouds 17 1021 88 10000 4.1 170 02:59 19.04.2020
4508 Clouds 17 1021 88 10000 4.1 170 02:21 19.04.2020
4509 Clouds 17 1021 88 10000 2.1 150 01:38 19.04.2020
4510 Clouds 17 1022 88 10000 2.1 170 00:48 19.04.2020
4511 Clouds 17 1022 88 10000 2.1 170 00:25 19.04.2020
4512 Clouds 18 1022 82 10000 2.6 190 23:48 18.04.2020
4513 Clouds 18 1022 82 10000 2.6 190 23:22 18.04.2020
4514 Clouds 18 1023 82 10000 3.6 160 22:59 18.04.2020
4515 Clouds 18 1023 82 10000 3.6 160 22:40 18.04.2020
4516 Clouds 18 1023 82 10000 3.6 160 22:21 18.04.2020
4517 Clouds 17 1023 88 10000 2.1 150 21:56 18.04.2020
4518 Clouds 17 1023 88 10000 2.1 150 21:37 18.04.2020
4519 Clouds 17 1023 88 10000 2.1 150 21:37 18.04.2020
4520 Clouds 17 1023 88 10000 2.1 150 21:19 18.04.2020
4521 Clouds 17 1022 88 10000 2.6 140 20:42 18.04.2020
4522 Clouds 17 1022 88 10000 2.6 140 20:22 18.04.2020
4523 Clouds 18 1022 82 10000 3.6 120 19:56 18.04.2020
4524 Clouds 18 1022 82 10000 3.6 120 19:56 18.04.2020
4525 Clouds 18 1022 82 10000 3.6 120 19:37 18.04.2020
4526 Clouds 18 1022 82 10000 3.6 120 19:19 18.04.2020
4527 Clouds 19 1021 77 10000 3.6 140 18:37 18.04.2020
4528 Clouds 19 1021 77 10000 3.6 140 18:19 18.04.2020
4529 Clouds 19 1021 77 10000 3.6 140 18:19 18.04.2020
4530 Clouds 20 1021 77 10000 5.1 130 17:43 18.04.2020
4531 Clouds 20 1021 77 10000 5.1 130 17:21 18.04.2020
4532 Clouds 21 1021 68 10000 5.1 140 16:57 18.04.2020
4533 Clouds 21 1021 68 10000 5.1 140 16:38 18.04.2020
4534 Clouds 21 1021 68 10000 5.1 140 16:19 18.04.2020
4535 Clouds 22 1021 64 10000 4.1 140 15:39 18.04.2020
4536 Clouds 22 1021 64 10000 4.1 140 15:39 18.04.2020
4537 Clouds 22 1021 64 10000 4.1 140 15:21 18.04.2020
4538 Clouds 23 1020 60 10000 4.6 170 14:46 18.04.2020
4539 Clouds 23 1020 60 10000 4.6 170 14:27 18.04.2020
4540 Clouds 24 1020 57 10000 5.1 140 13:58 18.04.2020
4541 Clouds 24 1020 57 10000 5.1 140 13:40 18.04.2020
4542 Clouds 24 1020 57 10000 5.1 140 13:19 18.04.2020
4543 Clouds 25 1021 50 10000 4.6 140 12:42 18.04.2020
4544 Clouds 25 1021 50 10000 4.6 140 12:42 18.04.2020
4545 Clouds 25 1021 50 10000 4.6 140 12:23 18.04.2020
4546 Clouds 24 1021 53 10000 5.7 140 11:55 18.04.2020
4547 Clouds 24 1021 53 10000 5.7 140 11:36 18.04.2020
4548 Clouds 24 1021 53 10000 5.7 140 11:18 18.04.2020
4549 Clouds 23 1022 56 10000 5.7 130 10:40 18.04.2020
4550 Clouds 23 1022 56 10000 5.7 130 10:19 18.04.2020
4551 Clouds 21 1023 64 10000 5.1 160 09:58 18.04.2020
4552 Clouds 21 1023 64 10000 5.1 160 09:38 18.04.2020
4553 Clouds 21 1023 64 10000 5.1 160 09:20 18.04.2020
4554 Clouds 21 1023 64 10000 5.1 160 09:20 18.04.2020
4555 Clouds 20 1023 72 10000 4.1 140 08:39 18.04.2020
4556 Clouds 20 1023 72 10000 4.1 140 08:21 18.04.2020
4557 Clouds 18 1022 77 10000 4.1 130 07:41 18.04.2020
4558 Clouds 18 1022 77 10000 4.1 130 07:19 18.04.2020
4559 Clouds 17 1022 82 10000 2.6 160 06:30 18.04.2020
4560 Clouds 16 1022 87 10000 2.6 180 05:43 18.04.2020
4561 Clouds 16 1021 87 10000 3.1 170 04:47 18.04.2020
4562 Clouds 16 1021 87 10000 3.1 170 04:47 18.04.2020
4563 Clouds 16 1021 87 10000 3.1 170 04:28 18.04.2020
4564 Clouds 16 1021 87 10000 3.6 170 02:55 18.04.2020
4565 Clouds 16 1021 87 10000 3.6 170 02:37 18.04.2020
4566 Clouds 16 1021 87 10000 3.6 170 02:19 18.04.2020
4567 Clouds 16 1022 87 10000 3.1 180 01:35 18.04.2020
4568 Clouds 15 1022 93 10000 3.1 170 00:47 18.04.2020
4569 Clouds 15 1022 93 10000 3.1 170 00:23 18.04.2020
4570 Clouds 16 1023 87 10000 3.1 150 23:56 17.04.2020
4571 Clouds 16 1023 87 10000 3.1 150 23:38 17.04.2020
4572 Clouds 16 1023 87 10000 3.1 150 23:18 17.04.2020
4573 Clouds 16 1023 87 10000 3.1 150 22:56 17.04.2020
4574 Clouds 16 1023 87 10000 3.1 150 22:37 17.04.2020
4575 Clouds 16 1023 87 10000 3.1 150 22:18 17.04.2020
4576 Clouds 16 1023 87 10000 2.6 170 21:42 17.04.2020
4577 Clouds 16 1023 87 10000 2.6 170 21:21 17.04.2020
4578 Clouds 16 1023 87 10000 2.6 170 21:21 17.04.2020
4579 Clouds 16 1023 87 10000 2.1 150 20:57 17.04.2020
4580 Clouds 16 1023 87 10000 2.1 150 20:38 17.04.2020
4581 Clouds 16 1023 87 10000 2.1 150 20:19 17.04.2020
4582 Clouds 17 1023 82 10000 2.6 140 19:57 17.04.2020
4583 Clouds 17 1023 82 10000 2.6 140 19:39 17.04.2020
4584 Clouds 17 1023 82 10000 2.6 140 19:21 17.04.2020
4585 Clouds 18 1022 72 10000 4.1 140 18:44 17.04.2020
4586 Clouds 18 1022 72 10000 4.1 140 18:23 17.04.2020
4587 Clouds 18 1022 72 10000 4.1 140 18:23 17.04.2020
4588 Clouds 19 1021 68 10000 5.1 120 17:55 17.04.2020
4589 Clouds 19 1021 68 10000 5.1 120 17:36 17.04.2020
4590 Clouds 19 1021 68 10000 5.1 120 17:18 17.04.2020
4591 Clouds 19 1021 68 10000 5.1 120 17:18 17.04.2020
4592 Clouds 22 1021 53 10000 5.7 110 16:41 17.04.2020
4593 Clouds 22 1021 53 10000 5.7 110 16:22 17.04.2020
4594 Clouds 23 1020 53 10000 4.6 140 15:41 17.04.2020
4595 Clouds 23 1020 53 10000 4.6 140 15:23 17.04.2020
4596 Clouds 24 1020 50 10000 5.1 120 14:55 17.04.2020
4597 Clouds 24 1020 50 10000 5.1 120 14:37 17.04.2020
4598 Clouds 24 1020 50 10000 5.1 120 14:19 17.04.2020
4599 Clouds 25 1020 47 10000 4.6 120 13:40 17.04.2020
4600 Clouds 25 1020 47 10000 4.6 120 13:20 17.04.2020
4601 Clouds 24 1021 50 10000 4.1 110 12:58 17.04.2020
4602 Clouds 24 1021 50 10000 4.1 110 12:40 17.04.2020
4603 Clouds 24 1021 50 10000 4.1 110 12:21 17.04.2020
4604 Clouds 23 1021 53 10000 4.6 130 11:40 17.04.2020
4605 Clouds 23 1021 53 10000 4.6 130 11:19 17.04.2020
4606 Clouds 23 1022 56 10000 5.7 110 10:44 17.04.2020
4607 Clouds 23 1022 56 10000 5.7 110 10:23 17.04.2020
4608 Clouds 22 1023 56 10000 4.1 160 09:57 17.04.2020
4609 Clouds 22 1023 56 10000 4.1 160 09:39 17.04.2020
4610 Clouds 22 1023 56 10000 4.1 160 09:19 17.04.2020
4611 Clouds 19 1023 63 10000 4.6 160 08:48 17.04.2020
4612 Clouds 19 1023 63 10000 4.6 160 08:27 17.04.2020
4613 Clouds 17 1023 77 10000 3.6 150 07:58 17.04.2020
4614 Clouds 17 1023 77 10000 3.6 150 07:39 17.04.2020
4615 Clouds 17 1023 77 10000 3.6 150 07:19 17.04.2020
4616 Clouds 15 1022 82 10000 2.6 140 06:44 17.04.2020
4617 Clouds 13 1021 93 10000 2.1 140 05:58 17.04.2020
4618 Clouds 14 1021 87 10000 3.1 140 03:24 17.04.2020
4619 Clouds 15 1021 82 10000 4.1 140 02:52 17.04.2020
4620 Clouds 15 1022 87 10000 3.6 140 01:41 17.04.2020
4621 Clouds 15 1022 87 10000 3.6 140 01:19 17.04.2020
4622 Clouds 16 1022 82 10000 3.6 140 00:21 17.04.2020
4623 Clouds 16 1022 87 10000 4.1 140 23:55 16.04.2020
4624 Clouds 16 1022 87 10000 4.1 140 23:36 16.04.2020
4625 Clouds 16 1022 87 10000 4.1 140 23:18 16.04.2020
4626 Clouds 16 1023 87 10000 3.6 130 22:39 16.04.2020
4627 Clouds 16 1023 87 10000 3.6 130 22:21 16.04.2020
4628 Clouds 16 1023 87 10000 3.6 140 21:57 16.04.2020
4629 Clouds 16 1023 87 10000 3.6 140 21:39 16.04.2020
4630 Clouds 16 1023 87 10000 3.6 140 21:19 16.04.2020
4631 Clouds 17 1023 82 10000 3.1 130 20:42 16.04.2020
4632 Clouds 17 1023 82 10000 3.1 130 20:22 16.04.2020
4633 Clouds 17 1023 77 10000 4.6 130 19:59 16.04.2020
4634 Clouds 17 1023 77 10000 4.6 130 19:39 16.04.2020
4635 Clouds 17 1023 77 10000 4.6 130 19:19 16.04.2020
4636 Clouds 18 1022 77 10000 5.7 120 18:55 16.04.2020
4637 Clouds 18 1022 77 10000 5.7 120 18:36 16.04.2020
4638 Clouds 18 1022 77 10000 5.7 120 18:18 16.04.2020
4639 Clouds 20 1022 72 10000 5.7 130 17:42 16.04.2020
4640 Clouds 20 1022 72 10000 5.7 130 17:23 16.04.2020
4641 Clouds 22 1021 60 10000 5.1 130 16:55 16.04.2020
4642 Clouds 22 1021 60 10000 5.1 130 16:36 16.04.2020
4643 Clouds 22 1021 60 10000 5.1 130 16:18 16.04.2020
4644 Clouds 23 1021 56 10000 6.7 110 15:40 16.04.2020
4645 Clouds 23 1021 56 10000 6.7 110 15:19 16.04.2020
4646 Clouds 24 1021 53 10000 7.2 110 14:56 16.04.2020
4647 Clouds 24 1021 53 10000 7.2 110 14:37 16.04.2020
4648 Clouds 24 1021 53 10000 7.2 110 14:37 16.04.2020
4649 Clouds 24 1021 53 10000 7.2 110 14:19 16.04.2020
4650 Clouds 23 1021 64 10000 7.7 90 13:42 16.04.2020
4651 Clouds 23 1021 64 10000 7.7 90 13:23 16.04.2020
4652 Clouds 23 1022 56 10000 7.2 100 12:58 16.04.2020
4653 Clouds 23 1022 56 10000 7.2 100 12:40 16.04.2020
4654 Clouds 23 1022 56 10000 7.2 100 12:20 16.04.2020
4655 Clouds 24 1022 53 10000 6.2 130 12:00 16.04.2020
4656 Clouds 24 1022 53 10000 6.2 130 11:41 16.04.2020
4657 Clouds 24 1022 53 10000 6.2 130 11:21 16.04.2020
4658 Clouds 23 1023 60 10000 8.2 110 10:56 16.04.2020
4659 Clouds 23 1023 60 10000 8.2 110 10:38 16.04.2020
4660 Clouds 23 1023 60 10000 8.2 110 10:18 16.04.2020
4661 Clouds 21 1024 68 10000 5.7 130 09:54 16.04.2020
4662 Clouds 21 1024 68 10000 5.7 130 09:36 16.04.2020
4663 Clouds 21 1024 68 10000 5.7 130 09:18 16.04.2020
4664 Clouds 20 1024 72 10000 6.2 120 08:41 16.04.2020
4665 Clouds 20 1024 72 10000 6.2 120 08:21 16.04.2020
4666 Clouds 18 1024 88 10000 5.1 140 07:46 16.04.2020
4667 Clouds 18 1024 88 10000 5.1 140 07:26 16.04.2020
4668 Clouds 17 1023 100 10000 3.6 130 06:43 16.04.2020
4669 Clouds 17 1023 100 10000 3.6 130 06:24 16.04.2020
4670 Drizzle 17 1022 100 3500 2.1 110 05:30 16.04.2020
4671 Rain 16 1019 60 0 4.47 110 03:49 16.04.2020
4672 Clouds 16 1020 63 0 3.62 128 03:23 16.04.2020
4673 Clouds 16 1020 63 0 3.62 128 02:47 16.04.2020
4674 Clouds 16 1019 63 0 3.46 130 02:26 16.04.2020
4675 Clouds 16 1019 63 0 3.46 130 01:18 16.04.2020
4676 Clouds 16 1019 63 0 3.46 130 01:18 16.04.2020
4677 Clouds 16 1020 62 0 4 113 00:28 16.04.2020
4678 Clouds 16 1020 62 0 4 113 23:57 15.04.2020
4679 Clouds 16 1020 62 0 4 113 23:39 15.04.2020
4680 Clouds 16 1020 62 0 4 113 23:20 15.04.2020
4681 Clouds 16 1020 62 0 4 113 22:40 15.04.2020
4682 Clouds 16 1020 62 0 4 113 22:21 15.04.2020
4683 Clouds 16 1020 62 0 4 113 21:58 15.04.2020
4684 Clouds 16 1020 62 0 4 113 21:40 15.04.2020
4685 Clouds 17 1021 61 0 3.95 119 21:22 15.04.2020
4686 Clouds 17 1021 61 0 3.95 119 20:57 15.04.2020
4687 Clouds 17 1021 61 0 3.95 119 20:39 15.04.2020
4688 Clouds 17 1021 61 0 3.95 119 20:21 15.04.2020
4689 Clouds 17 1021 61 0 3.95 119 19:42 15.04.2020
4690 Clouds 17 1021 61 0 3.95 119 19:21 15.04.2020
4691 Clouds 17 1021 61 0 3.95 119 18:55 15.04.2020
4692 Clouds 20 1023 77 10000 4.6 130 18:36 15.04.2020
4693 Clouds 20 1023 77 10000 4.6 130 18:18 15.04.2020
4694 Clear 18 1019 56 0 3.97 120 17:40 15.04.2020
4695 Clouds 22 1023 64 10000 5.1 120 17:21 15.04.2020
4696 Clouds 22 1023 64 10000 5.1 120 16:58 15.04.2020
4697 Clouds 22 1023 64 10000 5.1 120 16:39 15.04.2020
4698 Clouds 22 1023 64 10000 5.1 120 16:20 15.04.2020
4699 Clouds 23 1022 60 10000 5.1 130 15:58 15.04.2020
4700 Clouds 23 1022 60 10000 5.1 130 15:39 15.04.2020
4701 Clouds 23 1022 60 10000 5.1 130 15:19 15.04.2020
4702 Clouds 24 1022 53 10000 5.7 120 14:58 15.04.2020
4703 Clouds 24 1022 53 10000 5.7 120 14:39 15.04.2020
4704 Clouds 24 1022 53 10000 5.7 120 14:39 15.04.2020
4705 Clouds 24 1022 53 10000 5.7 120 14:21 15.04.2020
4706 Clear 23 1017 40 0 5.66 110 13:58 15.04.2020
4707 Clouds 24 1022 44 10000 7.2 140 13:39 15.04.2020
4708 Clouds 24 1022 44 10000 7.2 140 13:20 15.04.2020
4709 Clouds 24 1022 44 10000 7.2 140 12:56 15.04.2020
4710 Clouds 24 1022 44 10000 7.2 140 12:38 15.04.2020
4711 Clouds 24 1022 44 10000 7.2 140 12:19 15.04.2020
4712 Clouds 23 1023 53 10000 7.2 130 11:42 15.04.2020
4713 Clouds 23 1023 53 10000 7.2 130 11:24 15.04.2020
4714 Clouds 22 1024 64 10000 5.7 150 10:58 15.04.2020
4715 Clouds 22 1024 64 10000 5.7 150 10:36 15.04.2020
4716 Clouds 22 1024 64 10000 5.7 150 10:18 15.04.2020
4717 Clouds 20 1024 77 10000 5.1 160 09:55 15.04.2020
4718 Clouds 20 1024 77 10000 5.1 160 09:37 15.04.2020
4719 Clouds 20 1024 77 10000 5.1 160 09:18 15.04.2020
4720 Drizzle 17 1024 93 7000 3.6 180 08:41 15.04.2020
4721 Drizzle 17 1024 93 7000 3.6 180 08:20 15.04.2020
4722 Drizzle 17 1024 88 4500 3.1 170 07:55 15.04.2020
4723 Drizzle 18 1024 82 6000 3.6 170 07:34 15.04.2020
4724 Drizzle 16 1024 87 10000 2.1 170 06:37 15.04.2020
4725 Clouds 16 1023 87 10000 1.5 180 05:51 15.04.2020
4726 Clouds 16 1023 87 10000 1.5 180 05:21 15.04.2020
4727 Clouds 16 1020 61 0 3.14 128 04:45 15.04.2020
4728 Clouds 16 1020 61 0 3.14 128 03:51 15.04.2020
4729 Clouds 16 1019 59 0 3.17 131 03:18 15.04.2020
4730 Clouds 16 1019 59 0 3.17 131 02:33 15.04.2020
4731 Clouds 16 1019 59 0 3.17 131 01:44 15.04.2020
4732 Clouds 16 1019 59 0 3.17 131 01:20 15.04.2020
4733 Clouds 16 1019 59 0 3.17 131 00:37 15.04.2020
4734 Clouds 14 1020 65 0 2.25 147 00:19 15.04.2020
4735 Clouds 14 1020 65 0 2.25 147 23:55 14.04.2020
4736 Clouds 14 1020 65 0 2.25 147 23:36 14.04.2020
4737 Clouds 14 1020 65 0 2.25 147 23:36 14.04.2020
4738 Clouds 14 1020 65 0 2.25 147 23:18 14.04.2020
4739 Clouds 14 1020 65 0 2.25 147 22:55 14.04.2020
4740 Clouds 14 1020 65 0 2.25 147 22:36 14.04.2020
4741 Clouds 14 1020 65 0 2.25 147 22:18 14.04.2020
4742 Clouds 14 1020 65 0 2.25 147 21:55 14.04.2020
4743 Clouds 14 1020 65 0 2.25 147 21:36 14.04.2020
4744 Clouds 15 1020 66 0 2.22 133 21:18 14.04.2020
4745 Clouds 15 1020 66 0 2.22 133 20:40 14.04.2020
4746 Clouds 15 1020 66 0 2.22 133 20:40 14.04.2020
4747 Clouds 15 1020 66 0 2.22 133 20:22 14.04.2020
4748 Clouds 15 1020 66 0 2.22 133 19:58 14.04.2020
4749 Clear 15 1020 66 0 2.01 132 19:39 14.04.2020
4750 Clear 15 1020 66 0 2.01 132 19:20 14.04.2020
4751 Clear 15 1020 66 0 2.01 132 18:55 14.04.2020
4752 Clouds 20 1022 77 10000 4.6 110 18:37 14.04.2020
4753 Clouds 20 1022 77 10000 4.6 110 18:18 14.04.2020
4754 Clouds 20 1022 77 10000 4.6 110 17:55 14.04.2020
4755 Clouds 20 1022 77 10000 4.6 110 17:36 14.04.2020
4756 Clouds 20 1022 77 10000 4.6 110 17:18 14.04.2020
4757 Clouds 21 1021 73 10000 3.6 150 16:41 14.04.2020
4758 Clouds 21 1021 73 10000 3.6 150 16:22 14.04.2020
4759 Clouds 22 1021 73 10000 5.1 110 15:57 14.04.2020
4760 Clouds 22 1021 73 10000 5.1 110 15:38 14.04.2020
4761 Clouds 22 1021 73 10000 5.1 110 15:19 14.04.2020
4762 Clouds 22 1021 73 10000 5.7 80 14:57 14.04.2020
4763 Clouds 22 1021 73 10000 5.7 80 14:39 14.04.2020
4764 Clouds 22 1021 73 10000 5.7 80 14:21 14.04.2020
4765 Clouds 23 1021 73 10000 5.7 140 13:43 14.04.2020
4766 Clouds 23 1021 73 10000 5.7 140 13:24 14.04.2020
4767 Clouds 22 1015 43 0 4.5 114 12:57 14.04.2020
4768 Clouds 25 1022 57 10000 4.6 120 12:38 14.04.2020
4769 Clouds 25 1022 57 10000 4.6 120 12:19 14.04.2020
4770 Clouds 25 1022 57 10000 4.6 120 11:42 14.04.2020
4771 Clouds 25 1022 57 10000 4.6 120 11:24 14.04.2020
4772 Clouds 23 1022 64 10000 3.6 130 10:56 14.04.2020
4773 Clouds 23 1022 64 10000 3.6 130 10:38 14.04.2020
4774 Clouds 23 1022 64 10000 3.6 130 10:20 14.04.2020
4775 Clouds 22 1023 68 10000 3.6 160 09:42 14.04.2020
4776 Clouds 18 1019 56 0 4.04 114 09:23 14.04.2020
4777 Clouds 18 1019 56 0 4.04 114 08:56 14.04.2020
4778 Clouds 20 1023 77 10000 5.1 110 08:37 14.04.2020
4779 Clouds 20 1023 77 10000 5.1 110 08:19 14.04.2020
4780 Clouds 18 1019 56 0 4.04 114 07:51 14.04.2020
4781 Clouds 18 1023 82 10000 5.1 120 07:26 14.04.2020
4782 Clouds 17 1022 93 10000 3.1 140 06:45 14.04.2020
4783 Clouds 17 1021 93 10000 3.1 160 05:47 14.04.2020
4784 Drizzle 17 1021 93 8000 2.1 140 03:48 14.04.2020
4785 Drizzle 17 1021 93 8000 2.6 140 02:38 14.04.2020
4786 Clouds 16 1017 63 0 2.46 145 01:28 14.04.2020
4787 Clouds 16 1017 63 0 2.46 145 00:52 14.04.2020
4788 Clouds 17 1022 93 10000 3.1 120 00:32 14.04.2020
4789 Clouds 17 1022 93 10000 3.1 120 23:59 13.04.2020
4790 Clouds 17 1022 93 10000 3.1 120 23:39 13.04.2020
4791 Clouds 17 1022 93 10000 3.1 120 23:19 13.04.2020
4792 Clouds 18 1023 88 10000 4.6 110 22:54 13.04.2020
4793 Clouds 18 1023 88 10000 4.6 110 22:36 13.04.2020
4794 Clouds 18 1023 88 10000 4.6 110 22:18 13.04.2020
4795 Clouds 18 1022 88 10000 4.6 110 21:41 13.04.2020
4796 Clouds 18 1022 88 10000 4.6 110 21:21 13.04.2020
4797 Clouds 18 1022 88 10000 3.6 100 20:58 13.04.2020
4798 Clouds 18 1022 88 10000 3.6 100 20:58 13.04.2020
4799 Clouds 18 1022 88 10000 3.6 100 20:39 13.04.2020
4800 Clouds 18 1022 88 10000 3.6 100 20:19 13.04.2020
4801 Clouds 19 1022 82 10000 4.1 130 19:58 13.04.2020
4802 Clouds 19 1022 82 10000 4.1 130 19:37 13.04.2020
4803 Clouds 19 1022 82 10000 4.1 130 19:18 13.04.2020
4804 Clouds 19 1021 82 10000 5.1 110 18:56 13.04.2020
4805 Clouds 19 1021 82 10000 5.1 110 18:37 13.04.2020
4806 Clouds 19 1021 82 10000 5.1 110 18:18 13.04.2020
4807 Clouds 20 1021 77 10000 5.1 100 17:56 13.04.2020
4808 Clouds 20 1021 77 10000 5.1 100 17:36 13.04.2020
4809 Clouds 20 1021 77 10000 5.1 100 17:18 13.04.2020
4810 Clouds 22 1020 68 10000 5.7 130 16:56 13.04.2020
4811 Clouds 22 1020 68 10000 5.7 130 16:37 13.04.2020
4812 Clouds 22 1020 68 10000 5.7 130 16:18 13.04.2020
4813 Clouds 22 1020 68 10000 5.7 130 16:18 13.04.2020
4814 Clouds 24 1020 64 10000 4.6 120 15:45 13.04.2020
4815 Clouds 24 1020 64 10000 4.6 120 15:27 13.04.2020
4816 Clouds 25 1019 61 10000 5.1 130 14:57 13.04.2020
4817 Clouds 25 1019 61 10000 5.1 130 14:39 13.04.2020
4818 Clouds 25 1019 61 10000 5.1 130 14:21 13.04.2020
4819 Clouds 25 1020 57 10000 6.2 110 13:56 13.04.2020
4820 Clouds 25 1020 57 10000 6.2 110 13:38 13.04.2020
4821 Clouds 25 1020 57 10000 6.2 110 13:19 13.04.2020
4822 Clouds 26 1021 54 10000 6.2 100 12:58 13.04.2020
4823 Clouds 26 1021 54 10000 6.2 100 12:39 13.04.2020
4824 Clouds 26 1021 54 10000 6.2 100 12:19 13.04.2020
4825 Clouds 26 1021 54 10000 6.2 100 12:19 13.04.2020
4826 Clouds 26 1021 54 10000 6.2 100 12:19 13.04.2020
4827 Clouds 24 1022 57 10000 5.1 110 11:44 13.04.2020
4828 Clouds 24 1022 57 10000 5.1 110 11:19 13.04.2020
4829 Clouds 24 1022 57 10000 5.1 110 11:19 13.04.2020
4830 Clouds 24 1022 57 10000 4.6 120 10:57 13.04.2020
4831 Clouds 24 1022 57 10000 4.6 120 10:39 13.04.2020
4832 Clouds 24 1022 57 10000 4.6 120 10:20 13.04.2020
4833 Clouds 21 1023 73 10000 3.6 140 09:58 13.04.2020
4834 Clouds 21 1023 73 10000 3.6 140 09:39 13.04.2020
4835 Clouds 21 1023 73 10000 3.6 140 09:21 13.04.2020
4836 Clouds 20 1023 72 10000 4.6 140 08:45 13.04.2020
4837 Clouds 20 1023 72 10000 4.6 140 08:26 13.04.2020
4838 Clouds 18 1023 93 10000 3.6 160 07:44 13.04.2020
4839 Clouds 18 1023 93 10000 3.6 160 07:26 13.04.2020
4840 Drizzle 17 1022 93 8000 3.6 170 06:56 13.04.2020
4841 Drizzle 17 1022 93 8000 3.6 170 06:33 13.04.2020
4842 Clouds 17 1022 93 10000 2.6 160 05:40 13.04.2020
4843 Clouds 17 1022 93 10000 2.6 160 05:19 13.04.2020
4844 Clouds 17 1022 93 10000 2.6 160 04:31 13.04.2020
4845 Clouds 17 1021 100 10000 2.6 150 03:53 13.04.2020
4846 Clouds 17 1021 100 10000 2.6 150 03:33 13.04.2020
4847 Clouds 17 1021 93 10000 2.6 170 02:39 13.04.2020
4848 Clouds 17 1021 93 10000 1.5 0 01:45 13.04.2020
4849 Clouds 17 1021 93 10000 1.5 0 01:27 13.04.2020
4850 Clouds 17 1022 93 10000 2.1 160 00:44 13.04.2020
4851 Clouds 17 1022 93 10000 2.1 160 00:23 13.04.2020
4852 Clouds 17 1022 93 10000 2.6 170 23:49 12.04.2020
4853 Clouds 18 1022 88 10000 2.6 130 23:26 12.04.2020
4854 Clouds 18 1022 88 10000 2.6 130 22:59 12.04.2020
4855 Clouds 18 1022 88 10000 2.6 130 22:38 12.04.2020
4856 Clouds 18 1022 88 10000 2.6 130 22:19 12.04.2020
4857 Clouds 18 1023 88 10000 3.6 110 21:55 12.04.2020
4858 Clouds 18 1023 88 10000 3.6 110 21:36 12.04.2020
4859 Clouds 18 1023 88 10000 3.6 110 21:18 12.04.2020
4860 Clouds 18 1022 88 10000 3.6 120 20:41 12.04.2020
4861 Clouds 18 1022 88 10000 3.6 120 20:23 12.04.2020
4862 Clouds 18 1022 88 10000 2.6 120 19:57 12.04.2020
4863 Clouds 18 1022 88 10000 2.6 120 19:38 12.04.2020
4864 Clouds 18 1022 88 10000 2.6 120 19:18 12.04.2020
4865 Clouds 18 1022 88 10000 4.1 100 18:41 12.04.2020
4866 Clouds 18 1022 88 10000 4.1 100 18:23 12.04.2020
4867 Clouds 19 1021 82 10000 6.7 110 17:58 12.04.2020
4868 Clouds 19 1021 82 10000 6.7 110 17:40 12.04.2020
4869 Clouds 19 1021 82 10000 6.7 110 17:21 12.04.2020
4870 Clouds 21 1021 73 10000 6.7 110 16:58 12.04.2020
4871 Clouds 21 1021 73 10000 6.7 110 16:39 12.04.2020
4872 Clouds 21 1021 73 10000 6.7 110 16:20 12.04.2020
4873 Clouds 24 1021 64 10000 5.7 120 15:47 12.04.2020
4874 Clouds 24 1021 64 10000 5.7 120 15:29 12.04.2020
4875 Clouds 24 1020 64 10000 4.6 130 14:54 12.04.2020
4876 Clouds 24 1020 64 10000 4.6 130 14:36 12.04.2020
4877 Clouds 24 1020 64 10000 4.6 130 14:18 12.04.2020
4878 Clouds 24 1021 60 10000 4.6 160 13:41 12.04.2020
4879 Clouds 24 1021 60 10000 4.6 160 13:22 12.04.2020
4880 Clouds 23 1021 64 10000 5.1 160 12:49 12.04.2020
4881 Clouds 23 1021 64 10000 5.1 160 12:23 12.04.2020
4882 Clouds 23 1021 64 10000 5.1 160 12:23 12.04.2020
4883 Clouds 23 1021 64 10000 5.1 160 12:23 12.04.2020
4884 Clouds 23 1022 64 10000 5.7 120 11:59 12.04.2020
4885 Clouds 23 1022 64 10000 5.7 120 11:40 12.04.2020
4886 Clouds 23 1022 64 10000 5.7 120 11:21 12.04.2020
4887 Clouds 22 1023 68 10000 5.1 130 10:58 12.04.2020
4888 Clouds 22 1023 68 10000 5.1 130 10:39 12.04.2020
4889 Clouds 22 1023 68 10000 5.1 130 10:21 12.04.2020
4890 Clouds 22 1023 68 10000 5.1 130 10:21 12.04.2020
4891 Clouds 21 1023 73 10000 3.6 140 09:59 12.04.2020
4892 Clouds 21 1023 73 10000 3.6 140 09:39 12.04.2020
4893 Clouds 21 1023 73 10000 3.6 140 09:20 12.04.2020
4894 Clouds 20 1023 72 10000 5.1 150 08:51 12.04.2020
4895 Clouds 20 1023 72 10000 5.1 150 08:33 12.04.2020
4896 Clouds 19 1023 77 10000 4.1 160 07:57 12.04.2020
4897 Clouds 19 1023 77 10000 4.1 160 07:39 12.04.2020
4898 Clouds 19 1023 77 10000 4.1 160 07:18 12.04.2020
4899 Clouds 17 1023 82 10000 3.1 140 06:32 12.04.2020
4900 Clouds 16 1022 93 10000 2.6 150 05:49 12.04.2020
4901 Clouds 16 1022 93 10000 2.6 150 05:27 12.04.2020
4902 Clouds 17 1022 88 10000 2.6 150 03:34 12.04.2020
4903 Clouds 17 1022 88 10000 3.1 150 02:54 12.04.2020
4904 Clouds 17 1022 88 10000 3.1 150 02:33 12.04.2020
4905 Clouds 17 1022 88 10000 2.6 140 01:33 12.04.2020
4906 Clouds 18 1023 82 10000 2.6 150 00:56 12.04.2020
4907 Clouds 18 1023 82 10000 2.6 150 00:38 12.04.2020
4908 Clouds 18 1023 82 10000 2.6 150 00:38 12.04.2020
4909 Clouds 18 1023 82 10000 2.6 150 00:19 12.04.2020
4910 Clouds 17 1024 88 10000 2.6 140 23:44 11.04.2020
4911 Clouds 17 1024 88 10000 2.6 140 23:23 11.04.2020
4912 Clouds 17 1024 88 10000 3.1 140 22:40 11.04.2020
4913 Clouds 17 1024 88 10000 3.1 140 22:22 11.04.2020
4914 Clouds 18 1024 88 10000 2.6 130 21:57 11.04.2020
4915 Clouds 18 1024 88 10000 2.6 130 21:37 11.04.2020
4916 Clouds 18 1024 88 10000 2.6 130 21:37 11.04.2020
4917 Clouds 18 1024 88 10000 2.6 130 21:18 11.04.2020
4918 Clouds 18 1024 88 10000 2.6 130 21:18 11.04.2020
4919 Clouds 18 1024 82 10000 4.6 120 20:56 11.04.2020
4920 Clouds 18 1024 82 10000 4.6 120 20:38 11.04.2020
4921 Clouds 18 1024 82 10000 4.6 120 20:38 11.04.2020
4922 Clouds 18 1024 82 10000 4.6 120 20:19 11.04.2020
4923 Clouds 18 1024 88 10000 5.7 140 19:57 11.04.2020
4924 Clouds 18 1024 88 10000 5.7 140 19:38 11.04.2020
4925 Clouds 18 1024 88 10000 5.7 140 19:18 11.04.2020
4926 Clouds 18 1024 88 10000 5.7 140 19:18 11.04.2020
4927 Clouds 18 1024 88 10000 5.7 140 19:18 11.04.2020
4928 Clouds 18 1023 93 10000 3.6 120 18:55 11.04.2020
4929 Clouds 18 1023 93 10000 3.6 120 18:37 11.04.2020
4930 Clouds 18 1023 93 10000 3.6 120 18:37 11.04.2020
4931 Clouds 18 1023 93 10000 3.6 120 18:18 11.04.2020
4932 Clouds 20 1022 77 10000 6.2 130 17:58 11.04.2020
4933 Clouds 20 1022 77 10000 6.2 130 17:38 11.04.2020
4934 Clouds 20 1022 77 10000 6.2 130 17:19 11.04.2020
4935 Clouds 22 1022 68 10000 6.2 120 16:42 11.04.2020
4936 Clouds 22 1022 68 10000 6.2 120 16:22 11.04.2020
4937 Clouds 24 1021 60 10000 3.6 140 15:42 11.04.2020
4938 Clouds 24 1021 60 10000 3.6 140 15:22 11.04.2020
4939 Clouds 24 1021 60 10000 6.2 140 14:59 11.04.2020
4940 Clouds 24 1021 60 10000 6.2 140 14:40 11.04.2020
4941 Clouds 24 1021 60 10000 6.2 140 14:22 11.04.2020
4942 Clouds 25 1021 61 10000 5.7 120 13:46 11.04.2020
4943 Clouds 25 1021 61 10000 5.7 120 13:26 11.04.2020
4944 Clouds 24 1022 60 10000 5.7 140 12:59 11.04.2020
4945 Clouds 24 1022 60 10000 5.7 140 12:38 11.04.2020
4946 Clouds 24 1022 60 10000 5.7 140 12:18 11.04.2020
4947 Clouds 24 1023 57 10000 5.7 130 11:54 11.04.2020
4948 Clouds 24 1023 57 10000 5.7 130 11:36 11.04.2020
4949 Clouds 24 1023 57 10000 5.7 130 11:18 11.04.2020
4950 Clouds 24 1023 57 10000 5.1 150 10:41 11.04.2020
4951 Clouds 24 1023 57 10000 5.1 150 10:22 11.04.2020
4952 Clouds 24 1023 57 10000 5.1 150 10:22 11.04.2020
4953 Clouds 23 1024 60 10000 5.1 130 09:57 11.04.2020
4954 Clouds 23 1024 60 10000 5.1 130 09:39 11.04.2020
4955 Clouds 23 1024 60 10000 5.1 130 09:20 11.04.2020
4956 Clouds 20 1024 68 10000 4.1 140 08:45 11.04.2020
4957 Clouds 20 1024 68 10000 4.1 140 08:27 11.04.2020
4958 Clouds 18 1024 77 10000 4.6 170 07:49 11.04.2020
4959 Clouds 18 1024 77 10000 4.6 170 07:28 11.04.2020
4960 Clouds 17 1024 82 10000 3.6 150 06:47 11.04.2020
4961 Clouds 17 1024 82 10000 3.6 150 06:18 11.04.2020
4962 Clouds 16 1023 82 10000 3.6 160 04:35 11.04.2020
4963 Clouds 16 1023 82 10000 4.1 140 03:40 11.04.2020
4964 Clouds 16 1023 87 10000 3.6 170 01:53 11.04.2020
4965 Clouds 16 1023 87 10000 3.6 170 01:20 11.04.2020
4966 Clouds 16 1024 87 10000 3.1 150 00:44 11.04.2020
4967 Clouds 16 1024 87 10000 3.1 150 00:19 11.04.2020
4968 Clouds 17 1024 82 10000 4.6 140 23:56 10.04.2020
4969 Clouds 17 1024 82 10000 4.6 140 23:56 10.04.2020
4970 Clouds 17 1024 82 10000 4.6 140 23:37 10.04.2020
4971 Clouds 17 1024 82 10000 4.6 140 23:18 10.04.2020
4972 Clouds 17 1025 88 10000 2.6 140 22:43 10.04.2020
4973 Clouds 17 1025 88 10000 2.6 140 22:21 10.04.2020
4974 Clouds 18 1025 88 10000 2.6 150 21:58 10.04.2020
4975 Clouds 18 1025 88 10000 2.6 150 21:39 10.04.2020
4976 Clouds 18 1025 88 10000 2.6 150 21:39 10.04.2020
4977 Clouds 18 1025 88 10000 2.6 150 21:18 10.04.2020
4978 Clouds 18 1025 82 10000 2.6 140 20:41 10.04.2020
4979 Clouds 18 1025 82 10000 2.6 140 20:23 10.04.2020
4980 Clouds 19 1025 77 10000 4.6 130 19:57 10.04.2020
4981 Clouds 19 1025 77 10000 4.6 130 19:39 10.04.2020
4982 Clouds 19 1025 77 10000 4.6 130 19:19 10.04.2020
4983 Clouds 19 1023 82 10000 5.1 130 18:56 10.04.2020
4984 Clouds 19 1023 82 10000 5.1 130 18:38 10.04.2020
4985 Clouds 19 1023 82 10000 5.1 130 18:38 10.04.2020
4986 Clouds 19 1023 82 10000 5.1 130 18:20 10.04.2020
4987 Clouds 20 1023 72 10000 5.7 120 17:58 10.04.2020
4988 Clouds 20 1023 72 10000 5.7 120 17:39 10.04.2020
4989 Clouds 20 1023 72 10000 5.7 120 17:19 10.04.2020
4990 Clouds 23 1022 60 10000 6.2 110 16:46 10.04.2020
4991 Clouds 23 1022 60 10000 6.2 110 16:24 10.04.2020
4992 Clouds 25 1021 50 10000 4.6 150 15:59 10.04.2020
4993 Clouds 25 1021 50 10000 4.6 150 15:40 10.04.2020
4994 Clouds 25 1021 50 10000 4.6 150 15:21 10.04.2020
4995 Clouds 25 1021 50 10000 5.1 150 14:59 10.04.2020
4996 Clouds 25 1021 50 10000 5.1 150 14:41 10.04.2020
4997 Clouds 25 1021 50 10000 5.1 150 14:23 10.04.2020
4998 Clouds 25 1022 53 10000 5.7 130 13:56 10.04.2020
4999 Clouds 25 1022 53 10000 5.7 130 13:38 10.04.2020
5000 Clouds 25 1022 53 10000 5.7 130 13:20 10.04.2020
5001 Clouds 25 1022 50 10000 6.2 120 12:42 10.04.2020
5002 Clouds 25 1022 50 10000 6.2 120 12:21 10.04.2020
5003 Clouds 23 1023 56 10000 5.7 120 11:54 10.04.2020
5004 Clouds 23 1023 56 10000 5.7 120 11:36 10.04.2020
5005 Clouds 23 1023 56 10000 5.7 120 11:18 10.04.2020
5006 Clouds 22 1024 68 10000 5.1 150 10:41 10.04.2020
5007 Clouds 22 1024 68 10000 5.1 150 10:22 10.04.2020
5008 Clouds 21 1024 68 10000 5.1 140 09:44 10.04.2020
5009 Clouds 21 1024 68 10000 5.1 140 09:25 10.04.2020
5010 Clouds 20 1024 68 10000 5.1 140 08:55 10.04.2020
5011 Clouds 20 1024 68 10000 5.1 140 08:37 10.04.2020
5012 Clouds 20 1024 68 10000 5.1 140 08:18 10.04.2020
5013 Clouds 20 1024 68 10000 5.1 140 08:18 10.04.2020
5014 Clouds 19 1024 77 10000 4.6 150 07:42 10.04.2020
5015 Clouds 19 1024 77 10000 4.6 150 07:21 10.04.2020
5016 Clouds 17 1023 88 10000 3.6 160 06:43 10.04.2020
5017 Clouds 17 1023 88 10000 3.6 160 06:23 10.04.2020
5018 Clouds 17 1023 88 10000 3.6 140 05:35 10.04.2020
5019 Clouds 18 1022 82 10000 3.6 150 04:57 10.04.2020
5020 Clouds 18 1022 82 10000 3.1 140 03:37 10.04.2020
5021 Clouds 18 1022 82 10000 2.1 170 02:59 10.04.2020
5022 Clouds 18 1022 82 10000 2.1 170 02:36 10.04.2020
5023 Clouds 18 1023 82 10000 2.6 170 01:59 10.04.2020
5024 Clouds 18 1023 82 10000 2.6 170 01:29 10.04.2020
5025 Clouds 18 1023 82 10000 2.6 160 00:49 10.04.2020
5026 Clouds 18 1023 82 10000 2.6 160 00:22 10.04.2020
5027 Clouds 18 1024 82 10000 2.6 130 23:44 09.04.2020
5028 Clouds 18 1024 82 10000 2.6 130 23:44 09.04.2020
5029 Clouds 18 1024 82 10000 2.6 130 23:24 09.04.2020
5030 Clouds 18 1024 82 10000 3.6 140 22:59 09.04.2020
5031 Clouds 18 1024 82 10000 3.6 140 22:40 09.04.2020
5032 Clouds 18 1024 82 10000 3.6 140 22:22 09.04.2020
5033 Clouds 18 1024 82 10000 4.6 110 21:40 09.04.2020
5034 Clouds 18 1024 82 10000 4.6 110 21:21 09.04.2020
5035 Clouds 18 1024 88 10000 3.6 130 20:54 09.04.2020
5036 Clouds 18 1024 88 10000 3.6 130 20:36 09.04.2020
5037 Clouds 18 1024 88 10000 3.6 130 20:18 09.04.2020
5038 Clouds 19 1024 82 10000 4.6 120 19:39 09.04.2020
5039 Clouds 19 1024 82 10000 4.6 120 19:21 09.04.2020
5040 Clouds 20 1023 77 10000 6.2 120 18:42 09.04.2020
5041 Clouds 20 1023 77 10000 6.2 120 18:21 09.04.2020
5042 Clouds 21 1023 73 10000 5.7 110 17:58 09.04.2020
5043 Clouds 21 1023 73 10000 5.7 110 17:39 09.04.2020
5044 Clouds 21 1023 73 10000 5.7 110 17:19 09.04.2020
5045 Clouds 24 1022 60 10000 6.7 110 16:40 09.04.2020
5046 Clouds 24 1022 60 10000 6.7 110 16:20 09.04.2020
5047 Clouds 26 1021 50 10000 5.1 130 15:56 09.04.2020
5048 Clouds 26 1021 50 10000 5.1 130 15:37 09.04.2020
5049 Clouds 26 1021 50 10000 5.1 130 15:19 09.04.2020
5050 Clouds 26 1021 54 10000 5.1 130 14:43 09.04.2020
5051 Clouds 26 1021 54 10000 5.1 130 14:21 09.04.2020
5052 Clouds 24 1016 43 0 4.35 105 13:59 09.04.2020
5053 Clouds 24 1016 43 0 4.35 105 13:40 09.04.2020
5054 Clouds 24 1016 43 0 4.35 105 13:22 09.04.2020
5055 Clouds 25 1022 57 10000 5.7 150 12:54 09.04.2020
5056 Clouds 25 1022 57 10000 5.7 150 12:36 09.04.2020
5057 Clouds 25 1022 57 10000 5.7 150 12:18 09.04.2020
5058 Clouds 25 1023 57 10000 5.7 120 11:42 09.04.2020
5059 Clouds 25 1023 57 10000 5.7 120 11:20 09.04.2020
5060 Clouds 25 1024 61 10000 6.2 100 10:58 09.04.2020
5061 Clouds 25 1024 61 10000 6.2 100 10:40 09.04.2020
5062 Clouds 25 1024 61 10000 6.2 100 10:21 09.04.2020
5063 Clouds 22 1024 68 10000 4.6 140 09:56 09.04.2020
5064 Clouds 22 1024 68 10000 4.6 140 09:38 09.04.2020
5065 Clouds 22 1024 68 10000 4.6 140 09:20 09.04.2020
5066 Clouds 20 1024 77 10000 4.6 160 08:44 09.04.2020
5067 Clouds 20 1024 77 10000 4.6 160 08:23 09.04.2020
5068 Clouds 19 1024 77 10000 4.1 160 07:55 09.04.2020
5069 Clouds 19 1024 77 10000 4.1 160 07:27 09.04.2020
5070 Clouds 17 1024 88 10000 2.1 120 06:55 09.04.2020
5071 Clouds 17 1024 88 10000 2.1 120 06:18 09.04.2020
5072 Clouds 16 1023 93 10000 1.5 180 05:39 09.04.2020
5073 Clouds 17 1022 88 10000 3.6 110 03:50 09.04.2020
5074 Clouds 17 1022 93 10000 2.1 140 02:27 09.04.2020
5075 Clouds 18 1022 88 10000 2.6 140 01:40 09.04.2020
5076 Clouds 18 1022 88 10000 2.6 140 01:20 09.04.2020
5077 Clouds 18 1022 88 10000 2.6 130 00:41 09.04.2020
5078 Clouds 18 1022 88 10000 2.6 130 00:19 09.04.2020
5079 Clouds 18 1023 93 10000 2.1 140 23:57 08.04.2020
5080 Clouds 18 1023 93 10000 2.1 140 23:39 08.04.2020
5081 Clouds 18 1023 93 10000 2.1 140 23:20 08.04.2020
5082 Clouds 19 1023 88 10000 4.1 100 22:43 08.04.2020
5083 Clouds 19 1023 88 10000 4.1 100 22:24 08.04.2020
5084 Clouds 19 1023 88 10000 2.6 100 21:56 08.04.2020
5085 Clouds 19 1023 88 10000 2.6 100 21:37 08.04.2020
5086 Clouds 19 1023 88 10000 2.6 100 21:19 08.04.2020
5087 Clouds 19 1023 88 10000 3.6 110 20:56 08.04.2020
5088 Clouds 19 1023 88 10000 3.6 110 20:38 08.04.2020
5089 Clouds 19 1023 88 10000 3.6 110 20:19 08.04.2020
5090 Thunderstorm 21 1023 83 10000 3.6 130 19:41 08.04.2020
5091 Thunderstorm 21 1023 83 10000 3.6 130 19:22 08.04.2020
5092 Clouds 21 1022 77 10000 4.6 120 18:56 08.04.2020
5093 Clouds 21 1022 77 10000 4.6 120 18:37 08.04.2020
5094 Clouds 21 1022 77 10000 4.6 120 18:19 08.04.2020
5095 Clouds 22 1021 73 10000 5.7 110 17:42 08.04.2020
5096 Clouds 22 1021 73 10000 5.7 110 17:22 08.04.2020
5097 Clouds 25 1021 57 10000 4.6 110 16:57 08.04.2020
5098 Clouds 25 1021 57 10000 4.6 110 16:39 08.04.2020
5099 Clouds 25 1021 57 10000 4.6 110 16:20 08.04.2020
5100 Clouds 27 1020 47 10000 4.1 90 15:39 08.04.2020
5101 Clouds 27 1020 47 10000 4.1 90 15:21 08.04.2020
5102 Clouds 27 1020 51 10000 3.1 140 14:58 08.04.2020
5103 Clouds 27 1020 51 10000 3.1 140 14:58 08.04.2020
5104 Clouds 27 1020 51 10000 3.1 140 14:39 08.04.2020
5105 Clouds 27 1020 51 10000 3.1 140 14:21 08.04.2020
5106 Clouds 27 1021 57 10000 2.6 130 13:44 08.04.2020
5107 Clouds 27 1021 57 10000 2.6 130 13:21 08.04.2020
5108 Clouds 26 1022 57 10000 3.1 130 12:57 08.04.2020
5109 Clouds 26 1022 57 10000 3.1 130 12:39 08.04.2020
5110 Clouds 26 1022 57 10000 3.1 130 12:18 08.04.2020
5111 Clouds 26 1022 57 10000 3.1 130 12:18 08.04.2020
5112 Clouds 26 1022 57 10000 3.1 130 12:18 08.04.2020
5113 Clouds 26 1023 57 10000 1.5 0 11:42 08.04.2020
5114 Clouds 26 1023 57 10000 1.5 0 11:23 08.04.2020
5115 Clouds 25 1023 61 10000 2.1 0 10:58 08.04.2020
5116 Clouds 25 1023 61 10000 2.1 0 10:39 08.04.2020
5117 Clouds 25 1023 61 10000 2.1 0 10:20 08.04.2020
5118 Clouds 22 1024 73 10000 3.1 120 09:57 08.04.2020
5119 Clouds 22 1024 73 10000 3.1 120 09:39 08.04.2020
5120 Clouds 22 1024 73 10000 3.1 120 09:18 08.04.2020
5121 Clouds 22 1024 73 10000 3.1 120 09:18 08.04.2020
5122 Clouds 22 1023 73 10000 3.6 100 08:56 08.04.2020
5123 Clouds 22 1023 73 10000 3.6 100 08:38 08.04.2020
5124 Clouds 22 1023 73 10000 3.6 100 08:20 08.04.2020
5125 Clouds 20 1023 88 10000 2.1 90 07:42 08.04.2020
5126 Clouds 20 1023 88 10000 2.1 90 07:20 08.04.2020
5127 Clouds 19 1022 88 8000 2.1 100 06:22 08.04.2020
5128 Clouds 19 1021 93 10000 2.1 140 04:44 08.04.2020
5129 Clouds 19 1021 93 10000 1.5 80 02:49 08.04.2020
5130 Clouds 19 1021 93 10000 1.5 80 02:21 08.04.2020
5131 Clouds 18 1021 100 10000 0.5 0 01:51 08.04.2020
5132 Clouds 18 1021 100 10000 0.5 0 01:27 08.04.2020
5133 Clouds 18 1021 100 10000 2.1 110 00:41 08.04.2020
5134 Clouds 18 1021 100 10000 2.1 110 00:22 08.04.2020
5135 Clouds 18 1021 100 10000 2.1 90 23:40 07.04.2020
5136 Clouds 18 1021 100 10000 2.1 90 23:21 07.04.2020
5137 Clouds 18 1022 100 10000 1.5 0 22:57 07.04.2020
5138 Clouds 18 1022 100 10000 1.5 0 22:39 07.04.2020
5139 Clouds 18 1022 100 10000 1.5 0 22:19 07.04.2020
5140 Clouds 18 1022 93 10000 2.1 160 21:56 07.04.2020
5141 Clouds 18 1022 93 10000 2.1 160 21:56 07.04.2020
5142 Clouds 18 1022 93 10000 2.1 160 21:38 07.04.2020
5143 Clouds 18 1022 93 10000 2.1 160 21:20 07.04.2020
5144 Thunderstorm 18 1022 93 8000 1.5 0 20:56 07.04.2020
5145 Thunderstorm 18 1022 93 8000 1.5 0 20:38 07.04.2020
5146 Thunderstorm 18 1022 93 8000 1.5 0 20:20 07.04.2020
5147 Thunderstorm 18 1022 93 4500 2.1 0 19:56 07.04.2020
5148 Thunderstorm 18 1022 93 4500 2.1 0 19:56 07.04.2020
5149 Thunderstorm 18 1022 93 2300 6.7 190 19:36 07.04.2020
5150 Thunderstorm 21 1020 77 10000 2.6 80 19:18 07.04.2020
5151 Thunderstorm 21 1020 77 10000 2.6 80 18:54 07.04.2020
5152 Thunderstorm 21 1020 77 10000 2.6 80 18:36 07.04.2020
5153 Thunderstorm 22 1019 68 10000 4.1 70 18:18 07.04.2020
5154 Thunderstorm 22 1019 68 10000 4.1 70 17:41 07.04.2020
5155 Thunderstorm 22 1019 68 10000 4.1 70 17:20 07.04.2020
5156 Clouds 26 1019 54 10000 2.6 20 16:45 07.04.2020
5157 Clouds 26 1019 54 10000 2.6 20 16:27 07.04.2020
5158 Clouds 27 1018 51 10000 2.1 30 15:55 07.04.2020
5159 Clouds 27 1018 51 10000 2.1 30 15:36 07.04.2020
5160 Clouds 27 1018 51 10000 2.1 30 15:18 07.04.2020
5161 Clouds 27 1018 54 10000 1.5 0 14:39 07.04.2020
5162 Clouds 27 1018 54 10000 1.5 0 14:21 07.04.2020
5163 Clouds 26 1019 54 10000 2.1 0 13:54 07.04.2020
5164 Clouds 26 1019 54 10000 2.1 0 13:36 07.04.2020
5165 Clouds 26 1019 54 10000 2.1 0 13:18 07.04.2020
5166 Clouds 26 1020 57 10000 3.1 210 12:40 07.04.2020
5167 Clouds 26 1020 57 10000 3.1 210 12:22 07.04.2020
5168 Clouds 26 1021 57 10000 2.6 210 11:59 07.04.2020
5169 Clouds 26 1021 57 10000 2.6 210 11:41 07.04.2020
5170 Clouds 26 1021 57 10000 2.6 210 11:21 07.04.2020
5171 Clouds 25 1022 61 10000 1.5 0 10:57 07.04.2020
5172 Clouds 25 1022 61 10000 1.5 0 10:37 07.04.2020
5173 Clouds 25 1022 61 10000 1.5 0 10:18 07.04.2020
5174 Clouds 24 1022 64 10000 0.5 0 09:44 07.04.2020
5175 Clouds 24 1022 64 10000 0.5 0 09:18 07.04.2020
5176 Clouds 23 1022 69 10000 2.1 60 08:42 07.04.2020
5177 Clouds 23 1022 69 10000 2.1 60 08:24 07.04.2020
5178 Clouds 19 1022 82 10000 2.6 40 07:58 07.04.2020
5179 Clouds 19 1022 82 10000 2.6 40 07:40 07.04.2020
5180 Clouds 19 1022 82 10000 2.6 40 07:21 07.04.2020
5181 Clouds 18 1022 93 10000 1.5 70 06:48 07.04.2020
5182 Clouds 18 1022 93 10000 1.5 70 06:20 07.04.2020
5183 Clouds 17 1021 93 10000 2.1 40 05:32 07.04.2020
5184 Clouds 17 1020 100 10000 1 60 04:35 07.04.2020
5185 Clouds 17 1016 64 0 0.99 89 03:24 07.04.2020
5186 Clouds 17 1016 64 0 0.99 89 02:48 07.04.2020
5187 Clouds 18 1020 93 10000 1.5 50 01:47 07.04.2020
5188 Clouds 18 1020 93 10000 1.5 50 01:23 07.04.2020
5189 Clouds 18 1021 93 10000 2.1 90 00:27 07.04.2020
5190 Clouds 18 1022 93 10000 2.6 60 23:44 06.04.2020
5191 Clouds 18 1022 93 10000 2.6 60 23:23 06.04.2020
5192 Clouds 18 1022 93 10000 2.1 90 22:57 06.04.2020
5193 Clouds 18 1022 93 10000 2.1 90 22:37 06.04.2020
5194 Clouds 18 1022 93 10000 2.1 90 22:19 06.04.2020
5195 Clouds 19 1022 88 10000 2.6 70 21:56 06.04.2020
5196 Clouds 19 1022 88 10000 2.6 70 21:38 06.04.2020
5197 Clouds 19 1022 88 10000 2.6 70 21:18 06.04.2020
5198 Clouds 20 1021 82 10000 3.1 80 20:42 06.04.2020
5199 Clouds 20 1021 82 10000 3.1 80 20:23 06.04.2020
5200 Clouds 20 1021 77 10000 2.1 90 19:59 06.04.2020
5201 Clouds 20 1021 77 10000 2.1 90 19:40 06.04.2020
5202 Clouds 20 1021 77 10000 2.1 90 19:22 06.04.2020
5203 Clouds 21 1019 68 10000 2.6 50 18:55 06.04.2020
5204 Clouds 21 1019 68 10000 2.6 50 18:37 06.04.2020
5205 Clouds 21 1019 68 10000 2.6 50 18:19 06.04.2020
5206 Clouds 22 1019 64 10000 3.1 70 17:42 06.04.2020
5207 Clouds 22 1019 64 10000 3.1 70 17:19 06.04.2020
5208 Clouds 24 1018 60 10000 2.1 60 16:50 06.04.2020
5209 Clouds 24 1018 60 10000 2.1 60 16:31 06.04.2020
5210 Clouds 27 1018 47 10000 1 0 15:40 06.04.2020
5211 Clouds 27 1018 47 10000 1 0 15:40 06.04.2020
5212 Clouds 25 1019 50 10000 2.1 50 13:46 06.04.2020
5213 Clouds 25 1019 50 10000 2.1 50 13:24 06.04.2020
5214 Clouds 27 1019 47 10000 1.5 0 12:56 06.04.2020
5215 Clouds 27 1019 47 10000 1.5 0 12:56 06.04.2020
5216 Clouds 27 1019 47 10000 1.5 0 12:56 06.04.2020
5217 Clouds 27 1019 47 10000 1.5 0 12:21 06.04.2020
5218 Clouds 25 1020 57 10000 2.1 240 11:54 06.04.2020
5219 Clouds 25 1020 57 10000 2.1 240 11:31 06.04.2020
5220 Clouds 25 1020 57 10000 2.1 240 11:31 06.04.2020
5221 Clouds 25 1020 57 10000 2.1 240 11:31 06.04.2020
5222 Clouds 25 1020 57 10000 2.1 240 11:31 06.04.2020
5223 Clouds 24 1021 60 10000 2.1 0 10:50 06.04.2020
5224 Clouds 24 1021 60 10000 2.1 0 10:50 06.04.2020
5225 Clouds 24 1021 60 10000 2.1 0 10:50 06.04.2020
5226 Clouds 24 1021 60 10000 2.1 0 10:50 06.04.2020
5227 Clouds 24 1021 60 10000 2.1 0 10:50 06.04.2020
5228 Clouds 24 1021 60 10000 2.1 0 10:21 06.04.2020
5229 Clouds 22 1022 64 10000 1 0 09:47 06.04.2020
5230 Clouds 22 1022 64 10000 1 0 09:47 06.04.2020
5231 Clouds 22 1022 64 10000 1 0 09:47 06.04.2020
5232 Clouds 22 1022 64 10000 1 0 09:47 06.04.2020
5233 Clouds 22 1022 64 10000 1 0 09:47 06.04.2020
5234 Clouds 22 1022 64 10000 1 0 09:20 06.04.2020
5235 Clouds 19 1022 77 10000 2.1 60 08:53 06.04.2020
5236 Clouds 19 1022 77 10000 2.1 60 08:30 06.04.2020
5237 Clouds 17 1022 88 10000 2.6 70 07:30 06.04.2020
5238 Clouds 17 1022 88 10000 2.6 70 07:30 06.04.2020
5239 Clouds 17 1022 88 10000 2.6 70 07:30 06.04.2020
5240 Clouds 16 1021 87 10000 2.1 60 06:41 06.04.2020
5241 Clouds 16 1021 87 10000 2.1 60 06:22 06.04.2020
5242 Clouds 14 1020 93 10000 2.1 80 04:18 06.04.2020
5243 Clouds 15 1019 93 10000 3.6 100 02:56 06.04.2020
5244 Clouds 15 1019 93 10000 3.6 100 02:18 06.04.2020
5245 Clouds 16 1020 93 10000 1.5 170 01:23 06.04.2020
5246 Clouds 17 1021 88 10000 1.5 0 00:41 06.04.2020
5247 Clouds 17 1021 88 10000 2.1 130 00:21 06.04.2020
5248 Clouds 17 1021 88 10000 2.1 130 00:21 06.04.2020
5249 Clouds 17 1021 88 10000 2.1 130 00:21 06.04.2020
5250 Clouds 17 1021 88 10000 2.1 130 23:43 05.04.2020
5251 Clouds 17 1021 88 10000 2.1 130 23:23 05.04.2020
5252 Clouds 17 1021 88 10000 2.1 130 23:23 05.04.2020
5253 Clouds 17 1021 88 10000 2.1 130 23:23 05.04.2020
5254 Clouds 16 1022 93 10000 1.5 170 22:55 05.04.2020
5255 Clouds 16 1022 93 10000 1.5 170 22:55 05.04.2020
5256 Clouds 16 1022 93 10000 1.5 170 22:36 05.04.2020
5257 Clouds 16 1022 93 10000 1.5 170 22:18 05.04.2020
5258 Clouds 17 1022 88 10000 4.1 100 21:43 05.04.2020
5259 Clouds 17 1022 88 10000 4.1 100 21:43 05.04.2020
5260 Clouds 17 1022 88 10000 4.1 100 21:43 05.04.2020
5261 Clouds 17 1022 88 10000 4.1 100 21:23 05.04.2020
5262 Clouds 18 1022 82 10000 3.1 140 20:25 05.04.2020
5263 Clouds 18 1022 82 10000 3.1 140 20:25 05.04.2020
5264 Clouds 18 1022 82 10000 3.1 140 20:25 05.04.2020
5265 Clouds 18 1021 82 10000 3.1 90 19:44 05.04.2020
5266 Clouds 18 1021 82 10000 3.1 90 19:25 05.04.2020
5267 Clouds 19 1020 77 10000 3.1 90 18:50 05.04.2020
5268 Clouds 19 1020 77 10000 3.1 90 18:50 05.04.2020
5269 Clouds 19 1020 77 10000 3.1 90 18:50 05.04.2020
5270 Clouds 19 1020 77 10000 3.1 90 18:50 05.04.2020
5271 Clouds 19 1020 77 10000 3.1 90 18:50 05.04.2020
5272 Clouds 19 1020 77 10000 3.1 90 18:27 05.04.2020
5273 Clouds 19 1020 77 10000 3.1 90 18:27 05.04.2020
5274 Clouds 19 1020 77 10000 3.1 90 18:24 05.04.2020
5275 Clouds 19 1020 77 10000 3.1 90 18:24 05.04.2020
5276 Clouds 19 1020 77 10000 3.1 90 18:24 05.04.2020
5277 Clouds 21 1019 68 10000 5.1 90 17:49 05.04.2020
5278 Clouds 21 1019 68 10000 5.1 90 17:49 05.04.2020
5279 Clouds 21 1019 68 10000 5.1 90 17:49 05.04.2020
5280 Clouds 21 1019 68 10000 5.1 90 17:49 05.04.2020
5281 Clouds 21 1019 68 10000 5.1 90 17:49 05.04.2020
5282 Clouds 21 1019 68 10000 5.1 90 17:22 05.04.2020
5283 Clouds 22 1019 64 10000 4.1 70 16:47 05.04.2020
5284 Clouds 22 1019 64 10000 4.1 70 16:19 05.04.2020
5285 Clouds 23 1018 60 10000 3.1 70 15:46 05.04.2020
5286 Clouds 23 1018 60 10000 3.1 70 15:28 05.04.2020
5287 Clouds 23 1018 60 10000 3.1 70 15:28 05.04.2020
5288 Clouds 23 1018 60 10000 3.1 70 15:28 05.04.2020
5289 Clouds 24 1018 57 10000 2.6 70 14:48 05.04.2020
5290 Clouds 24 1018 57 10000 2.6 70 14:48 05.04.2020
5291 Clouds 24 1018 57 10000 2.6 70 14:48 05.04.2020
5292 Clouds 24 1018 57 10000 2.6 70 14:48 05.04.2020
5293 Clouds 25 1018 53 10000 2.6 100 13:59 05.04.2020
5294 Clouds 25 1018 53 10000 2.6 100 13:40 05.04.2020
5295 Clouds 25 1018 53 10000 2.6 100 13:40 05.04.2020
5296 Clouds 25 1018 53 10000 2.6 100 13:40 05.04.2020
5297 Clouds 25 1018 53 10000 2.6 100 13:40 05.04.2020
5298 Clouds 25 1018 53 10000 2.6 100 13:40 05.04.2020
5299 Clouds 24 1019 57 10000 3.6 120 12:21 05.04.2020
5300 Clouds 24 1020 53 10000 3.6 110 11:40 05.04.2020
5301 Clouds 24 1020 53 10000 3.6 110 11:20 05.04.2020
5302 Clouds 22 1021 60 10000 4.1 120 10:47 05.04.2020
5303 Clouds 22 1021 60 10000 4.1 120 10:23 05.04.2020
5304 Clouds 21 1022 64 10000 3.1 140 09:55 05.04.2020
5305 Clouds 21 1022 64 10000 3.1 140 09:27 05.04.2020
5306 Clouds 18 1022 77 10000 3.1 150 08:32 05.04.2020
5307 Clouds 17 1022 77 10000 4.1 150 07:06 05.04.2020
5308 Clouds 15 1020 87 10000 3.1 110 04:31 05.04.2020
5309 Clouds 16 1019 87 10000 2.6 130 03:28 05.04.2020
5310 Clouds 16 1019 87 10000 3.6 100 02:19 05.04.2020
5311 Clouds 16 1019 87 9000 3.6 110 01:42 05.04.2020
5312 Clouds 16 1019 87 9000 3.6 110 01:22 05.04.2020
5313 Clouds 17 1020 88 10000 3.6 110 00:37 05.04.2020
5314 Clouds 17 1020 88 10000 3.6 110 00:18 05.04.2020
5315 Clouds 17 1020 88 10000 3.6 120 23:41 04.04.2020
5316 Clouds 17 1020 88 10000 3.6 120 23:22 04.04.2020
5317 Clouds 17 1021 88 10000 2.1 130 22:57 04.04.2020
5318 Clouds 17 1021 88 10000 2.1 130 22:57 04.04.2020
5319 Clouds 17 1021 88 10000 2.1 130 22:39 04.04.2020
5320 Clouds 17 1021 88 10000 2.1 130 22:20 04.04.2020
5321 Clouds 17 1021 88 10000 1.5 130 21:57 04.04.2020
5322 Clouds 17 1021 88 10000 1.5 130 21:39 04.04.2020
5323 Clouds 17 1021 88 10000 1.5 130 21:19 04.04.2020
5324 Clouds 18 1020 77 10000 4.1 130 20:55 04.04.2020
5325 Clouds 18 1020 77 10000 4.1 130 20:36 04.04.2020
5326 Clouds 18 1020 77 10000 4.1 130 20:18 04.04.2020
5327 Clouds 18 1020 72 10000 3.6 100 19:42 04.04.2020
5328 Clouds 18 1020 72 10000 3.6 100 19:21 04.04.2020
5329 Clouds 19 1019 72 10000 4.6 110 18:59 04.04.2020
5330 Clouds 19 1019 72 10000 4.6 110 18:40 04.04.2020
5331 Clouds 19 1019 72 10000 4.6 110 18:21 04.04.2020
5332 Clouds 19 1019 72 10000 4.6 110 18:21 04.04.2020
5333 Clouds 20 1018 64 10000 4.6 110 17:59 04.04.2020
5334 Clouds 20 1018 64 10000 4.6 110 17:39 04.04.2020
5335 Clouds 20 1018 64 10000 4.6 110 17:39 04.04.2020
5336 Clouds 20 1018 64 10000 4.6 110 17:19 04.04.2020
5337 Clouds 22 1018 60 10000 5.1 120 16:45 04.04.2020
5338 Clouds 22 1018 60 10000 5.1 120 16:27 04.04.2020
5339 Clouds 22 1017 60 10000 4.1 130 15:59 04.04.2020
5340 Clouds 22 1017 60 10000 4.1 130 15:39 04.04.2020
5341 Clouds 23 1017 56 10000 4.6 90 15:20 04.04.2020
5342 Clouds 25 1017 50 10000 2.1 120 14:56 04.04.2020
5343 Clouds 25 1017 50 10000 2.1 120 14:37 04.04.2020
5344 Clouds 25 1017 50 10000 2.1 120 14:18 04.04.2020
5345 Clouds 25 1017 47 10000 2.6 90 13:42 04.04.2020
5346 Clouds 25 1017 47 10000 2.6 90 13:22 04.04.2020
5347 Clouds 24 1018 47 10000 2.6 130 12:58 04.04.2020
5348 Clouds 24 1018 47 10000 2.6 130 12:40 04.04.2020
5349 Clouds 24 1018 47 10000 2.6 130 12:21 04.04.2020
5350 Clouds 23 1019 49 10000 3.1 150 11:42 04.04.2020
5351 Clouds 23 1019 49 10000 3.1 150 11:23 04.04.2020
5352 Clouds 22 1020 53 10000 4.1 170 10:59 04.04.2020
5353 Clouds 22 1020 53 10000 4.1 170 10:41 04.04.2020
5354 Clouds 22 1020 53 10000 4.1 170 10:23 04.04.2020
5355 Clouds 20 1020 60 10000 4.1 150 09:57 04.04.2020
5356 Clouds 20 1020 60 10000 4.1 150 09:39 04.04.2020
5357 Clouds 20 1020 60 10000 4.1 150 09:20 04.04.2020
5358 Clouds 17 1021 72 10000 4.6 170 08:44 04.04.2020
5359 Clouds 17 1021 72 10000 4.6 170 08:23 04.04.2020
5360 Clouds 16 1020 77 10000 3.6 160 07:59 04.04.2020
5361 Clouds 16 1020 77 10000 3.6 160 07:39 04.04.2020
5362 Clouds 16 1020 77 10000 3.6 160 07:21 04.04.2020
5363 Clouds 15 1020 82 10000 4.1 170 06:38 04.04.2020
5364 Clouds 15 1019 82 10000 3.1 180 05:52 04.04.2020
5365 Clouds 15 1019 82 10000 3.1 180 05:52 04.04.2020
5366 Clouds 15 1019 82 10000 3.1 180 05:33 04.04.2020
5367 Clouds 15 1018 77 10000 4.1 160 04:34 04.04.2020
5368 Clouds 15 1018 77 10000 3.6 160 03:57 04.04.2020
5369 Clouds 15 1018 77 10000 3.6 160 03:36 04.04.2020
5370 Clouds 15 1018 82 10000 2.6 140 02:46 04.04.2020
5371 Clouds 15 1018 82 10000 2.6 140 02:25 04.04.2020
5372 Clouds 15 1019 87 10000 3.1 150 01:31 04.04.2020
5373 Clouds 15 1019 93 10000 2.6 140 00:59 04.04.2020
5374 Clouds 15 1019 93 10000 2.6 140 00:35 04.04.2020
5375 Drizzle 15 1020 93 10000 3.1 150 23:59 03.04.2020
5376 Drizzle 15 1020 93 10000 3.1 150 23:38 03.04.2020
5377 Drizzle 15 1020 93 10000 3.1 150 23:19 03.04.2020
5378 Drizzle 16 1020 93 10000 4.1 140 22:41 03.04.2020
5379 Drizzle 16 1020 93 10000 4.1 140 22:19 03.04.2020
5380 Drizzle 17 1019 93 8000 3.6 150 21:57 03.04.2020
5381 Drizzle 17 1019 93 8000 3.6 150 21:38 03.04.2020
5382 Drizzle 17 1019 93 8000 3.6 150 21:20 03.04.2020
5383 Drizzle 18 1019 93 7000 3.1 170 20:55 03.04.2020
5384 Drizzle 18 1019 93 7000 3.1 170 20:36 03.04.2020
5385 Drizzle 18 1019 93 7000 3.1 170 20:18 03.04.2020
5386 Drizzle 18 1019 93 7000 3.1 170 20:18 03.04.2020
5387 Drizzle 18 1019 88 10000 3.6 140 19:55 03.04.2020
5388 Drizzle 18 1019 88 10000 3.6 140 19:36 03.04.2020
5389 Drizzle 18 1019 88 10000 3.6 140 19:18 03.04.2020
5390 Drizzle 18 1018 93 8000 4.1 110 18:56 03.04.2020
5391 Drizzle 18 1018 93 8000 4.1 110 18:38 03.04.2020
5392 Drizzle 18 1018 93 8000 4.1 110 18:20 03.04.2020
5393 Drizzle 19 1017 88 7000 4.1 170 17:41 03.04.2020
5394 Drizzle 19 1017 88 7000 4.1 170 17:19 03.04.2020
5395 Drizzle 21 1017 73 10000 5.7 130 16:55 03.04.2020
5396 Drizzle 21 1017 73 10000 5.7 130 16:36 03.04.2020
5397 Drizzle 21 1017 73 10000 5.7 130 16:18 03.04.2020
5398 Clouds 23 1016 64 10000 5.7 90 15:41 03.04.2020
5399 Clouds 23 1016 64 10000 5.7 90 15:22 03.04.2020
5400 Clouds 27 1016 54 10000 3.6 90 14:58 03.04.2020
5401 Rain 22 1012 49 0 5.08 121 14:40 03.04.2020
5402 Clouds 26 1016 54 10000 4.1 100 14:21 03.04.2020
5403 Clouds 26 1016 54 10000 4.1 100 13:46 03.04.2020
5404 Clouds 26 1016 54 10000 4.1 100 13:27 03.04.2020
5405 Clouds 25 1017 57 10000 4.1 120 12:57 03.04.2020
5406 Clouds 25 1017 57 10000 4.1 120 12:39 03.04.2020
5407 Clouds 25 1017 57 10000 4.1 120 12:18 03.04.2020
5408 Clouds 23 1017 64 10000 5.1 150 11:55 03.04.2020
5409 Clouds 23 1017 64 10000 5.1 150 11:37 03.04.2020
5410 Clouds 23 1017 64 10000 5.1 150 11:18 03.04.2020
5411 Clouds 23 1018 64 10000 4.6 140 10:56 03.04.2020
5412 Clouds 23 1018 64 10000 4.6 140 10:37 03.04.2020
5413 Clouds 23 1018 64 10000 4.6 140 10:19 03.04.2020
5414 Clouds 22 1018 68 10000 4.6 140 09:55 03.04.2020
5415 Clouds 22 1018 68 10000 4.6 140 09:37 03.04.2020
5416 Clouds 22 1018 68 10000 4.6 140 09:37 03.04.2020
5417 Clouds 22 1018 68 10000 4.6 140 09:18 03.04.2020
5418 Clouds 20 1018 77 10000 4.1 140 08:43 03.04.2020
5419 Clouds 20 1018 77 10000 4.1 140 08:23 03.04.2020
5420 Clouds 20 1018 77 10000 3.6 140 07:51 03.04.2020
5421 Clouds 20 1018 77 10000 3.6 140 07:33 03.04.2020
5422 Clouds 19 1018 82 10000 4.1 150 06:57 03.04.2020
5423 Clouds 19 1018 82 10000 4.1 150 06:27 03.04.2020
5424 Clouds 19 1017 82 10000 3.1 140 05:42 03.04.2020
5425 Clouds 19 1016 82 10000 3.6 130 03:52 03.04.2020
5426 Clouds 19 1016 82 10000 3.6 130 03:31 03.04.2020
5427 Clouds 19 1016 88 10000 3.1 130 02:30 03.04.2020
5428 Clouds 19 1016 88 10000 3.1 100 01:24 03.04.2020
5429 Clouds 20 1017 88 10000 2.6 140 00:43 03.04.2020
5430 Clouds 20 1017 88 10000 2.6 140 00:23 03.04.2020
5431 Clouds 19 1017 93 10000 3.1 110 23:43 02.04.2020
5432 Clouds 19 1017 93 10000 3.1 110 23:24 02.04.2020
5433 Clouds 20 1017 88 10000 2.1 140 22:59 02.04.2020
5434 Clouds 20 1017 88 10000 2.1 140 22:41 02.04.2020
5435 Clouds 20 1017 88 10000 2.1 140 22:21 02.04.2020
5436 Clouds 20 1017 88 10000 2.1 120 21:57 02.04.2020
5437 Clouds 20 1017 88 10000 2.1 120 21:36 02.04.2020
5438 Clouds 20 1017 88 10000 2.1 120 21:18 02.04.2020
5439 Clouds 21 1017 83 10000 2.1 150 20:44 02.04.2020
5440 Clouds 21 1017 83 10000 2.1 150 20:23 02.04.2020
5441 Clouds 20 1016 94 10000 3.1 100 19:55 02.04.2020
5442 Clouds 20 1016 94 10000 3.1 100 19:37 02.04.2020
5443 Clouds 20 1016 94 10000 3.1 100 19:19 02.04.2020
5444 Rain 21 1016 88 10000 5.1 120 18:42 02.04.2020
5445 Rain 21 1016 88 10000 5.1 120 18:21 02.04.2020
5446 Clouds 23 1015 73 10000 5.1 100 17:57 02.04.2020
5447 Clouds 23 1015 73 10000 5.1 100 17:39 02.04.2020
5448 Clouds 23 1015 73 10000 5.1 100 17:20 02.04.2020
5449 Clouds 25 1015 61 10000 2.1 60 16:57 02.04.2020
5450 Clouds 25 1015 61 10000 2.1 60 16:39 02.04.2020
5451 Clouds 25 1015 61 10000 2.1 60 16:21 02.04.2020
5452 Clouds 26 1014 57 10000 2.6 50 15:55 02.04.2020
5453 Clouds 26 1014 57 10000 2.6 50 15:37 02.04.2020
5454 Clouds 26 1014 57 10000 2.6 50 15:18 02.04.2020
5455 Clouds 27 1014 57 10000 3.6 60 14:40 02.04.2020
5456 Clouds 27 1014 57 10000 3.6 60 14:21 02.04.2020
5457 Clouds 27 1015 57 10000 3.1 70 13:58 02.04.2020
5458 Clouds 27 1015 57 10000 3.1 70 13:39 02.04.2020
5459 Clouds 27 1015 57 10000 3.1 70 13:21 02.04.2020
5460 Clouds 27 1016 57 10000 1.5 0 12:57 02.04.2020
5461 Clouds 27 1016 57 10000 1.5 0 12:38 02.04.2020
5462 Clouds 27 1016 57 10000 1.5 0 12:19 02.04.2020
5463 Clouds 27 1016 57 10000 1.5 0 12:19 02.04.2020
5464 Clouds 25 1016 61 10000 1.5 0 11:57 02.04.2020
5465 Clouds 25 1016 61 10000 1.5 0 11:38 02.04.2020
5466 Clouds 25 1016 61 10000 1.5 0 11:19 02.04.2020
5467 Clouds 25 1017 61 10000 2.1 80 10:55 02.04.2020
5468 Clouds 25 1017 61 10000 2.1 80 10:37 02.04.2020
5469 Clouds 25 1017 61 10000 2.1 80 10:37 02.04.2020
5470 Clouds 25 1017 61 10000 2.1 80 10:19 02.04.2020
5471 Clouds 26 1017 57 10000 2.1 0 09:43 02.04.2020
5472 Clouds 26 1017 57 10000 2.1 0 09:25 02.04.2020
5473 Clouds 23 1018 69 10000 2.6 120 08:59 02.04.2020
5474 Clouds 23 1018 69 10000 2.6 120 08:41 02.04.2020
5475 Clouds 23 1018 69 10000 2.6 120 08:22 02.04.2020
5476 Clouds 22 1018 78 10000 2.6 110 07:45 02.04.2020
5477 Clouds 22 1018 78 10000 2.6 110 07:20 02.04.2020
5478 Clouds 20 1017 88 10000 2.1 60 06:58 02.04.2020
5479 Clouds 20 1017 88 10000 2.1 60 06:21 02.04.2020
5480 Clouds 18 1017 93 10000 2.6 100 05:45 02.04.2020
5481 Clouds 19 1016 93 10000 1 0 04:33 02.04.2020
5482 Rain 17 1012 66 0 1.4 141 01:35 02.04.2020
5483 Clouds 20 1017 88 10000 2.6 130 00:48 02.04.2020
5484 Clouds 20 1017 88 10000 2.6 130 00:26 02.04.2020
5485 Clouds 20 1017 94 10000 3.1 100 23:54 01.04.2020
5486 Clouds 20 1017 94 10000 3.1 100 23:36 01.04.2020
5487 Clouds 20 1017 94 10000 3.1 100 23:18 01.04.2020
5488 Clouds 20 1018 94 10000 2.6 100 22:40 01.04.2020
5489 Clouds 20 1018 94 10000 2.6 100 22:21 01.04.2020
5490 Clouds 20 1018 94 10000 2.6 100 21:55 01.04.2020
5491 Clouds 20 1018 94 10000 2.6 100 21:36 01.04.2020
5492 Clouds 20 1018 94 10000 2.6 100 21:18 01.04.2020
5493 Clouds 21 1017 83 10000 2.6 70 20:54 01.04.2020
5494 Clouds 21 1017 83 10000 2.6 70 20:36 01.04.2020
5495 Clouds 21 1017 83 10000 2.6 70 20:18 01.04.2020
5496 Clouds 21 1017 73 10000 2.1 310 19:41 01.04.2020
5497 Clouds 21 1017 73 10000 2.1 310 19:21 01.04.2020
5498 Clouds 22 1017 68 10000 2.1 280 18:46 01.04.2020
5499 Clouds 22 1017 68 10000 2.1 280 18:26 01.04.2020
5500 Clouds 23 1016 64 10000 2.1 300 17:58 01.04.2020
5501 Clouds 23 1016 64 10000 2.1 300 17:39 01.04.2020
5502 Clouds 23 1016 64 10000 2.1 300 17:20 01.04.2020
5503 Clouds 26 1016 54 10000 4.6 290 16:59 01.04.2020
5504 Clouds 26 1016 54 10000 4.6 290 16:40 01.04.2020
5505 Clouds 26 1016 54 10000 4.6 290 16:22 01.04.2020
5506 Clouds 29 1016 42 10000 4.6 310 15:58 01.04.2020
5507 Clouds 29 1016 42 10000 4.6 310 15:38 01.04.2020
5508 Clouds 29 1016 42 10000 4.6 310 15:20 01.04.2020
5509 Clouds 28 1016 45 10000 3.1 290 14:56 01.04.2020
5510 Clouds 28 1016 45 10000 3.1 290 14:38 01.04.2020
5511 Clouds 28 1016 45 10000 3.1 290 14:19 01.04.2020
5512 Clouds 27 1016 54 10000 2.6 220 13:57 01.04.2020
5513 Clouds 27 1016 54 10000 2.6 220 13:37 01.04.2020
5514 Clouds 27 1016 54 10000 2.6 220 13:18 01.04.2020
5515 Clouds 27 1017 54 10000 2.1 0 12:43 01.04.2020
5516 Clouds 27 1017 54 10000 2.1 0 12:24 01.04.2020
5517 Clouds 26 1018 61 10000 2.1 230 11:59 01.04.2020
5518 Clouds 26 1018 61 10000 2.1 230 11:40 01.04.2020
5519 Clouds 26 1018 61 10000 2.1 230 11:21 01.04.2020
5520 Clouds 25 1019 65 10000 2.1 200 10:56 01.04.2020
5521 Clouds 25 1019 65 10000 2.1 200 10:37 01.04.2020
5522 Clouds 25 1019 65 10000 2.1 200 10:18 01.04.2020
5523 Clouds 24 1019 64 10000 1.5 0 09:40 01.04.2020
5524 Clouds 24 1019 64 10000 1.5 0 09:22 01.04.2020
5525 Clouds 24 1019 69 10000 2.1 150 08:59 01.04.2020
5526 Clouds 24 1019 69 10000 2.1 150 08:40 01.04.2020
5527 Clouds 24 1019 69 10000 2.1 150 08:40 01.04.2020
5528 Clouds 23 1020 73 10000 2.6 150 08:18 01.04.2020
5529 Clouds 22 1019 73 10000 2.6 120 07:42 01.04.2020
5530 Clouds 22 1019 73 10000 1.5 120 07:20 01.04.2020
5531 Clouds 21 1019 77 10000 1 0 06:47 01.04.2020
5532 Clouds 19 1019 88 10000 2.1 150 06:22 01.04.2020
5533 Clouds 18 1018 93 10000 2.6 110 05:53 01.04.2020
5534 Clouds 18 1017 93 10000 1.5 150 04:30 01.04.2020
5535 Clouds 19 1017 93 10000 1 0 03:28 01.04.2020
5536 Clouds 19 1017 93 10000 2.1 100 02:49 01.04.2020
5537 Clouds 19 1017 88 10000 2.1 70 01:54 01.04.2020
5538 Clouds 19 1017 88 10000 2.1 70 01:29 01.04.2020
5539 Clouds 19 1018 93 10000 1.5 60 00:58 01.04.2020
5540 Clouds 19 1018 93 10000 1.5 60 00:40 01.04.2020
5541 Clouds 19 1018 93 10000 1.5 60 00:18 01.04.2020
5542 Clouds 20 1018 88 10000 2.1 130 23:41 31.03.2020
5543 Clouds 20 1018 88 10000 2.1 130 23:22 31.03.2020
5544 Clouds 20 1018 88 10000 3.6 130 22:42 31.03.2020
5545 Clouds 20 1018 88 10000 3.6 130 22:22 31.03.2020
5546 Clouds 19 1019 93 10000 3.1 110 21:59 31.03.2020
5547 Clouds 19 1019 93 10000 3.1 110 21:40 31.03.2020
5548 Clouds 19 1019 93 10000 3.1 110 21:22 31.03.2020
5549 Clouds 20 1018 88 10000 3.6 90 20:58 31.03.2020
5550 Clouds 20 1018 88 10000 3.6 90 20:38 31.03.2020
5551 Clouds 20 1018 88 10000 3.6 90 20:20 31.03.2020
5552 Clouds 21 1018 88 10000 3.1 100 19:58 31.03.2020
5553 Clouds 21 1018 88 10000 3.1 100 19:39 31.03.2020
5554 Clouds 21 1018 88 10000 3.1 100 19:21 31.03.2020
5555 Clouds 23 1017 73 10000 5.1 100 18:46 31.03.2020
5556 Clouds 23 1017 73 10000 5.1 100 18:21 31.03.2020
5557 Clouds 25 1016 50 10000 2.1 270 17:58 31.03.2020
5558 Clouds 25 1016 50 10000 2.1 270 17:40 31.03.2020
5559 Clouds 25 1016 50 10000 2.1 270 17:21 31.03.2020
5560 Clouds 25 1016 50 10000 2.1 270 17:21 31.03.2020
5561 Clouds 29 1016 39 10000 2.1 300 16:57 31.03.2020
5562 Clouds 29 1016 39 10000 2.1 300 16:37 31.03.2020
5563 Clouds 29 1016 39 10000 2.1 300 16:18 31.03.2020
5564 Clouds 30 1015 37 10000 3.6 310 15:56 31.03.2020
5565 Clouds 30 1015 37 10000 3.6 310 15:37 31.03.2020
5566 Clouds 30 1015 37 10000 3.6 310 15:18 31.03.2020
5567 Clouds 30 1015 42 10000 1.5 0 14:43 31.03.2020
5568 Clouds 30 1015 42 10000 1.5 0 14:24 31.03.2020
5569 Clouds 28 1015 48 10000 3.6 240 13:59 31.03.2020
5570 Clouds 28 1015 48 10000 3.6 240 13:41 31.03.2020
5571 Clouds 28 1015 48 10000 3.6 240 13:19 31.03.2020
5572 Clouds 28 1015 48 10000 3.6 240 13:19 31.03.2020
5573 Clouds 28 1016 48 10000 1.5 0 12:46 31.03.2020
5574 Clouds 28 1016 48 10000 1.5 0 12:21 31.03.2020
5575 Clouds 28 1016 48 10000 1.5 0 12:21 31.03.2020
5576 Clouds 28 1017 51 10000 1.5 0 11:58 31.03.2020
5577 Clouds 28 1017 51 10000 1.5 0 11:38 31.03.2020
5578 Clouds 28 1017 51 10000 1.5 0 11:19 31.03.2020
5579 Clouds 26 1018 61 10000 2.1 90 10:55 31.03.2020
5580 Clouds 26 1018 61 10000 2.1 90 10:55 31.03.2020
5581 Clouds 26 1018 61 10000 2.1 90 10:37 31.03.2020
5582 Clouds 26 1018 61 10000 2.1 90 10:18 31.03.2020
5583 Clouds 25 1018 65 10000 3.1 120 09:43 31.03.2020
5584 Clouds 25 1018 65 10000 3.1 120 09:25 31.03.2020
5585 Clouds 22 1018 73 10000 2.6 160 08:58 31.03.2020
5586 Clouds 22 1018 73 10000 2.6 160 08:58 31.03.2020
5587 Clouds 22 1018 73 10000 2.6 160 08:40 31.03.2020
5588 Clouds 22 1018 73 10000 2.6 160 08:20 31.03.2020
5589 Clouds 22 1018 73 10000 2.1 180 07:57 31.03.2020
5590 Clouds 22 1018 73 10000 2.1 180 07:38 31.03.2020
5591 Clouds 22 1018 73 10000 2.1 180 07:20 31.03.2020
5592 Clouds 20 1017 82 10000 2.1 140 06:51 31.03.2020
5593 Clouds 20 1017 82 10000 2.1 140 06:30 31.03.2020
5594 Clouds 18 1017 93 10000 3.1 120 05:40 31.03.2020
5595 Clouds 18 1016 93 10000 2.1 80 03:43 31.03.2020
5596 Clouds 19 1016 93 10000 2.1 70 02:25 31.03.2020
5597 Clouds 20 1016 88 10000 3.1 120 01:46 31.03.2020
5598 Clouds 17 1012 66 0 1.5 114 00:52 31.03.2020
5599 Clouds 19 1017 88 10000 3.1 110 00:25 31.03.2020
5600 Clouds 19 1017 88 10000 3.1 110 23:59 30.03.2020
5601 Clouds 19 1017 88 10000 3.1 110 23:38 30.03.2020
5602 Clouds 19 1017 88 10000 3.1 110 23:18 30.03.2020
5603 Clouds 20 1017 88 10000 3.1 110 22:56 30.03.2020
5604 Clouds 20 1017 88 10000 3.1 110 22:37 30.03.2020
5605 Clouds 20 1017 88 10000 3.1 110 22:18 30.03.2020
5606 Clouds 20 1017 94 10000 2.6 90 21:55 30.03.2020
5607 Clouds 20 1017 94 10000 2.6 90 21:36 30.03.2020
5608 Clouds 21 1017 88 10000 2.1 80 21:18 30.03.2020
5609 Clouds 21 1017 88 10000 2.1 80 20:42 30.03.2020
5610 Clouds 21 1017 88 10000 2.1 80 20:42 30.03.2020
5611 Clouds 21 1017 88 10000 2.1 80 20:24 30.03.2020
5612 Clouds 21 1017 88 10000 2.1 80 20:24 30.03.2020
5613 Clouds 22 1016 73 10000 1.5 0 19:59 30.03.2020
5614 Clouds 22 1016 73 10000 1.5 0 19:40 30.03.2020
5615 Clouds 22 1016 73 10000 1.5 0 19:21 30.03.2020
5616 Clouds 22 1015 64 10000 2.6 310 18:57 30.03.2020
5617 Clouds 22 1015 64 10000 2.6 310 18:38 30.03.2020
5618 Clouds 22 1015 64 10000 2.6 310 18:20 30.03.2020
5619 Clouds 25 1014 50 10000 2.6 280 17:56 30.03.2020
5620 Clouds 25 1014 50 10000 2.6 280 17:37 30.03.2020
5621 Clouds 25 1014 50 10000 2.6 280 17:37 30.03.2020
5622 Clouds 25 1014 50 10000 2.6 280 17:18 30.03.2020
5623 Clouds 28 1014 42 10000 2.6 290 16:54 30.03.2020
5624 Clouds 28 1014 42 10000 2.6 290 16:36 30.03.2020
5625 Clouds 28 1014 42 10000 2.6 290 16:36 30.03.2020
5626 Clouds 28 1014 42 10000 2.6 290 16:18 30.03.2020
5627 Clouds 29 1014 37 10000 4.1 300 15:41 30.03.2020
5628 Clouds 29 1014 37 10000 4.1 300 15:22 30.03.2020
5629 Clouds 30 1014 33 10000 3.1 260 14:59 30.03.2020
5630 Clouds 30 1014 33 10000 3.1 260 14:39 30.03.2020
5631 Clouds 30 1014 33 10000 3.1 260 14:19 30.03.2020
5632 Clouds 30 1014 35 10000 3.6 260 13:58 30.03.2020
5633 Clouds 30 1014 35 10000 3.6 260 13:58 30.03.2020
5634 Clouds 30 1014 35 10000 3.6 260 13:39 30.03.2020
5635 Clouds 30 1014 35 10000 3.6 260 13:20 30.03.2020
5636 Clouds 29 1015 42 10000 2.1 210 12:45 30.03.2020
5637 Clouds 29 1015 42 10000 2.1 210 12:22 30.03.2020
5638 Clouds 28 1015 45 10000 1.5 0 11:59 30.03.2020
5639 Clouds 28 1015 45 10000 1.5 0 11:41 30.03.2020
5640 Clouds 28 1015 45 10000 1.5 0 11:22 30.03.2020
5641 Clouds 27 1016 54 10000 2.1 0 10:57 30.03.2020
5642 Clouds 27 1016 54 10000 2.1 0 10:37 30.03.2020
5643 Clouds 27 1016 54 10000 2.1 0 10:19 30.03.2020
5644 Clouds 26 1016 57 10000 1.5 0 09:41 30.03.2020
5645 Clouds 26 1016 57 10000 1.5 0 09:40 30.03.2020
5646 Clouds 26 1016 57 10000 1.5 0 09:20 30.03.2020
5647 Clouds 24 1017 69 10000 1.5 0 08:57 30.03.2020
5648 Clouds 24 1017 69 10000 1.5 0 08:38 30.03.2020
5649 Clouds 24 1017 69 10000 1.5 0 08:19 30.03.2020
5650 Clouds 23 1016 73 10000 1 0 07:43 30.03.2020
5651 Clouds 20 1016 88 10000 0.5 0 07:21 30.03.2020
5652 Clouds 18 1016 100 10000 0.5 0 06:43 30.03.2020
5653 Clouds 17 1016 100 10000 1 0 06:25 30.03.2020
5654 Clouds 17 1016 93 10000 0.5 0 05:43 30.03.2020
5655 Clouds 17 1015 100 10000 2.1 330 04:29 30.03.2020
5656 Clouds 17 1015 93 10000 2.1 310 03:57 30.03.2020
5657 Clouds 17 1015 93 10000 2.6 320 02:45 30.03.2020
5658 Clouds 17 1015 93 10000 2.6 300 01:57 30.03.2020
5659 Clouds 17 1016 93 10000 3.6 300 00:59 30.03.2020
5660 Clouds 17 1016 93 10000 3.6 300 00:28 30.03.2020
5661 Clouds 17 1016 93 10000 2.1 320 23:56 29.03.2020
5662 Clouds 17 1016 93 10000 2.1 320 23:56 29.03.2020
5663 Clouds 17 1016 93 10000 2.1 320 23:37 29.03.2020
5664 Clouds 18 1016 88 10000 1.5 0 23:18 29.03.2020
5665 Clouds 19 1016 88 10000 2.1 330 22:40 29.03.2020
5666 Clouds 19 1016 88 10000 3.1 320 22:20 29.03.2020
5667 Clouds 19 1016 88 10000 2.1 320 21:59 29.03.2020
5668 Clouds 19 1016 88 10000 2.1 320 21:38 29.03.2020
5669 Clouds 19 1017 88 10000 2.6 320 21:20 29.03.2020
5670 Clouds 19 1017 88 10000 2.6 320 20:55 29.03.2020
5671 Clouds 19 1017 88 10000 2.6 320 20:55 29.03.2020
5672 Clouds 19 1017 88 10000 2.6 320 20:37 29.03.2020
5673 Thunderstorm 20 1016 82 10000 3.1 310 20:19 29.03.2020
5674 Thunderstorm 20 1016 77 10000 3.1 290 19:56 29.03.2020
5675 Thunderstorm 20 1016 77 10000 3.1 290 19:38 29.03.2020
5676 Thunderstorm 21 1016 73 10000 3.1 290 19:19 29.03.2020
5677 Thunderstorm 22 1016 68 10000 3.1 270 18:57 29.03.2020
5678 Thunderstorm 22 1016 68 10000 3.1 270 18:38 29.03.2020
5679 Thunderstorm 23 1015 64 10000 3.6 280 18:18 29.03.2020
5680 Thunderstorm 24 1015 64 10000 3.6 280 17:55 29.03.2020
5681 Clouds 25 1014 61 10000 3.6 260 17:36 29.03.2020
5682 Clouds 25 1014 61 10000 3.6 260 17:18 29.03.2020
5683 Clouds 26 1014 57 10000 4.6 270 16:55 29.03.2020
5684 Clouds 26 1014 57 10000 4.6 270 16:36 29.03.2020
5685 Clouds 26 1014 57 10000 4.6 270 16:36 29.03.2020
5686 Clouds 26 1014 57 10000 4.6 270 16:36 29.03.2020
5687 Clouds 28 1014 51 10000 5.7 290 16:18 29.03.2020
5688 Clouds 28 1013 51 10000 4.6 250 15:41 29.03.2020
5689 Clouds 29 1013 45 10000 4.1 250 15:22 29.03.2020
5690 Clouds 29 1014 48 10000 4.6 290 14:57 29.03.2020
5691 Clouds 29 1014 48 10000 4.6 290 14:38 29.03.2020
5692 Clouds 29 1014 51 10000 3.6 270 14:19 29.03.2020
5693 Clouds 29 1014 51 10000 4.6 270 13:56 29.03.2020
5694 Clouds 29 1014 51 10000 4.6 270 13:37 29.03.2020
5695 Clouds 29 1014 51 10000 3.6 290 13:19 29.03.2020
5696 Clouds 29 1015 51 10000 4.1 290 12:55 29.03.2020
5697 Clouds 29 1015 51 10000 4.1 290 12:36 29.03.2020
5698 Clouds 28 1015 54 10000 4.1 270 12:18 29.03.2020
5699 Clouds 28 1015 58 10000 4.1 300 11:39 29.03.2020
5700 Clouds 26 1016 61 10000 4.1 270 11:21 29.03.2020
5701 Clouds 26 1016 65 10000 3.1 260 10:55 29.03.2020
5702 Clouds 26 1017 61 10000 2.6 270 10:37 29.03.2020
5703 Clouds 26 1017 61 10000 2.6 270 10:18 29.03.2020
5704 Clouds 24 1017 69 10000 2.6 240 09:39 29.03.2020
5705 Clouds 25 1017 69 10000 3.1 320 09:19 29.03.2020
5706 Clouds 24 1018 73 10000 2.1 0 08:52 29.03.2020
5707 Clouds 23 1018 78 10000 1.5 300 08:28 29.03.2020
5708 Clouds 22 1017 83 10000 1 0 07:56 29.03.2020
5709 Clouds 22 1017 83 10000 1 0 07:38 29.03.2020
5710 Clouds 21 1017 88 10000 0.5 0 07:19 29.03.2020
5711 Clouds 18 1016 100 10000 0.5 290 04:59 29.03.2020
5712 Clouds 18 1016 100 10000 0.19 355 03:42 29.03.2020
5713 Clouds 18 1016 100 10000 0.19 355 03:24 29.03.2020
5714 Clouds 19 1017 93 10000 1.5 90 01:50 29.03.2020
5715 Clouds 19 1017 93 10000 1.5 90 01:23 29.03.2020
5716 Clouds 19 1017 93 10000 1.5 0 00:53 29.03.2020
5717 Clouds 19 1017 93 10000 1.5 0 00:29 29.03.2020
5718 Clouds 19 1017 93 10000 0.5 0 23:41 28.03.2020
5719 Clouds 19 1017 93 10000 0.5 0 23:41 28.03.2020
5720 Clouds 19 1017 93 10000 0.5 0 23:23 28.03.2020
5721 Clouds 19 1018 93 10000 2.1 60 22:56 28.03.2020
5722 Clouds 19 1018 93 10000 2.1 60 22:37 28.03.2020
5723 Clouds 19 1018 93 10000 2.1 60 22:18 28.03.2020
5724 Thunderstorm 20 1019 88 10000 2.1 130 21:41 28.03.2020
5725 Thunderstorm 20 1019 88 10000 2.1 130 21:23 28.03.2020
5726 Thunderstorm 20 1019 88 10000 2.1 100 20:58 28.03.2020
5727 Thunderstorm 20 1019 88 10000 2.1 100 20:39 28.03.2020
5728 Thunderstorm 20 1019 88 10000 2.1 100 20:20 28.03.2020
5729 Clouds 20 1019 88 10000 2.6 80 19:56 28.03.2020
5730 Clouds 20 1019 88 10000 2.6 80 19:36 28.03.2020
5731 Clouds 20 1019 88 10000 2.6 80 19:18 28.03.2020
5732 Clouds 21 1018 83 10000 2.6 80 18:47 28.03.2020
5733 Clouds 21 1018 83 10000 2.6 80 18:22 28.03.2020
5734 Clouds 21 1017 83 10000 2.6 60 17:58 28.03.2020
5735 Clouds 21 1017 83 10000 2.6 60 17:38 28.03.2020
5736 Clouds 21 1017 83 10000 2.6 60 17:18 28.03.2020
5737 Clouds 22 1017 78 10000 2.1 30 16:42 28.03.2020
5738 Clouds 22 1017 78 10000 2.1 30 16:20 28.03.2020
5739 Clouds 24 1017 69 10000 2.1 50 15:55 28.03.2020
5740 Clouds 24 1017 69 10000 2.1 50 15:37 28.03.2020
5741 Clouds 24 1017 69 10000 2.1 50 15:18 28.03.2020
5742 Clouds 26 1017 57 10000 4.1 50 14:42 28.03.2020
5743 Clouds 26 1017 57 10000 4.1 50 14:22 28.03.2020
5744 Clouds 27 1017 57 10000 2.6 90 13:46 28.03.2020
5745 Clouds 27 1017 57 10000 2.6 90 13:26 28.03.2020
5746 Clouds 26 1018 61 10000 2.6 130 12:57 28.03.2020
5747 Clouds 26 1018 61 10000 2.6 130 12:37 28.03.2020
5748 Clouds 26 1018 61 10000 2.6 130 12:18 28.03.2020
5749 Clouds 26 1018 61 10000 3.6 120 11:42 28.03.2020
5750 Clouds 26 1018 61 10000 3.6 120 11:21 28.03.2020
5751 Clouds 25 1019 61 10000 4.1 90 10:41 28.03.2020
5752 Clouds 25 1019 61 10000 4.1 90 10:22 28.03.2020
5753 Clouds 25 1020 65 10000 4.1 80 09:59 28.03.2020
5754 Clouds 25 1020 65 10000 4.1 80 09:39 28.03.2020
5755 Clouds 25 1020 65 10000 4.1 80 09:20 28.03.2020
5756 Clouds 24 1020 64 10000 2.6 120 08:42 28.03.2020
5757 Clouds 24 1020 64 10000 2.6 120 08:23 28.03.2020
5758 Clouds 22 1020 78 10000 3.1 100 07:49 28.03.2020
5759 Clouds 22 1020 78 10000 3.1 100 07:31 28.03.2020
5760 Clouds 20 1020 82 10000 3.6 150 06:42 28.03.2020
5761 Clouds 20 1020 82 10000 3.6 150 06:18 28.03.2020
5762 Clouds 19 1019 93 10000 1.5 0 05:23 28.03.2020
5763 Clouds 19 1019 93 10000 2.1 90 04:43 28.03.2020
5764 Clouds 18 1019 93 10000 2.6 110 04:20 28.03.2020
5765 Clouds 18 1018 93 10000 2.1 130 02:33 28.03.2020
5766 Clouds 19 1018 93 10000 2.1 140 01:45 28.03.2020
5767 Clouds 19 1018 93 10000 2.1 160 01:20 28.03.2020
5768 Clouds 19 1019 93 10000 1 170 00:46 28.03.2020
5769 Clouds 19 1019 93 10000 1 0 00:20 28.03.2020
5770 Clouds 19 1019 93 10000 1 0 23:42 27.03.2020
5771 Rain 19 1019 93 10000 2.1 160 23:22 27.03.2020
5772 Clouds 19 1019 93 10000 1 0 22:56 27.03.2020
5773 Clouds 19 1019 93 10000 1 0 22:38 27.03.2020
5774 Rain 19 1019 88 10000 3.1 110 22:20 27.03.2020
5775 Rain 19 1019 88 10000 3.1 110 22:20 27.03.2020
5776 Rain 19 1021 100 8000 2.1 180 21:45 27.03.2020
5777 Rain 20 1021 88 5000 2.6 120 21:26 27.03.2020
5778 Clouds 20 1021 88 10000 4.6 100 20:59 27.03.2020
5779 Clouds 20 1021 88 10000 4.6 100 20:41 27.03.2020
5780 Clouds 20 1021 88 10000 4.1 110 20:21 27.03.2020
5781 Clouds 21 1020 83 10000 3.6 120 19:58 27.03.2020
5782 Clouds 21 1020 83 10000 3.6 120 19:40 27.03.2020
5783 Clouds 21 1020 88 10000 4.1 120 19:21 27.03.2020
5784 Clouds 21 1020 88 10000 2.6 140 18:45 27.03.2020
5785 Thunderstorm 21 1020 88 8000 2.6 150 18:26 27.03.2020
5786 Thunderstorm 21 1019 88 8000 3.1 150 17:59 27.03.2020
5787 Thunderstorm 21 1019 88 8000 3.1 150 17:40 27.03.2020
5788 Thunderstorm 21 1019 88 8000 1.5 170 17:20 27.03.2020
5789 Thunderstorm 22 1018 83 10000 3.1 160 16:44 27.03.2020
5790 Thunderstorm 23 1018 73 10000 3.6 170 16:26 27.03.2020
5791 Thunderstorm 23 1017 73 10000 5.1 100 15:56 27.03.2020
5792 Thunderstorm 23 1017 73 10000 5.1 100 15:38 27.03.2020
5793 Thunderstorm 24 1017 69 10000 4.6 120 15:20 27.03.2020
5794 Thunderstorm 25 1017 61 10000 4.6 160 14:45 27.03.2020
5795 Clouds 26 1016 61 10000 5.7 120 14:24 27.03.2020
5796 Clouds 27 1016 57 10000 5.1 130 13:56 27.03.2020
5797 Clouds 27 1016 57 10000 5.1 130 13:37 27.03.2020
5798 Clouds 28 1016 58 10000 5.7 130 13:18 27.03.2020
5799 Clouds 29 1016 51 10000 4.1 110 12:43 27.03.2020
5800 Clouds 28 1017 58 10000 3.1 100 12:19 27.03.2020
5801 Clouds 28 1017 58 10000 2.6 120 11:57 27.03.2020
5802 Clouds 28 1017 58 10000 2.6 120 11:39 27.03.2020
5803 Clouds 28 1018 54 10000 3.1 110 11:21 27.03.2020
5804 Clouds 28 1018 58 10000 4.6 80 10:42 27.03.2020
5805 Clouds 28 1019 58 10000 2.1 0 10:22 27.03.2020
5806 Clouds 27 1019 57 10000 2.1 130 09:59 27.03.2020
5807 Clouds 27 1019 57 10000 2.1 130 09:41 27.03.2020
5808 Clouds 26 1019 61 10000 2.6 0 09:22 27.03.2020
5809 Clouds 25 1020 65 10000 2.6 100 08:59 27.03.2020
5810 Clouds 25 1020 65 10000 2.6 100 08:40 27.03.2020
5811 Clouds 24 1020 69 10000 2.1 70 08:22 27.03.2020
5812 Clouds 23 1020 73 10000 2.6 100 07:57 27.03.2020
5813 Clouds 23 1020 73 10000 2.6 100 07:57 27.03.2020
5814 Clouds 23 1020 73 10000 2.6 100 07:38 27.03.2020
5815 Clouds 21 1020 83 10000 2.1 130 07:20 27.03.2020
5816 Clouds 20 1020 82 10000 1.5 190 06:39 27.03.2020
5817 Clouds 19 1019 88 10000 2.1 120 05:45 27.03.2020
5818 Clouds 18 1018 93 10000 1.5 0 03:26 27.03.2020
5819 Clouds 18 1017 93 10000 1.5 100 01:55 27.03.2020
5820 Clouds 19 1018 88 10000 2.6 110 00:58 27.03.2020
5821 Clouds 19 1018 88 10000 2.6 110 00:37 27.03.2020
5822 Clouds 19 1018 88 10000 2.6 110 00:18 27.03.2020
5823 Clouds 19 1018 88 10000 2.6 110 00:18 27.03.2020
5824 Thunderstorm 20 1018 88 10000 2.6 130 23:36 26.03.2020
5825 Thunderstorm 20 1018 88 10000 2.6 130 23:18 26.03.2020
5826 Thunderstorm 19 1018 93 10000 2.1 90 22:54 26.03.2020
5827 Thunderstorm 19 1018 93 10000 2.1 90 22:36 26.03.2020
5828 Thunderstorm 19 1018 93 10000 2.1 90 22:18 26.03.2020
5829 Thunderstorm 19 1018 93 10000 1.5 50 21:39 26.03.2020
5830 Thunderstorm 20 1018 88 10000 2.6 60 21:21 26.03.2020
5831 Thunderstorm 20 1018 88 10000 3.1 50 20:58 26.03.2020
5832 Thunderstorm 20 1018 88 10000 3.1 50 20:39 26.03.2020
5833 Thunderstorm 20 1018 88 10000 2.1 50 20:20 26.03.2020
5834 Thunderstorm 20 1018 88 10000 3.1 80 19:57 26.03.2020
5835 Thunderstorm 20 1018 88 10000 3.1 80 19:39 26.03.2020
5836 -273 0 0 0 0 0 19:20 26.03.2020
5837 Thunderstorm 20 1018 88 10000 2.6 70 19:20 26.03.2020
5838 Thunderstorm 20 1018 88 10000 3.6 90 18:58 26.03.2020
5839 Thunderstorm 20 1018 88 10000 3.6 90 18:58 26.03.2020
5840 Thunderstorm 20 1018 88 10000 3.6 90 18:39 26.03.2020
5841 Thunderstorm 21 1017 88 10000 3.1 70 18:21 26.03.2020
5842 Thunderstorm 21 1017 88 10000 3.6 100 17:43 26.03.2020
5843 Thunderstorm 22 1016 83 10000 4.1 80 17:19 26.03.2020
5844 Clouds 22 1015 83 10000 1.5 0 16:46 26.03.2020
5845 Clouds 23 1014 73 10000 2.1 80 16:28 26.03.2020
5846 Clouds 24 1015 69 10000 2.6 90 15:59 26.03.2020
5847 Clouds 24 1015 69 10000 2.6 90 15:41 26.03.2020
5848 Clouds 25 1015 65 10000 2.6 80 15:22 26.03.2020
5849 Clouds 25 1014 65 10000 2.6 60 14:58 26.03.2020
5850 Clouds 25 1014 65 10000 2.6 60 14:39 26.03.2020
5851 Clouds 27 1014 57 10000 3.1 60 14:19 26.03.2020
5852 Clouds 26 1014 61 10000 4.1 70 13:43 26.03.2020
5853 Clouds 26 1015 61 10000 3.6 60 13:23 26.03.2020
5854 Clouds 26 1015 61 10000 3.6 70 12:57 26.03.2020
5855 Clouds 26 1015 61 10000 3.6 70 12:38 26.03.2020
5856 Clouds 26 1015 57 10000 3.1 50 12:19 26.03.2020
5857 Clouds 27 1015 54 10000 2.6 80 11:45 26.03.2020
5858 Clouds 27 1016 54 10000 2.6 60 11:21 26.03.2020
5859 Clouds 28 1016 54 10000 2.1 0 10:56 26.03.2020
5860 Clouds 28 1016 54 10000 2.1 0 10:37 26.03.2020
5861 Clouds 27 1016 54 10000 2.1 60 10:18 26.03.2020
5862 Clouds 27 1017 54 10000 2.1 80 09:43 26.03.2020
5863 Clouds 26 1017 57 10000 2.1 0 09:19 26.03.2020
5864 Clouds 26 1017 57 10000 2.1 0 09:19 26.03.2020
5865 Clouds 25 1017 65 10000 1.5 10 08:54 26.03.2020
5866 Clouds 25 1017 65 10000 1.5 10 08:36 26.03.2020
5867 Clouds 25 1017 61 10000 1.5 0 08:18 26.03.2020
5868 Clouds 24 1017 64 10000 2.6 0 07:41 26.03.2020
5869 Clouds 21 1017 77 10000 2.1 90 07:20 26.03.2020
5870 Clouds 21 1017 77 10000 2.1 90 07:20 26.03.2020
5871 Clouds 21 1017 77 10000 2.6 80 06:47 26.03.2020
5872 Clouds 19 1017 88 10000 2.1 60 05:52 26.03.2020
5873 Clouds 18 1015 93 10000 3.1 90 03:58 26.03.2020
5874 Clouds 18 1015 93 10000 3.1 90 03:35 26.03.2020
5875 Clouds 18 1015 93 10000 4.1 80 02:53 26.03.2020
5876 Clouds 18 1014 93 10000 1.5 90 01:44 26.03.2020
5877 Clouds 19 1015 93 10000 2.6 120 00:45 26.03.2020
5878 Clouds 19 1016 93 10000 3.1 100 23:47 25.03.2020
5879 Clouds 20 1016 88 10000 3.1 110 23:28 25.03.2020
5880 Clouds 20 1017 88 10000 2.6 100 22:58 25.03.2020
5881 Clouds 20 1017 88 10000 2.6 100 22:38 25.03.2020
5882 Clouds 20 1017 88 10000 1.5 140 22:19 25.03.2020
5883 Clouds 20 1017 88 10000 2.1 130 21:55 25.03.2020
5884 Clouds 20 1017 88 10000 2.1 130 21:37 25.03.2020
5885 Clouds 20 1017 88 10000 2.1 90 21:18 25.03.2020
5886 Clouds 20 1017 88 10000 3.1 90 20:39 25.03.2020
5887 Clouds 20 1017 88 10000 3.1 90 20:20 25.03.2020
5888 Clouds 20 1017 88 10000 3.1 80 19:57 25.03.2020
5889 Clouds 20 1017 88 10000 3.1 80 19:38 25.03.2020
5890 Clouds 21 1017 83 10000 4.1 90 19:20 25.03.2020
5891 Clouds 21 1017 83 10000 4.6 120 18:54 25.03.2020
5892 Clouds 21 1017 83 10000 4.6 120 18:36 25.03.2020
5893 Clouds 21 1016 83 10000 4.1 130 18:18 25.03.2020
5894 Clouds 21 1016 83 10000 3.1 80 17:41 25.03.2020
5895 Clouds 21 1016 83 10000 3.1 80 17:22 25.03.2020
5896 Clouds 22 1015 73 10000 2.6 90 16:58 25.03.2020
5897 Clouds 22 1015 78 10000 3.6 90 16:39 25.03.2020
5898 Clouds 22 1015 78 10000 3.6 90 16:20 25.03.2020
5899 Clouds 24 1015 69 10000 3.6 80 15:43 25.03.2020
5900 Clouds 25 1015 61 10000 4.1 90 15:21 25.03.2020
5901 Clouds 26 1014 57 10000 4.6 100 14:59 25.03.2020
5902 Clouds 26 1014 57 10000 4.6 100 14:40 25.03.2020
5903 Clouds 26 1014 57 10000 4.6 100 14:20 25.03.2020
5904 Clouds 27 1015 54 10000 3.6 130 13:44 25.03.2020
5905 Clouds 27 1015 54 10000 3.6 130 13:24 25.03.2020
5906 Clouds 26 1015 54 10000 4.1 110 12:39 25.03.2020
5907 Clouds 27 1015 54 10000 4.6 120 12:21 25.03.2020
5908 Clouds 26 1016 57 10000 5.1 120 11:59 25.03.2020
5909 Clouds 26 1016 57 10000 5.1 120 11:40 25.03.2020
5910 Clouds 26 1016 57 10000 3.6 140 11:21 25.03.2020
5911 Clouds 26 1016 61 10000 4.1 110 10:58 25.03.2020
5912 Clouds 26 1016 61 10000 4.1 110 10:40 25.03.2020
5913 Clouds 26 1017 61 10000 3.6 170 10:18 25.03.2020
5914 Clouds 25 1017 61 10000 2.6 180 09:56 25.03.2020
5915 Clouds 25 1017 61 10000 2.6 180 09:38 25.03.2020
5916 Clouds 24 1018 64 10000 3.1 140 09:19 25.03.2020
5917 Clouds 24 1018 64 10000 4.1 140 08:41 25.03.2020
5918 Clouds 23 1019 64 10000 4.1 110 08:23 25.03.2020
5919 Clouds 22 1019 73 10000 4.1 120 07:55 25.03.2020
5920 Clouds 22 1019 73 10000 4.1 120 07:36 25.03.2020
5921 Clouds 20 1019 77 10000 2.6 130 07:18 25.03.2020
5922 Clouds 20 1019 72 10000 3.6 160 06:41 25.03.2020
5923 Clouds 20 1019 77 10000 3.1 180 06:22 25.03.2020
5924 Clouds 19 1018 82 10000 2.6 180 05:47 25.03.2020
5925 Clouds 16 1018 93 10000 3.1 160 04:42 25.03.2020
5926 Clouds 15 1018 100 10000 1 160 03:57 25.03.2020
5927 Clouds 15 1018 100 10000 0.5 0 03:32 25.03.2020
5928 Clouds 16 1018 93 10000 1 0 01:40 25.03.2020
5929 Clouds 16 1018 93 10000 2.1 140 00:50 25.03.2020
5930 Clouds 16 1018 93 10000 1 0 00:27 25.03.2020
5931 Clouds 16 1018 93 10000 2.1 120 23:55 24.03.2020
5932 Clouds 17 1019 88 10000 2.1 120 23:28 24.03.2020
5933 Clouds 17 1019 88 10000 1.5 140 22:58 24.03.2020
5934 Clouds 17 1019 88 10000 1.5 140 22:38 24.03.2020
5935 Clouds 17 1019 88 10000 1.5 140 22:38 24.03.2020
5936 Clouds 18 1019 88 10000 2.6 140 22:20 24.03.2020
5937 Clouds 18 1020 88 10000 3.1 130 21:58 24.03.2020
5938 Clouds 18 1020 88 10000 3.1 130 21:40 24.03.2020
5939 Clouds 19 1020 82 10000 3.6 140 21:18 24.03.2020
5940 Clouds 19 1020 82 10000 3.6 140 21:18 24.03.2020
5941 Clouds 18 1020 88 10000 3.1 150 20:58 24.03.2020
5942 Clouds 18 1020 88 10000 3.1 150 20:39 24.03.2020
5943 Clouds 18 1020 88 10000 4.1 110 20:21 24.03.2020
5944 Clouds 18 1020 88 10000 4.1 110 19:46 24.03.2020
5945 Clouds 19 1020 82 10000 4.6 130 19:20 24.03.2020
5946 Clouds 19 1020 82 10000 4.1 140 18:56 24.03.2020
5947 Clouds 19 1020 82 10000 4.1 140 18:38 24.03.2020
5948 Clouds 19 1020 88 10000 5.1 130 18:19 24.03.2020
5949 Clouds 19 1019 88 10000 4.1 110 17:56 24.03.2020
5950 Clouds 19 1019 88 10000 4.1 110 17:38 24.03.2020
5951 Clouds 20 1019 77 10000 4.6 110 17:19 24.03.2020
5952 Clouds 21 1019 73 10000 6.2 100 16:56 24.03.2020
5953 Clouds 21 1019 73 10000 6.2 100 16:37 24.03.2020
5954 Clouds 22 1018 68 10000 5.1 110 16:19 24.03.2020
5955 Clouds 23 1018 60 10000 4.6 140 15:42 24.03.2020
5956 Clouds 24 1018 57 10000 4.1 150 15:23 24.03.2020
5957 Clouds 25 1018 53 10000 5.7 120 14:44 24.03.2020
5958 Clouds 25 1018 57 10000 6.7 110 14:22 24.03.2020
5959 Clouds 25 1018 57 10000 6.2 110 13:58 24.03.2020
5960 Clouds 25 1018 57 10000 6.2 110 13:40 24.03.2020
5961 Clouds 26 1018 54 10000 5.1 110 13:21 24.03.2020
5962 Clouds 25 1019 53 10000 3.6 130 12:42 24.03.2020
5963 Clouds 25 1019 57 10000 3.6 120 12:23 24.03.2020
5964 Clouds 24 1019 60 10000 3.6 130 11:41 24.03.2020
5965 Clouds 25 1020 61 10000 4.1 120 11:21 24.03.2020
5966 Clouds 25 1020 61 10000 4.1 120 10:59 24.03.2020
5967 Clouds 25 1020 61 10000 4.1 120 10:40 24.03.2020
5968 Clouds 25 1020 61 10000 4.1 120 10:40 24.03.2020
5969 Clouds 23 1021 64 10000 3.1 150 10:18 24.03.2020
5970 Clouds 23 1021 64 10000 3.1 150 10:18 24.03.2020
5971 Clouds 23 1021 64 10000 3.1 150 10:18 24.03.2020
5972 Clouds 24 1021 60 10000 3.1 0 09:44 24.03.2020
5973 Clouds 23 1022 64 10000 4.6 170 09:25 24.03.2020
5974 Clouds 23 1022 64 10000 4.6 160 08:57 24.03.2020
5975 Clouds 23 1022 69 10000 4.1 160 08:37 24.03.2020
5976 Clouds 23 1022 69 10000 4.1 160 08:18 24.03.2020
5977 Clouds 21 1022 77 10000 4.1 170 07:44 24.03.2020
5978 Clouds 20 1022 77 10000 4.6 140 07:22 24.03.2020
5979 Clouds 20 1022 77 10000 4.6 140 07:22 24.03.2020
5980 Clouds 20 1022 77 10000 3.1 150 06:38 24.03.2020
5981 Clouds 19 1022 82 10000 3.6 130 05:42 24.03.2020
5982 Clouds 18 1022 88 10000 3.1 130 04:51 24.03.2020
5983 Clouds 17 1021 93 10000 2.1 150 03:21 24.03.2020
5984 Clouds 17 1021 88 10000 2.1 140 02:37 24.03.2020
5985 Clouds 18 1021 82 10000 2.6 160 00:54 24.03.2020
5986 Clouds 18 1022 88 10000 3.6 170 00:27 24.03.2020
5987 Clouds 18 1022 88 10000 2.1 140 23:55 23.03.2020
5988 Clouds 18 1022 88 10000 2.1 140 23:37 23.03.2020
5989 Clouds 18 1022 88 10000 2.1 140 23:19 23.03.2020
5990 Clouds 18 1023 88 10000 2.6 130 22:43 23.03.2020
5991 Clouds 18 1023 88 10000 3.6 120 22:22 23.03.2020
5992 Clouds 18 1024 88 10000 4.1 110 21:55 23.03.2020
5993 Clouds 18 1024 88 10000 4.1 110 21:37 23.03.2020
5994 Clouds 19 1024 82 10000 4.1 130 21:18 23.03.2020
5995 Clouds 19 1024 82 10000 3.6 120 20:42 23.03.2020
5996 Clouds 19 1024 82 10000 3.6 120 20:24 23.03.2020
5997 Clouds 19 1024 82 10000 4.6 120 19:55 23.03.2020
5998 Clouds 19 1024 82 10000 4.6 120 19:37 23.03.2020
5999 Clouds 19 1024 88 10000 5.1 110 19:19 23.03.2020
6000 Rain 19 1024 88 10000 4.6 110 18:43 23.03.2020
6001 Clouds 19 1023 88 10000 5.1 100 18:24 23.03.2020
6002 Clouds 20 1023 82 10000 5.7 110 17:59 23.03.2020
6003 Clouds 20 1023 82 10000 5.7 110 17:40 23.03.2020
6004 Clouds 19 1023 88 10000 5.1 100 17:19 23.03.2020
6005 Clouds 20 1022 82 10000 4.1 100 16:43 23.03.2020
6006 Clouds 21 1022 77 10000 5.1 120 16:25 23.03.2020
6007 Clouds 21 1022 77 10000 5.1 120 16:25 23.03.2020
6008 Clouds 22 1022 68 10000 5.7 120 15:54 23.03.2020
6009 Clouds 22 1022 68 10000 5.7 120 15:36 23.03.2020
6010 Clouds 24 1021 60 10000 4.6 120 15:18 23.03.2020
6011 Clouds 24 1021 60 10000 4.6 120 15:18 23.03.2020
6012 Clouds 23 1021 64 10000 5.1 120 14:37 23.03.2020
6013 Clouds 25 1021 57 10000 4.6 150 14:19 23.03.2020
6014 Clouds 25 1021 57 10000 4.6 150 14:19 23.03.2020
6015 Clouds 26 1021 57 10000 4.1 150 13:55 23.03.2020
6016 Clouds 26 1021 57 10000 4.1 150 13:37 23.03.2020
6017 Clouds 26 1021 54 10000 4.1 150 13:19 23.03.2020
6018 Clouds 26 1021 54 10000 4.6 140 12:42 23.03.2020
6019 Clouds 26 1021 54 10000 5.7 120 12:22 23.03.2020
6020 Clouds 26 1021 54 10000 5.7 120 12:22 23.03.2020
6021 Clouds 26 1021 54 10000 4.6 130 11:56 23.03.2020
6022 Clouds 26 1021 54 10000 4.6 130 11:37 23.03.2020
6023 Clouds 26 1021 54 10000 4.6 130 11:37 23.03.2020
6024 Clouds 26 1022 57 10000 5.1 130 11:18 23.03.2020
6025 Clouds 25 1022 61 10000 5.1 130 10:42 23.03.2020
6026 Clouds 24 1023 64 10000 3.6 170 10:23 23.03.2020
6027 Clouds 24 1023 60 10000 3.1 150 09:59 23.03.2020
6028 Clouds 24 1023 60 10000 3.1 150 09:41 23.03.2020
6029 Clouds 21 1023 73 10000 3.6 170 09:19 23.03.2020
6030 Clouds 21 1024 73 10000 3.6 150 08:38 23.03.2020
6031 Clouds 21 1024 68 10000 3.6 150 08:20 23.03.2020
6032 Clouds 20 1024 68 10000 2.6 160 07:51 23.03.2020
6033 Clouds 19 1024 72 10000 3.6 150 07:33 23.03.2020
6034 Clouds 19 1024 72 10000 3.6 120 06:55 23.03.2020
6035 Clouds 18 1024 77 10000 2.1 150 06:33 23.03.2020
6036 Clouds 17 1024 82 10000 2.1 170 05:44 23.03.2020
6037 Clouds 14 1022 93 10000 2.1 120 03:54 23.03.2020
6038 Clouds 15 1022 93 10000 2.6 140 02:44 23.03.2020
6039 Clouds 16 1022 87 10000 3.1 140 01:50 23.03.2020
6040 Clouds 17 1022 82 10000 3.6 150 00:46 23.03.2020
6041 Clouds 17 1023 88 10000 4.6 150 00:26 23.03.2020
6042 Clouds 17 1023 82 10000 4.1 150 23:42 22.03.2020
6043 Clouds 18 1023 82 10000 4.1 150 23:24 22.03.2020
6044 Clouds 18 1024 82 10000 2.6 150 22:41 22.03.2020
6045 Clouds 17 1023 88 10000 2.6 140 22:20 22.03.2020
6046 Clouds 17 1024 88 10000 3.1 140 21:41 22.03.2020
6047 Clouds 17 1024 88 10000 3.1 150 21:23 22.03.2020
6048 Clouds 17 1024 88 10000 3.1 130 20:59 22.03.2020
6049 Clouds 17 1024 88 10000 3.1 130 20:40 22.03.2020
6050 Clouds 18 1024 82 10000 4.1 120 20:22 22.03.2020
6051 Clouds 18 1024 88 10000 4.1 120 19:56 22.03.2020
6052 Clouds 18 1024 88 10000 4.1 120 19:38 22.03.2020
6053 Clouds 18 1024 88 10000 3.1 130 19:19 22.03.2020
6054 Clouds 19 1024 82 10000 5.1 110 18:57 22.03.2020
6055 Clouds 19 1024 82 10000 5.1 110 18:39 22.03.2020
6056 Clouds 19 1023 82 10000 4.6 90 18:19 22.03.2020
6057 Clouds 20 1023 77 10000 3.1 110 17:56 22.03.2020
6058 Clouds 20 1023 77 10000 3.1 110 17:37 22.03.2020
6059 Clouds 19 1023 82 10000 5.1 110 17:19 22.03.2020
6060 Clouds 20 1022 72 10000 5.1 130 16:55 22.03.2020
6061 Clouds 20 1022 72 10000 5.1 130 16:37 22.03.2020
6062 Clouds 20 1022 77 10000 6.2 110 16:19 22.03.2020
6063 Clouds 21 1022 73 10000 4.6 100 15:39 22.03.2020
6064 Clouds 22 1022 64 10000 6.2 120 15:19 22.03.2020
6065 Clouds 24 1021 57 10000 6.7 120 14:46 22.03.2020
6066 Clouds 23 1021 60 10000 7.2 110 14:18 22.03.2020
6067 Clouds 23 1021 64 10000 6.7 110 13:42 22.03.2020
6068 Clouds 23 1021 69 10000 6.2 100 13:20 22.03.2020
6069 -273 0 0 0 0 0 12:47 22.03.2020
6070 Clouds 23 1021 69 10000 5.1 120 12:23 22.03.2020
6071 Clouds 23 1021 69 10000 5.1 120 12:23 22.03.2020
6072 Clouds 23 1021 69 10000 5.1 120 12:23 22.03.2020
6073 Clouds 23 1021 69 10000 5.7 110 11:59 22.03.2020
6074 Clouds 23 1021 69 10000 5.7 110 11:41 22.03.2020
6075 Clouds 23 1022 64 10000 4.6 130 11:23 22.03.2020
6076 Clouds 23 1022 64 10000 3.6 130 10:57 22.03.2020
6077 Clouds 23 1022 64 10000 3.6 130 10:39 22.03.2020
6078 Clouds 22 1022 68 10000 4.6 150 10:20 22.03.2020
6079 Clouds 22 1023 68 10000 5.1 140 09:42 22.03.2020
6080 Clouds 21 1023 73 10000 4.1 140 09:22 22.03.2020
6081 Clouds 21 1023 73 10000 4.6 120 08:44 22.03.2020
6082 Clouds 21 1023 73 10000 4.6 140 08:24 22.03.2020
6083 Clouds 21 1023 73 10000 4.6 110 07:52 22.03.2020
6084 Clouds 20 1023 82 10000 3.1 130 07:26 22.03.2020
6085 Clouds 19 1023 82 10000 3.6 170 06:35 22.03.2020
6086 Clouds 18 1022 88 10000 3.1 110 05:35 22.03.2020
6087 Clouds 18 1021 93 10000 5.1 90 03:30 22.03.2020
6088 Clouds 18 1020 93 10000 3.1 100 01:27 22.03.2020
6089 Clouds 19 1020 88 10000 4.1 120 00:48 22.03.2020
6090 Clouds 19 1021 88 10000 4.6 130 00:28 22.03.2020
6091 Clouds 19 1021 88 10000 4.6 130 23:43 21.03.2020
6092 Clouds 19 1021 88 10000 3.6 130 23:19 21.03.2020
6093 Clouds 19 1021 88 10000 3.6 130 23:19 21.03.2020
6094 Clouds 19 1021 88 10000 3.1 90 22:55 21.03.2020
6095 Clouds 19 1021 88 10000 3.1 90 22:36 21.03.2020
6096 Clouds 19 1021 88 10000 4.6 90 22:18 21.03.2020
6097 Clouds 19 1022 88 10000 3.1 110 21:41 21.03.2020
6098 Clouds 19 1022 88 10000 3.6 120 21:23 21.03.2020
6099 Clouds 20 1022 88 10000 5.1 130 20:56 21.03.2020
6100 Clouds 20 1022 88 10000 5.1 130 20:38 21.03.2020
6101 Clouds 20 1022 82 10000 4.6 130 20:19 21.03.2020
6102 Clouds 20 1022 88 10000 4.1 130 19:43 21.03.2020
6103 Clouds 20 1022 88 10000 3.6 120 19:24 21.03.2020
6104 Clouds 20 1022 88 10000 3.6 120 19:24 21.03.2020
6105 Clouds 20 1021 88 10000 4.1 100 18:55 21.03.2020
6106 Clouds 20 1021 88 10000 4.1 100 18:37 21.03.2020
6107 Clouds 20 1021 88 10000 5.1 100 18:19 21.03.2020
6108 Clouds 21 1020 83 10000 5.7 110 17:55 21.03.2020
6109 Clouds 21 1020 83 10000 5.7 110 17:37 21.03.2020
6110 Clouds 21 1020 83 10000 5.7 100 17:18 21.03.2020
6111 Rain 21 1019 88 10000 5.1 100 16:40 21.03.2020
6112 Rain 22 1019 83 10000 7.7 120 16:19 21.03.2020
6113 Clouds 23 1018 73 10000 5.7 110 15:55 21.03.2020
6114 Clouds 23 1018 73 10000 5.7 110 15:36 21.03.2020
6115 Clouds 25 1018 65 10000 2.1 40 15:18 21.03.2020
6116 Clouds 26 1018 61 10000 4.1 40 14:54 21.03.2020
6117 Clouds 26 1018 61 10000 4.1 40 14:36 21.03.2020
6118 Clouds 27 1018 57 10000 3.6 50 14:18 21.03.2020
6119 Clouds 27 1018 57 10000 4.6 40 13:54 21.03.2020
6120 Clouds 27 1018 57 10000 4.6 40 13:36 21.03.2020
6121 Rain 26 1018 61 10000 5.7 40 13:18 21.03.2020
6122 Rain 24 1019 78 10000 2.6 350 12:39 21.03.2020
6123 Clouds 25 1019 69 10000 3.1 10 12:19 21.03.2020
6124 Clouds 27 1019 57 10000 3.1 80 11:57 21.03.2020
6125 Clouds 27 1019 57 10000 3.1 80 11:38 21.03.2020
6126 Clouds 26 1019 65 10000 2.6 110 11:19 21.03.2020
6127 Clouds 26 1020 61 10000 1.5 0 10:57 21.03.2020
6128 Clouds 23 1020 78 10000 1 0 10:38 21.03.2020
6129 Clouds 23 1020 78 10000 1 0 10:20 21.03.2020
6130 Rain 24 1021 73 10000 3.6 0 09:56 21.03.2020
6131 Rain 24 1021 73 10000 3.6 0 09:37 21.03.2020
6132 Clouds 23 1021 83 10000 2.1 80 09:19 21.03.2020
6133 Clouds 23 1021 83 10000 2.1 80 09:19 21.03.2020
6134 Clouds 21 1022 94 10000 3.1 80 08:44 21.03.2020
6135 Clouds 21 1022 94 10000 3.1 80 08:44 21.03.2020
6136 Drizzle 20 1022 94 7000 3.6 70 08:25 21.03.2020
6137 Drizzle 21 1022 88 8000 1.5 360 07:47 21.03.2020
6138 Clouds 21 1022 83 10000 1 0 07:28 21.03.2020
6139 Clouds 21 1022 83 10000 1 0 06:48 21.03.2020
6140 Clouds 20 1022 88 10000 1.5 0 06:28 21.03.2020
6141 Clouds 20 1021 88 10000 2.6 80 05:48 21.03.2020
6142 Clouds 19 1020 93 10000 2.1 170 04:47 21.03.2020
6143 Clouds 19 1019 93 10000 2.1 80 02:55 21.03.2020
6144 Clouds 19 1019 93 10000 1.5 70 02:33 21.03.2020
6145 Clouds 19 1020 93 10000 1 0 01:33 21.03.2020
6146 Clouds 19 1020 93 10000 1 0 00:56 21.03.2020
6147 Clouds 19 1020 93 10000 1 0 00:37 21.03.2020
6148 Drizzle 19 1020 93 8000 2.1 100 23:53 20.03.2020
6149 Drizzle 19 1020 93 8000 1.5 100 23:28 20.03.2020
6150 Clouds 20 1020 88 10000 2.1 90 22:59 20.03.2020
6151 Clouds 20 1020 88 10000 2.1 90 22:59 20.03.2020
6152 Clouds 20 1020 88 10000 2.1 90 22:40 20.03.2020
6153 Clouds 20 1021 88 10000 1 0 22:21 20.03.2020
6154 Clouds 20 1021 88 10000 1.5 130 21:56 20.03.2020
6155 Clouds 20 1021 88 10000 1 0 21:38 20.03.2020
6156 Clouds 20 1021 88 10000 1 0 21:18 20.03.2020
6157 Clouds 20 1021 88 10000 2.6 110 20:56 20.03.2020
6158 Clouds 20 1021 88 10000 3.1 110 20:38 20.03.2020
6159 Clouds 20 1021 88 10000 3.1 110 20:18 20.03.2020
6160 Clouds 20 1021 88 10000 3.6 110 19:44 20.03.2020
6161 Clouds 20 1021 88 10000 4.1 120 19:19 20.03.2020
6162 Clouds 20 1020 88 10000 3.1 140 18:55 20.03.2020
6163 Clouds 20 1020 88 10000 3.1 140 18:37 20.03.2020
6164 Clouds 20 1020 88 10000 3.1 130 18:19 20.03.2020
6165 Clouds 19 1020 93 10000 3.1 80 17:39 20.03.2020
6166 Clouds 20 1019 88 10000 4.1 100 17:21 20.03.2020
6167 Clouds 20 1019 94 10000 4.1 130 16:57 20.03.2020
6168 Clouds 20 1019 94 10000 4.1 130 16:39 20.03.2020
6169 Clouds 20 1019 94 10000 4.1 130 16:39 20.03.2020
6170 Clouds 20 1019 88 10000 3.1 140 16:18 20.03.2020
6171 Clouds 20 1018 88 10000 3.1 150 15:42 20.03.2020
6172 Rain 20 1019 88 10000 2.1 140 15:21 20.03.2020
6173 Rain 21 1018 83 7000 2.6 190 14:54 20.03.2020
6174 Rain 21 1018 83 7000 2.6 190 14:36 20.03.2020
6175 Rain 21 1018 83 10000 2.1 0 14:18 20.03.2020
6176 Rain 22 1018 83 10000 2.6 130 13:40 20.03.2020
6177 Rain 22 1018 78 8000 4.1 60 13:19 20.03.2020
6178 Clouds 25 1018 73 10000 3.6 200 12:39 20.03.2020
6179 Clouds 25 1018 73 10000 3.6 200 12:20 20.03.2020
6180 Clouds 25 1018 73 10000 3.1 200 11:57 20.03.2020
6181 Clouds 25 1018 73 10000 3.1 200 11:38 20.03.2020
6182 Clouds 23 1019 83 10000 2.1 250 11:19 20.03.2020
6183 Rain 21 1019 88 10000 3.1 290 10:41 20.03.2020
6184 Rain 24 1019 69 10000 2.1 210 10:21 20.03.2020
6185 Clouds 24 1020 69 10000 2.6 180 09:56 20.03.2020
6186 Clouds 24 1020 69 10000 2.6 180 09:56 20.03.2020
6187 Clouds 24 1020 69 10000 2.6 180 09:37 20.03.2020
6188 Clouds 25 1020 69 10000 2.6 170 09:18 20.03.2020
6189 Clouds 23 1021 73 10000 2.6 170 08:42 20.03.2020
6190 Clouds 23 1021 73 10000 2.6 160 08:22 20.03.2020
6191 Clouds 22 1021 78 10000 2.6 180 07:48 20.03.2020
6192 Clouds 22 1021 78 10000 2.1 110 07:30 20.03.2020
6193 Clouds 21 1021 83 10000 2.1 130 06:58 20.03.2020
6194 Clouds 21 1021 83 10000 2.1 130 06:40 20.03.2020
6195 Clouds 18 1020 100 10000 2.1 70 04:51 20.03.2020
6196 Clouds 18 1019 93 10000 2.1 60 03:21 20.03.2020
6197 Clouds 19 1018 93 10000 2.1 80 01:57 20.03.2020
6198 Clouds 19 1019 93 10000 1.5 80 00:51 20.03.2020
6199 Clouds 19 1019 93 10000 2.6 80 00:29 20.03.2020
6200 Clouds 19 1019 93 10000 3.1 80 23:47 19.03.2020
6201 Clouds 19 1019 100 10000 2.6 90 23:28 19.03.2020
6202 Clouds 19 1019 100 10000 2.1 70 22:56 19.03.2020
6203 Clouds 19 1019 100 10000 2.1 70 22:38 19.03.2020
6204 Rain 19 1020 93 10000 1.5 90 22:18 19.03.2020
6205 Rain 19 1020 100 10000 1 70 21:42 19.03.2020
6206 Rain 19 1020 93 10000 1.5 60 21:20 19.03.2020
6207 Rain 19 1020 93 10000 2.6 120 20:59 19.03.2020
6208 Rain 19 1020 93 10000 2.6 120 20:41 19.03.2020
6209 Thunderstorm 19 1020 93 10000 1.5 0 20:22 19.03.2020
6210 Thunderstorm 19 1020 93 10000 2.1 0 19:55 19.03.2020
6211 Thunderstorm 19 1020 93 10000 2.1 0 19:37 19.03.2020
6212 Thunderstorm 20 1020 94 10000 4.6 90 19:18 19.03.2020
6213 Thunderstorm 20 1019 88 10000 1.5 0 18:42 19.03.2020
6214 Thunderstorm 20 1019 88 10000 1.5 0 18:22 19.03.2020
6215 Thunderstorm 20 1019 88 10000 2.6 310 17:58 19.03.2020
6216 Thunderstorm 20 1019 88 10000 2.6 310 17:39 19.03.2020
6217 Thunderstorm 21 1018 88 10000 4.1 330 17:19 19.03.2020
6218 Thunderstorm 21 1018 88 10000 3.1 150 16:43 19.03.2020
6219 Rain 23 1017 73 10000 6.2 100 16:23 19.03.2020
6220 Clouds 23 1017 78 10000 1.5 260 15:45 19.03.2020
6221 Clouds 24 1016 69 10000 1.5 190 15:26 19.03.2020
6222 Clouds 25 1016 65 10000 2.6 220 14:55 19.03.2020
6223 Clouds 25 1016 65 10000 2.6 220 14:37 19.03.2020
6224 Clouds 25 1016 61 10000 2.6 210 14:18 19.03.2020
6225 Clouds 26 1016 57 10000 1 0 13:39 19.03.2020
6226 Clouds 27 1016 57 10000 1.5 0 13:19 19.03.2020
6227 Clouds 28 1017 54 10000 2.1 140 12:44 19.03.2020
6228 Clouds 26 1017 61 10000 1.5 0 12:24 19.03.2020
6229 Clouds 27 1017 54 10000 1.5 0 11:59 19.03.2020
6230 Clouds 27 1017 54 10000 1.5 0 11:41 19.03.2020
6231 Clouds 26 1018 61 10000 1 0 11:23 19.03.2020
6232 Clouds 24 1018 64 10000 2.1 20 10:44 19.03.2020
6233 Clouds 24 1019 64 10000 2.1 60 10:22 19.03.2020
6234 Clouds 24 1019 69 10000 1.5 0 09:59 19.03.2020
6235 Clouds 24 1019 69 10000 1.5 0 09:40 19.03.2020
6236 Clouds 25 1019 65 10000 1.5 0 09:22 19.03.2020
6237 Clouds 24 1019 64 10000 3.1 30 08:47 19.03.2020
6238 Clouds 23 1019 69 10000 3.6 10 08:23 19.03.2020
6239 Clouds 22 1019 78 10000 3.1 40 07:49 19.03.2020
6240 Clouds 22 1019 78 10000 1 0 07:31 19.03.2020
6241 Clouds 21 1019 83 10000 0.5 0 06:55 19.03.2020
6242 Clouds 20 1019 88 10000 1 0 06:18 19.03.2020
6243 Clouds 19 1018 88 10000 0.5 0 05:23 19.03.2020
6244 Clouds 17 1018 100 10000 1 40 04:41 19.03.2020
6245 Clouds 17 1018 93 10000 1 0 03:39 19.03.2020
6246 Clouds 18 1017 93 10000 2.1 40 01:45 19.03.2020
6247 Clouds 18 1017 93 10000 1.5 200 00:39 19.03.2020
6248 Clouds 18 1017 93 10000 1.5 210 00:18 19.03.2020
6249 Clouds 17 1017 100 10000 1 0 23:41 18.03.2020
6250 Rain 18 1018 93 10000 1.5 0 23:21 18.03.2020
6251 Rain 18 1018 93 10000 1.5 220 22:42 18.03.2020
6252 Rain 18 1019 93 10000 1.5 210 22:22 18.03.2020
6253 Clouds 18 1019 93 10000 2.6 140 21:55 18.03.2020
6254 Clouds 18 1019 93 10000 2.6 140 21:37 18.03.2020
6255 Clouds 18 1019 93 10000 3.6 150 21:18 18.03.2020
6256 Thunderstorm 18 1019 100 10000 5.7 200 20:54 18.03.2020
6257 Thunderstorm 18 1019 100 10000 5.7 200 20:36 18.03.2020
6258 Thunderstorm 18 1019 100 10000 2.1 290 20:18 18.03.2020
6259 Thunderstorm 19 1019 93 8000 1.5 0 19:40 18.03.2020
6260 Thunderstorm 19 1019 93 8000 1 0 19:21 18.03.2020
6261 Thunderstorm 19 1019 93 10000 1 0 18:56 18.03.2020
6262 Thunderstorm 19 1019 93 10000 1 0 18:38 18.03.2020
6263 Thunderstorm 19 1019 93 3500 2.6 90 18:19 18.03.2020
6264 Thunderstorm 19 1018 93 3500 3.6 60 17:54 18.03.2020
6265 Thunderstorm 19 1018 100 4000 2.1 170 17:36 18.03.2020
6266 Thunderstorm 19 1018 100 4000 2.1 170 17:18 18.03.2020
6267 Thunderstorm 19 1017 100 2500 4.1 220 16:42 18.03.2020
6268 Thunderstorm 21 1017 83 8000 5.7 180 16:20 18.03.2020
6269 Thunderstorm 22 1016 78 4500 1 0 15:56 18.03.2020
6270 Thunderstorm 22 1016 78 4500 1 0 15:37 18.03.2020
6271 Thunderstorm 24 1016 69 10000 2.6 220 15:19 18.03.2020
6272 Thunderstorm 26 1016 61 10000 2.1 300 14:42 18.03.2020
6273 Thunderstorm 24 1016 69 10000 2.6 290 14:21 18.03.2020
6274 Thunderstorm 24 1016 73 10000 3.6 300 13:40 18.03.2020
6275 Thunderstorm 25 1016 73 10000 3.6 320 13:19 18.03.2020
6276 Thunderstorm 22 1015 83 10000 3.6 330 12:44 18.03.2020
6277 Thunderstorm 21 1016 88 10000 4.6 330 12:21 18.03.2020
6278 Thunderstorm 21 1016 88 10000 6.7 360 11:59 18.03.2020
6279 Thunderstorm 21 1016 88 10000 6.7 360 11:37 18.03.2020
6280 Thunderstorm 21 1016 88 10000 6.7 360 11:37 18.03.2020
6281 Thunderstorm 25 1016 65 10000 2.1 260 11:18 18.03.2020
6282 Thunderstorm 27 1017 57 10000 1.5 70 10:56 18.03.2020
6283 Thunderstorm 27 1017 57 10000 1.5 70 10:56 18.03.2020
6284 Clouds 28 1017 58 10000 2.6 0 10:36 18.03.2020
6285 Clouds 28 1017 58 10000 2.6 0 10:18 18.03.2020
6286 Clouds 28 1018 61 10000 1.5 0 09:42 18.03.2020
6287 Clouds 26 1018 61 10000 1 0 09:23 18.03.2020
6288 Clouds 25 1018 69 10000 1 0 08:54 18.03.2020
6289 Clouds 25 1018 69 10000 1 0 08:36 18.03.2020
6290 Clouds 25 1019 73 10000 2.1 200 08:18 18.03.2020
6291 Clouds 24 1019 78 10000 1.5 0 07:39 18.03.2020
6292 Clouds 23 1019 83 10000 2.1 320 07:21 18.03.2020
6293 Clouds 22 1019 83 10000 2.1 250 06:42 18.03.2020
6294 Clouds 20 1018 94 10000 2.1 270 05:43 18.03.2020
6295 Clouds 19 1017 93 10000 2.6 280 04:58 18.03.2020
6296 Clouds 18 1016 100 10000 1.5 330 03:21 18.03.2020
6297 Clouds 18 1016 100 10000 0.19 192 02:37 18.03.2020
6298 Clouds 18 1016 100 10000 0.19 192 02:37 18.03.2020
6299 Clouds 18 1016 100 10000 0.5 0 01:43 18.03.2020
6300 Clouds 19 1016 93 10000 0.5 0 01:19 18.03.2020
6301 Clouds 20 1016 88 10000 1 0 00:21 18.03.2020
6302 Clouds 20 1016 88 10000 1 0 23:42 17.03.2020
6303 Clouds 19 1016 93 10000 2.1 320 23:21 17.03.2020
6304 Clouds 19 1017 93 10000 2.1 290 22:46 17.03.2020
6305 Clouds 20 1017 94 10000 1 360 22:28 17.03.2020
6306 Clouds 20 1017 88 10000 2.01 288 21:46 17.03.2020
6307 Clouds 20 1017 88 10000 2.1 310 21:25 17.03.2020
6308 Clouds 20 1017 88 10000 2.6 300 20:58 17.03.2020
6309 Clouds 20 1017 88 10000 2.6 300 20:38 17.03.2020
6310 Clouds 21 1017 83 10000 3.1 320 20:19 17.03.2020
6311 Clouds 21 1017 83 10000 4.6 310 19:42 17.03.2020
6312 Clouds 21 1017 83 10000 5.7 320 19:21 17.03.2020
6313 Clouds 21 1017 83 10000 4.6 330 18:58 17.03.2020
6314 Clouds 21 1017 83 10000 4.6 330 18:39 17.03.2020
6315 Clouds 22 1017 78 10000 5.1 320 18:21 17.03.2020
6316 Thunderstorm 22 1016 78 10000 3.6 310 17:56 17.03.2020
6317 Thunderstorm 22 1016 78 10000 3.6 310 17:38 17.03.2020
6318 Thunderstorm 23 1016 73 10000 4.1 320 17:18 17.03.2020
6319 Clouds 23 1016 73 10000 4.1 320 16:42 17.03.2020
6320 Clouds 24 1015 69 10000 5.7 330 16:19 17.03.2020
6321 Clouds 24 1015 69 10000 5.7 330 16:19 17.03.2020
6322 Clouds 25 1014 65 10000 4.6 320 15:45 17.03.2020
6323 Rain 27 1014 57 10000 5.1 320 15:23 17.03.2020
6324 Rain 28 1014 51 10000 5.7 320 14:47 17.03.2020
6325 Clouds 28 1014 54 10000 5.1 310 14:26 17.03.2020
6326 Clouds 28 1014 54 10000 4.1 300 13:58 17.03.2020
6327 Clouds 28 1014 54 10000 4.1 300 13:40 17.03.2020
6328 Thunderstorm 29 1014 48 10000 4.1 310 13:21 17.03.2020
6329 Clouds 30 1014 48 10000 3.6 280 12:44 17.03.2020
6330 Clouds 29 1014 45 10000 2.6 320 12:24 17.03.2020
6331 Clouds 29 1014 45 10000 3.1 270 11:55 17.03.2020
6332 Clouds 29 1014 45 10000 3.1 270 11:37 17.03.2020
6333 Clouds 29 1015 51 10000 3.6 270 11:19 17.03.2020
6334 Clouds 26 1015 57 10000 3.6 240 10:54 17.03.2020
6335 Clouds 28 1016 54 10000 3.1 0 10:36 17.03.2020
6336 Clouds 28 1016 54 10000 3.1 0 10:18 17.03.2020
6337 Clouds 26 1016 61 10000 2.1 270 09:41 17.03.2020
6338 Clouds 26 1016 61 10000 3.1 300 09:20 17.03.2020
6339 Clouds 26 1016 61 10000 3.1 300 09:20 17.03.2020
6340 Clouds 26 1016 61 10000 2.1 320 08:50 17.03.2020
6341 Clouds 25 1017 65 10000 1.5 310 08:23 17.03.2020
6342 Clouds 24 1017 69 10000 1.5 0 07:57 17.03.2020
6343 Clouds 24 1017 69 10000 1.5 0 07:38 17.03.2020
6344 Clouds 24 1017 73 10000 1.5 0 07:19 17.03.2020
6345 Clouds 23 1017 78 10000 0.5 0 06:39 17.03.2020
6346 Clouds 20 1016 88 10000 1 0 05:58 17.03.2020
6347 Clouds 17 1015 100 10000 2.1 320 03:58 17.03.2020
6348 Clouds 18 1015 93 10000 2.6 320 02:56 17.03.2020
6349 Clouds 18 1015 100 10000 1.5 330 01:49 17.03.2020
6350 Clouds 18 1015 100 10000 1.5 320 01:25 17.03.2020
6351 Clouds 18 1015 93 10000 2.1 280 00:47 17.03.2020
6352 Clouds 18 1015 100 10000 0.55 108 23:50 16.03.2020
6353 Clouds 19 1015 93 10000 0.5 0 23:32 16.03.2020
6354 Clouds 19 1016 93 10000 0.5 0 22:42 16.03.2020
6355 Clouds 19 1016 93 10000 0.5 0 22:24 16.03.2020
6356 Clouds 19 1016 93 10000 1 0 21:58 16.03.2020
6357 Clouds 19 1016 93 10000 1 0 21:40 16.03.2020
6358 Clouds 20 1016 88 10000 2.6 60 21:22 16.03.2020
6359 Clouds 20 1016 88 10000 1.5 40 20:56 16.03.2020
6360 Clouds 20 1016 88 10000 1.5 40 20:37 16.03.2020
6361 Clouds 20 1017 88 10000 1.5 360 20:19 16.03.2020
6362 Clouds 21 1017 83 10000 1.5 30 19:41 16.03.2020
6363 Clouds 21 1016 83 10000 1 0 19:20 16.03.2020
6364 Clouds 21 1016 77 10000 3.1 50 18:43 16.03.2020
6365 Clouds 22 1015 73 10000 4.1 90 18:22 16.03.2020
6366 Rain 22 1015 73 10000 3.6 80 17:56 16.03.2020
6367 Rain 22 1015 73 10000 3.6 80 17:37 16.03.2020
6368 Rain 22 1015 73 10000 3.1 90 17:18 16.03.2020
6369 Rain 22 1014 73 10000 5.1 110 16:45 16.03.2020
6370 Clouds 23 1014 64 10000 4.6 130 16:27 16.03.2020
6371 Clouds 22 1013 83 10000 3.6 190 15:46 16.03.2020
6372 Rain 24 1013 69 10000 3.1 220 15:28 16.03.2020
6373 Rain 27 1013 51 10000 2.1 140 14:49 16.03.2020
6374 Rain 27 1012 54 10000 3.1 140 14:28 16.03.2020
6375 Clouds 28 1012 51 10000 3.1 110 13:59 16.03.2020
6376 Clouds 28 1012 51 10000 3.1 110 13:41 16.03.2020
6377 Clouds 28 1012 51 10000 2.1 0 13:22 16.03.2020
6378 Clouds 28 1012 48 10000 1.5 0 12:45 16.03.2020
6379 Clouds 28 1013 48 10000 2.1 0 12:24 16.03.2020
6380 Clouds 27 1013 51 10000 2.6 100 11:47 16.03.2020
6381 Clouds 27 1013 51 10000 2.1 0 11:28 16.03.2020
6382 Clouds 27 1014 51 10000 3.1 160 10:56 16.03.2020
6383 Clouds 27 1014 51 10000 3.1 160 10:37 16.03.2020
6384 Clouds 26 1014 50 10000 3.1 150 10:18 16.03.2020
6385 Clouds 26 1015 54 10000 1.5 0 09:42 16.03.2020
6386 Clouds 25 1015 57 10000 2.1 120 09:21 16.03.2020
6387 Clouds 24 1015 53 10000 3.1 130 08:52 16.03.2020
6388 Clouds 24 1016 53 10000 3.1 150 08:25 16.03.2020
6389 Clouds 23 1016 56 10000 3.6 140 07:48 16.03.2020
6390 Clouds 22 1016 56 10000 4.1 160 07:25 16.03.2020
6391 Clouds 21 1016 68 10000 2.6 170 06:52 16.03.2020
6392 Clouds 21 1016 73 10000 1.5 0 06:24 16.03.2020
6393 Clouds 15 1015 100 10000 1.87 149 04:54 16.03.2020
6394 Clouds 16 1014 93 10000 2.1 100 02:41 16.03.2020
6395 Clouds 17 1014 88 10000 2.1 170 00:52 16.03.2020
6396 Clouds 17 1014 88 10000 2.1 170 00:32 16.03.2020
6397 Clouds 17 1015 88 10000 2.1 180 23:46 15.03.2020
6398 Clouds 18 1015 88 10000 2.6 150 23:20 15.03.2020
6399 Clouds 18 1015 88 10000 1.5 130 22:42 15.03.2020
6400 Clouds 18 1015 88 10000 1.5 150 22:22 15.03.2020
6401 Clouds 18 1016 88 10000 2.1 90 21:56 15.03.2020
6402 Clouds 18 1016 88 10000 2.1 90 21:37 15.03.2020
6403 Clouds 18 1016 88 10000 2.6 140 21:18 15.03.2020
6404 Clouds 18 1016 88 10000 2.6 140 20:42 15.03.2020
6405 Clouds 18 1016 88 10000 3.1 120 20:20 15.03.2020
6406 Clouds 18 1016 93 10000 4.1 140 19:56 15.03.2020
6407 Clouds 18 1016 93 10000 4.1 140 19:38 15.03.2020
6408 Clouds 18 1016 93 10000 3.6 110 19:19 15.03.2020
6409 Clouds 19 1016 88 10000 5.1 110 18:55 15.03.2020
6410 Clouds 19 1016 88 10000 5.1 110 18:36 15.03.2020
6411 Clouds 19 1016 93 10000 4.1 140 18:18 15.03.2020
6412 Thunderstorm 19 1015 93 7000 1.5 0 17:40 15.03.2020
6413 -273 0 0 0 0 0 17:21 15.03.2020
6414 Clouds 21 1015 83 10000 3.6 140 16:56 15.03.2020
6415 Clouds 21 1015 83 10000 3.6 140 16:38 15.03.2020
6416 Clouds 21 1015 88 10000 4.6 110 16:19 15.03.2020
6417 Clouds 21 1014 88 10000 3.1 130 15:43 15.03.2020
6418 Clouds 21 1014 88 10000 3.1 130 15:43 15.03.2020
6419 Thunderstorm 20 1014 94 10000 1 0 15:25 15.03.2020
6420 Thunderstorm 20 1014 88 8000 2.6 230 14:55 15.03.2020
6421 Thunderstorm 20 1014 88 8000 2.6 230 14:37 15.03.2020
6422 Thunderstorm 20 1014 88 8000 4.6 270 14:18 15.03.2020
6423 Clouds 25 1013 65 10000 4.6 110 13:42 15.03.2020
6424 Clouds 25 1013 65 10000 3.1 160 13:23 15.03.2020
6425 Clouds 27 1013 61 10000 3.6 150 12:59 15.03.2020
6426 Clouds 27 1013 61 10000 3.6 150 12:39 15.03.2020
6427 Clouds 27 1014 61 10000 3.1 120 12:21 15.03.2020
6428 Clouds 26 1014 65 10000 3.6 90 11:43 15.03.2020
6429 Clouds 26 1014 65 10000 3.6 120 11:24 15.03.2020
6430 Clouds 26 1015 65 10000 4.1 100 10:57 15.03.2020
6431 Clouds 26 1015 65 10000 4.1 100 10:39 15.03.2020
6432 Clouds 25 1016 69 10000 4.6 100 10:20 15.03.2020
6433 Clouds 24 1016 69 10000 3.1 120 09:42 15.03.2020
6434 Clouds 24 1016 69 10000 3.1 120 09:22 15.03.2020
6435 Clouds 24 1016 69 10000 2.1 120 08:58 15.03.2020
6436 Clouds 24 1016 69 10000 2.1 120 08:39 15.03.2020
6437 Clouds 24 1016 69 10000 2.1 120 08:18 15.03.2020
6438 Clouds 22 1017 78 10000 2.1 140 07:44 15.03.2020
6439 Clouds 20 1017 82 10000 4.1 170 06:55 15.03.2020
6440 Clouds 20 1017 82 10000 4.1 200 06:34 15.03.2020
6441 Clouds 19 1016 88 10000 2.1 210 05:43 15.03.2020
6442 Clouds 18 1016 88 10000 1 0 04:47 15.03.2020
6443 Clouds 18 1016 88 10000 2.6 150 04:28 15.03.2020
6444 Clouds 18 1016 88 10000 4.1 170 03:54 15.03.2020
6445 Clouds 18 1015 88 10000 3.6 180 02:47 15.03.2020
6446 Clouds 18 1015 88 10000 3.1 190 01:40 15.03.2020
6447 Clouds 18 1016 88 10000 3.1 180 00:47 15.03.2020
6448 Clouds 18 1017 93 10000 3.1 150 00:27 15.03.2020
6449 Clouds 19 1017 88 10000 2.1 160 23:56 14.03.2020
6450 Clouds 19 1017 88 10000 2.1 160 23:37 14.03.2020
6451 Clouds 19 1017 88 10000 2.1 140 23:18 14.03.2020
6452 Clouds 19 1017 88 10000 2.1 130 22:44 14.03.2020
6453 Clouds 19 1017 88 10000 2.1 130 22:26 14.03.2020
6454 Clouds 19 1018 88 10000 3.1 140 21:56 14.03.2020
6455 Clouds 19 1018 88 10000 3.1 140 21:36 14.03.2020
6456 Clouds 19 1018 82 10000 3.1 140 21:18 14.03.2020
6457 Clouds 19 1018 88 10000 3.1 120 20:58 14.03.2020
6458 Clouds 19 1018 88 10000 3.1 120 20:40 14.03.2020
6459 Clouds 19 1018 82 10000 2.6 130 20:19 14.03.2020
6460 Clouds 19 1018 82 10000 2.1 130 19:43 14.03.2020
6461 Clouds 19 1018 82 10000 2.6 130 19:25 14.03.2020
6462 Clouds 20 1018 82 10000 2.6 150 18:42 14.03.2020
6463 Clouds 21 1018 73 10000 3.6 160 18:24 14.03.2020
6464 Clouds 20 1017 82 10000 3.1 190 17:58 14.03.2020
6465 Clouds 20 1017 82 10000 3.1 190 17:38 14.03.2020
6466 Clouds 20 1017 82 10000 3.6 200 17:20 14.03.2020
6467 Clouds 20 1017 82 10000 3.6 200 17:20 14.03.2020
6468 Clouds 20 1017 82 10000 4.1 200 16:41 14.03.2020
6469 Clouds 21 1017 77 10000 5.1 200 16:23 14.03.2020
6470 Clouds 21 1016 77 10000 5.1 200 15:58 14.03.2020
6471 Clouds 22 1016 73 10000 4.6 180 15:27 14.03.2020
6472 Rain 22 1016 78 10000 7.2 180 14:58 14.03.2020
6473 Rain 22 1016 78 10000 7.2 180 14:36 14.03.2020
6474 Clouds 22 1016 78 10000 7.2 130 14:18 14.03.2020
6475 Rain 23 1016 73 10000 9.3 120 13:42 14.03.2020
6476 Rain 24 1016 73 10000 6.7 120 13:23 14.03.2020
6477 Clouds 24 1016 73 10000 4.1 190 12:47 14.03.2020
6478 Clouds 24 1016 73 10000 3.6 190 12:27 14.03.2020
6479 Clouds 24 1017 73 10000 3.1 110 11:59 14.03.2020
6480 Clouds 24 1017 73 10000 3.1 110 11:39 14.03.2020
6481 Rain 23 1017 78 10000 3.6 110 11:20 14.03.2020
6482 Rain 25 1017 65 10000 3.6 140 10:46 14.03.2020
6483 Clouds 25 1018 61 10000 5.1 160 10:27 14.03.2020
6484 Clouds 25 1018 61 10000 6.2 170 09:58 14.03.2020
6485 Clouds 25 1018 61 10000 6.2 170 09:39 14.03.2020
6486 Clouds 24 1018 64 10000 5.7 170 09:19 14.03.2020
6487 Clouds 25 1018 61 10000 5.1 180 08:45 14.03.2020
6488 Clouds 24 1019 60 10000 4.6 160 08:22 14.03.2020
6489 Clouds 24 1019 57 10000 5.7 170 07:39 14.03.2020
6490 Clouds 23 1019 56 10000 5.7 180 07:20 14.03.2020
6491 Clouds 21 1018 68 10000 4.1 180 06:41 14.03.2020
6492 Clouds 19 1018 77 10000 4.6 190 05:49 14.03.2020
6493 Clouds 17 1018 88 10000 4.1 180 04:43 14.03.2020
6494 Clouds 17 1017 77 10000 4.1 180 03:24 14.03.2020
6495 Clouds 17 1017 72 10000 2.1 160 02:28 14.03.2020
6496 Clouds 17 1017 72 10000 2.6 160 01:20 14.03.2020
6497 Clouds 18 1018 68 10000 4.6 160 23:56 13.03.2020
6498 Clouds 18 1018 77 10000 3.6 170 23:31 13.03.2020
6499 Thunderstorm 18 1019 77 10000 4.1 180 22:52 13.03.2020
6500 Thunderstorm 18 1019 82 10000 3.1 170 22:27 13.03.2020
6501 Thunderstorm 19 1019 77 10000 3.6 0 21:45 13.03.2020
6502 Thunderstorm 19 1019 77 10000 3.6 140 21:22 13.03.2020
6503 Thunderstorm 19 1020 77 10000 4.6 150 20:59 13.03.2020
6504 Thunderstorm 19 1020 77 10000 4.6 150 20:41 13.03.2020
6505 Thunderstorm 19 1020 82 10000 2.6 140 20:21 13.03.2020
6506 Clouds 19 1020 82 10000 3.6 140 19:49 13.03.2020
6507 Clouds 19 1020 82 10000 3.6 130 19:30 13.03.2020
6508 Clouds 20 1019 77 10000 4.1 140 18:51 13.03.2020
6509 Clouds 20 1019 77 10000 4.1 140 18:32 13.03.2020
6510 Clouds 21 1018 73 10000 3.6 140 17:59 13.03.2020
6511 Clouds 21 1018 73 10000 3.6 140 17:41 13.03.2020
6512 Clouds 22 1018 64 10000 4.6 140 17:20 13.03.2020
6513 Clouds 22 1017 64 10000 4.6 140 16:42 13.03.2020
6514 Clouds 23 1017 60 10000 5.1 140 16:24 13.03.2020
6515 Clouds 24 1016 53 10000 5.7 160 15:59 13.03.2020
6516 Clouds 24 1016 53 10000 5.7 160 15:39 13.03.2020
6517 Clouds 25 1016 47 10000 5.7 160 15:20 13.03.2020
6518 Clouds 25 1016 50 10000 5.7 180 14:44 13.03.2020
6519 Clouds 26 1016 50 10000 5.7 170 14:23 13.03.2020
6520 Clouds 26 1016 50 10000 6.2 170 13:58 13.03.2020
6521 Clouds 26 1016 50 10000 6.2 170 13:39 13.03.2020
6522 Clouds 27 1016 47 10000 5.1 150 13:20 13.03.2020
6523 Clouds 26 1016 47 10000 5.7 160 12:55 13.03.2020
6524 Clouds 26 1017 50 10000 6.2 160 12:36 13.03.2020
6525 Clouds 26 1017 50 10000 6.2 160 12:18 13.03.2020
6526 Clouds 26 1017 50 10000 6.7 170 11:42 13.03.2020
6527 Clouds 25 1018 53 10000 6.2 160 11:24 13.03.2020
6528 Clouds 25 1018 57 10000 6.7 170 10:57 13.03.2020
6529 Clouds 25 1018 57 10000 6.7 170 10:38 13.03.2020
6530 Clouds 25 1018 61 10000 6.2 150 10:20 13.03.2020
6531 Clouds 25 1019 61 10000 6.2 150 09:43 13.03.2020
6532 Clouds 24 1019 64 10000 7.2 150 09:24 13.03.2020
6533 Clouds 23 1019 64 10000 6.2 160 08:47 13.03.2020
6534 Clouds 22 1019 68 10000 6.2 160 08:23 13.03.2020
6535 Clouds 21 1019 73 10000 5.7 170 07:58 13.03.2020
6536 Clouds 21 1019 73 10000 5.7 170 07:38 13.03.2020
6537 Clouds 21 1019 73 0 6.2 170 07:18 13.03.2020
6538 Clouds 20 1019 72 10000 5.7 180 06:43 13.03.2020
6539 Clouds 19 1019 72 10000 3.6 170 05:56 13.03.2020
6540 Clouds 19 1019 72 10000 3.6 170 05:37 13.03.2020
6541 Clouds 16 1018 82 10000 2.6 110 04:38 13.03.2020
6542 Clouds 16 1018 87 10000 2.1 140 03:43 13.03.2020
6543 Clouds 16 1017 87 10000 4.6 170 01:47 13.03.2020
6544 Clouds 16 1017 87 10000 5.1 180 01:19 13.03.2020
6545 Clouds 16 1018 87 10000 4.6 190 00:54 13.03.2020
6546 Clouds 17 1018 82 10000 4.1 170 00:27 13.03.2020
6547 Clouds 17 1018 82 10000 4.6 180 23:55 12.03.2020
6548 Clouds 18 1018 77 10000 4.6 170 23:28 12.03.2020
6549 Clouds 18 1019 77 10000 3.6 160 22:57 12.03.2020
6550 Clouds 18 1019 77 10000 3.6 160 22:39 12.03.2020
6551 Clouds 18 1019 82 10000 4.1 170 22:21 12.03.2020
6552 Clouds 18 1019 82 10000 4.1 150 21:45 12.03.2020
6553 Clouds 19 1019 82 10000 4.6 140 21:27 12.03.2020
6554 Clouds 19 1019 82 10000 4.1 150 20:57 12.03.2020
6555 Clouds 19 1019 82 10000 4.1 150 20:38 12.03.2020
6556 Clouds 19 1019 82 10000 4.1 170 20:19 12.03.2020
6557 Clouds 19 1019 82 10000 4.6 150 19:40 12.03.2020
6558 Clouds 20 1019 77 10000 4.1 150 19:20 12.03.2020
6559 Clouds 20 1019 77 10000 4.1 140 18:44 12.03.2020
6560 Clouds 21 1019 73 10000 5.1 130 18:24 12.03.2020
6561 Clouds 21 1019 77 10000 5.1 140 17:57 12.03.2020
6562 Clouds 21 1019 77 10000 5.1 140 17:38 12.03.2020
6563 Clouds 22 1018 68 10000 3.6 140 17:19 12.03.2020
6564 Clouds 22 1018 68 10000 4.1 140 16:55 12.03.2020
6565 Clouds 22 1018 68 10000 4.1 140 16:37 12.03.2020
6566 Clouds 23 1017 60 10000 6.2 130 16:18 12.03.2020
6567 Clouds 25 1017 53 10000 5.1 140 15:44 12.03.2020
6568 Clouds 26 1016 47 10000 5.7 150 15:26 12.03.2020
6569 Clouds 26 1017 47 10000 5.7 150 14:40 12.03.2020
6570 Clouds 26 1016 47 10000 6.2 160 14:21 12.03.2020
6571 Clouds 26 1016 47 10000 6.2 160 14:21 12.03.2020
6572 Clouds 26 1016 54 10000 5.7 160 13:42 12.03.2020
6573 Clouds 27 1017 47 10000 5.7 150 13:23 12.03.2020
6574 Clouds 27 1017 54 10000 5.7 150 12:56 12.03.2020
6575 Clouds 27 1017 54 10000 5.7 150 12:38 12.03.2020
6576 Clouds 27 1017 47 10000 5.1 150 12:20 12.03.2020
6577 Clouds 27 1017 51 10000 5.7 150 11:56 12.03.2020
6578 Clouds 27 1017 51 10000 5.7 150 11:37 12.03.2020
6579 Clouds 27 1018 51 10000 6.7 140 11:19 12.03.2020
6580 Clouds 27 1018 54 10000 6.2 140 10:58 12.03.2020
6581 Clouds 27 1018 54 10000 6.2 140 10:40 12.03.2020
6582 Clouds 26 1018 57 10000 6.2 130 10:22 12.03.2020
6583 Clouds 27 1018 54 10000 5.7 160 09:45 12.03.2020
6584 Clouds 26 1018 57 10000 5.7 160 09:25 12.03.2020
6585 Clouds 25 1019 61 10000 6.2 130 08:43 12.03.2020
6586 Clouds 24 1019 60 10000 6.2 150 08:20 12.03.2020
6587 Clouds 22 1019 68 10000 5.7 170 07:53 12.03.2020
6588 Clouds 24 1019 64 10000 5.7 140 07:24 12.03.2020
6589 Clouds 23 1019 69 10000 5.7 150 06:59 12.03.2020
6590 Clouds 20 1018 77 10000 3.6 160 05:43 12.03.2020
6591 Clouds 19 1018 82 10000 3.6 170 05:25 12.03.2020
6592 Clouds 19 1017 88 10000 3.6 180 02:41 12.03.2020
6593 Clouds 20 1017 77 10000 4.1 170 01:31 12.03.2020
6594 Clouds 20 1017 77 10000 4.1 170 00:45 12.03.2020
6595 Clouds 20 1017 77 10000 4.1 170 00:26 12.03.2020
6596 Clouds 20 1017 77 10000 4.6 170 23:47 11.03.2020
6597 Clouds 20 1018 77 10000 5.1 170 23:24 11.03.2020
6598 Clouds 20 1018 77 10000 3.6 180 22:48 11.03.2020
6599 Clouds 19 1018 82 10000 4.1 160 22:30 11.03.2020
6600 Clouds 19 1018 82 10000 3.6 170 21:59 11.03.2020
6601 Clouds 19 1018 82 10000 3.6 170 21:59 11.03.2020
6602 Clouds 19 1018 82 10000 3.6 170 21:41 11.03.2020
6603 Clouds 20 1018 82 10000 3.6 150 21:22 11.03.2020
6604 Clouds 20 1019 82 10000 3.6 150 20:58 11.03.2020
6605 Clouds 20 1019 82 10000 3.6 150 20:39 11.03.2020
6606 Clouds 20 1018 82 10000 4.6 150 20:19 11.03.2020
6607 Clouds 20 1018 82 10000 4.6 150 19:44 11.03.2020
6608 Clouds 20 1018 77 10000 4.6 130 19:25 11.03.2020
6609 Clouds 20 1019 82 10000 5.1 150 18:59 11.03.2020
6610 Clouds 20 1019 82 10000 5.1 150 18:40 11.03.2020
6611 Clouds 20 1019 82 10000 5.1 150 18:40 11.03.2020
6612 Clouds 20 1018 77 10000 4.6 160 18:21 11.03.2020
6613 Thunderstorm 21 1018 77 10000 6.2 160 17:57 11.03.2020
6614 Thunderstorm 21 1018 77 10000 6.2 160 17:39 11.03.2020
6615 Clouds 21 1018 77 10000 4.6 150 17:20 11.03.2020
6616 Clouds 22 1017 73 10000 5.1 140 16:46 11.03.2020
6617 Clouds 23 1017 64 10000 5.7 170 16:23 11.03.2020
6618 Clouds 24 1016 60 10000 6.2 150 15:46 11.03.2020
6619 Clouds 24 1016 60 10000 6.2 150 15:24 11.03.2020
6620 Clouds 26 1016 57 10000 5.7 150 14:58 11.03.2020
6621 Clouds 26 1016 57 10000 5.7 150 14:40 11.03.2020
6622 Clouds 27 1016 54 10000 5.1 170 14:21 11.03.2020
6623 Clouds 26 1016 54 10000 6.2 150 13:44 11.03.2020
6624 Clouds 25 1016 57 10000 8.2 140 13:26 11.03.2020
6625 Clouds 27 1016 57 10000 5.7 180 12:58 11.03.2020
6626 Clouds 27 1016 57 10000 5.7 180 12:39 11.03.2020
6627 Clouds 27 1017 57 10000 5.1 150 12:19 11.03.2020
6628 Clouds 26 1017 61 10000 6.2 160 11:42 11.03.2020
6629 Clouds 27 1017 54 10000 6.2 150 11:24 11.03.2020
6630 Clouds 26 1017 57 10000 6.2 140 10:57 11.03.2020
6631 Clouds 26 1017 57 10000 6.2 140 10:39 11.03.2020
6632 Clouds 26 1018 61 10000 6.7 130 10:18 11.03.2020
6633 Clouds 25 1018 65 10000 5.7 150 09:42 11.03.2020
6634 Clouds 25 1018 65 10000 6.2 140 09:24 11.03.2020
6635 Clouds 25 1018 69 10000 6.2 150 08:45 11.03.2020
6636 Clouds 23 1018 73 10000 5.1 150 08:27 11.03.2020
6637 Clouds 24 1018 69 10000 5.1 150 07:56 11.03.2020
6638 Clouds 24 1018 69 10000 5.1 150 07:37 11.03.2020
6639 Clouds 22 1018 73 10000 4.6 150 07:18 11.03.2020
6640 Clouds 22 1018 73 10000 4.6 160 06:37 11.03.2020
6641 Clouds 20 1017 88 10000 2.6 160 05:33 11.03.2020
6642 Clouds 18 1017 93 10000 2.1 140 03:39 11.03.2020
6643 Clouds 19 1017 88 10000 3.1 140 01:57 11.03.2020
6644 Clouds 19 1017 88 10000 2.1 160 01:25 11.03.2020
6645 Clouds 19 1017 93 10000 2.1 140 00:45 11.03.2020
6646 Clouds 20 1018 82 10000 4.1 170 23:51 10.03.2020
6647 Clouds 20 1018 82 10000 3.1 180 23:29 10.03.2020
6648 Clouds 20 1018 82